<?xml version="1.0" encoding="UTF-8" standalone="no" ?>
<gpx xmlns="http://www.topografix.com/GPX/1/1" xmlns:xsi="http://www.w3.org/2001/XMLSchema-instance" xsi:schemaLocation="http://www.topografix.com/GPX/1/1 http://www.topografix.com/GPX/1/1/gpx.xsd" version="1.1" creator="VisuGPX - https://www.visugpx.com">
  <metadata>
    <name>tour de l ormont 2009</name>
    <desc><![CDATA[parcours un peu trop roulant..belle base a modifier...la prochaine fois laurent tu geres le parcours]]></desc>
  </metadata>
  <trk>
    <name><![CDATA[27/09/09 08:52:26]]></name>
    <desc><![CDATA[45,84 km 04:01:20 ex stop 0,3 11,4 48,9 km/h battery 71% 7h14m left]]></desc>
    <trkseg>
      <trkpt lat="48.28075" lon="6.96702">
        <ele>346</ele>
        <time>2009-09-27T08:52:26Z</time>
      </trkpt>
      <trkpt lat="48.28075" lon="6.96702">
        <ele>346</ele>
        <time>2009-09-27T08:52:30Z</time>
      </trkpt>
      <trkpt lat="48.28074" lon="6.96702">
        <ele>346</ele>
        <time>2009-09-27T08:52:34Z</time>
      </trkpt>
      <trkpt lat="48.28054" lon="6.9671">
        <ele>346</ele>
        <time>2009-09-27T08:52:39Z</time>
      </trkpt>
      <trkpt lat="48.28065" lon="6.96705">
        <ele>346</ele>
        <time>2009-09-27T08:52:44Z</time>
      </trkpt>
      <trkpt lat="48.28067" lon="6.96704">
        <ele>346</ele>
        <time>2009-09-27T08:52:48Z</time>
      </trkpt>
      <trkpt lat="48.28069" lon="6.96704">
        <ele>346</ele>
        <time>2009-09-27T08:52:52Z</time>
      </trkpt>
      <trkpt lat="48.28079" lon="6.96701">
        <ele>346</ele>
        <time>2009-09-27T08:52:56Z</time>
      </trkpt>
      <trkpt lat="48.28083" lon="6.96701">
        <ele>346</ele>
        <time>2009-09-27T08:53:16Z</time>
      </trkpt>
      <trkpt lat="48.28066" lon="6.96697">
        <ele>346</ele>
        <time>2009-09-27T08:53:20Z</time>
      </trkpt>
      <trkpt lat="48.28083" lon="6.96698">
        <ele>346</ele>
        <time>2009-09-27T08:53:24Z</time>
      </trkpt>
      <trkpt lat="48.2809" lon="6.96695">
        <ele>346</ele>
        <time>2009-09-27T08:53:28Z</time>
      </trkpt>
      <trkpt lat="48.28086" lon="6.96698">
        <ele>346</ele>
        <time>2009-09-27T08:53:32Z</time>
      </trkpt>
      <trkpt lat="48.28074" lon="6.96693">
        <ele>346</ele>
        <time>2009-09-27T08:53:37Z</time>
      </trkpt>
      <trkpt lat="48.28085" lon="6.96698">
        <ele>346</ele>
        <time>2009-09-27T08:53:41Z</time>
      </trkpt>
      <trkpt lat="48.28089" lon="6.96699">
        <ele>346</ele>
        <time>2009-09-27T08:53:45Z</time>
      </trkpt>
      <trkpt lat="48.28089" lon="6.96698">
        <ele>346</ele>
        <time>2009-09-27T08:53:49Z</time>
      </trkpt>
      <trkpt lat="48.28085" lon="6.96698">
        <ele>346</ele>
        <time>2009-09-27T08:53:53Z</time>
      </trkpt>
      <trkpt lat="48.28239" lon="6.96622">
        <ele>345</ele>
        <time>2009-09-27T08:53:58Z</time>
      </trkpt>
      <trkpt lat="48.28228" lon="6.96629">
        <ele>346</ele>
        <time>2009-09-27T08:54:02Z</time>
      </trkpt>
      <trkpt lat="48.28232" lon="6.96623">
        <ele>345</ele>
        <time>2009-09-27T08:54:06Z</time>
      </trkpt>
      <trkpt lat="48.28246" lon="6.96621">
        <ele>345</ele>
        <time>2009-09-27T08:54:10Z</time>
      </trkpt>
      <trkpt lat="48.28245" lon="6.96628">
        <ele>345</ele>
        <time>2009-09-27T08:54:14Z</time>
      </trkpt>
      <trkpt lat="48.28234" lon="6.96642">
        <ele>345</ele>
        <time>2009-09-27T08:54:18Z</time>
      </trkpt>
      <trkpt lat="48.28238" lon="6.96653">
        <ele>345</ele>
        <time>2009-09-27T08:54:22Z</time>
      </trkpt>
      <trkpt lat="48.28227" lon="6.96681">
        <ele>346</ele>
        <time>2009-09-27T08:54:27Z</time>
      </trkpt>
      <trkpt lat="48.28218" lon="6.96698">
        <ele>346</ele>
        <time>2009-09-27T08:54:31Z</time>
      </trkpt>
      <trkpt lat="48.28222" lon="6.96707">
        <ele>346</ele>
        <time>2009-09-27T08:54:35Z</time>
      </trkpt>
      <trkpt lat="48.28225" lon="6.96719">
        <ele>346</ele>
        <time>2009-09-27T08:54:39Z</time>
      </trkpt>
      <trkpt lat="48.28222" lon="6.96734">
        <ele>346</ele>
        <time>2009-09-27T08:54:43Z</time>
      </trkpt>
      <trkpt lat="48.28223" lon="6.96746">
        <ele>346</ele>
        <time>2009-09-27T08:54:47Z</time>
      </trkpt>
      <trkpt lat="48.28228" lon="6.96753">
        <ele>346</ele>
        <time>2009-09-27T08:54:51Z</time>
      </trkpt>
      <trkpt lat="48.28227" lon="6.96765">
        <ele>346</ele>
        <time>2009-09-27T08:54:56Z</time>
      </trkpt>
      <trkpt lat="48.28219" lon="6.96765">
        <ele>346</ele>
        <time>2009-09-27T08:55:00Z</time>
      </trkpt>
      <trkpt lat="48.28214" lon="6.96775">
        <ele>346</ele>
        <time>2009-09-27T08:55:04Z</time>
      </trkpt>
      <trkpt lat="48.28219" lon="6.9679">
        <ele>346</ele>
        <time>2009-09-27T08:55:08Z</time>
      </trkpt>
      <trkpt lat="48.28225" lon="6.96806">
        <ele>346</ele>
        <time>2009-09-27T08:55:12Z</time>
      </trkpt>
      <trkpt lat="48.28232" lon="6.96823">
        <ele>346</ele>
        <time>2009-09-27T08:55:16Z</time>
      </trkpt>
      <trkpt lat="48.2824" lon="6.96841">
        <ele>346</ele>
        <time>2009-09-27T08:55:20Z</time>
      </trkpt>
      <trkpt lat="48.28249" lon="6.96864">
        <ele>346</ele>
        <time>2009-09-27T08:55:24Z</time>
      </trkpt>
      <trkpt lat="48.28256" lon="6.96879">
        <ele>346</ele>
        <time>2009-09-27T08:55:28Z</time>
      </trkpt>
      <trkpt lat="48.28262" lon="6.96892">
        <ele>346</ele>
        <time>2009-09-27T08:55:32Z</time>
      </trkpt>
      <trkpt lat="48.28268" lon="6.96904">
        <ele>346</ele>
        <time>2009-09-27T08:55:36Z</time>
      </trkpt>
      <trkpt lat="48.28272" lon="6.96916">
        <ele>346</ele>
        <time>2009-09-27T08:55:40Z</time>
      </trkpt>
      <trkpt lat="48.28274" lon="6.96924">
        <ele>345</ele>
        <time>2009-09-27T08:55:44Z</time>
      </trkpt>
      <trkpt lat="48.28276" lon="6.96932">
        <ele>344</ele>
        <time>2009-09-27T08:55:48Z</time>
      </trkpt>
      <trkpt lat="48.28276" lon="6.96932">
        <ele>344</ele>
        <time>2009-09-27T08:55:52Z</time>
      </trkpt>
      <trkpt lat="48.28276" lon="6.96932">
        <ele>344</ele>
        <time>2009-09-27T08:55:57Z</time>
      </trkpt>
      <trkpt lat="48.28277" lon="6.96932">
        <ele>344</ele>
        <time>2009-09-27T08:56:01Z</time>
      </trkpt>
      <trkpt lat="48.28277" lon="6.96932">
        <ele>344</ele>
        <time>2009-09-27T08:56:05Z</time>
      </trkpt>
      <trkpt lat="48.28278" lon="6.96932">
        <ele>344</ele>
        <time>2009-09-27T08:56:09Z</time>
      </trkpt>
      <trkpt lat="48.28279" lon="6.96931">
        <ele>344</ele>
        <time>2009-09-27T08:56:13Z</time>
      </trkpt>
      <trkpt lat="48.28278" lon="6.9693">
        <ele>344</ele>
        <time>2009-09-27T08:56:17Z</time>
      </trkpt>
      <trkpt lat="48.28278" lon="6.96932">
        <ele>344</ele>
        <time>2009-09-27T08:56:21Z</time>
      </trkpt>
      <trkpt lat="48.28279" lon="6.96931">
        <ele>344</ele>
        <time>2009-09-27T08:56:25Z</time>
      </trkpt>
      <trkpt lat="48.2828" lon="6.9693">
        <ele>344</ele>
        <time>2009-09-27T08:56:29Z</time>
      </trkpt>
      <trkpt lat="48.2828" lon="6.9693">
        <ele>344</ele>
        <time>2009-09-27T08:56:33Z</time>
      </trkpt>
      <trkpt lat="48.28281" lon="6.96929">
        <ele>344</ele>
        <time>2009-09-27T08:56:37Z</time>
      </trkpt>
      <trkpt lat="48.28281" lon="6.96929">
        <ele>344</ele>
        <time>2009-09-27T08:56:41Z</time>
      </trkpt>
      <trkpt lat="48.28282" lon="6.9693">
        <ele>344</ele>
        <time>2009-09-27T08:56:46Z</time>
      </trkpt>
      <trkpt lat="48.28282" lon="6.96929">
        <ele>344</ele>
        <time>2009-09-27T08:56:50Z</time>
      </trkpt>
      <trkpt lat="48.28282" lon="6.96929">
        <ele>344</ele>
        <time>2009-09-27T08:56:54Z</time>
      </trkpt>
      <trkpt lat="48.28282" lon="6.96929">
        <ele>344</ele>
        <time>2009-09-27T08:56:58Z</time>
      </trkpt>
      <trkpt lat="48.28281" lon="6.9693">
        <ele>344</ele>
        <time>2009-09-27T08:57:02Z</time>
      </trkpt>
      <trkpt lat="48.28282" lon="6.96931">
        <ele>344</ele>
        <time>2009-09-27T08:57:06Z</time>
      </trkpt>
      <trkpt lat="48.28281" lon="6.96931">
        <ele>344</ele>
        <time>2009-09-27T08:57:10Z</time>
      </trkpt>
      <trkpt lat="48.28281" lon="6.96931">
        <ele>344</ele>
        <time>2009-09-27T08:57:15Z</time>
      </trkpt>
      <trkpt lat="48.28281" lon="6.96933">
        <ele>344</ele>
        <time>2009-09-27T08:57:19Z</time>
      </trkpt>
      <trkpt lat="48.2828" lon="6.96933">
        <ele>344</ele>
        <time>2009-09-27T08:57:23Z</time>
      </trkpt>
      <trkpt lat="48.2828" lon="6.96933">
        <ele>344</ele>
        <time>2009-09-27T08:57:27Z</time>
      </trkpt>
      <trkpt lat="48.2828" lon="6.96933">
        <ele>344</ele>
        <time>2009-09-27T08:57:31Z</time>
      </trkpt>
      <trkpt lat="48.2828" lon="6.96933">
        <ele>344</ele>
        <time>2009-09-27T08:57:36Z</time>
      </trkpt>
      <trkpt lat="48.2828" lon="6.96933">
        <ele>344</ele>
        <time>2009-09-27T08:57:40Z</time>
      </trkpt>
      <trkpt lat="48.28279" lon="6.96934">
        <ele>344</ele>
        <time>2009-09-27T08:57:44Z</time>
      </trkpt>
      <trkpt lat="48.2828" lon="6.96934">
        <ele>344</ele>
        <time>2009-09-27T08:57:48Z</time>
      </trkpt>
      <trkpt lat="48.28279" lon="6.96934">
        <ele>344</ele>
        <time>2009-09-27T08:57:52Z</time>
      </trkpt>
      <trkpt lat="48.28279" lon="6.96936">
        <ele>344</ele>
        <time>2009-09-27T08:57:56Z</time>
      </trkpt>
      <trkpt lat="48.28279" lon="6.96937">
        <ele>344</ele>
        <time>2009-09-27T08:58:00Z</time>
      </trkpt>
      <trkpt lat="48.2828" lon="6.96937">
        <ele>344</ele>
        <time>2009-09-27T08:58:04Z</time>
      </trkpt>
      <trkpt lat="48.2828" lon="6.96936">
        <ele>344</ele>
        <time>2009-09-27T08:58:08Z</time>
      </trkpt>
      <trkpt lat="48.28279" lon="6.96936">
        <ele>344</ele>
        <time>2009-09-27T08:58:12Z</time>
      </trkpt>
      <trkpt lat="48.2828" lon="6.96936">
        <ele>344</ele>
        <time>2009-09-27T08:58:16Z</time>
      </trkpt>
      <trkpt lat="48.2828" lon="6.96936">
        <ele>344</ele>
        <time>2009-09-27T08:58:20Z</time>
      </trkpt>
      <trkpt lat="48.2828" lon="6.96936">
        <ele>344</ele>
        <time>2009-09-27T08:58:25Z</time>
      </trkpt>
      <trkpt lat="48.2828" lon="6.96936">
        <ele>344</ele>
        <time>2009-09-27T08:58:29Z</time>
      </trkpt>
      <trkpt lat="48.2828" lon="6.96936">
        <ele>344</ele>
        <time>2009-09-27T08:58:33Z</time>
      </trkpt>
      <trkpt lat="48.2828" lon="6.96936">
        <ele>344</ele>
        <time>2009-09-27T08:58:37Z</time>
      </trkpt>
      <trkpt lat="48.2828" lon="6.96936">
        <ele>344</ele>
        <time>2009-09-27T08:58:41Z</time>
      </trkpt>
      <trkpt lat="48.2828" lon="6.96936">
        <ele>344</ele>
        <time>2009-09-27T08:58:45Z</time>
      </trkpt>
      <trkpt lat="48.2828" lon="6.96936">
        <ele>344</ele>
        <time>2009-09-27T08:58:50Z</time>
      </trkpt>
      <trkpt lat="48.2828" lon="6.96933">
        <ele>344</ele>
        <time>2009-09-27T08:58:54Z</time>
      </trkpt>
      <trkpt lat="48.28278" lon="6.96923">
        <ele>344</ele>
        <time>2009-09-27T08:58:58Z</time>
      </trkpt>
      <trkpt lat="48.28279" lon="6.96922">
        <ele>345</ele>
        <time>2009-09-27T08:59:02Z</time>
      </trkpt>
      <trkpt lat="48.28278" lon="6.96923">
        <ele>344</ele>
        <time>2009-09-27T08:59:06Z</time>
      </trkpt>
      <trkpt lat="48.28279" lon="6.96923">
        <ele>344</ele>
        <time>2009-09-27T08:59:10Z</time>
      </trkpt>
      <trkpt lat="48.28279" lon="6.96922">
        <ele>345</ele>
        <time>2009-09-27T08:59:14Z</time>
      </trkpt>
      <trkpt lat="48.28278" lon="6.96917">
        <ele>345</ele>
        <time>2009-09-27T08:59:19Z</time>
      </trkpt>
      <trkpt lat="48.28276" lon="6.96907">
        <ele>346</ele>
        <time>2009-09-27T08:59:23Z</time>
      </trkpt>
      <trkpt lat="48.28272" lon="6.96897">
        <ele>346</ele>
        <time>2009-09-27T08:59:27Z</time>
      </trkpt>
      <trkpt lat="48.28268" lon="6.96889">
        <ele>346</ele>
        <time>2009-09-27T08:59:31Z</time>
      </trkpt>
      <trkpt lat="48.28263" lon="6.96878">
        <ele>346</ele>
        <time>2009-09-27T08:59:35Z</time>
      </trkpt>
      <trkpt lat="48.28257" lon="6.96865">
        <ele>346</ele>
        <time>2009-09-27T08:59:39Z</time>
      </trkpt>
      <trkpt lat="48.2825" lon="6.96848">
        <ele>346</ele>
        <time>2009-09-27T08:59:44Z</time>
      </trkpt>
      <trkpt lat="48.28244" lon="6.96834">
        <ele>347</ele>
        <time>2009-09-27T08:59:48Z</time>
      </trkpt>
      <trkpt lat="48.28239" lon="6.96821">
        <ele>346</ele>
        <time>2009-09-27T08:59:52Z</time>
      </trkpt>
      <trkpt lat="48.28235" lon="6.96808">
        <ele>346</ele>
        <time>2009-09-27T08:59:56Z</time>
      </trkpt>
      <trkpt lat="48.28231" lon="6.96796">
        <ele>346</ele>
        <time>2009-09-27T09:00:00Z</time>
      </trkpt>
      <trkpt lat="48.28226" lon="6.96787">
        <ele>346</ele>
        <time>2009-09-27T09:00:04Z</time>
      </trkpt>
      <trkpt lat="48.28221" lon="6.96776">
        <ele>346</ele>
        <time>2009-09-27T09:00:08Z</time>
      </trkpt>
      <trkpt lat="48.28214" lon="6.96768">
        <ele>346</ele>
        <time>2009-09-27T09:00:12Z</time>
      </trkpt>
      <trkpt lat="48.28216" lon="6.96755">
        <ele>346</ele>
        <time>2009-09-27T09:00:16Z</time>
      </trkpt>
      <trkpt lat="48.28218" lon="6.9674">
        <ele>346</ele>
        <time>2009-09-27T09:00:20Z</time>
      </trkpt>
      <trkpt lat="48.28212" lon="6.96727">
        <ele>346</ele>
        <time>2009-09-27T09:00:24Z</time>
      </trkpt>
      <trkpt lat="48.282" lon="6.9673">
        <ele>346</ele>
        <time>2009-09-27T09:00:28Z</time>
      </trkpt>
      <trkpt lat="48.28189" lon="6.96742">
        <ele>346</ele>
        <time>2009-09-27T09:00:32Z</time>
      </trkpt>
      <trkpt lat="48.28177" lon="6.96745">
        <ele>346</ele>
        <time>2009-09-27T09:00:36Z</time>
      </trkpt>
      <trkpt lat="48.28164" lon="6.96742">
        <ele>346</ele>
        <time>2009-09-27T09:00:40Z</time>
      </trkpt>
      <trkpt lat="48.28152" lon="6.96741">
        <ele>346</ele>
        <time>2009-09-27T09:00:44Z</time>
      </trkpt>
      <trkpt lat="48.28138" lon="6.96739">
        <ele>346</ele>
        <time>2009-09-27T09:00:49Z</time>
      </trkpt>
      <trkpt lat="48.28125" lon="6.96737">
        <ele>346</ele>
        <time>2009-09-27T09:00:53Z</time>
      </trkpt>
      <trkpt lat="48.28115" lon="6.96734">
        <ele>346</ele>
        <time>2009-09-27T09:00:57Z</time>
      </trkpt>
      <trkpt lat="48.28104" lon="6.96732">
        <ele>346</ele>
        <time>2009-09-27T09:01:01Z</time>
      </trkpt>
      <trkpt lat="48.28093" lon="6.9673">
        <ele>346</ele>
        <time>2009-09-27T09:01:05Z</time>
      </trkpt>
      <trkpt lat="48.28084" lon="6.96728">
        <ele>346</ele>
        <time>2009-09-27T09:01:09Z</time>
      </trkpt>
      <trkpt lat="48.28073" lon="6.96725">
        <ele>346</ele>
        <time>2009-09-27T09:01:13Z</time>
      </trkpt>
      <trkpt lat="48.28059" lon="6.96722">
        <ele>346</ele>
        <time>2009-09-27T09:01:17Z</time>
      </trkpt>
      <trkpt lat="48.28045" lon="6.96718">
        <ele>347</ele>
        <time>2009-09-27T09:01:21Z</time>
      </trkpt>
      <trkpt lat="48.28031" lon="6.96716">
        <ele>347</ele>
        <time>2009-09-27T09:01:25Z</time>
      </trkpt>
      <trkpt lat="48.28019" lon="6.96714">
        <ele>347</ele>
        <time>2009-09-27T09:01:29Z</time>
      </trkpt>
      <trkpt lat="48.28004" lon="6.96711">
        <ele>347</ele>
        <time>2009-09-27T09:01:33Z</time>
      </trkpt>
      <trkpt lat="48.27988" lon="6.96707">
        <ele>348</ele>
        <time>2009-09-27T09:01:37Z</time>
      </trkpt>
      <trkpt lat="48.27975" lon="6.96706">
        <ele>348</ele>
        <time>2009-09-27T09:01:41Z</time>
      </trkpt>
      <trkpt lat="48.27961" lon="6.96703">
        <ele>348</ele>
        <time>2009-09-27T09:01:45Z</time>
      </trkpt>
      <trkpt lat="48.27948" lon="6.96701">
        <ele>348</ele>
        <time>2009-09-27T09:01:49Z</time>
      </trkpt>
      <trkpt lat="48.27934" lon="6.96699">
        <ele>348</ele>
        <time>2009-09-27T09:01:53Z</time>
      </trkpt>
      <trkpt lat="48.2792" lon="6.96695">
        <ele>348</ele>
        <time>2009-09-27T09:01:57Z</time>
      </trkpt>
      <trkpt lat="48.27904" lon="6.96692">
        <ele>349</ele>
        <time>2009-09-27T09:02:02Z</time>
      </trkpt>
      <trkpt lat="48.27889" lon="6.96688">
        <ele>349</ele>
        <time>2009-09-27T09:02:06Z</time>
      </trkpt>
      <trkpt lat="48.27873" lon="6.96685">
        <ele>349</ele>
        <time>2009-09-27T09:02:10Z</time>
      </trkpt>
      <trkpt lat="48.27856" lon="6.96681">
        <ele>350</ele>
        <time>2009-09-27T09:02:14Z</time>
      </trkpt>
      <trkpt lat="48.27841" lon="6.96678">
        <ele>350</ele>
        <time>2009-09-27T09:02:18Z</time>
      </trkpt>
      <trkpt lat="48.27825" lon="6.96676">
        <ele>351</ele>
        <time>2009-09-27T09:02:22Z</time>
      </trkpt>
      <trkpt lat="48.27805" lon="6.96671">
        <ele>351</ele>
        <time>2009-09-27T09:02:26Z</time>
      </trkpt>
      <trkpt lat="48.2779" lon="6.96669">
        <ele>351</ele>
        <time>2009-09-27T09:02:30Z</time>
      </trkpt>
      <trkpt lat="48.27774" lon="6.96666">
        <ele>351</ele>
        <time>2009-09-27T09:02:34Z</time>
      </trkpt>
      <trkpt lat="48.27758" lon="6.96662">
        <ele>351</ele>
        <time>2009-09-27T09:02:38Z</time>
      </trkpt>
      <trkpt lat="48.27743" lon="6.96659">
        <ele>351</ele>
        <time>2009-09-27T09:02:42Z</time>
      </trkpt>
      <trkpt lat="48.27726" lon="6.96657">
        <ele>351</ele>
        <time>2009-09-27T09:02:46Z</time>
      </trkpt>
      <trkpt lat="48.27708" lon="6.96652">
        <ele>351</ele>
        <time>2009-09-27T09:02:50Z</time>
      </trkpt>
      <trkpt lat="48.27691" lon="6.96649">
        <ele>351</ele>
        <time>2009-09-27T09:02:54Z</time>
      </trkpt>
      <trkpt lat="48.27674" lon="6.96645">
        <ele>351</ele>
        <time>2009-09-27T09:02:59Z</time>
      </trkpt>
      <trkpt lat="48.27656" lon="6.96642">
        <ele>352</ele>
        <time>2009-09-27T09:03:03Z</time>
      </trkpt>
      <trkpt lat="48.27637" lon="6.96639">
        <ele>352</ele>
        <time>2009-09-27T09:03:07Z</time>
      </trkpt>
      <trkpt lat="48.27619" lon="6.96636">
        <ele>352</ele>
        <time>2009-09-27T09:03:11Z</time>
      </trkpt>
      <trkpt lat="48.27601" lon="6.96631">
        <ele>352</ele>
        <time>2009-09-27T09:03:15Z</time>
      </trkpt>
      <trkpt lat="48.27582" lon="6.96628">
        <ele>353</ele>
        <time>2009-09-27T09:03:19Z</time>
      </trkpt>
      <trkpt lat="48.27564" lon="6.96624">
        <ele>353</ele>
        <time>2009-09-27T09:03:23Z</time>
      </trkpt>
      <trkpt lat="48.27542" lon="6.9662">
        <ele>353</ele>
        <time>2009-09-27T09:03:27Z</time>
      </trkpt>
      <trkpt lat="48.27525" lon="6.96616">
        <ele>353</ele>
        <time>2009-09-27T09:03:31Z</time>
      </trkpt>
      <trkpt lat="48.27508" lon="6.96613">
        <ele>353</ele>
        <time>2009-09-27T09:03:35Z</time>
      </trkpt>
      <trkpt lat="48.27492" lon="6.9661">
        <ele>354</ele>
        <time>2009-09-27T09:03:39Z</time>
      </trkpt>
      <trkpt lat="48.27476" lon="6.96608">
        <ele>354</ele>
        <time>2009-09-27T09:03:43Z</time>
      </trkpt>
      <trkpt lat="48.27463" lon="6.966">
        <ele>354</ele>
        <time>2009-09-27T09:03:47Z</time>
      </trkpt>
      <trkpt lat="48.2745" lon="6.9659">
        <ele>353</ele>
        <time>2009-09-27T09:03:51Z</time>
      </trkpt>
      <trkpt lat="48.27439" lon="6.96604">
        <ele>354</ele>
        <time>2009-09-27T09:03:55Z</time>
      </trkpt>
      <trkpt lat="48.27434" lon="6.96629">
        <ele>354</ele>
        <time>2009-09-27T09:03:59Z</time>
      </trkpt>
      <trkpt lat="48.27426" lon="6.96653">
        <ele>354</ele>
        <time>2009-09-27T09:04:03Z</time>
      </trkpt>
      <trkpt lat="48.27416" lon="6.96675">
        <ele>355</ele>
        <time>2009-09-27T09:04:07Z</time>
      </trkpt>
      <trkpt lat="48.27404" lon="6.96695">
        <ele>355</ele>
        <time>2009-09-27T09:04:11Z</time>
      </trkpt>
      <trkpt lat="48.27392" lon="6.96717">
        <ele>356</ele>
        <time>2009-09-27T09:04:15Z</time>
      </trkpt>
      <trkpt lat="48.27381" lon="6.96738">
        <ele>356</ele>
        <time>2009-09-27T09:04:19Z</time>
      </trkpt>
      <trkpt lat="48.2737" lon="6.96759">
        <ele>356</ele>
        <time>2009-09-27T09:04:24Z</time>
      </trkpt>
      <trkpt lat="48.27359" lon="6.96781">
        <ele>356</ele>
        <time>2009-09-27T09:04:28Z</time>
      </trkpt>
      <trkpt lat="48.27346" lon="6.96803">
        <ele>356</ele>
        <time>2009-09-27T09:04:32Z</time>
      </trkpt>
      <trkpt lat="48.27333" lon="6.96826">
        <ele>356</ele>
        <time>2009-09-27T09:04:36Z</time>
      </trkpt>
      <trkpt lat="48.27319" lon="6.96848">
        <ele>356</ele>
        <time>2009-09-27T09:04:40Z</time>
      </trkpt>
      <trkpt lat="48.27305" lon="6.96872">
        <ele>356</ele>
        <time>2009-09-27T09:04:44Z</time>
      </trkpt>
      <trkpt lat="48.27291" lon="6.96894">
        <ele>355</ele>
        <time>2009-09-27T09:04:48Z</time>
      </trkpt>
      <trkpt lat="48.27278" lon="6.96917">
        <ele>355</ele>
        <time>2009-09-27T09:04:52Z</time>
      </trkpt>
      <trkpt lat="48.27265" lon="6.96939">
        <ele>355</ele>
        <time>2009-09-27T09:04:56Z</time>
      </trkpt>
      <trkpt lat="48.27248" lon="6.96954">
        <ele>355</ele>
        <time>2009-09-27T09:05:00Z</time>
      </trkpt>
      <trkpt lat="48.27235" lon="6.96976">
        <ele>355</ele>
        <time>2009-09-27T09:05:04Z</time>
      </trkpt>
      <trkpt lat="48.27231" lon="6.97011">
        <ele>355</ele>
        <time>2009-09-27T09:05:08Z</time>
      </trkpt>
      <trkpt lat="48.27221" lon="6.97034">
        <ele>356</ele>
        <time>2009-09-27T09:05:12Z</time>
      </trkpt>
      <trkpt lat="48.27209" lon="6.97055">
        <ele>356</ele>
        <time>2009-09-27T09:05:16Z</time>
      </trkpt>
      <trkpt lat="48.27197" lon="6.97078">
        <ele>356</ele>
        <time>2009-09-27T09:05:20Z</time>
      </trkpt>
      <trkpt lat="48.27184" lon="6.971">
        <ele>356</ele>
        <time>2009-09-27T09:05:24Z</time>
      </trkpt>
      <trkpt lat="48.27174" lon="6.97124">
        <ele>356</ele>
        <time>2009-09-27T09:05:28Z</time>
      </trkpt>
      <trkpt lat="48.27162" lon="6.97147">
        <ele>355</ele>
        <time>2009-09-27T09:05:32Z</time>
      </trkpt>
      <trkpt lat="48.2715" lon="6.9717">
        <ele>354</ele>
        <time>2009-09-27T09:05:36Z</time>
      </trkpt>
      <trkpt lat="48.27138" lon="6.97194">
        <ele>354</ele>
        <time>2009-09-27T09:05:41Z</time>
      </trkpt>
      <trkpt lat="48.27126" lon="6.97217">
        <ele>354</ele>
        <time>2009-09-27T09:05:45Z</time>
      </trkpt>
      <trkpt lat="48.27114" lon="6.9724">
        <ele>355</ele>
        <time>2009-09-27T09:05:49Z</time>
      </trkpt>
      <trkpt lat="48.27103" lon="6.97264">
        <ele>354</ele>
        <time>2009-09-27T09:05:53Z</time>
      </trkpt>
      <trkpt lat="48.27091" lon="6.97286">
        <ele>354</ele>
        <time>2009-09-27T09:05:57Z</time>
      </trkpt>
      <trkpt lat="48.27079" lon="6.97309">
        <ele>355</ele>
        <time>2009-09-27T09:06:01Z</time>
      </trkpt>
      <trkpt lat="48.27064" lon="6.97338">
        <ele>355</ele>
        <time>2009-09-27T09:06:05Z</time>
      </trkpt>
      <trkpt lat="48.27052" lon="6.9736">
        <ele>355</ele>
        <time>2009-09-27T09:06:09Z</time>
      </trkpt>
      <trkpt lat="48.27041" lon="6.97384">
        <ele>355</ele>
        <time>2009-09-27T09:06:13Z</time>
      </trkpt>
      <trkpt lat="48.2703" lon="6.97407">
        <ele>355</ele>
        <time>2009-09-27T09:06:17Z</time>
      </trkpt>
      <trkpt lat="48.27018" lon="6.97432">
        <ele>355</ele>
        <time>2009-09-27T09:06:21Z</time>
      </trkpt>
      <trkpt lat="48.27006" lon="6.97455">
        <ele>355</ele>
        <time>2009-09-27T09:06:25Z</time>
      </trkpt>
      <trkpt lat="48.26994" lon="6.97477">
        <ele>355</ele>
        <time>2009-09-27T09:06:29Z</time>
      </trkpt>
      <trkpt lat="48.26982" lon="6.975">
        <ele>355</ele>
        <time>2009-09-27T09:06:33Z</time>
      </trkpt>
      <trkpt lat="48.26973" lon="6.97526">
        <ele>355</ele>
        <time>2009-09-27T09:06:38Z</time>
      </trkpt>
      <trkpt lat="48.26961" lon="6.97548">
        <ele>355</ele>
        <time>2009-09-27T09:06:42Z</time>
      </trkpt>
      <trkpt lat="48.26947" lon="6.97565">
        <ele>355</ele>
        <time>2009-09-27T09:06:46Z</time>
      </trkpt>
      <trkpt lat="48.26933" lon="6.97579">
        <ele>355</ele>
        <time>2009-09-27T09:06:50Z</time>
      </trkpt>
      <trkpt lat="48.26927" lon="6.97605">
        <ele>355</ele>
        <time>2009-09-27T09:06:54Z</time>
      </trkpt>
      <trkpt lat="48.26927" lon="6.97632">
        <ele>355</ele>
        <time>2009-09-27T09:06:58Z</time>
      </trkpt>
      <trkpt lat="48.26923" lon="6.97659">
        <ele>355</ele>
        <time>2009-09-27T09:07:02Z</time>
      </trkpt>
      <trkpt lat="48.26918" lon="6.97693">
        <ele>355</ele>
        <time>2009-09-27T09:07:06Z</time>
      </trkpt>
      <trkpt lat="48.26914" lon="6.9772">
        <ele>356</ele>
        <time>2009-09-27T09:07:10Z</time>
      </trkpt>
      <trkpt lat="48.26911" lon="6.97747">
        <ele>356</ele>
        <time>2009-09-27T09:07:14Z</time>
      </trkpt>
      <trkpt lat="48.26907" lon="6.97773">
        <ele>356</ele>
        <time>2009-09-27T09:07:18Z</time>
      </trkpt>
      <trkpt lat="48.26903" lon="6.97801">
        <ele>356</ele>
        <time>2009-09-27T09:07:22Z</time>
      </trkpt>
      <trkpt lat="48.26899" lon="6.97828">
        <ele>356</ele>
        <time>2009-09-27T09:07:26Z</time>
      </trkpt>
      <trkpt lat="48.26895" lon="6.97858">
        <ele>356</ele>
        <time>2009-09-27T09:07:30Z</time>
      </trkpt>
      <trkpt lat="48.26891" lon="6.97892">
        <ele>357</ele>
        <time>2009-09-27T09:07:34Z</time>
      </trkpt>
      <trkpt lat="48.26886" lon="6.97926">
        <ele>357</ele>
        <time>2009-09-27T09:07:38Z</time>
      </trkpt>
      <trkpt lat="48.26883" lon="6.97957">
        <ele>357</ele>
        <time>2009-09-27T09:07:42Z</time>
      </trkpt>
      <trkpt lat="48.26877" lon="6.97987">
        <ele>357</ele>
        <time>2009-09-27T09:07:46Z</time>
      </trkpt>
      <trkpt lat="48.26869" lon="6.98016">
        <ele>357</ele>
        <time>2009-09-27T09:07:50Z</time>
      </trkpt>
      <trkpt lat="48.2686" lon="6.98043">
        <ele>357</ele>
        <time>2009-09-27T09:07:54Z</time>
      </trkpt>
      <trkpt lat="48.2685" lon="6.98069">
        <ele>357</ele>
        <time>2009-09-27T09:07:58Z</time>
      </trkpt>
      <trkpt lat="48.26839" lon="6.98094">
        <ele>358</ele>
        <time>2009-09-27T09:08:02Z</time>
      </trkpt>
      <trkpt lat="48.2683" lon="6.9812">
        <ele>358</ele>
        <time>2009-09-27T09:08:06Z</time>
      </trkpt>
      <trkpt lat="48.26821" lon="6.98144">
        <ele>358</ele>
        <time>2009-09-27T09:08:11Z</time>
      </trkpt>
      <trkpt lat="48.26812" lon="6.98169">
        <ele>358</ele>
        <time>2009-09-27T09:08:15Z</time>
      </trkpt>
      <trkpt lat="48.26801" lon="6.98192">
        <ele>358</ele>
        <time>2009-09-27T09:08:19Z</time>
      </trkpt>
      <trkpt lat="48.26791" lon="6.9822">
        <ele>358</ele>
        <time>2009-09-27T09:08:23Z</time>
      </trkpt>
      <trkpt lat="48.26781" lon="6.98248">
        <ele>358</ele>
        <time>2009-09-27T09:08:27Z</time>
      </trkpt>
      <trkpt lat="48.26777" lon="6.98275">
        <ele>358</ele>
        <time>2009-09-27T09:08:31Z</time>
      </trkpt>
      <trkpt lat="48.26789" lon="6.98299">
        <ele>357</ele>
        <time>2009-09-27T09:08:35Z</time>
      </trkpt>
      <trkpt lat="48.26802" lon="6.98327">
        <ele>357</ele>
        <time>2009-09-27T09:08:39Z</time>
      </trkpt>
      <trkpt lat="48.26815" lon="6.98357">
        <ele>357</ele>
        <time>2009-09-27T09:08:43Z</time>
      </trkpt>
      <trkpt lat="48.26828" lon="6.98388">
        <ele>356</ele>
        <time>2009-09-27T09:08:47Z</time>
      </trkpt>
      <trkpt lat="48.26841" lon="6.9842">
        <ele>356</ele>
        <time>2009-09-27T09:08:51Z</time>
      </trkpt>
      <trkpt lat="48.26858" lon="6.98457">
        <ele>355</ele>
        <time>2009-09-27T09:08:55Z</time>
      </trkpt>
      <trkpt lat="48.26872" lon="6.98486">
        <ele>355</ele>
        <time>2009-09-27T09:08:59Z</time>
      </trkpt>
      <trkpt lat="48.26887" lon="6.98514">
        <ele>355</ele>
        <time>2009-09-27T09:09:03Z</time>
      </trkpt>
      <trkpt lat="48.26903" lon="6.9854">
        <ele>355</ele>
        <time>2009-09-27T09:09:07Z</time>
      </trkpt>
      <trkpt lat="48.26919" lon="6.98566">
        <ele>354</ele>
        <time>2009-09-27T09:09:11Z</time>
      </trkpt>
      <trkpt lat="48.26934" lon="6.98591">
        <ele>355</ele>
        <time>2009-09-27T09:09:15Z</time>
      </trkpt>
      <trkpt lat="48.26949" lon="6.98618">
        <ele>354</ele>
        <time>2009-09-27T09:09:19Z</time>
      </trkpt>
      <trkpt lat="48.26964" lon="6.98644">
        <ele>354</ele>
        <time>2009-09-27T09:09:23Z</time>
      </trkpt>
      <trkpt lat="48.26979" lon="6.9867">
        <ele>354</ele>
        <time>2009-09-27T09:09:28Z</time>
      </trkpt>
      <trkpt lat="48.26994" lon="6.98697">
        <ele>354</ele>
        <time>2009-09-27T09:09:32Z</time>
      </trkpt>
      <trkpt lat="48.27009" lon="6.98724">
        <ele>352</ele>
        <time>2009-09-27T09:09:36Z</time>
      </trkpt>
      <trkpt lat="48.27025" lon="6.98753">
        <ele>351</ele>
        <time>2009-09-27T09:09:40Z</time>
      </trkpt>
      <trkpt lat="48.27041" lon="6.98781">
        <ele>351</ele>
        <time>2009-09-27T09:09:44Z</time>
      </trkpt>
      <trkpt lat="48.27057" lon="6.98806">
        <ele>350</ele>
        <time>2009-09-27T09:09:48Z</time>
      </trkpt>
      <trkpt lat="48.27072" lon="6.98832">
        <ele>350</ele>
        <time>2009-09-27T09:09:52Z</time>
      </trkpt>
      <trkpt lat="48.27089" lon="6.98864">
        <ele>351</ele>
        <time>2009-09-27T09:09:56Z</time>
      </trkpt>
      <trkpt lat="48.27103" lon="6.98891">
        <ele>351</ele>
        <time>2009-09-27T09:10:00Z</time>
      </trkpt>
      <trkpt lat="48.27116" lon="6.98916">
        <ele>351</ele>
        <time>2009-09-27T09:10:04Z</time>
      </trkpt>
      <trkpt lat="48.27129" lon="6.98939">
        <ele>351</ele>
        <time>2009-09-27T09:10:08Z</time>
      </trkpt>
      <trkpt lat="48.27143" lon="6.98966">
        <ele>352</ele>
        <time>2009-09-27T09:10:12Z</time>
      </trkpt>
      <trkpt lat="48.27156" lon="6.9899">
        <ele>352</ele>
        <time>2009-09-27T09:10:16Z</time>
      </trkpt>
      <trkpt lat="48.27169" lon="6.99015">
        <ele>352</ele>
        <time>2009-09-27T09:10:21Z</time>
      </trkpt>
      <trkpt lat="48.27184" lon="6.99037">
        <ele>352</ele>
        <time>2009-09-27T09:10:25Z</time>
      </trkpt>
      <trkpt lat="48.27199" lon="6.99058">
        <ele>352</ele>
        <time>2009-09-27T09:10:29Z</time>
      </trkpt>
      <trkpt lat="48.27213" lon="6.99076">
        <ele>351</ele>
        <time>2009-09-27T09:10:33Z</time>
      </trkpt>
      <trkpt lat="48.27228" lon="6.99093">
        <ele>352</ele>
        <time>2009-09-27T09:10:37Z</time>
      </trkpt>
      <trkpt lat="48.27242" lon="6.99114">
        <ele>352</ele>
        <time>2009-09-27T09:10:41Z</time>
      </trkpt>
      <trkpt lat="48.27252" lon="6.99137">
        <ele>354</ele>
        <time>2009-09-27T09:10:45Z</time>
      </trkpt>
      <trkpt lat="48.27261" lon="6.99169">
        <ele>354</ele>
        <time>2009-09-27T09:10:49Z</time>
      </trkpt>
      <trkpt lat="48.27269" lon="6.99194">
        <ele>356</ele>
        <time>2009-09-27T09:10:53Z</time>
      </trkpt>
      <trkpt lat="48.27274" lon="6.99217">
        <ele>356</ele>
        <time>2009-09-27T09:10:57Z</time>
      </trkpt>
      <trkpt lat="48.27266" lon="6.99236">
        <ele>356</ele>
        <time>2009-09-27T09:11:01Z</time>
      </trkpt>
      <trkpt lat="48.27255" lon="6.99253">
        <ele>356</ele>
        <time>2009-09-27T09:11:05Z</time>
      </trkpt>
      <trkpt lat="48.27243" lon="6.99272">
        <ele>359</ele>
        <time>2009-09-27T09:11:09Z</time>
      </trkpt>
      <trkpt lat="48.27243" lon="6.99293">
        <ele>360</ele>
        <time>2009-09-27T09:11:13Z</time>
      </trkpt>
      <trkpt lat="48.27249" lon="6.99309">
        <ele>360</ele>
        <time>2009-09-27T09:11:17Z</time>
      </trkpt>
      <trkpt lat="48.27255" lon="6.99323">
        <ele>358</ele>
        <time>2009-09-27T09:11:21Z</time>
      </trkpt>
      <trkpt lat="48.2726" lon="6.99335">
        <ele>360</ele>
        <time>2009-09-27T09:11:25Z</time>
      </trkpt>
      <trkpt lat="48.27261" lon="6.99349">
        <ele>360</ele>
        <time>2009-09-27T09:11:29Z</time>
      </trkpt>
      <trkpt lat="48.27261" lon="6.9936">
        <ele>361</ele>
        <time>2009-09-27T09:11:33Z</time>
      </trkpt>
      <trkpt lat="48.27261" lon="6.9937">
        <ele>362</ele>
        <time>2009-09-27T09:11:37Z</time>
      </trkpt>
      <trkpt lat="48.27258" lon="6.99378">
        <ele>362</ele>
        <time>2009-09-27T09:11:41Z</time>
      </trkpt>
      <trkpt lat="48.27255" lon="6.99386">
        <ele>363</ele>
        <time>2009-09-27T09:11:45Z</time>
      </trkpt>
      <trkpt lat="48.27252" lon="6.99396">
        <ele>364</ele>
        <time>2009-09-27T09:11:50Z</time>
      </trkpt>
      <trkpt lat="48.27248" lon="6.99404">
        <ele>368</ele>
        <time>2009-09-27T09:11:54Z</time>
      </trkpt>
      <trkpt lat="48.27247" lon="6.99408">
        <ele>368</ele>
        <time>2009-09-27T09:11:58Z</time>
      </trkpt>
      <trkpt lat="48.27244" lon="6.99416">
        <ele>368</ele>
        <time>2009-09-27T09:12:02Z</time>
      </trkpt>
      <trkpt lat="48.27241" lon="6.99424">
        <ele>371</ele>
        <time>2009-09-27T09:12:06Z</time>
      </trkpt>
      <trkpt lat="48.27235" lon="6.9943">
        <ele>372</ele>
        <time>2009-09-27T09:12:10Z</time>
      </trkpt>
      <trkpt lat="48.27231" lon="6.99434">
        <ele>372</ele>
        <time>2009-09-27T09:12:14Z</time>
      </trkpt>
      <trkpt lat="48.27228" lon="6.9944">
        <ele>373</ele>
        <time>2009-09-27T09:12:18Z</time>
      </trkpt>
      <trkpt lat="48.27225" lon="6.99446">
        <ele>373</ele>
        <time>2009-09-27T09:12:22Z</time>
      </trkpt>
      <trkpt lat="48.27222" lon="6.99455">
        <ele>374</ele>
        <time>2009-09-27T09:12:26Z</time>
      </trkpt>
      <trkpt lat="48.27219" lon="6.9947">
        <ele>375</ele>
        <time>2009-09-27T09:12:30Z</time>
      </trkpt>
      <trkpt lat="48.27216" lon="6.99482">
        <ele>375</ele>
        <time>2009-09-27T09:12:34Z</time>
      </trkpt>
      <trkpt lat="48.27214" lon="6.99489">
        <ele>375</ele>
        <time>2009-09-27T09:12:38Z</time>
      </trkpt>
      <trkpt lat="48.27213" lon="6.99501">
        <ele>379</ele>
        <time>2009-09-27T09:12:42Z</time>
      </trkpt>
      <trkpt lat="48.27213" lon="6.99514">
        <ele>379</ele>
        <time>2009-09-27T09:12:46Z</time>
      </trkpt>
      <trkpt lat="48.27214" lon="6.9953">
        <ele>380</ele>
        <time>2009-09-27T09:12:50Z</time>
      </trkpt>
      <trkpt lat="48.27222" lon="6.99542">
        <ele>380</ele>
        <time>2009-09-27T09:12:54Z</time>
      </trkpt>
      <trkpt lat="48.27234" lon="6.99553">
        <ele>380</ele>
        <time>2009-09-27T09:12:58Z</time>
      </trkpt>
      <trkpt lat="48.27244" lon="6.99558">
        <ele>381</ele>
        <time>2009-09-27T09:13:02Z</time>
      </trkpt>
      <trkpt lat="48.27253" lon="6.99565">
        <ele>379</ele>
        <time>2009-09-27T09:13:06Z</time>
      </trkpt>
      <trkpt lat="48.27264" lon="6.9957">
        <ele>379</ele>
        <time>2009-09-27T09:13:10Z</time>
      </trkpt>
      <trkpt lat="48.27276" lon="6.99575">
        <ele>378</ele>
        <time>2009-09-27T09:13:14Z</time>
      </trkpt>
      <trkpt lat="48.27286" lon="6.99582">
        <ele>378</ele>
        <time>2009-09-27T09:13:18Z</time>
      </trkpt>
      <trkpt lat="48.27296" lon="6.99587">
        <ele>381</ele>
        <time>2009-09-27T09:13:22Z</time>
      </trkpt>
      <trkpt lat="48.27309" lon="6.99594">
        <ele>381</ele>
        <time>2009-09-27T09:13:26Z</time>
      </trkpt>
      <trkpt lat="48.27321" lon="6.99594">
        <ele>380</ele>
        <time>2009-09-27T09:13:31Z</time>
      </trkpt>
      <trkpt lat="48.27326" lon="6.99592">
        <ele>379</ele>
        <time>2009-09-27T09:13:35Z</time>
      </trkpt>
      <trkpt lat="48.27332" lon="6.99596">
        <ele>379</ele>
        <time>2009-09-27T09:13:39Z</time>
      </trkpt>
      <trkpt lat="48.27342" lon="6.99604">
        <ele>378</ele>
        <time>2009-09-27T09:13:43Z</time>
      </trkpt>
      <trkpt lat="48.27353" lon="6.99609">
        <ele>378</ele>
        <time>2009-09-27T09:13:47Z</time>
      </trkpt>
      <trkpt lat="48.27362" lon="6.99615">
        <ele>378</ele>
        <time>2009-09-27T09:13:51Z</time>
      </trkpt>
      <trkpt lat="48.27373" lon="6.9962">
        <ele>378</ele>
        <time>2009-09-27T09:13:55Z</time>
      </trkpt>
      <trkpt lat="48.27384" lon="6.99628">
        <ele>378</ele>
        <time>2009-09-27T09:13:59Z</time>
      </trkpt>
      <trkpt lat="48.27392" lon="6.99631">
        <ele>378</ele>
        <time>2009-09-27T09:14:03Z</time>
      </trkpt>
      <trkpt lat="48.27399" lon="6.99635">
        <ele>378</ele>
        <time>2009-09-27T09:14:07Z</time>
      </trkpt>
      <trkpt lat="48.27411" lon="6.99641">
        <ele>378</ele>
        <time>2009-09-27T09:14:11Z</time>
      </trkpt>
      <trkpt lat="48.27419" lon="6.99646">
        <ele>376</ele>
        <time>2009-09-27T09:14:15Z</time>
      </trkpt>
      <trkpt lat="48.2743" lon="6.99653">
        <ele>376</ele>
        <time>2009-09-27T09:14:19Z</time>
      </trkpt>
      <trkpt lat="48.27441" lon="6.99658">
        <ele>376</ele>
        <time>2009-09-27T09:14:23Z</time>
      </trkpt>
      <trkpt lat="48.27454" lon="6.99668">
        <ele>380</ele>
        <time>2009-09-27T09:14:27Z</time>
      </trkpt>
      <trkpt lat="48.27466" lon="6.99682">
        <ele>380</ele>
        <time>2009-09-27T09:14:31Z</time>
      </trkpt>
      <trkpt lat="48.27476" lon="6.99693">
        <ele>380</ele>
        <time>2009-09-27T09:14:35Z</time>
      </trkpt>
      <trkpt lat="48.27485" lon="6.99706">
        <ele>380</ele>
        <time>2009-09-27T09:14:39Z</time>
      </trkpt>
      <trkpt lat="48.27488" lon="6.99714">
        <ele>381</ele>
        <time>2009-09-27T09:14:43Z</time>
      </trkpt>
      <trkpt lat="48.27493" lon="6.99722">
        <ele>381</ele>
        <time>2009-09-27T09:14:48Z</time>
      </trkpt>
      <trkpt lat="48.275" lon="6.99734">
        <ele>382</ele>
        <time>2009-09-27T09:14:52Z</time>
      </trkpt>
      <trkpt lat="48.27507" lon="6.99744">
        <ele>381</ele>
        <time>2009-09-27T09:14:56Z</time>
      </trkpt>
      <trkpt lat="48.27512" lon="6.99756">
        <ele>384</ele>
        <time>2009-09-27T09:15:00Z</time>
      </trkpt>
      <trkpt lat="48.27518" lon="6.99765">
        <ele>385</ele>
        <time>2009-09-27T09:15:04Z</time>
      </trkpt>
      <trkpt lat="48.27523" lon="6.99774">
        <ele>386</ele>
        <time>2009-09-27T09:15:08Z</time>
      </trkpt>
      <trkpt lat="48.27532" lon="6.99786">
        <ele>387</ele>
        <time>2009-09-27T09:15:12Z</time>
      </trkpt>
      <trkpt lat="48.27541" lon="6.99798">
        <ele>388</ele>
        <time>2009-09-27T09:15:16Z</time>
      </trkpt>
      <trkpt lat="48.27547" lon="6.99804">
        <ele>388</ele>
        <time>2009-09-27T09:15:20Z</time>
      </trkpt>
      <trkpt lat="48.27552" lon="6.99812">
        <ele>388</ele>
        <time>2009-09-27T09:15:24Z</time>
      </trkpt>
      <trkpt lat="48.27557" lon="6.99822">
        <ele>388</ele>
        <time>2009-09-27T09:15:28Z</time>
      </trkpt>
      <trkpt lat="48.27562" lon="6.9983">
        <ele>389</ele>
        <time>2009-09-27T09:15:32Z</time>
      </trkpt>
      <trkpt lat="48.27567" lon="6.99841">
        <ele>392</ele>
        <time>2009-09-27T09:15:36Z</time>
      </trkpt>
      <trkpt lat="48.27572" lon="6.99851">
        <ele>393</ele>
        <time>2009-09-27T09:15:40Z</time>
      </trkpt>
      <trkpt lat="48.27576" lon="6.99857">
        <ele>393</ele>
        <time>2009-09-27T09:15:44Z</time>
      </trkpt>
      <trkpt lat="48.27584" lon="6.99868">
        <ele>394</ele>
        <time>2009-09-27T09:15:49Z</time>
      </trkpt>
      <trkpt lat="48.27591" lon="6.99876">
        <ele>394</ele>
        <time>2009-09-27T09:15:53Z</time>
      </trkpt>
      <trkpt lat="48.27599" lon="6.99883">
        <ele>395</ele>
        <time>2009-09-27T09:15:57Z</time>
      </trkpt>
      <trkpt lat="48.27609" lon="6.99891">
        <ele>395</ele>
        <time>2009-09-27T09:16:01Z</time>
      </trkpt>
      <trkpt lat="48.27618" lon="6.99895">
        <ele>395</ele>
        <time>2009-09-27T09:16:05Z</time>
      </trkpt>
      <trkpt lat="48.27631" lon="6.99896">
        <ele>396</ele>
        <time>2009-09-27T09:16:09Z</time>
      </trkpt>
      <trkpt lat="48.2764" lon="6.99899">
        <ele>396</ele>
        <time>2009-09-27T09:16:13Z</time>
      </trkpt>
      <trkpt lat="48.2766" lon="6.99904">
        <ele>398</ele>
        <time>2009-09-27T09:16:18Z</time>
      </trkpt>
      <trkpt lat="48.27668" lon="6.99908">
        <ele>398</ele>
        <time>2009-09-27T09:16:22Z</time>
      </trkpt>
      <trkpt lat="48.2768" lon="6.99914">
        <ele>397</ele>
        <time>2009-09-27T09:16:26Z</time>
      </trkpt>
      <trkpt lat="48.2769" lon="6.99922">
        <ele>400</ele>
        <time>2009-09-27T09:16:30Z</time>
      </trkpt>
      <trkpt lat="48.27701" lon="6.99931">
        <ele>400</ele>
        <time>2009-09-27T09:16:34Z</time>
      </trkpt>
      <trkpt lat="48.27712" lon="6.99944">
        <ele>400</ele>
        <time>2009-09-27T09:16:38Z</time>
      </trkpt>
      <trkpt lat="48.27717" lon="6.99956">
        <ele>401</ele>
        <time>2009-09-27T09:16:42Z</time>
      </trkpt>
      <trkpt lat="48.2772" lon="6.99966">
        <ele>401</ele>
        <time>2009-09-27T09:16:47Z</time>
      </trkpt>
      <trkpt lat="48.27723" lon="6.9998">
        <ele>401</ele>
        <time>2009-09-27T09:16:51Z</time>
      </trkpt>
      <trkpt lat="48.27729" lon="6.99993">
        <ele>401</ele>
        <time>2009-09-27T09:16:55Z</time>
      </trkpt>
      <trkpt lat="48.27737" lon="7.00005">
        <ele>403</ele>
        <time>2009-09-27T09:16:59Z</time>
      </trkpt>
      <trkpt lat="48.27744" lon="7.00015">
        <ele>403</ele>
        <time>2009-09-27T09:17:03Z</time>
      </trkpt>
      <trkpt lat="48.27749" lon="7.00026">
        <ele>404</ele>
        <time>2009-09-27T09:17:07Z</time>
      </trkpt>
      <trkpt lat="48.27756" lon="7.00038">
        <ele>401</ele>
        <time>2009-09-27T09:17:11Z</time>
      </trkpt>
      <trkpt lat="48.27762" lon="7.00049">
        <ele>401</ele>
        <time>2009-09-27T09:17:15Z</time>
      </trkpt>
      <trkpt lat="48.2777" lon="7.0006">
        <ele>402</ele>
        <time>2009-09-27T09:17:19Z</time>
      </trkpt>
      <trkpt lat="48.27777" lon="7.0007">
        <ele>402</ele>
        <time>2009-09-27T09:17:23Z</time>
      </trkpt>
      <trkpt lat="48.27785" lon="7.00081">
        <ele>402</ele>
        <time>2009-09-27T09:17:27Z</time>
      </trkpt>
      <trkpt lat="48.27792" lon="7.00089">
        <ele>405</ele>
        <time>2009-09-27T09:17:31Z</time>
      </trkpt>
      <trkpt lat="48.27798" lon="7.00101">
        <ele>406</ele>
        <time>2009-09-27T09:17:35Z</time>
      </trkpt>
      <trkpt lat="48.27808" lon="7.00107">
        <ele>406</ele>
        <time>2009-09-27T09:17:39Z</time>
      </trkpt>
      <trkpt lat="48.27816" lon="7.00119">
        <ele>407</ele>
        <time>2009-09-27T09:17:43Z</time>
      </trkpt>
      <trkpt lat="48.27822" lon="7.00128">
        <ele>407</ele>
        <time>2009-09-27T09:17:47Z</time>
      </trkpt>
      <trkpt lat="48.27827" lon="7.00133">
        <ele>408</ele>
        <time>2009-09-27T09:17:51Z</time>
      </trkpt>
      <trkpt lat="48.27832" lon="7.0014">
        <ele>409</ele>
        <time>2009-09-27T09:17:55Z</time>
      </trkpt>
      <trkpt lat="48.27841" lon="7.00148">
        <ele>410</ele>
        <time>2009-09-27T09:17:59Z</time>
      </trkpt>
      <trkpt lat="48.27849" lon="7.00151">
        <ele>410</ele>
        <time>2009-09-27T09:18:03Z</time>
      </trkpt>
      <trkpt lat="48.27855" lon="7.00159">
        <ele>410</ele>
        <time>2009-09-27T09:18:07Z</time>
      </trkpt>
      <trkpt lat="48.27863" lon="7.00168">
        <ele>413</ele>
        <time>2009-09-27T09:18:11Z</time>
      </trkpt>
      <trkpt lat="48.27872" lon="7.00173">
        <ele>413</ele>
        <time>2009-09-27T09:18:15Z</time>
      </trkpt>
      <trkpt lat="48.27881" lon="7.00181">
        <ele>413</ele>
        <time>2009-09-27T09:18:19Z</time>
      </trkpt>
      <trkpt lat="48.27892" lon="7.00191">
        <ele>413</ele>
        <time>2009-09-27T09:18:23Z</time>
      </trkpt>
      <trkpt lat="48.27903" lon="7.00199">
        <ele>413</ele>
        <time>2009-09-27T09:18:27Z</time>
      </trkpt>
      <trkpt lat="48.27912" lon="7.00203">
        <ele>413</ele>
        <time>2009-09-27T09:18:32Z</time>
      </trkpt>
      <trkpt lat="48.2792" lon="7.00206">
        <ele>414</ele>
        <time>2009-09-27T09:18:36Z</time>
      </trkpt>
      <trkpt lat="48.27929" lon="7.00211">
        <ele>415</ele>
        <time>2009-09-27T09:18:40Z</time>
      </trkpt>
      <trkpt lat="48.27942" lon="7.00215">
        <ele>415</ele>
        <time>2009-09-27T09:18:44Z</time>
      </trkpt>
      <trkpt lat="48.27953" lon="7.00216">
        <ele>415</ele>
        <time>2009-09-27T09:18:48Z</time>
      </trkpt>
      <trkpt lat="48.27964" lon="7.00221">
        <ele>415</ele>
        <time>2009-09-27T09:18:52Z</time>
      </trkpt>
      <trkpt lat="48.27976" lon="7.00224">
        <ele>415</ele>
        <time>2009-09-27T09:18:56Z</time>
      </trkpt>
      <trkpt lat="48.27995" lon="7.00233">
        <ele>417</ele>
        <time>2009-09-27T09:19:00Z</time>
      </trkpt>
      <trkpt lat="48.28014" lon="7.00246">
        <ele>415</ele>
        <time>2009-09-27T09:19:04Z</time>
      </trkpt>
      <trkpt lat="48.28038" lon="7.00262">
        <ele>414</ele>
        <time>2009-09-27T09:19:08Z</time>
      </trkpt>
      <trkpt lat="48.28063" lon="7.00279">
        <ele>413</ele>
        <time>2009-09-27T09:19:12Z</time>
      </trkpt>
      <trkpt lat="48.28084" lon="7.00311">
        <ele>404</ele>
        <time>2009-09-27T09:19:16Z</time>
      </trkpt>
      <trkpt lat="48.28094" lon="7.00352">
        <ele>404</ele>
        <time>2009-09-27T09:19:20Z</time>
      </trkpt>
      <trkpt lat="48.28097" lon="7.00392">
        <ele>402</ele>
        <time>2009-09-27T09:19:24Z</time>
      </trkpt>
      <trkpt lat="48.28109" lon="7.00424">
        <ele>401</ele>
        <time>2009-09-27T09:19:28Z</time>
      </trkpt>
      <trkpt lat="48.28128" lon="7.0044">
        <ele>401</ele>
        <time>2009-09-27T09:19:32Z</time>
      </trkpt>
      <trkpt lat="48.28142" lon="7.00451">
        <ele>400</ele>
        <time>2009-09-27T09:19:36Z</time>
      </trkpt>
      <trkpt lat="48.28151" lon="7.0047">
        <ele>401</ele>
        <time>2009-09-27T09:19:40Z</time>
      </trkpt>
      <trkpt lat="48.28159" lon="7.00488">
        <ele>401</ele>
        <time>2009-09-27T09:19:44Z</time>
      </trkpt>
      <trkpt lat="48.28164" lon="7.00507">
        <ele>402</ele>
        <time>2009-09-27T09:19:48Z</time>
      </trkpt>
      <trkpt lat="48.28168" lon="7.0053">
        <ele>400</ele>
        <time>2009-09-27T09:19:52Z</time>
      </trkpt>
      <trkpt lat="48.28175" lon="7.00551">
        <ele>401</ele>
        <time>2009-09-27T09:19:56Z</time>
      </trkpt>
      <trkpt lat="48.28182" lon="7.00572">
        <ele>402</ele>
        <time>2009-09-27T09:20:00Z</time>
      </trkpt>
      <trkpt lat="48.28187" lon="7.00588">
        <ele>404</ele>
        <time>2009-09-27T09:20:05Z</time>
      </trkpt>
      <trkpt lat="48.282" lon="7.00599">
        <ele>404</ele>
        <time>2009-09-27T09:20:09Z</time>
      </trkpt>
      <trkpt lat="48.28225" lon="7.00603">
        <ele>403</ele>
        <time>2009-09-27T09:20:13Z</time>
      </trkpt>
      <trkpt lat="48.28252" lon="7.00606">
        <ele>400</ele>
        <time>2009-09-27T09:20:17Z</time>
      </trkpt>
      <trkpt lat="48.28278" lon="7.00604">
        <ele>399</ele>
        <time>2009-09-27T09:20:21Z</time>
      </trkpt>
      <trkpt lat="48.283" lon="7.00595">
        <ele>399</ele>
        <time>2009-09-27T09:20:25Z</time>
      </trkpt>
      <trkpt lat="48.28314" lon="7.00583">
        <ele>396</ele>
        <time>2009-09-27T09:20:29Z</time>
      </trkpt>
      <trkpt lat="48.28318" lon="7.00563">
        <ele>396</ele>
        <time>2009-09-27T09:20:33Z</time>
      </trkpt>
      <trkpt lat="48.28316" lon="7.0054">
        <ele>395</ele>
        <time>2009-09-27T09:20:37Z</time>
      </trkpt>
      <trkpt lat="48.28311" lon="7.00513">
        <ele>394</ele>
        <time>2009-09-27T09:20:41Z</time>
      </trkpt>
      <trkpt lat="48.28308" lon="7.00481">
        <ele>390</ele>
        <time>2009-09-27T09:20:45Z</time>
      </trkpt>
      <trkpt lat="48.28302" lon="7.00448">
        <ele>390</ele>
        <time>2009-09-27T09:20:49Z</time>
      </trkpt>
      <trkpt lat="48.2829" lon="7.00402">
        <ele>386</ele>
        <time>2009-09-27T09:20:53Z</time>
      </trkpt>
      <trkpt lat="48.2828" lon="7.00368">
        <ele>385</ele>
        <time>2009-09-27T09:20:57Z</time>
      </trkpt>
      <trkpt lat="48.2829" lon="7.00352">
        <ele>385</ele>
        <time>2009-09-27T09:21:01Z</time>
      </trkpt>
      <trkpt lat="48.28312" lon="7.0036">
        <ele>385</ele>
        <time>2009-09-27T09:21:05Z</time>
      </trkpt>
      <trkpt lat="48.28334" lon="7.00384">
        <ele>385</ele>
        <time>2009-09-27T09:21:09Z</time>
      </trkpt>
      <trkpt lat="48.28362" lon="7.00409">
        <ele>386</ele>
        <time>2009-09-27T09:21:13Z</time>
      </trkpt>
      <trkpt lat="48.28396" lon="7.00421">
        <ele>385</ele>
        <time>2009-09-27T09:21:17Z</time>
      </trkpt>
      <trkpt lat="48.28422" lon="7.00435">
        <ele>384</ele>
        <time>2009-09-27T09:21:22Z</time>
      </trkpt>
      <trkpt lat="48.28447" lon="7.00437">
        <ele>385</ele>
        <time>2009-09-27T09:21:26Z</time>
      </trkpt>
      <trkpt lat="48.28466" lon="7.00429">
        <ele>386</ele>
        <time>2009-09-27T09:21:30Z</time>
      </trkpt>
      <trkpt lat="48.28477" lon="7.00422">
        <ele>386</ele>
        <time>2009-09-27T09:21:34Z</time>
      </trkpt>
      <trkpt lat="48.28485" lon="7.00415">
        <ele>388</ele>
        <time>2009-09-27T09:21:38Z</time>
      </trkpt>
      <trkpt lat="48.28491" lon="7.00405">
        <ele>389</ele>
        <time>2009-09-27T09:21:42Z</time>
      </trkpt>
      <trkpt lat="48.28497" lon="7.00401">
        <ele>389</ele>
        <time>2009-09-27T09:21:46Z</time>
      </trkpt>
      <trkpt lat="48.28504" lon="7.00398">
        <ele>394</ele>
        <time>2009-09-27T09:21:50Z</time>
      </trkpt>
      <trkpt lat="48.2851" lon="7.0039">
        <ele>396</ele>
        <time>2009-09-27T09:21:54Z</time>
      </trkpt>
      <trkpt lat="48.28514" lon="7.00379">
        <ele>397</ele>
        <time>2009-09-27T09:21:58Z</time>
      </trkpt>
      <trkpt lat="48.28517" lon="7.00373">
        <ele>398</ele>
        <time>2009-09-27T09:22:02Z</time>
      </trkpt>
      <trkpt lat="48.28522" lon="7.00368">
        <ele>399</ele>
        <time>2009-09-27T09:22:06Z</time>
      </trkpt>
      <trkpt lat="48.28525" lon="7.00359">
        <ele>399</ele>
        <time>2009-09-27T09:22:10Z</time>
      </trkpt>
      <trkpt lat="48.28531" lon="7.00355">
        <ele>400</ele>
        <time>2009-09-27T09:22:14Z</time>
      </trkpt>
      <trkpt lat="48.28534" lon="7.00348">
        <ele>400</ele>
        <time>2009-09-27T09:22:19Z</time>
      </trkpt>
      <trkpt lat="48.28541" lon="7.00345">
        <ele>401</ele>
        <time>2009-09-27T09:22:23Z</time>
      </trkpt>
      <trkpt lat="48.28547" lon="7.0034">
        <ele>402</ele>
        <time>2009-09-27T09:22:27Z</time>
      </trkpt>
      <trkpt lat="48.28553" lon="7.00334">
        <ele>403</ele>
        <time>2009-09-27T09:22:31Z</time>
      </trkpt>
      <trkpt lat="48.28554" lon="7.00329">
        <ele>409</ele>
        <time>2009-09-27T09:22:35Z</time>
      </trkpt>
      <trkpt lat="48.28555" lon="7.00325">
        <ele>410</ele>
        <time>2009-09-27T09:22:39Z</time>
      </trkpt>
      <trkpt lat="48.28555" lon="7.00323">
        <ele>410</ele>
        <time>2009-09-27T09:22:43Z</time>
      </trkpt>
      <trkpt lat="48.28558" lon="7.00326">
        <ele>410</ele>
        <time>2009-09-27T09:22:47Z</time>
      </trkpt>
      <trkpt lat="48.28564" lon="7.0033">
        <ele>410</ele>
        <time>2009-09-27T09:22:51Z</time>
      </trkpt>
      <trkpt lat="48.28572" lon="7.00332">
        <ele>411</ele>
        <time>2009-09-27T09:22:55Z</time>
      </trkpt>
      <trkpt lat="48.28574" lon="7.00332">
        <ele>411</ele>
        <time>2009-09-27T09:22:59Z</time>
      </trkpt>
      <trkpt lat="48.2858" lon="7.00333">
        <ele>412</ele>
        <time>2009-09-27T09:23:03Z</time>
      </trkpt>
      <trkpt lat="48.28589" lon="7.00335">
        <ele>412</ele>
        <time>2009-09-27T09:23:07Z</time>
      </trkpt>
      <trkpt lat="48.28596" lon="7.00339">
        <ele>413</ele>
        <time>2009-09-27T09:23:11Z</time>
      </trkpt>
      <trkpt lat="48.28603" lon="7.00344">
        <ele>413</ele>
        <time>2009-09-27T09:23:15Z</time>
      </trkpt>
      <trkpt lat="48.28608" lon="7.00351">
        <ele>413</ele>
        <time>2009-09-27T09:23:19Z</time>
      </trkpt>
      <trkpt lat="48.28613" lon="7.00353">
        <ele>414</ele>
        <time>2009-09-27T09:23:23Z</time>
      </trkpt>
      <trkpt lat="48.28618" lon="7.00353">
        <ele>414</ele>
        <time>2009-09-27T09:23:27Z</time>
      </trkpt>
      <trkpt lat="48.2862" lon="7.00353">
        <ele>414</ele>
        <time>2009-09-27T09:23:31Z</time>
      </trkpt>
      <trkpt lat="48.28629" lon="7.00357">
        <ele>415</ele>
        <time>2009-09-27T09:23:35Z</time>
      </trkpt>
      <trkpt lat="48.28636" lon="7.00363">
        <ele>415</ele>
        <time>2009-09-27T09:23:40Z</time>
      </trkpt>
      <trkpt lat="48.2864" lon="7.00367">
        <ele>415</ele>
        <time>2009-09-27T09:23:44Z</time>
      </trkpt>
      <trkpt lat="48.28646" lon="7.00375">
        <ele>415</ele>
        <time>2009-09-27T09:23:48Z</time>
      </trkpt>
      <trkpt lat="48.28649" lon="7.00382">
        <ele>415</ele>
        <time>2009-09-27T09:23:52Z</time>
      </trkpt>
      <trkpt lat="48.28658" lon="7.00392">
        <ele>415</ele>
        <time>2009-09-27T09:23:56Z</time>
      </trkpt>
      <trkpt lat="48.28666" lon="7.004">
        <ele>415</ele>
        <time>2009-09-27T09:24:00Z</time>
      </trkpt>
      <trkpt lat="48.28676" lon="7.00409">
        <ele>418</ele>
        <time>2009-09-27T09:24:04Z</time>
      </trkpt>
      <trkpt lat="48.28689" lon="7.0042">
        <ele>414</ele>
        <time>2009-09-27T09:24:08Z</time>
      </trkpt>
      <trkpt lat="48.28698" lon="7.00428">
        <ele>413</ele>
        <time>2009-09-27T09:24:12Z</time>
      </trkpt>
      <trkpt lat="48.28707" lon="7.00433">
        <ele>413</ele>
        <time>2009-09-27T09:24:16Z</time>
      </trkpt>
      <trkpt lat="48.28716" lon="7.00432">
        <ele>413</ele>
        <time>2009-09-27T09:24:20Z</time>
      </trkpt>
      <trkpt lat="48.28719" lon="7.00426">
        <ele>414</ele>
        <time>2009-09-27T09:24:24Z</time>
      </trkpt>
      <trkpt lat="48.2872" lon="7.00414">
        <ele>420</ele>
        <time>2009-09-27T09:24:28Z</time>
      </trkpt>
      <trkpt lat="48.28719" lon="7.00399">
        <ele>421</ele>
        <time>2009-09-27T09:24:32Z</time>
      </trkpt>
      <trkpt lat="48.28718" lon="7.00388">
        <ele>422</ele>
        <time>2009-09-27T09:24:36Z</time>
      </trkpt>
      <trkpt lat="48.2872" lon="7.00379">
        <ele>422</ele>
        <time>2009-09-27T09:24:40Z</time>
      </trkpt>
      <trkpt lat="48.28718" lon="7.00371">
        <ele>423</ele>
        <time>2009-09-27T09:24:44Z</time>
      </trkpt>
      <trkpt lat="48.28717" lon="7.0036">
        <ele>424</ele>
        <time>2009-09-27T09:24:48Z</time>
      </trkpt>
      <trkpt lat="48.28715" lon="7.00352">
        <ele>424</ele>
        <time>2009-09-27T09:24:52Z</time>
      </trkpt>
      <trkpt lat="48.28711" lon="7.00347">
        <ele>424</ele>
        <time>2009-09-27T09:24:56Z</time>
      </trkpt>
      <trkpt lat="48.2871" lon="7.0034">
        <ele>425</ele>
        <time>2009-09-27T09:25:01Z</time>
      </trkpt>
      <trkpt lat="48.28708" lon="7.00331">
        <ele>430</ele>
        <time>2009-09-27T09:25:05Z</time>
      </trkpt>
      <trkpt lat="48.28709" lon="7.00319">
        <ele>430</ele>
        <time>2009-09-27T09:25:09Z</time>
      </trkpt>
      <trkpt lat="48.28708" lon="7.00306">
        <ele>430</ele>
        <time>2009-09-27T09:25:13Z</time>
      </trkpt>
      <trkpt lat="48.28708" lon="7.00297">
        <ele>430</ele>
        <time>2009-09-27T09:25:17Z</time>
      </trkpt>
      <trkpt lat="48.28707" lon="7.00286">
        <ele>430</ele>
        <time>2009-09-27T09:25:21Z</time>
      </trkpt>
      <trkpt lat="48.28705" lon="7.0028">
        <ele>430</ele>
        <time>2009-09-27T09:25:25Z</time>
      </trkpt>
      <trkpt lat="48.28704" lon="7.00277">
        <ele>430</ele>
        <time>2009-09-27T09:25:29Z</time>
      </trkpt>
      <trkpt lat="48.28703" lon="7.00272">
        <ele>431</ele>
        <time>2009-09-27T09:25:33Z</time>
      </trkpt>
      <trkpt lat="48.28699" lon="7.00261">
        <ele>431</ele>
        <time>2009-09-27T09:25:37Z</time>
      </trkpt>
      <trkpt lat="48.28696" lon="7.00254">
        <ele>431</ele>
        <time>2009-09-27T09:25:41Z</time>
      </trkpt>
      <trkpt lat="48.28692" lon="7.0025">
        <ele>430</ele>
        <time>2009-09-27T09:25:45Z</time>
      </trkpt>
      <trkpt lat="48.28686" lon="7.00249">
        <ele>430</ele>
        <time>2009-09-27T09:25:49Z</time>
      </trkpt>
      <trkpt lat="48.28685" lon="7.00247">
        <ele>430</ele>
        <time>2009-09-27T09:25:53Z</time>
      </trkpt>
      <trkpt lat="48.28684" lon="7.00245">
        <ele>430</ele>
        <time>2009-09-27T09:25:58Z</time>
      </trkpt>
      <trkpt lat="48.28682" lon="7.00245">
        <ele>430</ele>
        <time>2009-09-27T09:26:02Z</time>
      </trkpt>
      <trkpt lat="48.2868" lon="7.00246">
        <ele>430</ele>
        <time>2009-09-27T09:26:06Z</time>
      </trkpt>
      <trkpt lat="48.2868" lon="7.00247">
        <ele>430</ele>
        <time>2009-09-27T09:26:10Z</time>
      </trkpt>
      <trkpt lat="48.2868" lon="7.00247">
        <ele>430</ele>
        <time>2009-09-27T09:26:14Z</time>
      </trkpt>
      <trkpt lat="48.2868" lon="7.00244">
        <ele>430</ele>
        <time>2009-09-27T09:26:18Z</time>
      </trkpt>
      <trkpt lat="48.28677" lon="7.00247">
        <ele>430</ele>
        <time>2009-09-27T09:26:22Z</time>
      </trkpt>
      <trkpt lat="48.28678" lon="7.00247">
        <ele>430</ele>
        <time>2009-09-27T09:26:26Z</time>
      </trkpt>
      <trkpt lat="48.28679" lon="7.00244">
        <ele>430</ele>
        <time>2009-09-27T09:26:30Z</time>
      </trkpt>
      <trkpt lat="48.28679" lon="7.00244">
        <ele>430</ele>
        <time>2009-09-27T09:26:34Z</time>
      </trkpt>
      <trkpt lat="48.2868" lon="7.00243">
        <ele>430</ele>
        <time>2009-09-27T09:26:38Z</time>
      </trkpt>
      <trkpt lat="48.2868" lon="7.00241">
        <ele>430</ele>
        <time>2009-09-27T09:26:43Z</time>
      </trkpt>
      <trkpt lat="48.28679" lon="7.00242">
        <ele>430</ele>
        <time>2009-09-27T09:26:47Z</time>
      </trkpt>
      <trkpt lat="48.2868" lon="7.0024">
        <ele>430</ele>
        <time>2009-09-27T09:26:51Z</time>
      </trkpt>
      <trkpt lat="48.28677" lon="7.00242">
        <ele>430</ele>
        <time>2009-09-27T09:26:55Z</time>
      </trkpt>
      <trkpt lat="48.28675" lon="7.00242">
        <ele>430</ele>
        <time>2009-09-27T09:26:59Z</time>
      </trkpt>
      <trkpt lat="48.28674" lon="7.00243">
        <ele>430</ele>
        <time>2009-09-27T09:27:03Z</time>
      </trkpt>
      <trkpt lat="48.28674" lon="7.00244">
        <ele>430</ele>
        <time>2009-09-27T09:27:07Z</time>
      </trkpt>
      <trkpt lat="48.28675" lon="7.00244">
        <ele>430</ele>
        <time>2009-09-27T09:27:11Z</time>
      </trkpt>
      <trkpt lat="48.28675" lon="7.00246">
        <ele>430</ele>
        <time>2009-09-27T09:27:15Z</time>
      </trkpt>
      <trkpt lat="48.28676" lon="7.00247">
        <ele>430</ele>
        <time>2009-09-27T09:27:19Z</time>
      </trkpt>
      <trkpt lat="48.28677" lon="7.00247">
        <ele>430</ele>
        <time>2009-09-27T09:27:23Z</time>
      </trkpt>
      <trkpt lat="48.28679" lon="7.00244">
        <ele>430</ele>
        <time>2009-09-27T09:27:27Z</time>
      </trkpt>
      <trkpt lat="48.2868" lon="7.00243">
        <ele>430</ele>
        <time>2009-09-27T09:27:32Z</time>
      </trkpt>
      <trkpt lat="48.28682" lon="7.00243">
        <ele>430</ele>
        <time>2009-09-27T09:27:36Z</time>
      </trkpt>
      <trkpt lat="48.28682" lon="7.00244">
        <ele>430</ele>
        <time>2009-09-27T09:27:40Z</time>
      </trkpt>
      <trkpt lat="48.28682" lon="7.00245">
        <ele>430</ele>
        <time>2009-09-27T09:27:44Z</time>
      </trkpt>
      <trkpt lat="48.28683" lon="7.00244">
        <ele>430</ele>
        <time>2009-09-27T09:27:48Z</time>
      </trkpt>
      <trkpt lat="48.28683" lon="7.00244">
        <ele>430</ele>
        <time>2009-09-27T09:27:52Z</time>
      </trkpt>
      <trkpt lat="48.28683" lon="7.00244">
        <ele>430</ele>
        <time>2009-09-27T09:27:56Z</time>
      </trkpt>
      <trkpt lat="48.28682" lon="7.00245">
        <ele>430</ele>
        <time>2009-09-27T09:28:00Z</time>
      </trkpt>
      <trkpt lat="48.28679" lon="7.00247">
        <ele>430</ele>
        <time>2009-09-27T09:28:04Z</time>
      </trkpt>
      <trkpt lat="48.28678" lon="7.00247">
        <ele>430</ele>
        <time>2009-09-27T09:28:08Z</time>
      </trkpt>
      <trkpt lat="48.28676" lon="7.00252">
        <ele>430</ele>
        <time>2009-09-27T09:28:12Z</time>
      </trkpt>
      <trkpt lat="48.28673" lon="7.00254">
        <ele>430</ele>
        <time>2009-09-27T09:28:16Z</time>
      </trkpt>
      <trkpt lat="48.28674" lon="7.00254">
        <ele>430</ele>
        <time>2009-09-27T09:28:20Z</time>
      </trkpt>
      <trkpt lat="48.28672" lon="7.00258">
        <ele>430</ele>
        <time>2009-09-27T09:28:24Z</time>
      </trkpt>
      <trkpt lat="48.28674" lon="7.00259">
        <ele>430</ele>
        <time>2009-09-27T09:28:28Z</time>
      </trkpt>
      <trkpt lat="48.2867" lon="7.00259">
        <ele>430</ele>
        <time>2009-09-27T09:28:33Z</time>
      </trkpt>
      <trkpt lat="48.28669" lon="7.00263">
        <ele>430</ele>
        <time>2009-09-27T09:28:37Z</time>
      </trkpt>
      <trkpt lat="48.28671" lon="7.00266">
        <ele>430</ele>
        <time>2009-09-27T09:28:41Z</time>
      </trkpt>
      <trkpt lat="48.28668" lon="7.00264">
        <ele>430</ele>
        <time>2009-09-27T09:28:45Z</time>
      </trkpt>
      <trkpt lat="48.28664" lon="7.00264">
        <ele>427</ele>
        <time>2009-09-27T09:28:49Z</time>
      </trkpt>
      <trkpt lat="48.28662" lon="7.00264">
        <ele>427</ele>
        <time>2009-09-27T09:28:53Z</time>
      </trkpt>
      <trkpt lat="48.28664" lon="7.0026">
        <ele>428</ele>
        <time>2009-09-27T09:28:57Z</time>
      </trkpt>
      <trkpt lat="48.28666" lon="7.00258">
        <ele>428</ele>
        <time>2009-09-27T09:29:01Z</time>
      </trkpt>
      <trkpt lat="48.28665" lon="7.00258">
        <ele>428</ele>
        <time>2009-09-27T09:29:05Z</time>
      </trkpt>
      <trkpt lat="48.28665" lon="7.0026">
        <ele>428</ele>
        <time>2009-09-27T09:29:09Z</time>
      </trkpt>
      <trkpt lat="48.28667" lon="7.00262">
        <ele>430</ele>
        <time>2009-09-27T09:29:13Z</time>
      </trkpt>
      <trkpt lat="48.28669" lon="7.00257">
        <ele>430</ele>
        <time>2009-09-27T09:29:17Z</time>
      </trkpt>
      <trkpt lat="48.2867" lon="7.00253">
        <ele>430</ele>
        <time>2009-09-27T09:29:21Z</time>
      </trkpt>
      <trkpt lat="48.2867" lon="7.00251">
        <ele>430</ele>
        <time>2009-09-27T09:29:25Z</time>
      </trkpt>
      <trkpt lat="48.2867" lon="7.00247">
        <ele>430</ele>
        <time>2009-09-27T09:29:29Z</time>
      </trkpt>
      <trkpt lat="48.28673" lon="7.00247">
        <ele>430</ele>
        <time>2009-09-27T09:29:33Z</time>
      </trkpt>
      <trkpt lat="48.28674" lon="7.0025">
        <ele>430</ele>
        <time>2009-09-27T09:29:37Z</time>
      </trkpt>
      <trkpt lat="48.28674" lon="7.00251">
        <ele>430</ele>
        <time>2009-09-27T09:29:41Z</time>
      </trkpt>
      <trkpt lat="48.28676" lon="7.00255">
        <ele>430</ele>
        <time>2009-09-27T09:29:45Z</time>
      </trkpt>
      <trkpt lat="48.28677" lon="7.00251">
        <ele>430</ele>
        <time>2009-09-27T09:29:49Z</time>
      </trkpt>
      <trkpt lat="48.28676" lon="7.00248">
        <ele>430</ele>
        <time>2009-09-27T09:29:54Z</time>
      </trkpt>
      <trkpt lat="48.28674" lon="7.00248">
        <ele>430</ele>
        <time>2009-09-27T09:29:58Z</time>
      </trkpt>
      <trkpt lat="48.28674" lon="7.00247">
        <ele>430</ele>
        <time>2009-09-27T09:30:02Z</time>
      </trkpt>
      <trkpt lat="48.28676" lon="7.00244">
        <ele>430</ele>
        <time>2009-09-27T09:30:06Z</time>
      </trkpt>
      <trkpt lat="48.28683" lon="7.00244">
        <ele>430</ele>
        <time>2009-09-27T09:30:10Z</time>
      </trkpt>
      <trkpt lat="48.28682" lon="7.00241">
        <ele>430</ele>
        <time>2009-09-27T09:30:14Z</time>
      </trkpt>
      <trkpt lat="48.28679" lon="7.00244">
        <ele>430</ele>
        <time>2009-09-27T09:30:18Z</time>
      </trkpt>
      <trkpt lat="48.28675" lon="7.00243">
        <ele>430</ele>
        <time>2009-09-27T09:30:22Z</time>
      </trkpt>
      <trkpt lat="48.28677" lon="7.0025">
        <ele>430</ele>
        <time>2009-09-27T09:30:26Z</time>
      </trkpt>
      <trkpt lat="48.28676" lon="7.00251">
        <ele>430</ele>
        <time>2009-09-27T09:30:30Z</time>
      </trkpt>
      <trkpt lat="48.28674" lon="7.00253">
        <ele>430</ele>
        <time>2009-09-27T09:30:34Z</time>
      </trkpt>
      <trkpt lat="48.28672" lon="7.00253">
        <ele>430</ele>
        <time>2009-09-27T09:30:38Z</time>
      </trkpt>
      <trkpt lat="48.28673" lon="7.00254">
        <ele>430</ele>
        <time>2009-09-27T09:30:42Z</time>
      </trkpt>
      <trkpt lat="48.28673" lon="7.00253">
        <ele>430</ele>
        <time>2009-09-27T09:30:46Z</time>
      </trkpt>
      <trkpt lat="48.28676" lon="7.00254">
        <ele>430</ele>
        <time>2009-09-27T09:30:51Z</time>
      </trkpt>
      <trkpt lat="48.28678" lon="7.00252">
        <ele>430</ele>
        <time>2009-09-27T09:30:55Z</time>
      </trkpt>
      <trkpt lat="48.28676" lon="7.00251">
        <ele>430</ele>
        <time>2009-09-27T09:30:59Z</time>
      </trkpt>
      <trkpt lat="48.28676" lon="7.0025">
        <ele>430</ele>
        <time>2009-09-27T09:31:03Z</time>
      </trkpt>
      <trkpt lat="48.28675" lon="7.00246">
        <ele>430</ele>
        <time>2009-09-27T09:31:07Z</time>
      </trkpt>
      <trkpt lat="48.28675" lon="7.00242">
        <ele>430</ele>
        <time>2009-09-27T09:31:11Z</time>
      </trkpt>
      <trkpt lat="48.28677" lon="7.00243">
        <ele>430</ele>
        <time>2009-09-27T09:31:15Z</time>
      </trkpt>
      <trkpt lat="48.28678" lon="7.00244">
        <ele>430</ele>
        <time>2009-09-27T09:31:19Z</time>
      </trkpt>
      <trkpt lat="48.28677" lon="7.00247">
        <ele>430</ele>
        <time>2009-09-27T09:31:23Z</time>
      </trkpt>
      <trkpt lat="48.28677" lon="7.00246">
        <ele>430</ele>
        <time>2009-09-27T09:31:27Z</time>
      </trkpt>
      <trkpt lat="48.28675" lon="7.00246">
        <ele>430</ele>
        <time>2009-09-27T09:31:31Z</time>
      </trkpt>
      <trkpt lat="48.28674" lon="7.00246">
        <ele>430</ele>
        <time>2009-09-27T09:31:35Z</time>
      </trkpt>
      <trkpt lat="48.28674" lon="7.00242">
        <ele>430</ele>
        <time>2009-09-27T09:31:39Z</time>
      </trkpt>
      <trkpt lat="48.28674" lon="7.00239">
        <ele>430</ele>
        <time>2009-09-27T09:31:43Z</time>
      </trkpt>
      <trkpt lat="48.28674" lon="7.00235">
        <ele>430</ele>
        <time>2009-09-27T09:31:47Z</time>
      </trkpt>
      <trkpt lat="48.28674" lon="7.00231">
        <ele>430</ele>
        <time>2009-09-27T09:31:51Z</time>
      </trkpt>
      <trkpt lat="48.28675" lon="7.00232">
        <ele>430</ele>
        <time>2009-09-27T09:31:55Z</time>
      </trkpt>
      <trkpt lat="48.2868" lon="7.00237">
        <ele>430</ele>
        <time>2009-09-27T09:31:59Z</time>
      </trkpt>
      <trkpt lat="48.28677" lon="7.00238">
        <ele>430</ele>
        <time>2009-09-27T09:32:03Z</time>
      </trkpt>
      <trkpt lat="48.28675" lon="7.00239">
        <ele>430</ele>
        <time>2009-09-27T09:32:07Z</time>
      </trkpt>
      <trkpt lat="48.28676" lon="7.00235">
        <ele>430</ele>
        <time>2009-09-27T09:32:11Z</time>
      </trkpt>
      <trkpt lat="48.28674" lon="7.00236">
        <ele>430</ele>
        <time>2009-09-27T09:32:15Z</time>
      </trkpt>
      <trkpt lat="48.28672" lon="7.00238">
        <ele>430</ele>
        <time>2009-09-27T09:32:19Z</time>
      </trkpt>
      <trkpt lat="48.28674" lon="7.00242">
        <ele>430</ele>
        <time>2009-09-27T09:32:24Z</time>
      </trkpt>
      <trkpt lat="48.28675" lon="7.00242">
        <ele>430</ele>
        <time>2009-09-27T09:32:28Z</time>
      </trkpt>
      <trkpt lat="48.28675" lon="7.00239">
        <ele>430</ele>
        <time>2009-09-27T09:32:32Z</time>
      </trkpt>
      <trkpt lat="48.28679" lon="7.0024">
        <ele>430</ele>
        <time>2009-09-27T09:32:36Z</time>
      </trkpt>
      <trkpt lat="48.28684" lon="7.00244">
        <ele>430</ele>
        <time>2009-09-27T09:32:40Z</time>
      </trkpt>
      <trkpt lat="48.28691" lon="7.00252">
        <ele>430</ele>
        <time>2009-09-27T09:32:44Z</time>
      </trkpt>
      <trkpt lat="48.28702" lon="7.00274">
        <ele>430</ele>
        <time>2009-09-27T09:32:48Z</time>
      </trkpt>
      <trkpt lat="48.28709" lon="7.00294">
        <ele>430</ele>
        <time>2009-09-27T09:32:52Z</time>
      </trkpt>
      <trkpt lat="48.28728" lon="7.00318">
        <ele>430</ele>
        <time>2009-09-27T09:32:56Z</time>
      </trkpt>
      <trkpt lat="48.28754" lon="7.00332">
        <ele>430</ele>
        <time>2009-09-27T09:33:00Z</time>
      </trkpt>
      <trkpt lat="48.28779" lon="7.00333">
        <ele>427</ele>
        <time>2009-09-27T09:33:04Z</time>
      </trkpt>
      <trkpt lat="48.28797" lon="7.00339">
        <ele>427</ele>
        <time>2009-09-27T09:33:08Z</time>
      </trkpt>
      <trkpt lat="48.28817" lon="7.0036">
        <ele>426</ele>
        <time>2009-09-27T09:33:12Z</time>
      </trkpt>
      <trkpt lat="48.28845" lon="7.0039">
        <ele>424</ele>
        <time>2009-09-27T09:33:16Z</time>
      </trkpt>
      <trkpt lat="48.28872" lon="7.00398">
        <ele>425</ele>
        <time>2009-09-27T09:33:20Z</time>
      </trkpt>
      <trkpt lat="48.28895" lon="7.00415">
        <ele>425</ele>
        <time>2009-09-27T09:33:24Z</time>
      </trkpt>
      <trkpt lat="48.28913" lon="7.00425">
        <ele>421</ele>
        <time>2009-09-27T09:33:28Z</time>
      </trkpt>
      <trkpt lat="48.28925" lon="7.00425">
        <ele>421</ele>
        <time>2009-09-27T09:33:32Z</time>
      </trkpt>
      <trkpt lat="48.28934" lon="7.00422">
        <ele>420</ele>
        <time>2009-09-27T09:33:36Z</time>
      </trkpt>
      <trkpt lat="48.28946" lon="7.00412">
        <ele>424</ele>
        <time>2009-09-27T09:33:40Z</time>
      </trkpt>
      <trkpt lat="48.2897" lon="7.004">
        <ele>424</ele>
        <time>2009-09-27T09:33:44Z</time>
      </trkpt>
      <trkpt lat="48.28992" lon="7.00398">
        <ele>423</ele>
        <time>2009-09-27T09:33:48Z</time>
      </trkpt>
      <trkpt lat="48.29008" lon="7.00405">
        <ele>423</ele>
        <time>2009-09-27T09:33:52Z</time>
      </trkpt>
      <trkpt lat="48.29022" lon="7.00414">
        <ele>424</ele>
        <time>2009-09-27T09:33:56Z</time>
      </trkpt>
      <trkpt lat="48.29035" lon="7.00426">
        <ele>423</ele>
        <time>2009-09-27T09:34:00Z</time>
      </trkpt>
      <trkpt lat="48.29044" lon="7.00438">
        <ele>423</ele>
        <time>2009-09-27T09:34:05Z</time>
      </trkpt>
      <trkpt lat="48.29056" lon="7.00449">
        <ele>424</ele>
        <time>2009-09-27T09:34:09Z</time>
      </trkpt>
      <trkpt lat="48.29068" lon="7.00461">
        <ele>424</ele>
        <time>2009-09-27T09:34:13Z</time>
      </trkpt>
      <trkpt lat="48.29077" lon="7.00473">
        <ele>425</ele>
        <time>2009-09-27T09:34:17Z</time>
      </trkpt>
      <trkpt lat="48.29084" lon="7.00487">
        <ele>430</ele>
        <time>2009-09-27T09:34:21Z</time>
      </trkpt>
      <trkpt lat="48.2909" lon="7.00502">
        <ele>429</ele>
        <time>2009-09-27T09:34:25Z</time>
      </trkpt>
      <trkpt lat="48.29097" lon="7.00519">
        <ele>432</ele>
        <time>2009-09-27T09:34:29Z</time>
      </trkpt>
      <trkpt lat="48.29102" lon="7.00536">
        <ele>433</ele>
        <time>2009-09-27T09:34:33Z</time>
      </trkpt>
      <trkpt lat="48.29109" lon="7.00558">
        <ele>433</ele>
        <time>2009-09-27T09:34:37Z</time>
      </trkpt>
      <trkpt lat="48.29115" lon="7.00574">
        <ele>433</ele>
        <time>2009-09-27T09:34:41Z</time>
      </trkpt>
      <trkpt lat="48.29121" lon="7.00592">
        <ele>433</ele>
        <time>2009-09-27T09:34:45Z</time>
      </trkpt>
      <trkpt lat="48.29127" lon="7.00615">
        <ele>433</ele>
        <time>2009-09-27T09:34:49Z</time>
      </trkpt>
      <trkpt lat="48.29136" lon="7.00635">
        <ele>434</ele>
        <time>2009-09-27T09:34:53Z</time>
      </trkpt>
      <trkpt lat="48.29143" lon="7.00651">
        <ele>434</ele>
        <time>2009-09-27T09:34:57Z</time>
      </trkpt>
      <trkpt lat="48.29151" lon="7.00663">
        <ele>435</ele>
        <time>2009-09-27T09:35:01Z</time>
      </trkpt>
      <trkpt lat="48.29163" lon="7.00676">
        <ele>433</ele>
        <time>2009-09-27T09:35:05Z</time>
      </trkpt>
      <trkpt lat="48.29175" lon="7.00687">
        <ele>434</ele>
        <time>2009-09-27T09:35:09Z</time>
      </trkpt>
      <trkpt lat="48.29188" lon="7.00696">
        <ele>434</ele>
        <time>2009-09-27T09:35:13Z</time>
      </trkpt>
      <trkpt lat="48.292" lon="7.00698">
        <ele>434</ele>
        <time>2009-09-27T09:35:17Z</time>
      </trkpt>
      <trkpt lat="48.29211" lon="7.00698">
        <ele>434</ele>
        <time>2009-09-27T09:35:21Z</time>
      </trkpt>
      <trkpt lat="48.29224" lon="7.00696">
        <ele>435</ele>
        <time>2009-09-27T09:35:25Z</time>
      </trkpt>
      <trkpt lat="48.29228" lon="7.00697">
        <ele>435</ele>
        <time>2009-09-27T09:35:30Z</time>
      </trkpt>
      <trkpt lat="48.29236" lon="7.00697">
        <ele>436</ele>
        <time>2009-09-27T09:35:34Z</time>
      </trkpt>
      <trkpt lat="48.29241" lon="7.00696">
        <ele>436</ele>
        <time>2009-09-27T09:35:38Z</time>
      </trkpt>
      <trkpt lat="48.29248" lon="7.00689">
        <ele>438</ele>
        <time>2009-09-27T09:35:42Z</time>
      </trkpt>
      <trkpt lat="48.29258" lon="7.00684">
        <ele>441</ele>
        <time>2009-09-27T09:35:46Z</time>
      </trkpt>
      <trkpt lat="48.29268" lon="7.0068">
        <ele>441</ele>
        <time>2009-09-27T09:35:50Z</time>
      </trkpt>
      <trkpt lat="48.29279" lon="7.00674">
        <ele>440</ele>
        <time>2009-09-27T09:35:54Z</time>
      </trkpt>
      <trkpt lat="48.29288" lon="7.00673">
        <ele>440</ele>
        <time>2009-09-27T09:35:58Z</time>
      </trkpt>
      <trkpt lat="48.29294" lon="7.00672">
        <ele>440</ele>
        <time>2009-09-27T09:36:02Z</time>
      </trkpt>
      <trkpt lat="48.29301" lon="7.0067">
        <ele>441</ele>
        <time>2009-09-27T09:36:06Z</time>
      </trkpt>
      <trkpt lat="48.29311" lon="7.00666">
        <ele>447</ele>
        <time>2009-09-27T09:36:10Z</time>
      </trkpt>
      <trkpt lat="48.29322" lon="7.00661">
        <ele>447</ele>
        <time>2009-09-27T09:36:14Z</time>
      </trkpt>
      <trkpt lat="48.29333" lon="7.00653">
        <ele>447</ele>
        <time>2009-09-27T09:36:18Z</time>
      </trkpt>
      <trkpt lat="48.29347" lon="7.00646">
        <ele>449</ele>
        <time>2009-09-27T09:36:22Z</time>
      </trkpt>
      <trkpt lat="48.29369" lon="7.00641">
        <ele>450</ele>
        <time>2009-09-27T09:36:26Z</time>
      </trkpt>
      <trkpt lat="48.29382" lon="7.00637">
        <ele>450</ele>
        <time>2009-09-27T09:36:30Z</time>
      </trkpt>
      <trkpt lat="48.29397" lon="7.00637">
        <ele>450</ele>
        <time>2009-09-27T09:36:34Z</time>
      </trkpt>
      <trkpt lat="48.2941" lon="7.00634">
        <ele>450</ele>
        <time>2009-09-27T09:36:38Z</time>
      </trkpt>
      <trkpt lat="48.29427" lon="7.0063">
        <ele>451</ele>
        <time>2009-09-27T09:36:42Z</time>
      </trkpt>
      <trkpt lat="48.29444" lon="7.00626">
        <ele>452</ele>
        <time>2009-09-27T09:36:46Z</time>
      </trkpt>
      <trkpt lat="48.29454" lon="7.00628">
        <ele>452</ele>
        <time>2009-09-27T09:36:51Z</time>
      </trkpt>
      <trkpt lat="48.29467" lon="7.00623">
        <ele>452</ele>
        <time>2009-09-27T09:36:55Z</time>
      </trkpt>
      <trkpt lat="48.29476" lon="7.00619">
        <ele>453</ele>
        <time>2009-09-27T09:36:59Z</time>
      </trkpt>
      <trkpt lat="48.29484" lon="7.00617">
        <ele>453</ele>
        <time>2009-09-27T09:37:03Z</time>
      </trkpt>
      <trkpt lat="48.29495" lon="7.0061">
        <ele>453</ele>
        <time>2009-09-27T09:37:07Z</time>
      </trkpt>
      <trkpt lat="48.29506" lon="7.006">
        <ele>456</ele>
        <time>2009-09-27T09:37:11Z</time>
      </trkpt>
      <trkpt lat="48.29517" lon="7.00593">
        <ele>457</ele>
        <time>2009-09-27T09:37:15Z</time>
      </trkpt>
      <trkpt lat="48.29534" lon="7.00586">
        <ele>457</ele>
        <time>2009-09-27T09:37:19Z</time>
      </trkpt>
      <trkpt lat="48.29547" lon="7.00585">
        <ele>458</ele>
        <time>2009-09-27T09:37:23Z</time>
      </trkpt>
      <trkpt lat="48.29558" lon="7.00583">
        <ele>458</ele>
        <time>2009-09-27T09:37:27Z</time>
      </trkpt>
      <trkpt lat="48.29569" lon="7.00587">
        <ele>459</ele>
        <time>2009-09-27T09:37:31Z</time>
      </trkpt>
      <trkpt lat="48.29579" lon="7.00588">
        <ele>460</ele>
        <time>2009-09-27T09:37:35Z</time>
      </trkpt>
      <trkpt lat="48.29589" lon="7.00592">
        <ele>462</ele>
        <time>2009-09-27T09:37:39Z</time>
      </trkpt>
      <trkpt lat="48.296" lon="7.00597">
        <ele>462</ele>
        <time>2009-09-27T09:37:43Z</time>
      </trkpt>
      <trkpt lat="48.29608" lon="7.00599">
        <ele>463</ele>
        <time>2009-09-27T09:37:48Z</time>
      </trkpt>
      <trkpt lat="48.29616" lon="7.00601">
        <ele>463</ele>
        <time>2009-09-27T09:37:52Z</time>
      </trkpt>
      <trkpt lat="48.29626" lon="7.00606">
        <ele>463</ele>
        <time>2009-09-27T09:37:56Z</time>
      </trkpt>
      <trkpt lat="48.29633" lon="7.00606">
        <ele>463</ele>
        <time>2009-09-27T09:38:00Z</time>
      </trkpt>
      <trkpt lat="48.29641" lon="7.0061">
        <ele>464</ele>
        <time>2009-09-27T09:38:04Z</time>
      </trkpt>
      <trkpt lat="48.2965" lon="7.00616">
        <ele>464</ele>
        <time>2009-09-27T09:38:08Z</time>
      </trkpt>
      <trkpt lat="48.29659" lon="7.00621">
        <ele>464</ele>
        <time>2009-09-27T09:38:12Z</time>
      </trkpt>
      <trkpt lat="48.2967" lon="7.00632">
        <ele>467</ele>
        <time>2009-09-27T09:38:16Z</time>
      </trkpt>
      <trkpt lat="48.29685" lon="7.00646">
        <ele>467</ele>
        <time>2009-09-27T09:38:20Z</time>
      </trkpt>
      <trkpt lat="48.29694" lon="7.00654">
        <ele>467</ele>
        <time>2009-09-27T09:38:24Z</time>
      </trkpt>
      <trkpt lat="48.29703" lon="7.0066">
        <ele>468</ele>
        <time>2009-09-27T09:38:28Z</time>
      </trkpt>
      <trkpt lat="48.29713" lon="7.00668">
        <ele>465</ele>
        <time>2009-09-27T09:38:32Z</time>
      </trkpt>
      <trkpt lat="48.29723" lon="7.00678">
        <ele>466</ele>
        <time>2009-09-27T09:38:36Z</time>
      </trkpt>
      <trkpt lat="48.29733" lon="7.00689">
        <ele>466</ele>
        <time>2009-09-27T09:38:40Z</time>
      </trkpt>
      <trkpt lat="48.29741" lon="7.00695">
        <ele>466</ele>
        <time>2009-09-27T09:38:45Z</time>
      </trkpt>
      <trkpt lat="48.2975" lon="7.00701">
        <ele>465</ele>
        <time>2009-09-27T09:38:49Z</time>
      </trkpt>
      <trkpt lat="48.2976" lon="7.00709">
        <ele>470</ele>
        <time>2009-09-27T09:38:53Z</time>
      </trkpt>
      <trkpt lat="48.2977" lon="7.00717">
        <ele>471</ele>
        <time>2009-09-27T09:38:57Z</time>
      </trkpt>
      <trkpt lat="48.29782" lon="7.00726">
        <ele>471</ele>
        <time>2009-09-27T09:39:01Z</time>
      </trkpt>
      <trkpt lat="48.29797" lon="7.00743">
        <ele>472</ele>
        <time>2009-09-27T09:39:05Z</time>
      </trkpt>
      <trkpt lat="48.29804" lon="7.00765">
        <ele>470</ele>
        <time>2009-09-27T09:39:09Z</time>
      </trkpt>
      <trkpt lat="48.29789" lon="7.00793">
        <ele>468</ele>
        <time>2009-09-27T09:39:13Z</time>
      </trkpt>
      <trkpt lat="48.29764" lon="7.00806">
        <ele>466</ele>
        <time>2009-09-27T09:39:17Z</time>
      </trkpt>
      <trkpt lat="48.29735" lon="7.0081">
        <ele>461</ele>
        <time>2009-09-27T09:39:21Z</time>
      </trkpt>
      <trkpt lat="48.29712" lon="7.00823">
        <ele>460</ele>
        <time>2009-09-27T09:39:25Z</time>
      </trkpt>
      <trkpt lat="48.29695" lon="7.00842">
        <ele>459</ele>
        <time>2009-09-27T09:39:29Z</time>
      </trkpt>
      <trkpt lat="48.2968" lon="7.00873">
        <ele>458</ele>
        <time>2009-09-27T09:39:33Z</time>
      </trkpt>
      <trkpt lat="48.29676" lon="7.00908">
        <ele>458</ele>
        <time>2009-09-27T09:39:37Z</time>
      </trkpt>
      <trkpt lat="48.29683" lon="7.00943">
        <ele>457</ele>
        <time>2009-09-27T09:39:41Z</time>
      </trkpt>
      <trkpt lat="48.29692" lon="7.00977">
        <ele>457</ele>
        <time>2009-09-27T09:39:45Z</time>
      </trkpt>
      <trkpt lat="48.29702" lon="7.01015">
        <ele>456</ele>
        <time>2009-09-27T09:39:49Z</time>
      </trkpt>
      <trkpt lat="48.29704" lon="7.01047">
        <ele>456</ele>
        <time>2009-09-27T09:39:53Z</time>
      </trkpt>
      <trkpt lat="48.29701" lon="7.01078">
        <ele>456</ele>
        <time>2009-09-27T09:39:57Z</time>
      </trkpt>
      <trkpt lat="48.29692" lon="7.01114">
        <ele>455</ele>
        <time>2009-09-27T09:40:01Z</time>
      </trkpt>
      <trkpt lat="48.29679" lon="7.01153">
        <ele>454</ele>
        <time>2009-09-27T09:40:05Z</time>
      </trkpt>
      <trkpt lat="48.29667" lon="7.01193">
        <ele>453</ele>
        <time>2009-09-27T09:40:10Z</time>
      </trkpt>
      <trkpt lat="48.29661" lon="7.01224">
        <ele>455</ele>
        <time>2009-09-27T09:40:14Z</time>
      </trkpt>
      <trkpt lat="48.29656" lon="7.01242">
        <ele>454</ele>
        <time>2009-09-27T09:40:18Z</time>
      </trkpt>
      <trkpt lat="48.29651" lon="7.01259">
        <ele>453</ele>
        <time>2009-09-27T09:40:22Z</time>
      </trkpt>
      <trkpt lat="48.29645" lon="7.01278">
        <ele>454</ele>
        <time>2009-09-27T09:40:26Z</time>
      </trkpt>
      <trkpt lat="48.29631" lon="7.01295">
        <ele>454</ele>
        <time>2009-09-27T09:40:30Z</time>
      </trkpt>
      <trkpt lat="48.29609" lon="7.0132">
        <ele>454</ele>
        <time>2009-09-27T09:40:34Z</time>
      </trkpt>
      <trkpt lat="48.29587" lon="7.01354">
        <ele>452</ele>
        <time>2009-09-27T09:40:38Z</time>
      </trkpt>
      <trkpt lat="48.29569" lon="7.01385">
        <ele>448</ele>
        <time>2009-09-27T09:40:42Z</time>
      </trkpt>
      <trkpt lat="48.29549" lon="7.01405">
        <ele>448</ele>
        <time>2009-09-27T09:40:46Z</time>
      </trkpt>
      <trkpt lat="48.29516" lon="7.01416">
        <ele>446</ele>
        <time>2009-09-27T09:40:50Z</time>
      </trkpt>
      <trkpt lat="48.29492" lon="7.01437">
        <ele>442</ele>
        <time>2009-09-27T09:40:54Z</time>
      </trkpt>
      <trkpt lat="48.29474" lon="7.01456">
        <ele>441</ele>
        <time>2009-09-27T09:40:58Z</time>
      </trkpt>
      <trkpt lat="48.29447" lon="7.01464">
        <ele>440</ele>
        <time>2009-09-27T09:41:02Z</time>
      </trkpt>
      <trkpt lat="48.29425" lon="7.01468">
        <ele>440</ele>
        <time>2009-09-27T09:41:06Z</time>
      </trkpt>
      <trkpt lat="48.2941" lon="7.01474">
        <ele>437</ele>
        <time>2009-09-27T09:41:10Z</time>
      </trkpt>
      <trkpt lat="48.29399" lon="7.01484">
        <ele>438</ele>
        <time>2009-09-27T09:41:14Z</time>
      </trkpt>
      <trkpt lat="48.29393" lon="7.01492">
        <ele>438</ele>
        <time>2009-09-27T09:41:18Z</time>
      </trkpt>
      <trkpt lat="48.29382" lon="7.015">
        <ele>444</ele>
        <time>2009-09-27T09:41:22Z</time>
      </trkpt>
      <trkpt lat="48.29368" lon="7.01502">
        <ele>444</ele>
        <time>2009-09-27T09:41:26Z</time>
      </trkpt>
      <trkpt lat="48.29356" lon="7.01501">
        <ele>444</ele>
        <time>2009-09-27T09:41:31Z</time>
      </trkpt>
      <trkpt lat="48.29347" lon="7.01498">
        <ele>439</ele>
        <time>2009-09-27T09:41:35Z</time>
      </trkpt>
      <trkpt lat="48.29334" lon="7.01498">
        <ele>442</ele>
        <time>2009-09-27T09:41:39Z</time>
      </trkpt>
      <trkpt lat="48.29321" lon="7.01495">
        <ele>442</ele>
        <time>2009-09-27T09:41:43Z</time>
      </trkpt>
      <trkpt lat="48.29311" lon="7.0149">
        <ele>442</ele>
        <time>2009-09-27T09:41:47Z</time>
      </trkpt>
      <trkpt lat="48.29301" lon="7.01483">
        <ele>442</ele>
        <time>2009-09-27T09:41:51Z</time>
      </trkpt>
      <trkpt lat="48.29288" lon="7.01473">
        <ele>442</ele>
        <time>2009-09-27T09:41:55Z</time>
      </trkpt>
      <trkpt lat="48.29278" lon="7.01463">
        <ele>442</ele>
        <time>2009-09-27T09:41:59Z</time>
      </trkpt>
      <trkpt lat="48.2927" lon="7.01455">
        <ele>442</ele>
        <time>2009-09-27T09:42:03Z</time>
      </trkpt>
      <trkpt lat="48.29259" lon="7.01447">
        <ele>442</ele>
        <time>2009-09-27T09:42:07Z</time>
      </trkpt>
      <trkpt lat="48.29255" lon="7.01442">
        <ele>442</ele>
        <time>2009-09-27T09:42:11Z</time>
      </trkpt>
      <trkpt lat="48.29247" lon="7.01436">
        <ele>445</ele>
        <time>2009-09-27T09:42:15Z</time>
      </trkpt>
      <trkpt lat="48.29239" lon="7.01432">
        <ele>445</ele>
        <time>2009-09-27T09:42:19Z</time>
      </trkpt>
      <trkpt lat="48.29228" lon="7.01427">
        <ele>445</ele>
        <time>2009-09-27T09:42:23Z</time>
      </trkpt>
      <trkpt lat="48.2922" lon="7.01424">
        <ele>446</ele>
        <time>2009-09-27T09:42:28Z</time>
      </trkpt>
      <trkpt lat="48.29211" lon="7.01422">
        <ele>446</ele>
        <time>2009-09-27T09:42:32Z</time>
      </trkpt>
      <trkpt lat="48.29203" lon="7.0142">
        <ele>447</ele>
        <time>2009-09-27T09:42:36Z</time>
      </trkpt>
      <trkpt lat="48.29194" lon="7.01417">
        <ele>447</ele>
        <time>2009-09-27T09:42:40Z</time>
      </trkpt>
      <trkpt lat="48.29187" lon="7.01412">
        <ele>444</ele>
        <time>2009-09-27T09:42:44Z</time>
      </trkpt>
      <trkpt lat="48.29184" lon="7.01414">
        <ele>445</ele>
        <time>2009-09-27T09:42:48Z</time>
      </trkpt>
      <trkpt lat="48.29187" lon="7.01414">
        <ele>444</ele>
        <time>2009-09-27T09:42:52Z</time>
      </trkpt>
      <trkpt lat="48.29191" lon="7.01416">
        <ele>444</ele>
        <time>2009-09-27T09:42:56Z</time>
      </trkpt>
      <trkpt lat="48.29197" lon="7.01421">
        <ele>447</ele>
        <time>2009-09-27T09:43:00Z</time>
      </trkpt>
      <trkpt lat="48.29204" lon="7.01425">
        <ele>447</ele>
        <time>2009-09-27T09:43:04Z</time>
      </trkpt>
      <trkpt lat="48.2921" lon="7.01432">
        <ele>447</ele>
        <time>2009-09-27T09:43:08Z</time>
      </trkpt>
      <trkpt lat="48.29215" lon="7.01439">
        <ele>446</ele>
        <time>2009-09-27T09:43:12Z</time>
      </trkpt>
      <trkpt lat="48.29222" lon="7.01449">
        <ele>447</ele>
        <time>2009-09-27T09:43:16Z</time>
      </trkpt>
      <trkpt lat="48.29227" lon="7.01457">
        <ele>447</ele>
        <time>2009-09-27T09:43:20Z</time>
      </trkpt>
      <trkpt lat="48.29235" lon="7.01463">
        <ele>447</ele>
        <time>2009-09-27T09:43:25Z</time>
      </trkpt>
      <trkpt lat="48.29241" lon="7.01471">
        <ele>448</ele>
        <time>2009-09-27T09:43:29Z</time>
      </trkpt>
      <trkpt lat="48.29247" lon="7.01481">
        <ele>449</ele>
        <time>2009-09-27T09:43:33Z</time>
      </trkpt>
      <trkpt lat="48.29253" lon="7.01491">
        <ele>448</ele>
        <time>2009-09-27T09:43:37Z</time>
      </trkpt>
      <trkpt lat="48.2926" lon="7.01506">
        <ele>451</ele>
        <time>2009-09-27T09:43:41Z</time>
      </trkpt>
      <trkpt lat="48.29265" lon="7.0152">
        <ele>451</ele>
        <time>2009-09-27T09:43:45Z</time>
      </trkpt>
      <trkpt lat="48.29271" lon="7.01532">
        <ele>451</ele>
        <time>2009-09-27T09:43:49Z</time>
      </trkpt>
      <trkpt lat="48.29279" lon="7.01546">
        <ele>451</ele>
        <time>2009-09-27T09:43:53Z</time>
      </trkpt>
      <trkpt lat="48.29287" lon="7.01559">
        <ele>451</ele>
        <time>2009-09-27T09:43:58Z</time>
      </trkpt>
      <trkpt lat="48.29294" lon="7.01574">
        <ele>451</ele>
        <time>2009-09-27T09:44:02Z</time>
      </trkpt>
      <trkpt lat="48.29301" lon="7.01582">
        <ele>451</ele>
        <time>2009-09-27T09:44:06Z</time>
      </trkpt>
      <trkpt lat="48.29309" lon="7.0159">
        <ele>453</ele>
        <time>2009-09-27T09:44:10Z</time>
      </trkpt>
      <trkpt lat="48.29316" lon="7.01597">
        <ele>453</ele>
        <time>2009-09-27T09:44:14Z</time>
      </trkpt>
      <trkpt lat="48.29321" lon="7.01608">
        <ele>453</ele>
        <time>2009-09-27T09:44:18Z</time>
      </trkpt>
      <trkpt lat="48.29327" lon="7.01617">
        <ele>453</ele>
        <time>2009-09-27T09:44:23Z</time>
      </trkpt>
      <trkpt lat="48.29334" lon="7.01629">
        <ele>455</ele>
        <time>2009-09-27T09:44:27Z</time>
      </trkpt>
      <trkpt lat="48.29339" lon="7.01638">
        <ele>455</ele>
        <time>2009-09-27T09:44:31Z</time>
      </trkpt>
      <trkpt lat="48.29345" lon="7.0165">
        <ele>455</ele>
        <time>2009-09-27T09:44:35Z</time>
      </trkpt>
      <trkpt lat="48.29351" lon="7.01662">
        <ele>456</ele>
        <time>2009-09-27T09:44:39Z</time>
      </trkpt>
      <trkpt lat="48.29358" lon="7.01675">
        <ele>457</ele>
        <time>2009-09-27T09:44:43Z</time>
      </trkpt>
      <trkpt lat="48.29365" lon="7.01688">
        <ele>457</ele>
        <time>2009-09-27T09:44:47Z</time>
      </trkpt>
      <trkpt lat="48.29376" lon="7.01704">
        <ele>457</ele>
        <time>2009-09-27T09:44:51Z</time>
      </trkpt>
      <trkpt lat="48.29387" lon="7.01719">
        <ele>458</ele>
        <time>2009-09-27T09:44:55Z</time>
      </trkpt>
      <trkpt lat="48.29397" lon="7.01729">
        <ele>458</ele>
        <time>2009-09-27T09:44:59Z</time>
      </trkpt>
      <trkpt lat="48.29409" lon="7.01743">
        <ele>460</ele>
        <time>2009-09-27T09:45:03Z</time>
      </trkpt>
      <trkpt lat="48.29421" lon="7.01763">
        <ele>462</ele>
        <time>2009-09-27T09:45:07Z</time>
      </trkpt>
      <trkpt lat="48.2943" lon="7.01775">
        <ele>463</ele>
        <time>2009-09-27T09:45:11Z</time>
      </trkpt>
      <trkpt lat="48.29439" lon="7.01789">
        <ele>463</ele>
        <time>2009-09-27T09:45:15Z</time>
      </trkpt>
      <trkpt lat="48.29448" lon="7.01804">
        <ele>463</ele>
        <time>2009-09-27T09:45:19Z</time>
      </trkpt>
      <trkpt lat="48.29458" lon="7.01817">
        <ele>464</ele>
        <time>2009-09-27T09:45:23Z</time>
      </trkpt>
      <trkpt lat="48.29467" lon="7.01831">
        <ele>464</ele>
        <time>2009-09-27T09:45:27Z</time>
      </trkpt>
      <trkpt lat="48.29475" lon="7.01841">
        <ele>463</ele>
        <time>2009-09-27T09:45:31Z</time>
      </trkpt>
      <trkpt lat="48.29482" lon="7.01846">
        <ele>464</ele>
        <time>2009-09-27T09:45:35Z</time>
      </trkpt>
      <trkpt lat="48.29491" lon="7.01851">
        <ele>464</ele>
        <time>2009-09-27T09:45:39Z</time>
      </trkpt>
      <trkpt lat="48.29501" lon="7.01857">
        <ele>467</ele>
        <time>2009-09-27T09:45:43Z</time>
      </trkpt>
      <trkpt lat="48.29511" lon="7.01863">
        <ele>467</ele>
        <time>2009-09-27T09:45:47Z</time>
      </trkpt>
      <trkpt lat="48.29522" lon="7.01873">
        <ele>467</ele>
        <time>2009-09-27T09:45:52Z</time>
      </trkpt>
      <trkpt lat="48.29531" lon="7.01878">
        <ele>467</ele>
        <time>2009-09-27T09:45:56Z</time>
      </trkpt>
      <trkpt lat="48.29543" lon="7.01887">
        <ele>467</ele>
        <time>2009-09-27T09:46:00Z</time>
      </trkpt>
      <trkpt lat="48.29555" lon="7.01893">
        <ele>467</ele>
        <time>2009-09-27T09:46:04Z</time>
      </trkpt>
      <trkpt lat="48.29565" lon="7.01896">
        <ele>468</ele>
        <time>2009-09-27T09:46:08Z</time>
      </trkpt>
      <trkpt lat="48.29578" lon="7.01907">
        <ele>469</ele>
        <time>2009-09-27T09:46:12Z</time>
      </trkpt>
      <trkpt lat="48.2959" lon="7.01912">
        <ele>470</ele>
        <time>2009-09-27T09:46:16Z</time>
      </trkpt>
      <trkpt lat="48.29601" lon="7.01918">
        <ele>471</ele>
        <time>2009-09-27T09:46:20Z</time>
      </trkpt>
      <trkpt lat="48.29612" lon="7.01922">
        <ele>471</ele>
        <time>2009-09-27T09:46:24Z</time>
      </trkpt>
      <trkpt lat="48.29622" lon="7.01923">
        <ele>472</ele>
        <time>2009-09-27T09:46:28Z</time>
      </trkpt>
      <trkpt lat="48.29632" lon="7.01918">
        <ele>472</ele>
        <time>2009-09-27T09:46:32Z</time>
      </trkpt>
      <trkpt lat="48.29641" lon="7.01914">
        <ele>473</ele>
        <time>2009-09-27T09:46:36Z</time>
      </trkpt>
      <trkpt lat="48.29653" lon="7.01907">
        <ele>474</ele>
        <time>2009-09-27T09:46:40Z</time>
      </trkpt>
      <trkpt lat="48.29662" lon="7.01901">
        <ele>474</ele>
        <time>2009-09-27T09:46:45Z</time>
      </trkpt>
      <trkpt lat="48.2967" lon="7.01896">
        <ele>480</ele>
        <time>2009-09-27T09:46:49Z</time>
      </trkpt>
      <trkpt lat="48.29673" lon="7.01892">
        <ele>481</ele>
        <time>2009-09-27T09:46:53Z</time>
      </trkpt>
      <trkpt lat="48.29679" lon="7.01883">
        <ele>482</ele>
        <time>2009-09-27T09:46:57Z</time>
      </trkpt>
      <trkpt lat="48.29685" lon="7.01876">
        <ele>482</ele>
        <time>2009-09-27T09:47:01Z</time>
      </trkpt>
      <trkpt lat="48.29691" lon="7.01869">
        <ele>482</ele>
        <time>2009-09-27T09:47:05Z</time>
      </trkpt>
      <trkpt lat="48.29699" lon="7.01863">
        <ele>483</ele>
        <time>2009-09-27T09:47:10Z</time>
      </trkpt>
      <trkpt lat="48.29707" lon="7.01856">
        <ele>484</ele>
        <time>2009-09-27T09:47:14Z</time>
      </trkpt>
      <trkpt lat="48.29715" lon="7.0185">
        <ele>485</ele>
        <time>2009-09-27T09:47:18Z</time>
      </trkpt>
      <trkpt lat="48.29722" lon="7.01845">
        <ele>486</ele>
        <time>2009-09-27T09:47:22Z</time>
      </trkpt>
      <trkpt lat="48.29729" lon="7.01842">
        <ele>487</ele>
        <time>2009-09-27T09:47:26Z</time>
      </trkpt>
      <trkpt lat="48.29735" lon="7.01836">
        <ele>488</ele>
        <time>2009-09-27T09:47:30Z</time>
      </trkpt>
      <trkpt lat="48.29741" lon="7.01832">
        <ele>487</ele>
        <time>2009-09-27T09:47:34Z</time>
      </trkpt>
      <trkpt lat="48.29748" lon="7.01829">
        <ele>489</ele>
        <time>2009-09-27T09:47:38Z</time>
      </trkpt>
      <trkpt lat="48.29756" lon="7.01827">
        <ele>492</ele>
        <time>2009-09-27T09:47:42Z</time>
      </trkpt>
      <trkpt lat="48.29762" lon="7.01827">
        <ele>492</ele>
        <time>2009-09-27T09:47:46Z</time>
      </trkpt>
      <trkpt lat="48.29768" lon="7.01825">
        <ele>493</ele>
        <time>2009-09-27T09:47:50Z</time>
      </trkpt>
      <trkpt lat="48.29774" lon="7.01822">
        <ele>494</ele>
        <time>2009-09-27T09:47:54Z</time>
      </trkpt>
      <trkpt lat="48.29781" lon="7.01819">
        <ele>494</ele>
        <time>2009-09-27T09:47:58Z</time>
      </trkpt>
      <trkpt lat="48.29785" lon="7.01816">
        <ele>495</ele>
        <time>2009-09-27T09:48:03Z</time>
      </trkpt>
      <trkpt lat="48.29791" lon="7.01812">
        <ele>495</ele>
        <time>2009-09-27T09:48:07Z</time>
      </trkpt>
      <trkpt lat="48.29793" lon="7.01812">
        <ele>496</ele>
        <time>2009-09-27T09:48:11Z</time>
      </trkpt>
      <trkpt lat="48.29797" lon="7.01807">
        <ele>496</ele>
        <time>2009-09-27T09:48:15Z</time>
      </trkpt>
      <trkpt lat="48.29803" lon="7.01802">
        <ele>496</ele>
        <time>2009-09-27T09:48:19Z</time>
      </trkpt>
      <trkpt lat="48.29809" lon="7.01794">
        <ele>496</ele>
        <time>2009-09-27T09:48:23Z</time>
      </trkpt>
      <trkpt lat="48.29815" lon="7.01787">
        <ele>496</ele>
        <time>2009-09-27T09:48:27Z</time>
      </trkpt>
      <trkpt lat="48.29824" lon="7.01779">
        <ele>496</ele>
        <time>2009-09-27T09:48:31Z</time>
      </trkpt>
      <trkpt lat="48.29834" lon="7.01769">
        <ele>502</ele>
        <time>2009-09-27T09:48:35Z</time>
      </trkpt>
      <trkpt lat="48.29836" lon="7.01767">
        <ele>502</ele>
        <time>2009-09-27T09:48:39Z</time>
      </trkpt>
      <trkpt lat="48.29846" lon="7.01757">
        <ele>501</ele>
        <time>2009-09-27T09:48:43Z</time>
      </trkpt>
      <trkpt lat="48.29859" lon="7.01743">
        <ele>498</ele>
        <time>2009-09-27T09:48:47Z</time>
      </trkpt>
      <trkpt lat="48.29877" lon="7.01729">
        <ele>499</ele>
        <time>2009-09-27T09:48:51Z</time>
      </trkpt>
      <trkpt lat="48.29892" lon="7.01721">
        <ele>500</ele>
        <time>2009-09-27T09:48:56Z</time>
      </trkpt>
      <trkpt lat="48.299" lon="7.01715">
        <ele>500</ele>
        <time>2009-09-27T09:49:00Z</time>
      </trkpt>
      <trkpt lat="48.29907" lon="7.017">
        <ele>500</ele>
        <time>2009-09-27T09:49:04Z</time>
      </trkpt>
      <trkpt lat="48.29904" lon="7.01686">
        <ele>500</ele>
        <time>2009-09-27T09:49:08Z</time>
      </trkpt>
      <trkpt lat="48.29909" lon="7.01667">
        <ele>501</ele>
        <time>2009-09-27T09:49:12Z</time>
      </trkpt>
      <trkpt lat="48.29909" lon="7.01655">
        <ele>499</ele>
        <time>2009-09-27T09:49:16Z</time>
      </trkpt>
      <trkpt lat="48.29907" lon="7.0164">
        <ele>498</ele>
        <time>2009-09-27T09:49:20Z</time>
      </trkpt>
      <trkpt lat="48.29904" lon="7.01626">
        <ele>497</ele>
        <time>2009-09-27T09:49:24Z</time>
      </trkpt>
      <trkpt lat="48.29903" lon="7.01615">
        <ele>497</ele>
        <time>2009-09-27T09:49:28Z</time>
      </trkpt>
      <trkpt lat="48.29901" lon="7.01618">
        <ele>497</ele>
        <time>2009-09-27T09:49:32Z</time>
      </trkpt>
      <trkpt lat="48.29906" lon="7.01618">
        <ele>497</ele>
        <time>2009-09-27T09:49:36Z</time>
      </trkpt>
      <trkpt lat="48.29904" lon="7.01614">
        <ele>497</ele>
        <time>2009-09-27T09:49:40Z</time>
      </trkpt>
      <trkpt lat="48.29904" lon="7.01608">
        <ele>497</ele>
        <time>2009-09-27T09:49:44Z</time>
      </trkpt>
      <trkpt lat="48.29903" lon="7.016">
        <ele>497</ele>
        <time>2009-09-27T09:49:48Z</time>
      </trkpt>
      <trkpt lat="48.29909" lon="7.01591">
        <ele>497</ele>
        <time>2009-09-27T09:49:53Z</time>
      </trkpt>
      <trkpt lat="48.29915" lon="7.01578">
        <ele>497</ele>
        <time>2009-09-27T09:49:57Z</time>
      </trkpt>
      <trkpt lat="48.29926" lon="7.01571">
        <ele>496</ele>
        <time>2009-09-27T09:50:01Z</time>
      </trkpt>
      <trkpt lat="48.29938" lon="7.01564">
        <ele>494</ele>
        <time>2009-09-27T09:50:05Z</time>
      </trkpt>
      <trkpt lat="48.29952" lon="7.01562">
        <ele>494</ele>
        <time>2009-09-27T09:50:09Z</time>
      </trkpt>
      <trkpt lat="48.29967" lon="7.01563">
        <ele>494</ele>
        <time>2009-09-27T09:50:13Z</time>
      </trkpt>
      <trkpt lat="48.29981" lon="7.01572">
        <ele>495</ele>
        <time>2009-09-27T09:50:17Z</time>
      </trkpt>
      <trkpt lat="48.29995" lon="7.01576">
        <ele>496</ele>
        <time>2009-09-27T09:50:21Z</time>
      </trkpt>
      <trkpt lat="48.30012" lon="7.01581">
        <ele>493</ele>
        <time>2009-09-27T09:50:25Z</time>
      </trkpt>
      <trkpt lat="48.30026" lon="7.01587">
        <ele>497</ele>
        <time>2009-09-27T09:50:29Z</time>
      </trkpt>
      <trkpt lat="48.3004" lon="7.01595">
        <ele>496</ele>
        <time>2009-09-27T09:50:33Z</time>
      </trkpt>
      <trkpt lat="48.30053" lon="7.01609">
        <ele>496</ele>
        <time>2009-09-27T09:50:37Z</time>
      </trkpt>
      <trkpt lat="48.30063" lon="7.01624">
        <ele>497</ele>
        <time>2009-09-27T09:50:41Z</time>
      </trkpt>
      <trkpt lat="48.30075" lon="7.01649">
        <ele>499</ele>
        <time>2009-09-27T09:50:46Z</time>
      </trkpt>
      <trkpt lat="48.30086" lon="7.01666">
        <ele>499</ele>
        <time>2009-09-27T09:50:50Z</time>
      </trkpt>
      <trkpt lat="48.30096" lon="7.0168">
        <ele>505</ele>
        <time>2009-09-27T09:50:54Z</time>
      </trkpt>
      <trkpt lat="48.30105" lon="7.01698">
        <ele>508</ele>
        <time>2009-09-27T09:50:58Z</time>
      </trkpt>
      <trkpt lat="48.30114" lon="7.01716">
        <ele>510</ele>
        <time>2009-09-27T09:51:02Z</time>
      </trkpt>
      <trkpt lat="48.30126" lon="7.01733">
        <ele>512</ele>
        <time>2009-09-27T09:51:06Z</time>
      </trkpt>
      <trkpt lat="48.3014" lon="7.0175">
        <ele>519</ele>
        <time>2009-09-27T09:51:10Z</time>
      </trkpt>
      <trkpt lat="48.30151" lon="7.01747">
        <ele>512</ele>
        <time>2009-09-27T09:51:14Z</time>
      </trkpt>
      <trkpt lat="48.30144" lon="7.01727">
        <ele>511</ele>
        <time>2009-09-27T09:51:18Z</time>
      </trkpt>
      <trkpt lat="48.30137" lon="7.01708">
        <ele>509</ele>
        <time>2009-09-27T09:51:22Z</time>
      </trkpt>
      <trkpt lat="48.30131" lon="7.01683">
        <ele>507</ele>
        <time>2009-09-27T09:51:26Z</time>
      </trkpt>
      <trkpt lat="48.3013" lon="7.01656">
        <ele>497</ele>
        <time>2009-09-27T09:51:30Z</time>
      </trkpt>
      <trkpt lat="48.30137" lon="7.01629">
        <ele>495</ele>
        <time>2009-09-27T09:51:34Z</time>
      </trkpt>
      <trkpt lat="48.30154" lon="7.01609">
        <ele>493</ele>
        <time>2009-09-27T09:51:38Z</time>
      </trkpt>
      <trkpt lat="48.30176" lon="7.01595">
        <ele>495</ele>
        <time>2009-09-27T09:51:43Z</time>
      </trkpt>
      <trkpt lat="48.30198" lon="7.01586">
        <ele>497</ele>
        <time>2009-09-27T09:51:47Z</time>
      </trkpt>
      <trkpt lat="48.30217" lon="7.01585">
        <ele>499</ele>
        <time>2009-09-27T09:51:51Z</time>
      </trkpt>
      <trkpt lat="48.30233" lon="7.01585">
        <ele>499</ele>
        <time>2009-09-27T09:51:55Z</time>
      </trkpt>
      <trkpt lat="48.30248" lon="7.01585">
        <ele>497</ele>
        <time>2009-09-27T09:51:59Z</time>
      </trkpt>
      <trkpt lat="48.30264" lon="7.0159">
        <ele>500</ele>
        <time>2009-09-27T09:52:03Z</time>
      </trkpt>
      <trkpt lat="48.30281" lon="7.01599">
        <ele>501</ele>
        <time>2009-09-27T09:52:07Z</time>
      </trkpt>
      <trkpt lat="48.30294" lon="7.01609">
        <ele>502</ele>
        <time>2009-09-27T09:52:11Z</time>
      </trkpt>
      <trkpt lat="48.30305" lon="7.01613">
        <ele>502</ele>
        <time>2009-09-27T09:52:15Z</time>
      </trkpt>
      <trkpt lat="48.30314" lon="7.01621">
        <ele>502</ele>
        <time>2009-09-27T09:52:19Z</time>
      </trkpt>
      <trkpt lat="48.30322" lon="7.01631">
        <ele>502</ele>
        <time>2009-09-27T09:52:23Z</time>
      </trkpt>
      <trkpt lat="48.30331" lon="7.01644">
        <ele>503</ele>
        <time>2009-09-27T09:52:27Z</time>
      </trkpt>
      <trkpt lat="48.30343" lon="7.01659">
        <ele>504</ele>
        <time>2009-09-27T09:52:31Z</time>
      </trkpt>
      <trkpt lat="48.30355" lon="7.01664">
        <ele>505</ele>
        <time>2009-09-27T09:52:35Z</time>
      </trkpt>
      <trkpt lat="48.30365" lon="7.01663">
        <ele>506</ele>
        <time>2009-09-27T09:52:39Z</time>
      </trkpt>
      <trkpt lat="48.30374" lon="7.01659">
        <ele>507</ele>
        <time>2009-09-27T09:52:43Z</time>
      </trkpt>
      <trkpt lat="48.30385" lon="7.01653">
        <ele>507</ele>
        <time>2009-09-27T09:52:47Z</time>
      </trkpt>
      <trkpt lat="48.30397" lon="7.01648">
        <ele>508</ele>
        <time>2009-09-27T09:52:52Z</time>
      </trkpt>
      <trkpt lat="48.30406" lon="7.0164">
        <ele>508</ele>
        <time>2009-09-27T09:52:56Z</time>
      </trkpt>
      <trkpt lat="48.30418" lon="7.01636">
        <ele>514</ele>
        <time>2009-09-27T09:53:00Z</time>
      </trkpt>
      <trkpt lat="48.30432" lon="7.01634">
        <ele>515</ele>
        <time>2009-09-27T09:53:04Z</time>
      </trkpt>
      <trkpt lat="48.30445" lon="7.01633">
        <ele>516</ele>
        <time>2009-09-27T09:53:08Z</time>
      </trkpt>
      <trkpt lat="48.30458" lon="7.01634">
        <ele>516</ele>
        <time>2009-09-27T09:53:12Z</time>
      </trkpt>
      <trkpt lat="48.30468" lon="7.01636">
        <ele>517</ele>
        <time>2009-09-27T09:53:16Z</time>
      </trkpt>
      <trkpt lat="48.30477" lon="7.01637">
        <ele>517</ele>
        <time>2009-09-27T09:53:20Z</time>
      </trkpt>
      <trkpt lat="48.30484" lon="7.01632">
        <ele>517</ele>
        <time>2009-09-27T09:53:24Z</time>
      </trkpt>
      <trkpt lat="48.30493" lon="7.01626">
        <ele>518</ele>
        <time>2009-09-27T09:53:28Z</time>
      </trkpt>
      <trkpt lat="48.30501" lon="7.0162">
        <ele>522</ele>
        <time>2009-09-27T09:53:32Z</time>
      </trkpt>
      <trkpt lat="48.3051" lon="7.0162">
        <ele>522</ele>
        <time>2009-09-27T09:53:36Z</time>
      </trkpt>
      <trkpt lat="48.30516" lon="7.01617">
        <ele>523</ele>
        <time>2009-09-27T09:53:40Z</time>
      </trkpt>
      <trkpt lat="48.30521" lon="7.01611">
        <ele>523</ele>
        <time>2009-09-27T09:53:44Z</time>
      </trkpt>
      <trkpt lat="48.30526" lon="7.01611">
        <ele>523</ele>
        <time>2009-09-27T09:53:48Z</time>
      </trkpt>
      <trkpt lat="48.30534" lon="7.01612">
        <ele>523</ele>
        <time>2009-09-27T09:53:52Z</time>
      </trkpt>
      <trkpt lat="48.30539" lon="7.01612">
        <ele>524</ele>
        <time>2009-09-27T09:53:56Z</time>
      </trkpt>
      <trkpt lat="48.30545" lon="7.01613">
        <ele>524</ele>
        <time>2009-09-27T09:54:00Z</time>
      </trkpt>
      <trkpt lat="48.30547" lon="7.01616">
        <ele>524</ele>
        <time>2009-09-27T09:54:04Z</time>
      </trkpt>
      <trkpt lat="48.30543" lon="7.01616">
        <ele>524</ele>
        <time>2009-09-27T09:54:08Z</time>
      </trkpt>
      <trkpt lat="48.30542" lon="7.01616">
        <ele>524</ele>
        <time>2009-09-27T09:54:12Z</time>
      </trkpt>
      <trkpt lat="48.30534" lon="7.01622">
        <ele>523</ele>
        <time>2009-09-27T09:54:16Z</time>
      </trkpt>
      <trkpt lat="48.30536" lon="7.01622">
        <ele>523</ele>
        <time>2009-09-27T09:54:21Z</time>
      </trkpt>
      <trkpt lat="48.30534" lon="7.01618">
        <ele>523</ele>
        <time>2009-09-27T09:54:25Z</time>
      </trkpt>
      <trkpt lat="48.30535" lon="7.01611">
        <ele>523</ele>
        <time>2009-09-27T09:54:29Z</time>
      </trkpt>
      <trkpt lat="48.30535" lon="7.01607">
        <ele>523</ele>
        <time>2009-09-27T09:54:33Z</time>
      </trkpt>
      <trkpt lat="48.30539" lon="7.01611">
        <ele>524</ele>
        <time>2009-09-27T09:54:37Z</time>
      </trkpt>
      <trkpt lat="48.3054" lon="7.01613">
        <ele>524</ele>
        <time>2009-09-27T09:54:41Z</time>
      </trkpt>
      <trkpt lat="48.30542" lon="7.01617">
        <ele>524</ele>
        <time>2009-09-27T09:54:45Z</time>
      </trkpt>
      <trkpt lat="48.30558" lon="7.01661">
        <ele>525</ele>
        <time>2009-09-27T09:55:17Z</time>
      </trkpt>
      <trkpt lat="48.3055" lon="7.01636">
        <ele>524</ele>
        <time>2009-09-27T09:55:21Z</time>
      </trkpt>
      <trkpt lat="48.30548" lon="7.01629">
        <ele>524</ele>
        <time>2009-09-27T09:55:25Z</time>
      </trkpt>
      <trkpt lat="48.30549" lon="7.01624">
        <ele>524</ele>
        <time>2009-09-27T09:55:29Z</time>
      </trkpt>
      <trkpt lat="48.30548" lon="7.01629">
        <ele>524</ele>
        <time>2009-09-27T09:55:33Z</time>
      </trkpt>
      <trkpt lat="48.30548" lon="7.01637">
        <ele>524</ele>
        <time>2009-09-27T09:55:38Z</time>
      </trkpt>
      <trkpt lat="48.30552" lon="7.01647">
        <ele>524</ele>
        <time>2009-09-27T09:55:42Z</time>
      </trkpt>
      <trkpt lat="48.3056" lon="7.0165">
        <ele>525</ele>
        <time>2009-09-27T09:55:46Z</time>
      </trkpt>
      <trkpt lat="48.30566" lon="7.0165">
        <ele>525</ele>
        <time>2009-09-27T09:55:50Z</time>
      </trkpt>
      <trkpt lat="48.30565" lon="7.01654">
        <ele>525</ele>
        <time>2009-09-27T09:55:54Z</time>
      </trkpt>
      <trkpt lat="48.30564" lon="7.01657">
        <ele>525</ele>
        <time>2009-09-27T09:55:58Z</time>
      </trkpt>
      <trkpt lat="48.30562" lon="7.01658">
        <ele>525</ele>
        <time>2009-09-27T09:56:02Z</time>
      </trkpt>
      <trkpt lat="48.3056" lon="7.01661">
        <ele>525</ele>
        <time>2009-09-27T09:56:06Z</time>
      </trkpt>
      <trkpt lat="48.3056" lon="7.01661">
        <ele>525</ele>
        <time>2009-09-27T09:56:10Z</time>
      </trkpt>
      <trkpt lat="48.3056" lon="7.01657">
        <ele>525</ele>
        <time>2009-09-27T09:56:14Z</time>
      </trkpt>
      <trkpt lat="48.30553" lon="7.01652">
        <ele>525</ele>
        <time>2009-09-27T09:56:18Z</time>
      </trkpt>
      <trkpt lat="48.30548" lon="7.01653">
        <ele>524</ele>
        <time>2009-09-27T09:56:22Z</time>
      </trkpt>
      <trkpt lat="48.30544" lon="7.01651">
        <ele>524</ele>
        <time>2009-09-27T09:56:26Z</time>
      </trkpt>
      <trkpt lat="48.3054" lon="7.01651">
        <ele>524</ele>
        <time>2009-09-27T09:56:30Z</time>
      </trkpt>
      <trkpt lat="48.30541" lon="7.01654">
        <ele>524</ele>
        <time>2009-09-27T09:56:34Z</time>
      </trkpt>
      <trkpt lat="48.30543" lon="7.01658">
        <ele>524</ele>
        <time>2009-09-27T09:56:38Z</time>
      </trkpt>
      <trkpt lat="48.30538" lon="7.01654">
        <ele>524</ele>
        <time>2009-09-27T09:56:42Z</time>
      </trkpt>
      <trkpt lat="48.30537" lon="7.01654">
        <ele>524</ele>
        <time>2009-09-27T09:56:46Z</time>
      </trkpt>
      <trkpt lat="48.30538" lon="7.01652">
        <ele>524</ele>
        <time>2009-09-27T09:56:50Z</time>
      </trkpt>
      <trkpt lat="48.30542" lon="7.01652">
        <ele>524</ele>
        <time>2009-09-27T09:56:54Z</time>
      </trkpt>
      <trkpt lat="48.30544" lon="7.01659">
        <ele>524</ele>
        <time>2009-09-27T09:56:58Z</time>
      </trkpt>
      <trkpt lat="48.30537" lon="7.01662">
        <ele>524</ele>
        <time>2009-09-27T09:57:02Z</time>
      </trkpt>
      <trkpt lat="48.30541" lon="7.01652">
        <ele>524</ele>
        <time>2009-09-27T09:57:06Z</time>
      </trkpt>
      <trkpt lat="48.30543" lon="7.01641">
        <ele>524</ele>
        <time>2009-09-27T09:57:10Z</time>
      </trkpt>
      <trkpt lat="48.30547" lon="7.01639">
        <ele>524</ele>
        <time>2009-09-27T09:57:15Z</time>
      </trkpt>
      <trkpt lat="48.30549" lon="7.01636">
        <ele>524</ele>
        <time>2009-09-27T09:57:19Z</time>
      </trkpt>
      <trkpt lat="48.30553" lon="7.01637">
        <ele>524</ele>
        <time>2009-09-27T09:57:23Z</time>
      </trkpt>
      <trkpt lat="48.3055" lon="7.01641">
        <ele>524</ele>
        <time>2009-09-27T09:57:27Z</time>
      </trkpt>
      <trkpt lat="48.30549" lon="7.01649">
        <ele>524</ele>
        <time>2009-09-27T09:57:31Z</time>
      </trkpt>
      <trkpt lat="48.30548" lon="7.01648">
        <ele>524</ele>
        <time>2009-09-27T09:57:35Z</time>
      </trkpt>
      <trkpt lat="48.30548" lon="7.01651">
        <ele>524</ele>
        <time>2009-09-27T09:57:39Z</time>
      </trkpt>
      <trkpt lat="48.30553" lon="7.0166">
        <ele>525</ele>
        <time>2009-09-27T09:57:43Z</time>
      </trkpt>
      <trkpt lat="48.30556" lon="7.01658">
        <ele>525</ele>
        <time>2009-09-27T09:57:47Z</time>
      </trkpt>
      <trkpt lat="48.30561" lon="7.01661">
        <ele>525</ele>
        <time>2009-09-27T09:57:51Z</time>
      </trkpt>
      <trkpt lat="48.30563" lon="7.01657">
        <ele>525</ele>
        <time>2009-09-27T09:57:55Z</time>
      </trkpt>
      <trkpt lat="48.30563" lon="7.01656">
        <ele>525</ele>
        <time>2009-09-27T09:57:59Z</time>
      </trkpt>
      <trkpt lat="48.30569" lon="7.01655">
        <ele>526</ele>
        <time>2009-09-27T09:58:03Z</time>
      </trkpt>
      <trkpt lat="48.30577" lon="7.01659">
        <ele>527</ele>
        <time>2009-09-27T09:58:07Z</time>
      </trkpt>
      <trkpt lat="48.30583" lon="7.01661">
        <ele>527</ele>
        <time>2009-09-27T09:58:11Z</time>
      </trkpt>
      <trkpt lat="48.30589" lon="7.01661">
        <ele>530</ele>
        <time>2009-09-27T09:58:16Z</time>
      </trkpt>
      <trkpt lat="48.30593" lon="7.01656">
        <ele>531</ele>
        <time>2009-09-27T09:58:20Z</time>
      </trkpt>
      <trkpt lat="48.30596" lon="7.0165">
        <ele>531</ele>
        <time>2009-09-27T09:58:24Z</time>
      </trkpt>
      <trkpt lat="48.30602" lon="7.01646">
        <ele>532</ele>
        <time>2009-09-27T09:58:28Z</time>
      </trkpt>
      <trkpt lat="48.30603" lon="7.01635">
        <ele>533</ele>
        <time>2009-09-27T09:58:32Z</time>
      </trkpt>
      <trkpt lat="48.30607" lon="7.01631">
        <ele>533</ele>
        <time>2009-09-27T09:58:36Z</time>
      </trkpt>
      <trkpt lat="48.30612" lon="7.01631">
        <ele>533</ele>
        <time>2009-09-27T09:58:40Z</time>
      </trkpt>
      <trkpt lat="48.30618" lon="7.01632">
        <ele>534</ele>
        <time>2009-09-27T09:58:44Z</time>
      </trkpt>
      <trkpt lat="48.30625" lon="7.01634">
        <ele>534</ele>
        <time>2009-09-27T09:58:48Z</time>
      </trkpt>
      <trkpt lat="48.30631" lon="7.01635">
        <ele>535</ele>
        <time>2009-09-27T09:58:52Z</time>
      </trkpt>
      <trkpt lat="48.30639" lon="7.01645">
        <ele>535</ele>
        <time>2009-09-27T09:58:56Z</time>
      </trkpt>
      <trkpt lat="48.30647" lon="7.0165">
        <ele>536</ele>
        <time>2009-09-27T09:59:00Z</time>
      </trkpt>
      <trkpt lat="48.30657" lon="7.01649">
        <ele>537</ele>
        <time>2009-09-27T09:59:04Z</time>
      </trkpt>
      <trkpt lat="48.30663" lon="7.01653">
        <ele>537</ele>
        <time>2009-09-27T09:59:08Z</time>
      </trkpt>
      <trkpt lat="48.30669" lon="7.0166">
        <ele>542</ele>
        <time>2009-09-27T09:59:12Z</time>
      </trkpt>
      <trkpt lat="48.30675" lon="7.01666">
        <ele>543</ele>
        <time>2009-09-27T09:59:16Z</time>
      </trkpt>
      <trkpt lat="48.30681" lon="7.0167">
        <ele>545</ele>
        <time>2009-09-27T09:59:20Z</time>
      </trkpt>
      <trkpt lat="48.30688" lon="7.01678">
        <ele>548</ele>
        <time>2009-09-27T09:59:24Z</time>
      </trkpt>
      <trkpt lat="48.30693" lon="7.01684">
        <ele>549</ele>
        <time>2009-09-27T09:59:29Z</time>
      </trkpt>
      <trkpt lat="48.30698" lon="7.01692">
        <ele>550</ele>
        <time>2009-09-27T09:59:33Z</time>
      </trkpt>
      <trkpt lat="48.30701" lon="7.01703">
        <ele>551</ele>
        <time>2009-09-27T09:59:37Z</time>
      </trkpt>
      <trkpt lat="48.30705" lon="7.01713">
        <ele>552</ele>
        <time>2009-09-27T09:59:41Z</time>
      </trkpt>
      <trkpt lat="48.30708" lon="7.01721">
        <ele>552</ele>
        <time>2009-09-27T09:59:45Z</time>
      </trkpt>
      <trkpt lat="48.30712" lon="7.01732">
        <ele>553</ele>
        <time>2009-09-27T09:59:49Z</time>
      </trkpt>
      <trkpt lat="48.30716" lon="7.01744">
        <ele>553</ele>
        <time>2009-09-27T09:59:53Z</time>
      </trkpt>
      <trkpt lat="48.30723" lon="7.0176">
        <ele>559</ele>
        <time>2009-09-27T09:59:57Z</time>
      </trkpt>
      <trkpt lat="48.3073" lon="7.01769">
        <ele>559</ele>
        <time>2009-09-27T10:00:01Z</time>
      </trkpt>
      <trkpt lat="48.30736" lon="7.01778">
        <ele>560</ele>
        <time>2009-09-27T10:00:05Z</time>
      </trkpt>
      <trkpt lat="48.30739" lon="7.01777">
        <ele>560</ele>
        <time>2009-09-27T10:00:09Z</time>
      </trkpt>
      <trkpt lat="48.30736" lon="7.01781">
        <ele>560</ele>
        <time>2009-09-27T10:00:13Z</time>
      </trkpt>
      <trkpt lat="48.30736" lon="7.01785">
        <ele>560</ele>
        <time>2009-09-27T10:00:17Z</time>
      </trkpt>
      <trkpt lat="48.30737" lon="7.01788">
        <ele>560</ele>
        <time>2009-09-27T10:00:21Z</time>
      </trkpt>
      <trkpt lat="48.30734" lon="7.01791">
        <ele>560</ele>
        <time>2009-09-27T10:00:25Z</time>
      </trkpt>
      <trkpt lat="48.3073" lon="7.018">
        <ele>561</ele>
        <time>2009-09-27T10:00:29Z</time>
      </trkpt>
      <trkpt lat="48.3073" lon="7.01808">
        <ele>562</ele>
        <time>2009-09-27T10:00:33Z</time>
      </trkpt>
      <trkpt lat="48.30728" lon="7.01826">
        <ele>562</ele>
        <time>2009-09-27T10:00:38Z</time>
      </trkpt>
      <trkpt lat="48.30723" lon="7.01823">
        <ele>562</ele>
        <time>2009-09-27T10:00:42Z</time>
      </trkpt>
      <trkpt lat="48.30719" lon="7.01825">
        <ele>562</ele>
        <time>2009-09-27T10:00:46Z</time>
      </trkpt>
      <trkpt lat="48.30716" lon="7.01824">
        <ele>563</ele>
        <time>2009-09-27T10:00:50Z</time>
      </trkpt>
      <trkpt lat="48.30709" lon="7.01822">
        <ele>563</ele>
        <time>2009-09-27T10:00:55Z</time>
      </trkpt>
      <trkpt lat="48.30702" lon="7.01816">
        <ele>563</ele>
        <time>2009-09-27T10:00:59Z</time>
      </trkpt>
      <trkpt lat="48.307" lon="7.01809">
        <ele>562</ele>
        <time>2009-09-27T10:01:03Z</time>
      </trkpt>
      <trkpt lat="48.30697" lon="7.01807">
        <ele>562</ele>
        <time>2009-09-27T10:01:07Z</time>
      </trkpt>
      <trkpt lat="48.30693" lon="7.01799">
        <ele>561</ele>
        <time>2009-09-27T10:01:11Z</time>
      </trkpt>
      <trkpt lat="48.3069" lon="7.01794">
        <ele>561</ele>
        <time>2009-09-27T10:01:15Z</time>
      </trkpt>
      <trkpt lat="48.30684" lon="7.01795">
        <ele>561</ele>
        <time>2009-09-27T10:01:19Z</time>
      </trkpt>
      <trkpt lat="48.30674" lon="7.01793">
        <ele>561</ele>
        <time>2009-09-27T10:01:23Z</time>
      </trkpt>
      <trkpt lat="48.30664" lon="7.01789">
        <ele>562</ele>
        <time>2009-09-27T10:01:27Z</time>
      </trkpt>
      <trkpt lat="48.30657" lon="7.01788">
        <ele>562</ele>
        <time>2009-09-27T10:01:31Z</time>
      </trkpt>
      <trkpt lat="48.30652" lon="7.01784">
        <ele>561</ele>
        <time>2009-09-27T10:01:35Z</time>
      </trkpt>
      <trkpt lat="48.3065" lon="7.01784">
        <ele>561</ele>
        <time>2009-09-27T10:01:39Z</time>
      </trkpt>
      <trkpt lat="48.30645" lon="7.01783">
        <ele>561</ele>
        <time>2009-09-27T10:01:43Z</time>
      </trkpt>
      <trkpt lat="48.30639" lon="7.01783">
        <ele>561</ele>
        <time>2009-09-27T10:01:48Z</time>
      </trkpt>
      <trkpt lat="48.30636" lon="7.01788">
        <ele>562</ele>
        <time>2009-09-27T10:01:52Z</time>
      </trkpt>
      <trkpt lat="48.30629" lon="7.01788">
        <ele>563</ele>
        <time>2009-09-27T10:01:56Z</time>
      </trkpt>
      <trkpt lat="48.30624" lon="7.01789">
        <ele>563</ele>
        <time>2009-09-27T10:02:00Z</time>
      </trkpt>
      <trkpt lat="48.30617" lon="7.01791">
        <ele>563</ele>
        <time>2009-09-27T10:02:04Z</time>
      </trkpt>
      <trkpt lat="48.30611" lon="7.01794">
        <ele>564</ele>
        <time>2009-09-27T10:02:08Z</time>
      </trkpt>
      <trkpt lat="48.30609" lon="7.01798">
        <ele>565</ele>
        <time>2009-09-27T10:02:12Z</time>
      </trkpt>
      <trkpt lat="48.30602" lon="7.01802">
        <ele>566</ele>
        <time>2009-09-27T10:02:16Z</time>
      </trkpt>
      <trkpt lat="48.30598" lon="7.01804">
        <ele>567</ele>
        <time>2009-09-27T10:02:20Z</time>
      </trkpt>
      <trkpt lat="48.30591" lon="7.01805">
        <ele>568</ele>
        <time>2009-09-27T10:02:24Z</time>
      </trkpt>
      <trkpt lat="48.30584" lon="7.0181">
        <ele>569</ele>
        <time>2009-09-27T10:02:28Z</time>
      </trkpt>
      <trkpt lat="48.30579" lon="7.01813">
        <ele>568</ele>
        <time>2009-09-27T10:02:32Z</time>
      </trkpt>
      <trkpt lat="48.30576" lon="7.01816">
        <ele>569</ele>
        <time>2009-09-27T10:02:37Z</time>
      </trkpt>
      <trkpt lat="48.3057" lon="7.01813">
        <ele>567</ele>
        <time>2009-09-27T10:02:41Z</time>
      </trkpt>
      <trkpt lat="48.30569" lon="7.0181">
        <ele>566</ele>
        <time>2009-09-27T10:02:46Z</time>
      </trkpt>
      <trkpt lat="48.30562" lon="7.01811">
        <ele>565</ele>
        <time>2009-09-27T10:02:50Z</time>
      </trkpt>
      <trkpt lat="48.3056" lon="7.01819">
        <ele>566</ele>
        <time>2009-09-27T10:02:54Z</time>
      </trkpt>
      <trkpt lat="48.30554" lon="7.01826">
        <ele>566</ele>
        <time>2009-09-27T10:02:58Z</time>
      </trkpt>
      <trkpt lat="48.30549" lon="7.01833">
        <ele>565</ele>
        <time>2009-09-27T10:03:02Z</time>
      </trkpt>
      <trkpt lat="48.30543" lon="7.01837">
        <ele>579</ele>
        <time>2009-09-27T10:03:06Z</time>
      </trkpt>
      <trkpt lat="48.30537" lon="7.01841">
        <ele>578</ele>
        <time>2009-09-27T10:03:10Z</time>
      </trkpt>
      <trkpt lat="48.30531" lon="7.01851">
        <ele>578</ele>
        <time>2009-09-27T10:03:14Z</time>
      </trkpt>
      <trkpt lat="48.30526" lon="7.01857">
        <ele>578</ele>
        <time>2009-09-27T10:03:18Z</time>
      </trkpt>
      <trkpt lat="48.30521" lon="7.01861">
        <ele>578</ele>
        <time>2009-09-27T10:03:22Z</time>
      </trkpt>
      <trkpt lat="48.30516" lon="7.01864">
        <ele>578</ele>
        <time>2009-09-27T10:03:26Z</time>
      </trkpt>
      <trkpt lat="48.30513" lon="7.01868">
        <ele>578</ele>
        <time>2009-09-27T10:03:30Z</time>
      </trkpt>
      <trkpt lat="48.30508" lon="7.01875">
        <ele>579</ele>
        <time>2009-09-27T10:03:34Z</time>
      </trkpt>
      <trkpt lat="48.30505" lon="7.01882">
        <ele>580</ele>
        <time>2009-09-27T10:03:38Z</time>
      </trkpt>
      <trkpt lat="48.305" lon="7.01887">
        <ele>573</ele>
        <time>2009-09-27T10:03:42Z</time>
      </trkpt>
      <trkpt lat="48.30496" lon="7.01893">
        <ele>574</ele>
        <time>2009-09-27T10:03:46Z</time>
      </trkpt>
      <trkpt lat="48.30492" lon="7.01898">
        <ele>576</ele>
        <time>2009-09-27T10:03:50Z</time>
      </trkpt>
      <trkpt lat="48.30488" lon="7.01907">
        <ele>577</ele>
        <time>2009-09-27T10:03:55Z</time>
      </trkpt>
      <trkpt lat="48.30486" lon="7.01917">
        <ele>587</ele>
        <time>2009-09-27T10:03:59Z</time>
      </trkpt>
      <trkpt lat="48.30482" lon="7.01923">
        <ele>587</ele>
        <time>2009-09-27T10:04:03Z</time>
      </trkpt>
      <trkpt lat="48.30479" lon="7.01927">
        <ele>588</ele>
        <time>2009-09-27T10:04:07Z</time>
      </trkpt>
      <trkpt lat="48.30477" lon="7.01931">
        <ele>588</ele>
        <time>2009-09-27T10:04:11Z</time>
      </trkpt>
      <trkpt lat="48.30474" lon="7.01934">
        <ele>589</ele>
        <time>2009-09-27T10:04:15Z</time>
      </trkpt>
      <trkpt lat="48.3047" lon="7.01937">
        <ele>589</ele>
        <time>2009-09-27T10:04:19Z</time>
      </trkpt>
      <trkpt lat="48.30465" lon="7.01944">
        <ele>590</ele>
        <time>2009-09-27T10:04:23Z</time>
      </trkpt>
      <trkpt lat="48.3046" lon="7.01945">
        <ele>590</ele>
        <time>2009-09-27T10:04:27Z</time>
      </trkpt>
      <trkpt lat="48.30452" lon="7.01951">
        <ele>590</ele>
        <time>2009-09-27T10:04:31Z</time>
      </trkpt>
      <trkpt lat="48.30448" lon="7.01959">
        <ele>591</ele>
        <time>2009-09-27T10:04:35Z</time>
      </trkpt>
      <trkpt lat="48.30441" lon="7.01964">
        <ele>591</ele>
        <time>2009-09-27T10:04:39Z</time>
      </trkpt>
      <trkpt lat="48.30435" lon="7.01967">
        <ele>591</ele>
        <time>2009-09-27T10:04:43Z</time>
      </trkpt>
      <trkpt lat="48.30431" lon="7.01968">
        <ele>592</ele>
        <time>2009-09-27T10:04:47Z</time>
      </trkpt>
      <trkpt lat="48.30427" lon="7.01971">
        <ele>592</ele>
        <time>2009-09-27T10:04:51Z</time>
      </trkpt>
      <trkpt lat="48.30424" lon="7.01972">
        <ele>592</ele>
        <time>2009-09-27T10:04:55Z</time>
      </trkpt>
      <trkpt lat="48.30419" lon="7.01975">
        <ele>593</ele>
        <time>2009-09-27T10:04:59Z</time>
      </trkpt>
      <trkpt lat="48.30412" lon="7.01977">
        <ele>586</ele>
        <time>2009-09-27T10:05:03Z</time>
      </trkpt>
      <trkpt lat="48.30409" lon="7.01977">
        <ele>585</ele>
        <time>2009-09-27T10:05:07Z</time>
      </trkpt>
      <trkpt lat="48.30404" lon="7.01979">
        <ele>585</ele>
        <time>2009-09-27T10:05:11Z</time>
      </trkpt>
      <trkpt lat="48.30398" lon="7.0198">
        <ele>584</ele>
        <time>2009-09-27T10:05:15Z</time>
      </trkpt>
      <trkpt lat="48.30393" lon="7.01984">
        <ele>584</ele>
        <time>2009-09-27T10:05:20Z</time>
      </trkpt>
      <trkpt lat="48.3039" lon="7.01987">
        <ele>584</ele>
        <time>2009-09-27T10:05:24Z</time>
      </trkpt>
      <trkpt lat="48.30387" lon="7.01991">
        <ele>584</ele>
        <time>2009-09-27T10:05:28Z</time>
      </trkpt>
      <trkpt lat="48.30386" lon="7.01998">
        <ele>584</ele>
        <time>2009-09-27T10:05:32Z</time>
      </trkpt>
      <trkpt lat="48.30384" lon="7.02005">
        <ele>596</ele>
        <time>2009-09-27T10:05:36Z</time>
      </trkpt>
      <trkpt lat="48.30382" lon="7.0201">
        <ele>596</ele>
        <time>2009-09-27T10:05:40Z</time>
      </trkpt>
      <trkpt lat="48.3038" lon="7.02017">
        <ele>596</ele>
        <time>2009-09-27T10:05:44Z</time>
      </trkpt>
      <trkpt lat="48.30377" lon="7.02028">
        <ele>597</ele>
        <time>2009-09-27T10:05:48Z</time>
      </trkpt>
      <trkpt lat="48.30375" lon="7.02035">
        <ele>598</ele>
        <time>2009-09-27T10:05:52Z</time>
      </trkpt>
      <trkpt lat="48.30373" lon="7.02042">
        <ele>599</ele>
        <time>2009-09-27T10:05:56Z</time>
      </trkpt>
      <trkpt lat="48.30372" lon="7.02047">
        <ele>599</ele>
        <time>2009-09-27T10:06:00Z</time>
      </trkpt>
      <trkpt lat="48.3037" lon="7.02054">
        <ele>600</ele>
        <time>2009-09-27T10:06:04Z</time>
      </trkpt>
      <trkpt lat="48.30368" lon="7.02061">
        <ele>600</ele>
        <time>2009-09-27T10:06:08Z</time>
      </trkpt>
      <trkpt lat="48.30365" lon="7.02068">
        <ele>600</ele>
        <time>2009-09-27T10:06:12Z</time>
      </trkpt>
      <trkpt lat="48.30363" lon="7.02075">
        <ele>600</ele>
        <time>2009-09-27T10:06:17Z</time>
      </trkpt>
      <trkpt lat="48.3036" lon="7.02083">
        <ele>600</ele>
        <time>2009-09-27T10:06:21Z</time>
      </trkpt>
      <trkpt lat="48.30357" lon="7.0209">
        <ele>614</ele>
        <time>2009-09-27T10:06:25Z</time>
      </trkpt>
      <trkpt lat="48.30354" lon="7.02098">
        <ele>615</ele>
        <time>2009-09-27T10:06:29Z</time>
      </trkpt>
      <trkpt lat="48.30352" lon="7.02107">
        <ele>617</ele>
        <time>2009-09-27T10:06:33Z</time>
      </trkpt>
      <trkpt lat="48.30349" lon="7.02114">
        <ele>618</ele>
        <time>2009-09-27T10:06:37Z</time>
      </trkpt>
      <trkpt lat="48.30347" lon="7.02121">
        <ele>620</ele>
        <time>2009-09-27T10:06:41Z</time>
      </trkpt>
      <trkpt lat="48.30345" lon="7.02128">
        <ele>621</ele>
        <time>2009-09-27T10:06:45Z</time>
      </trkpt>
      <trkpt lat="48.30341" lon="7.02139">
        <ele>623</ele>
        <time>2009-09-27T10:06:49Z</time>
      </trkpt>
      <trkpt lat="48.30339" lon="7.02146">
        <ele>624</ele>
        <time>2009-09-27T10:06:53Z</time>
      </trkpt>
      <trkpt lat="48.30335" lon="7.02157">
        <ele>625</ele>
        <time>2009-09-27T10:06:57Z</time>
      </trkpt>
      <trkpt lat="48.30334" lon="7.02162">
        <ele>626</ele>
        <time>2009-09-27T10:07:01Z</time>
      </trkpt>
      <trkpt lat="48.30331" lon="7.02168">
        <ele>626</ele>
        <time>2009-09-27T10:07:05Z</time>
      </trkpt>
      <trkpt lat="48.30329" lon="7.02176">
        <ele>628</ele>
        <time>2009-09-27T10:07:09Z</time>
      </trkpt>
      <trkpt lat="48.30327" lon="7.0218">
        <ele>628</ele>
        <time>2009-09-27T10:07:14Z</time>
      </trkpt>
      <trkpt lat="48.30323" lon="7.02183">
        <ele>629</ele>
        <time>2009-09-27T10:07:18Z</time>
      </trkpt>
      <trkpt lat="48.30319" lon="7.02184">
        <ele>629</ele>
        <time>2009-09-27T10:07:22Z</time>
      </trkpt>
      <trkpt lat="48.30314" lon="7.02186">
        <ele>629</ele>
        <time>2009-09-27T10:07:26Z</time>
      </trkpt>
      <trkpt lat="48.30311" lon="7.02189">
        <ele>629</ele>
        <time>2009-09-27T10:07:30Z</time>
      </trkpt>
      <trkpt lat="48.30306" lon="7.0219">
        <ele>629</ele>
        <time>2009-09-27T10:07:34Z</time>
      </trkpt>
      <trkpt lat="48.30302" lon="7.02193">
        <ele>629</ele>
        <time>2009-09-27T10:07:38Z</time>
      </trkpt>
      <trkpt lat="48.30296" lon="7.02199">
        <ele>629</ele>
        <time>2009-09-27T10:07:42Z</time>
      </trkpt>
      <trkpt lat="48.30292" lon="7.02201">
        <ele>629</ele>
        <time>2009-09-27T10:07:47Z</time>
      </trkpt>
      <trkpt lat="48.30285" lon="7.02203">
        <ele>629</ele>
        <time>2009-09-27T10:07:51Z</time>
      </trkpt>
      <trkpt lat="48.30278" lon="7.02205">
        <ele>628</ele>
        <time>2009-09-27T10:07:55Z</time>
      </trkpt>
      <trkpt lat="48.30274" lon="7.02209">
        <ele>629</ele>
        <time>2009-09-27T10:07:59Z</time>
      </trkpt>
      <trkpt lat="48.30271" lon="7.0221">
        <ele>629</ele>
        <time>2009-09-27T10:08:03Z</time>
      </trkpt>
      <trkpt lat="48.30266" lon="7.02213">
        <ele>629</ele>
        <time>2009-09-27T10:08:07Z</time>
      </trkpt>
      <trkpt lat="48.30262" lon="7.02219">
        <ele>630</ele>
        <time>2009-09-27T10:08:12Z</time>
      </trkpt>
      <trkpt lat="48.30259" lon="7.0222">
        <ele>630</ele>
        <time>2009-09-27T10:08:16Z</time>
      </trkpt>
      <trkpt lat="48.30254" lon="7.0222">
        <ele>630</ele>
        <time>2009-09-27T10:08:20Z</time>
      </trkpt>
      <trkpt lat="48.30247" lon="7.02225">
        <ele>625</ele>
        <time>2009-09-27T10:08:24Z</time>
      </trkpt>
      <trkpt lat="48.30245" lon="7.02228">
        <ele>626</ele>
        <time>2009-09-27T10:08:28Z</time>
      </trkpt>
      <trkpt lat="48.30238" lon="7.0223">
        <ele>626</ele>
        <time>2009-09-27T10:08:32Z</time>
      </trkpt>
      <trkpt lat="48.30236" lon="7.02232">
        <ele>626</ele>
        <time>2009-09-27T10:08:36Z</time>
      </trkpt>
      <trkpt lat="48.30228" lon="7.02234">
        <ele>625</ele>
        <time>2009-09-27T10:08:40Z</time>
      </trkpt>
      <trkpt lat="48.30222" lon="7.02241">
        <ele>625</ele>
        <time>2009-09-27T10:08:44Z</time>
      </trkpt>
      <trkpt lat="48.3022" lon="7.02247">
        <ele>625</ele>
        <time>2009-09-27T10:08:48Z</time>
      </trkpt>
      <trkpt lat="48.30219" lon="7.02254">
        <ele>629</ele>
        <time>2009-09-27T10:08:52Z</time>
      </trkpt>
      <trkpt lat="48.3022" lon="7.02261">
        <ele>629</ele>
        <time>2009-09-27T10:08:56Z</time>
      </trkpt>
      <trkpt lat="48.30223" lon="7.02266">
        <ele>629</ele>
        <time>2009-09-27T10:09:00Z</time>
      </trkpt>
      <trkpt lat="48.30227" lon="7.02271">
        <ele>629</ele>
        <time>2009-09-27T10:09:05Z</time>
      </trkpt>
      <trkpt lat="48.30231" lon="7.02275">
        <ele>630</ele>
        <time>2009-09-27T10:09:09Z</time>
      </trkpt>
      <trkpt lat="48.30235" lon="7.0228">
        <ele>630</ele>
        <time>2009-09-27T10:09:13Z</time>
      </trkpt>
      <trkpt lat="48.30239" lon="7.02286">
        <ele>630</ele>
        <time>2009-09-27T10:09:17Z</time>
      </trkpt>
      <trkpt lat="48.30242" lon="7.02291">
        <ele>630</ele>
        <time>2009-09-27T10:09:21Z</time>
      </trkpt>
      <trkpt lat="48.30246" lon="7.02295">
        <ele>630</ele>
        <time>2009-09-27T10:09:25Z</time>
      </trkpt>
      <trkpt lat="48.30249" lon="7.023">
        <ele>630</ele>
        <time>2009-09-27T10:09:29Z</time>
      </trkpt>
      <trkpt lat="48.30251" lon="7.02307">
        <ele>641</ele>
        <time>2009-09-27T10:09:33Z</time>
      </trkpt>
      <trkpt lat="48.30255" lon="7.02308">
        <ele>642</ele>
        <time>2009-09-27T10:09:37Z</time>
      </trkpt>
      <trkpt lat="48.3026" lon="7.02315">
        <ele>641</ele>
        <time>2009-09-27T10:09:41Z</time>
      </trkpt>
      <trkpt lat="48.30263" lon="7.02318">
        <ele>642</ele>
        <time>2009-09-27T10:09:45Z</time>
      </trkpt>
      <trkpt lat="48.30267" lon="7.02322">
        <ele>642</ele>
        <time>2009-09-27T10:09:49Z</time>
      </trkpt>
      <trkpt lat="48.30271" lon="7.0233">
        <ele>642</ele>
        <time>2009-09-27T10:09:53Z</time>
      </trkpt>
      <trkpt lat="48.30274" lon="7.02334">
        <ele>644</ele>
        <time>2009-09-27T10:09:58Z</time>
      </trkpt>
      <trkpt lat="48.30276" lon="7.02336">
        <ele>644</ele>
        <time>2009-09-27T10:10:02Z</time>
      </trkpt>
      <trkpt lat="48.30279" lon="7.02338">
        <ele>645</ele>
        <time>2009-09-27T10:10:06Z</time>
      </trkpt>
      <trkpt lat="48.30283" lon="7.02342">
        <ele>646</ele>
        <time>2009-09-27T10:10:10Z</time>
      </trkpt>
      <trkpt lat="48.30286" lon="7.02345">
        <ele>647</ele>
        <time>2009-09-27T10:10:14Z</time>
      </trkpt>
      <trkpt lat="48.3029" lon="7.02346">
        <ele>648</ele>
        <time>2009-09-27T10:10:18Z</time>
      </trkpt>
      <trkpt lat="48.30294" lon="7.0235">
        <ele>649</ele>
        <time>2009-09-27T10:10:22Z</time>
      </trkpt>
      <trkpt lat="48.30299" lon="7.02355">
        <ele>649</ele>
        <time>2009-09-27T10:10:26Z</time>
      </trkpt>
      <trkpt lat="48.30302" lon="7.02366">
        <ele>649</ele>
        <time>2009-09-27T10:10:30Z</time>
      </trkpt>
      <trkpt lat="48.30305" lon="7.02379">
        <ele>650</ele>
        <time>2009-09-27T10:10:34Z</time>
      </trkpt>
      <trkpt lat="48.3031" lon="7.02383">
        <ele>651</ele>
        <time>2009-09-27T10:10:38Z</time>
      </trkpt>
      <trkpt lat="48.30323" lon="7.02409">
        <ele>656</ele>
        <time>2009-09-27T10:10:42Z</time>
      </trkpt>
      <trkpt lat="48.30329" lon="7.02416">
        <ele>660</ele>
        <time>2009-09-27T10:10:47Z</time>
      </trkpt>
      <trkpt lat="48.30336" lon="7.02428">
        <ele>670</ele>
        <time>2009-09-27T10:10:51Z</time>
      </trkpt>
      <trkpt lat="48.3034" lon="7.02438">
        <ele>673</ele>
        <time>2009-09-27T10:10:55Z</time>
      </trkpt>
      <trkpt lat="48.30338" lon="7.02448">
        <ele>674</ele>
        <time>2009-09-27T10:10:59Z</time>
      </trkpt>
      <trkpt lat="48.3034" lon="7.02457">
        <ele>675</ele>
        <time>2009-09-27T10:11:03Z</time>
      </trkpt>
      <trkpt lat="48.30342" lon="7.02472">
        <ele>674</ele>
        <time>2009-09-27T10:11:07Z</time>
      </trkpt>
      <trkpt lat="48.30344" lon="7.02483">
        <ele>671</ele>
        <time>2009-09-27T10:11:11Z</time>
      </trkpt>
      <trkpt lat="48.30346" lon="7.02496">
        <ele>669</ele>
        <time>2009-09-27T10:11:15Z</time>
      </trkpt>
      <trkpt lat="48.30348" lon="7.02507">
        <ele>669</ele>
        <time>2009-09-27T10:11:19Z</time>
      </trkpt>
      <trkpt lat="48.30349" lon="7.02522">
        <ele>672</ele>
        <time>2009-09-27T10:11:23Z</time>
      </trkpt>
      <trkpt lat="48.30348" lon="7.02524">
        <ele>672</ele>
        <time>2009-09-27T10:11:27Z</time>
      </trkpt>
      <trkpt lat="48.30346" lon="7.02531">
        <ele>672</ele>
        <time>2009-09-27T10:11:31Z</time>
      </trkpt>
      <trkpt lat="48.30348" lon="7.0254">
        <ele>673</ele>
        <time>2009-09-27T10:11:35Z</time>
      </trkpt>
      <trkpt lat="48.30351" lon="7.0255">
        <ele>673</ele>
        <time>2009-09-27T10:11:40Z</time>
      </trkpt>
      <trkpt lat="48.30353" lon="7.02563">
        <ele>672</ele>
        <time>2009-09-27T10:11:44Z</time>
      </trkpt>
      <trkpt lat="48.30355" lon="7.02575">
        <ele>671</ele>
        <time>2009-09-27T10:11:48Z</time>
      </trkpt>
      <trkpt lat="48.30356" lon="7.02586">
        <ele>668</ele>
        <time>2009-09-27T10:11:52Z</time>
      </trkpt>
      <trkpt lat="48.30357" lon="7.02597">
        <ele>669</ele>
        <time>2009-09-27T10:11:56Z</time>
      </trkpt>
      <trkpt lat="48.30356" lon="7.02604">
        <ele>669</ele>
        <time>2009-09-27T10:12:00Z</time>
      </trkpt>
      <trkpt lat="48.30358" lon="7.02613">
        <ele>671</ele>
        <time>2009-09-27T10:12:04Z</time>
      </trkpt>
      <trkpt lat="48.30361" lon="7.02624">
        <ele>671</ele>
        <time>2009-09-27T10:12:08Z</time>
      </trkpt>
      <trkpt lat="48.30363" lon="7.02638">
        <ele>671</ele>
        <time>2009-09-27T10:12:12Z</time>
      </trkpt>
      <trkpt lat="48.30368" lon="7.02653">
        <ele>671</ele>
        <time>2009-09-27T10:12:16Z</time>
      </trkpt>
      <trkpt lat="48.30371" lon="7.02661">
        <ele>672</ele>
        <time>2009-09-27T10:12:20Z</time>
      </trkpt>
      <trkpt lat="48.30373" lon="7.02674">
        <ele>668</ele>
        <time>2009-09-27T10:12:24Z</time>
      </trkpt>
      <trkpt lat="48.30376" lon="7.02684">
        <ele>668</ele>
        <time>2009-09-27T10:12:28Z</time>
      </trkpt>
      <trkpt lat="48.30378" lon="7.02696">
        <ele>668</ele>
        <time>2009-09-27T10:12:32Z</time>
      </trkpt>
      <trkpt lat="48.30381" lon="7.02709">
        <ele>668</ele>
        <time>2009-09-27T10:12:36Z</time>
      </trkpt>
      <trkpt lat="48.30384" lon="7.02718">
        <ele>669</ele>
        <time>2009-09-27T10:12:40Z</time>
      </trkpt>
      <trkpt lat="48.30387" lon="7.02732">
        <ele>670</ele>
        <time>2009-09-27T10:12:45Z</time>
      </trkpt>
      <trkpt lat="48.30393" lon="7.02742">
        <ele>672</ele>
        <time>2009-09-27T10:12:49Z</time>
      </trkpt>
      <trkpt lat="48.30397" lon="7.02754">
        <ele>668</ele>
        <time>2009-09-27T10:12:53Z</time>
      </trkpt>
      <trkpt lat="48.304" lon="7.02761">
        <ele>668</ele>
        <time>2009-09-27T10:12:57Z</time>
      </trkpt>
      <trkpt lat="48.30403" lon="7.02766">
        <ele>668</ele>
        <time>2009-09-27T10:13:01Z</time>
      </trkpt>
      <trkpt lat="48.30407" lon="7.02776">
        <ele>666</ele>
        <time>2009-09-27T10:13:05Z</time>
      </trkpt>
      <trkpt lat="48.3041" lon="7.02782">
        <ele>665</ele>
        <time>2009-09-27T10:13:09Z</time>
      </trkpt>
      <trkpt lat="48.30414" lon="7.02789">
        <ele>664</ele>
        <time>2009-09-27T10:13:13Z</time>
      </trkpt>
      <trkpt lat="48.30418" lon="7.02799">
        <ele>689</ele>
        <time>2009-09-27T10:13:17Z</time>
      </trkpt>
      <trkpt lat="48.30424" lon="7.02807">
        <ele>688</ele>
        <time>2009-09-27T10:13:21Z</time>
      </trkpt>
      <trkpt lat="48.3043" lon="7.02816">
        <ele>686</ele>
        <time>2009-09-27T10:13:25Z</time>
      </trkpt>
      <trkpt lat="48.30435" lon="7.02824">
        <ele>686</ele>
        <time>2009-09-27T10:13:29Z</time>
      </trkpt>
      <trkpt lat="48.3044" lon="7.02834">
        <ele>680</ele>
        <time>2009-09-27T10:13:33Z</time>
      </trkpt>
      <trkpt lat="48.30443" lon="7.02842">
        <ele>682</ele>
        <time>2009-09-27T10:13:37Z</time>
      </trkpt>
      <trkpt lat="48.30448" lon="7.02849">
        <ele>683</ele>
        <time>2009-09-27T10:13:41Z</time>
      </trkpt>
      <trkpt lat="48.30453" lon="7.0286">
        <ele>685</ele>
        <time>2009-09-27T10:13:45Z</time>
      </trkpt>
      <trkpt lat="48.30456" lon="7.02868">
        <ele>685</ele>
        <time>2009-09-27T10:13:49Z</time>
      </trkpt>
      <trkpt lat="48.3046" lon="7.02877">
        <ele>685</ele>
        <time>2009-09-27T10:13:53Z</time>
      </trkpt>
      <trkpt lat="48.30464" lon="7.02885">
        <ele>686</ele>
        <time>2009-09-27T10:13:57Z</time>
      </trkpt>
      <trkpt lat="48.30466" lon="7.02891">
        <ele>686</ele>
        <time>2009-09-27T10:14:01Z</time>
      </trkpt>
      <trkpt lat="48.30469" lon="7.02896">
        <ele>687</ele>
        <time>2009-09-27T10:14:05Z</time>
      </trkpt>
      <trkpt lat="48.30473" lon="7.02901">
        <ele>688</ele>
        <time>2009-09-27T10:14:09Z</time>
      </trkpt>
      <trkpt lat="48.30479" lon="7.02908">
        <ele>689</ele>
        <time>2009-09-27T10:14:13Z</time>
      </trkpt>
      <trkpt lat="48.30485" lon="7.02917">
        <ele>686</ele>
        <time>2009-09-27T10:14:18Z</time>
      </trkpt>
      <trkpt lat="48.3049" lon="7.02922">
        <ele>688</ele>
        <time>2009-09-27T10:14:22Z</time>
      </trkpt>
      <trkpt lat="48.30494" lon="7.02931">
        <ele>685</ele>
        <time>2009-09-27T10:14:26Z</time>
      </trkpt>
      <trkpt lat="48.30499" lon="7.02931">
        <ele>686</ele>
        <time>2009-09-27T10:14:30Z</time>
      </trkpt>
      <trkpt lat="48.30503" lon="7.0294">
        <ele>702</ele>
        <time>2009-09-27T10:14:34Z</time>
      </trkpt>
      <trkpt lat="48.30509" lon="7.0295">
        <ele>702</ele>
        <time>2009-09-27T10:14:38Z</time>
      </trkpt>
      <trkpt lat="48.30513" lon="7.02958">
        <ele>702</ele>
        <time>2009-09-27T10:14:42Z</time>
      </trkpt>
      <trkpt lat="48.30516" lon="7.02964">
        <ele>701</ele>
        <time>2009-09-27T10:14:46Z</time>
      </trkpt>
      <trkpt lat="48.30519" lon="7.02971">
        <ele>701</ele>
        <time>2009-09-27T10:14:50Z</time>
      </trkpt>
      <trkpt lat="48.30526" lon="7.0298">
        <ele>700</ele>
        <time>2009-09-27T10:14:54Z</time>
      </trkpt>
      <trkpt lat="48.3053" lon="7.02984">
        <ele>701</ele>
        <time>2009-09-27T10:14:58Z</time>
      </trkpt>
      <trkpt lat="48.30535" lon="7.0299">
        <ele>702</ele>
        <time>2009-09-27T10:15:02Z</time>
      </trkpt>
      <trkpt lat="48.30542" lon="7.02998">
        <ele>704</ele>
        <time>2009-09-27T10:15:06Z</time>
      </trkpt>
      <trkpt lat="48.30548" lon="7.03003">
        <ele>693</ele>
        <time>2009-09-27T10:15:11Z</time>
      </trkpt>
      <trkpt lat="48.30554" lon="7.0301">
        <ele>694</ele>
        <time>2009-09-27T10:15:15Z</time>
      </trkpt>
      <trkpt lat="48.30559" lon="7.03018">
        <ele>695</ele>
        <time>2009-09-27T10:15:19Z</time>
      </trkpt>
      <trkpt lat="48.30563" lon="7.03023">
        <ele>695</ele>
        <time>2009-09-27T10:15:23Z</time>
      </trkpt>
      <trkpt lat="48.30569" lon="7.0303">
        <ele>694</ele>
        <time>2009-09-27T10:15:27Z</time>
      </trkpt>
      <trkpt lat="48.30573" lon="7.03033">
        <ele>694</ele>
        <time>2009-09-27T10:15:31Z</time>
      </trkpt>
      <trkpt lat="48.30576" lon="7.0304">
        <ele>693</ele>
        <time>2009-09-27T10:15:35Z</time>
      </trkpt>
      <trkpt lat="48.30584" lon="7.03047">
        <ele>715</ele>
        <time>2009-09-27T10:15:39Z</time>
      </trkpt>
      <trkpt lat="48.3059" lon="7.03053">
        <ele>714</ele>
        <time>2009-09-27T10:15:43Z</time>
      </trkpt>
      <trkpt lat="48.30595" lon="7.03057">
        <ele>714</ele>
        <time>2009-09-27T10:15:47Z</time>
      </trkpt>
      <trkpt lat="48.30599" lon="7.03063">
        <ele>713</ele>
        <time>2009-09-27T10:15:51Z</time>
      </trkpt>
      <trkpt lat="48.30603" lon="7.03069">
        <ele>712</ele>
        <time>2009-09-27T10:15:55Z</time>
      </trkpt>
      <trkpt lat="48.30607" lon="7.03077">
        <ele>713</ele>
        <time>2009-09-27T10:15:59Z</time>
      </trkpt>
      <trkpt lat="48.30613" lon="7.03083">
        <ele>715</ele>
        <time>2009-09-27T10:16:04Z</time>
      </trkpt>
      <trkpt lat="48.30618" lon="7.03087">
        <ele>702</ele>
        <time>2009-09-27T10:16:08Z</time>
      </trkpt>
      <trkpt lat="48.30622" lon="7.03094">
        <ele>703</ele>
        <time>2009-09-27T10:16:12Z</time>
      </trkpt>
      <trkpt lat="48.30629" lon="7.031">
        <ele>704</ele>
        <time>2009-09-27T10:16:16Z</time>
      </trkpt>
      <trkpt lat="48.30634" lon="7.03105">
        <ele>705</ele>
        <time>2009-09-27T10:16:20Z</time>
      </trkpt>
      <trkpt lat="48.3064" lon="7.03112">
        <ele>705</ele>
        <time>2009-09-27T10:16:24Z</time>
      </trkpt>
      <trkpt lat="48.30644" lon="7.03117">
        <ele>705</ele>
        <time>2009-09-27T10:16:28Z</time>
      </trkpt>
      <trkpt lat="48.3065" lon="7.03124">
        <ele>704</ele>
        <time>2009-09-27T10:16:32Z</time>
      </trkpt>
      <trkpt lat="48.30657" lon="7.03127">
        <ele>704</ele>
        <time>2009-09-27T10:16:36Z</time>
      </trkpt>
      <trkpt lat="48.3066" lon="7.03129">
        <ele>704</ele>
        <time>2009-09-27T10:16:40Z</time>
      </trkpt>
      <trkpt lat="48.30657" lon="7.03134">
        <ele>703</ele>
        <time>2009-09-27T10:16:44Z</time>
      </trkpt>
      <trkpt lat="48.30653" lon="7.03136">
        <ele>702</ele>
        <time>2009-09-27T10:16:48Z</time>
      </trkpt>
      <trkpt lat="48.30652" lon="7.03138">
        <ele>702</ele>
        <time>2009-09-27T10:16:52Z</time>
      </trkpt>
      <trkpt lat="48.30652" lon="7.03142">
        <ele>701</ele>
        <time>2009-09-27T10:16:56Z</time>
      </trkpt>
      <trkpt lat="48.30653" lon="7.03144">
        <ele>701</ele>
        <time>2009-09-27T10:17:00Z</time>
      </trkpt>
      <trkpt lat="48.30655" lon="7.0314">
        <ele>702</ele>
        <time>2009-09-27T10:17:05Z</time>
      </trkpt>
      <trkpt lat="48.30657" lon="7.03139">
        <ele>702</ele>
        <time>2009-09-27T10:17:09Z</time>
      </trkpt>
      <trkpt lat="48.3066" lon="7.03137">
        <ele>703</ele>
        <time>2009-09-27T10:17:13Z</time>
      </trkpt>
      <trkpt lat="48.30663" lon="7.03137">
        <ele>703</ele>
        <time>2009-09-27T10:17:17Z</time>
      </trkpt>
      <trkpt lat="48.30668" lon="7.03134">
        <ele>718</ele>
        <time>2009-09-27T10:17:21Z</time>
      </trkpt>
      <trkpt lat="48.3067" lon="7.03135">
        <ele>717</ele>
        <time>2009-09-27T10:17:25Z</time>
      </trkpt>
      <trkpt lat="48.30669" lon="7.03135">
        <ele>717</ele>
        <time>2009-09-27T10:17:29Z</time>
      </trkpt>
      <trkpt lat="48.30667" lon="7.03135">
        <ele>717</ele>
        <time>2009-09-27T10:17:33Z</time>
      </trkpt>
      <trkpt lat="48.30666" lon="7.03136">
        <ele>703</ele>
        <time>2009-09-27T10:17:37Z</time>
      </trkpt>
      <trkpt lat="48.30665" lon="7.03136">
        <ele>703</ele>
        <time>2009-09-27T10:17:41Z</time>
      </trkpt>
      <trkpt lat="48.30666" lon="7.03136">
        <ele>703</ele>
        <time>2009-09-27T10:17:45Z</time>
      </trkpt>
      <trkpt lat="48.30664" lon="7.03136">
        <ele>703</ele>
        <time>2009-09-27T10:17:49Z</time>
      </trkpt>
      <trkpt lat="48.30664" lon="7.03135">
        <ele>703</ele>
        <time>2009-09-27T10:17:53Z</time>
      </trkpt>
      <trkpt lat="48.30663" lon="7.03137">
        <ele>703</ele>
        <time>2009-09-27T10:17:57Z</time>
      </trkpt>
      <trkpt lat="48.30662" lon="7.03135">
        <ele>703</ele>
        <time>2009-09-27T10:18:01Z</time>
      </trkpt>
      <trkpt lat="48.30661" lon="7.03137">
        <ele>703</ele>
        <time>2009-09-27T10:18:05Z</time>
      </trkpt>
      <trkpt lat="48.3066" lon="7.03138">
        <ele>703</ele>
        <time>2009-09-27T10:18:09Z</time>
      </trkpt>
      <trkpt lat="48.30659" lon="7.03141">
        <ele>702</ele>
        <time>2009-09-27T10:18:14Z</time>
      </trkpt>
      <trkpt lat="48.30659" lon="7.03142">
        <ele>702</ele>
        <time>2009-09-27T10:18:18Z</time>
      </trkpt>
      <trkpt lat="48.30661" lon="7.03141">
        <ele>702</ele>
        <time>2009-09-27T10:18:22Z</time>
      </trkpt>
      <trkpt lat="48.30661" lon="7.03139">
        <ele>702</ele>
        <time>2009-09-27T10:18:26Z</time>
      </trkpt>
      <trkpt lat="48.30661" lon="7.03139">
        <ele>702</ele>
        <time>2009-09-27T10:18:31Z</time>
      </trkpt>
      <trkpt lat="48.30662" lon="7.03139">
        <ele>703</ele>
        <time>2009-09-27T10:18:35Z</time>
      </trkpt>
      <trkpt lat="48.30661" lon="7.03139">
        <ele>702</ele>
        <time>2009-09-27T10:18:39Z</time>
      </trkpt>
      <trkpt lat="48.30663" lon="7.03137">
        <ele>703</ele>
        <time>2009-09-27T10:18:43Z</time>
      </trkpt>
      <trkpt lat="48.30659" lon="7.03141">
        <ele>702</ele>
        <time>2009-09-27T10:18:47Z</time>
      </trkpt>
      <trkpt lat="48.30657" lon="7.03144">
        <ele>702</ele>
        <time>2009-09-27T10:18:51Z</time>
      </trkpt>
      <trkpt lat="48.30657" lon="7.03145">
        <ele>702</ele>
        <time>2009-09-27T10:18:55Z</time>
      </trkpt>
      <trkpt lat="48.30655" lon="7.03146">
        <ele>701</ele>
        <time>2009-09-27T10:18:59Z</time>
      </trkpt>
      <trkpt lat="48.30655" lon="7.03149">
        <ele>701</ele>
        <time>2009-09-27T10:19:04Z</time>
      </trkpt>
      <trkpt lat="48.30659" lon="7.03145">
        <ele>702</ele>
        <time>2009-09-27T10:19:08Z</time>
      </trkpt>
      <trkpt lat="48.30655" lon="7.03149">
        <ele>701</ele>
        <time>2009-09-27T10:19:12Z</time>
      </trkpt>
      <trkpt lat="48.30658" lon="7.03148">
        <ele>701</ele>
        <time>2009-09-27T10:19:16Z</time>
      </trkpt>
      <trkpt lat="48.30658" lon="7.03145">
        <ele>702</ele>
        <time>2009-09-27T10:19:21Z</time>
      </trkpt>
      <trkpt lat="48.30658" lon="7.03146">
        <ele>701</ele>
        <time>2009-09-27T10:19:25Z</time>
      </trkpt>
      <trkpt lat="48.30657" lon="7.03146">
        <ele>701</ele>
        <time>2009-09-27T10:19:29Z</time>
      </trkpt>
      <trkpt lat="48.30659" lon="7.03143">
        <ele>702</ele>
        <time>2009-09-27T10:19:33Z</time>
      </trkpt>
      <trkpt lat="48.3066" lon="7.03142">
        <ele>702</ele>
        <time>2009-09-27T10:19:37Z</time>
      </trkpt>
      <trkpt lat="48.30662" lon="7.03142">
        <ele>702</ele>
        <time>2009-09-27T10:19:41Z</time>
      </trkpt>
      <trkpt lat="48.30662" lon="7.03143">
        <ele>702</ele>
        <time>2009-09-27T10:19:45Z</time>
      </trkpt>
      <trkpt lat="48.30662" lon="7.03138">
        <ele>703</ele>
        <time>2009-09-27T10:19:49Z</time>
      </trkpt>
      <trkpt lat="48.30662" lon="7.03138">
        <ele>703</ele>
        <time>2009-09-27T10:19:53Z</time>
      </trkpt>
      <trkpt lat="48.30664" lon="7.03138">
        <ele>703</ele>
        <time>2009-09-27T10:19:57Z</time>
      </trkpt>
      <trkpt lat="48.30666" lon="7.03135">
        <ele>704</ele>
        <time>2009-09-27T10:20:01Z</time>
      </trkpt>
      <trkpt lat="48.30664" lon="7.03135">
        <ele>703</ele>
        <time>2009-09-27T10:20:06Z</time>
      </trkpt>
      <trkpt lat="48.30663" lon="7.03139">
        <ele>703</ele>
        <time>2009-09-27T10:20:10Z</time>
      </trkpt>
      <trkpt lat="48.30663" lon="7.03142">
        <ele>702</ele>
        <time>2009-09-27T10:20:14Z</time>
      </trkpt>
      <trkpt lat="48.30658" lon="7.03149">
        <ele>701</ele>
        <time>2009-09-27T10:20:18Z</time>
      </trkpt>
      <trkpt lat="48.30657" lon="7.03152">
        <ele>701</ele>
        <time>2009-09-27T10:20:22Z</time>
      </trkpt>
      <trkpt lat="48.30658" lon="7.0315">
        <ele>701</ele>
        <time>2009-09-27T10:20:26Z</time>
      </trkpt>
      <trkpt lat="48.30657" lon="7.03148">
        <ele>701</ele>
        <time>2009-09-27T10:20:30Z</time>
      </trkpt>
      <trkpt lat="48.30657" lon="7.03148">
        <ele>701</ele>
        <time>2009-09-27T10:20:34Z</time>
      </trkpt>
      <trkpt lat="48.30658" lon="7.03145">
        <ele>702</ele>
        <time>2009-09-27T10:20:38Z</time>
      </trkpt>
      <trkpt lat="48.30658" lon="7.03146">
        <ele>701</ele>
        <time>2009-09-27T10:20:42Z</time>
      </trkpt>
      <trkpt lat="48.30658" lon="7.03146">
        <ele>701</ele>
        <time>2009-09-27T10:20:46Z</time>
      </trkpt>
      <trkpt lat="48.30658" lon="7.03146">
        <ele>701</ele>
        <time>2009-09-27T10:20:50Z</time>
      </trkpt>
      <trkpt lat="48.30658" lon="7.03146">
        <ele>701</ele>
        <time>2009-09-27T10:20:55Z</time>
      </trkpt>
      <trkpt lat="48.3066" lon="7.03143">
        <ele>702</ele>
        <time>2009-09-27T10:20:59Z</time>
      </trkpt>
      <trkpt lat="48.30662" lon="7.03137">
        <ele>703</ele>
        <time>2009-09-27T10:21:04Z</time>
      </trkpt>
      <trkpt lat="48.30662" lon="7.03138">
        <ele>703</ele>
        <time>2009-09-27T10:21:08Z</time>
      </trkpt>
      <trkpt lat="48.30661" lon="7.03139">
        <ele>702</ele>
        <time>2009-09-27T10:21:12Z</time>
      </trkpt>
      <trkpt lat="48.30659" lon="7.03139">
        <ele>702</ele>
        <time>2009-09-27T10:21:16Z</time>
      </trkpt>
      <trkpt lat="48.30659" lon="7.03139">
        <ele>702</ele>
        <time>2009-09-27T10:21:20Z</time>
      </trkpt>
      <trkpt lat="48.30659" lon="7.03139">
        <ele>702</ele>
        <time>2009-09-27T10:21:24Z</time>
      </trkpt>
      <trkpt lat="48.30659" lon="7.03141">
        <ele>702</ele>
        <time>2009-09-27T10:21:28Z</time>
      </trkpt>
      <trkpt lat="48.30659" lon="7.03138">
        <ele>703</ele>
        <time>2009-09-27T10:21:33Z</time>
      </trkpt>
      <trkpt lat="48.30658" lon="7.03138">
        <ele>702</ele>
        <time>2009-09-27T10:21:37Z</time>
      </trkpt>
      <trkpt lat="48.30655" lon="7.03138">
        <ele>702</ele>
        <time>2009-09-27T10:21:41Z</time>
      </trkpt>
      <trkpt lat="48.30655" lon="7.03138">
        <ele>702</ele>
        <time>2009-09-27T10:21:45Z</time>
      </trkpt>
      <trkpt lat="48.30655" lon="7.03137">
        <ele>702</ele>
        <time>2009-09-27T10:21:49Z</time>
      </trkpt>
      <trkpt lat="48.30654" lon="7.03138">
        <ele>702</ele>
        <time>2009-09-27T10:21:53Z</time>
      </trkpt>
      <trkpt lat="48.30654" lon="7.03138">
        <ele>702</ele>
        <time>2009-09-27T10:21:57Z</time>
      </trkpt>
      <trkpt lat="48.30654" lon="7.03137">
        <ele>702</ele>
        <time>2009-09-27T10:22:01Z</time>
      </trkpt>
      <trkpt lat="48.30654" lon="7.03137">
        <ele>702</ele>
        <time>2009-09-27T10:22:05Z</time>
      </trkpt>
      <trkpt lat="48.30655" lon="7.03135">
        <ele>703</ele>
        <time>2009-09-27T10:22:09Z</time>
      </trkpt>
      <trkpt lat="48.30657" lon="7.03134">
        <ele>703</ele>
        <time>2009-09-27T10:22:13Z</time>
      </trkpt>
      <trkpt lat="48.30658" lon="7.03133">
        <ele>703</ele>
        <time>2009-09-27T10:22:17Z</time>
      </trkpt>
      <trkpt lat="48.30658" lon="7.03133">
        <ele>703</ele>
        <time>2009-09-27T10:22:21Z</time>
      </trkpt>
      <trkpt lat="48.30665" lon="7.03126">
        <ele>705</ele>
        <time>2009-09-27T10:22:25Z</time>
      </trkpt>
      <trkpt lat="48.30667" lon="7.03124">
        <ele>720</ele>
        <time>2009-09-27T10:22:29Z</time>
      </trkpt>
      <trkpt lat="48.30668" lon="7.03124">
        <ele>720</ele>
        <time>2009-09-27T10:22:34Z</time>
      </trkpt>
      <trkpt lat="48.30669" lon="7.03123">
        <ele>721</ele>
        <time>2009-09-27T10:22:38Z</time>
      </trkpt>
      <trkpt lat="48.30669" lon="7.03124">
        <ele>720</ele>
        <time>2009-09-27T10:22:42Z</time>
      </trkpt>
      <trkpt lat="48.30669" lon="7.03124">
        <ele>720</ele>
        <time>2009-09-27T10:22:46Z</time>
      </trkpt>
      <trkpt lat="48.30669" lon="7.03124">
        <ele>720</ele>
        <time>2009-09-27T10:22:50Z</time>
      </trkpt>
      <trkpt lat="48.30663" lon="7.0313">
        <ele>704</ele>
        <time>2009-09-27T10:22:54Z</time>
      </trkpt>
      <trkpt lat="48.30661" lon="7.03133">
        <ele>704</ele>
        <time>2009-09-27T10:22:58Z</time>
      </trkpt>
      <trkpt lat="48.30658" lon="7.03135">
        <ele>703</ele>
        <time>2009-09-27T10:23:02Z</time>
      </trkpt>
      <trkpt lat="48.30657" lon="7.03137">
        <ele>703</ele>
        <time>2009-09-27T10:23:06Z</time>
      </trkpt>
      <trkpt lat="48.30655" lon="7.03135">
        <ele>703</ele>
        <time>2009-09-27T10:23:10Z</time>
      </trkpt>
      <trkpt lat="48.30655" lon="7.03135">
        <ele>703</ele>
        <time>2009-09-27T10:23:14Z</time>
      </trkpt>
      <trkpt lat="48.30654" lon="7.03134">
        <ele>703</ele>
        <time>2009-09-27T10:23:18Z</time>
      </trkpt>
      <trkpt lat="48.30654" lon="7.03134">
        <ele>703</ele>
        <time>2009-09-27T10:23:22Z</time>
      </trkpt>
      <trkpt lat="48.30654" lon="7.03134">
        <ele>703</ele>
        <time>2009-09-27T10:23:26Z</time>
      </trkpt>
      <trkpt lat="48.30655" lon="7.03135">
        <ele>703</ele>
        <time>2009-09-27T10:23:30Z</time>
      </trkpt>
      <trkpt lat="48.30656" lon="7.03135">
        <ele>703</ele>
        <time>2009-09-27T10:23:34Z</time>
      </trkpt>
      <trkpt lat="48.30656" lon="7.03135">
        <ele>703</ele>
        <time>2009-09-27T10:23:38Z</time>
      </trkpt>
      <trkpt lat="48.30657" lon="7.03137">
        <ele>703</ele>
        <time>2009-09-27T10:23:43Z</time>
      </trkpt>
      <trkpt lat="48.30657" lon="7.03137">
        <ele>703</ele>
        <time>2009-09-27T10:23:46Z</time>
      </trkpt>
      <trkpt lat="48.30657" lon="7.03137">
        <ele>703</ele>
        <time>2009-09-27T10:23:50Z</time>
      </trkpt>
      <trkpt lat="48.30658" lon="7.03137">
        <ele>703</ele>
        <time>2009-09-27T10:23:54Z</time>
      </trkpt>
      <trkpt lat="48.30658" lon="7.03135">
        <ele>703</ele>
        <time>2009-09-27T10:23:59Z</time>
      </trkpt>
      <trkpt lat="48.30658" lon="7.03135">
        <ele>703</ele>
        <time>2009-09-27T10:24:03Z</time>
      </trkpt>
      <trkpt lat="48.30658" lon="7.03135">
        <ele>703</ele>
        <time>2009-09-27T10:24:07Z</time>
      </trkpt>
      <trkpt lat="48.30658" lon="7.03135">
        <ele>703</ele>
        <time>2009-09-27T10:24:11Z</time>
      </trkpt>
      <trkpt lat="48.30658" lon="7.03135">
        <ele>703</ele>
        <time>2009-09-27T10:24:15Z</time>
      </trkpt>
      <trkpt lat="48.30658" lon="7.03135">
        <ele>703</ele>
        <time>2009-09-27T10:24:19Z</time>
      </trkpt>
      <trkpt lat="48.30658" lon="7.03135">
        <ele>703</ele>
        <time>2009-09-27T10:24:23Z</time>
      </trkpt>
      <trkpt lat="48.30657" lon="7.03135">
        <ele>703</ele>
        <time>2009-09-27T10:24:27Z</time>
      </trkpt>
      <trkpt lat="48.30657" lon="7.03135">
        <ele>703</ele>
        <time>2009-09-27T10:24:31Z</time>
      </trkpt>
      <trkpt lat="48.30657" lon="7.03135">
        <ele>703</ele>
        <time>2009-09-27T10:24:35Z</time>
      </trkpt>
      <trkpt lat="48.30657" lon="7.03135">
        <ele>703</ele>
        <time>2009-09-27T10:24:39Z</time>
      </trkpt>
      <trkpt lat="48.30657" lon="7.03137">
        <ele>703</ele>
        <time>2009-09-27T10:24:43Z</time>
      </trkpt>
      <trkpt lat="48.30656" lon="7.03137">
        <ele>703</ele>
        <time>2009-09-27T10:24:47Z</time>
      </trkpt>
      <trkpt lat="48.30656" lon="7.03137">
        <ele>703</ele>
        <time>2009-09-27T10:24:51Z</time>
      </trkpt>
      <trkpt lat="48.30655" lon="7.03137">
        <ele>702</ele>
        <time>2009-09-27T10:24:55Z</time>
      </trkpt>
      <trkpt lat="48.30654" lon="7.03138">
        <ele>702</ele>
        <time>2009-09-27T10:24:59Z</time>
      </trkpt>
      <trkpt lat="48.30651" lon="7.03141">
        <ele>701</ele>
        <time>2009-09-27T10:25:03Z</time>
      </trkpt>
      <trkpt lat="48.30646" lon="7.03147">
        <ele>700</ele>
        <time>2009-09-27T10:25:07Z</time>
      </trkpt>
      <trkpt lat="48.30648" lon="7.03144">
        <ele>701</ele>
        <time>2009-09-27T10:25:11Z</time>
      </trkpt>
      <trkpt lat="48.30653" lon="7.0314">
        <ele>702</ele>
        <time>2009-09-27T10:25:15Z</time>
      </trkpt>
      <trkpt lat="48.30654" lon="7.03138">
        <ele>702</ele>
        <time>2009-09-27T10:25:20Z</time>
      </trkpt>
      <trkpt lat="48.30658" lon="7.03135">
        <ele>703</ele>
        <time>2009-09-27T10:25:24Z</time>
      </trkpt>
      <trkpt lat="48.30659" lon="7.03134">
        <ele>703</ele>
        <time>2009-09-27T10:25:28Z</time>
      </trkpt>
      <trkpt lat="48.30659" lon="7.03134">
        <ele>703</ele>
        <time>2009-09-27T10:25:32Z</time>
      </trkpt>
      <trkpt lat="48.30659" lon="7.03134">
        <ele>703</ele>
        <time>2009-09-27T10:25:36Z</time>
      </trkpt>
      <trkpt lat="48.3066" lon="7.03133">
        <ele>704</ele>
        <time>2009-09-27T10:25:40Z</time>
      </trkpt>
      <trkpt lat="48.3066" lon="7.03133">
        <ele>704</ele>
        <time>2009-09-27T10:25:44Z</time>
      </trkpt>
      <trkpt lat="48.30659" lon="7.03133">
        <ele>703</ele>
        <time>2009-09-27T10:25:48Z</time>
      </trkpt>
      <trkpt lat="48.30659" lon="7.03134">
        <ele>703</ele>
        <time>2009-09-27T10:25:52Z</time>
      </trkpt>
      <trkpt lat="48.30659" lon="7.03134">
        <ele>703</ele>
        <time>2009-09-27T10:25:56Z</time>
      </trkpt>
      <trkpt lat="48.30659" lon="7.03134">
        <ele>703</ele>
        <time>2009-09-27T10:26:00Z</time>
      </trkpt>
      <trkpt lat="48.30659" lon="7.03134">
        <ele>703</ele>
        <time>2009-09-27T10:26:05Z</time>
      </trkpt>
      <trkpt lat="48.30659" lon="7.03134">
        <ele>703</ele>
        <time>2009-09-27T10:26:09Z</time>
      </trkpt>
      <trkpt lat="48.30658" lon="7.03134">
        <ele>703</ele>
        <time>2009-09-27T10:26:13Z</time>
      </trkpt>
      <trkpt lat="48.30658" lon="7.03134">
        <ele>703</ele>
        <time>2009-09-27T10:26:17Z</time>
      </trkpt>
      <trkpt lat="48.30658" lon="7.03135">
        <ele>703</ele>
        <time>2009-09-27T10:26:21Z</time>
      </trkpt>
      <trkpt lat="48.30658" lon="7.03135">
        <ele>703</ele>
        <time>2009-09-27T10:26:25Z</time>
      </trkpt>
      <trkpt lat="48.30658" lon="7.03135">
        <ele>703</ele>
        <time>2009-09-27T10:26:29Z</time>
      </trkpt>
      <trkpt lat="48.30658" lon="7.03135">
        <ele>703</ele>
        <time>2009-09-27T10:26:33Z</time>
      </trkpt>
      <trkpt lat="48.30658" lon="7.03135">
        <ele>703</ele>
        <time>2009-09-27T10:26:38Z</time>
      </trkpt>
      <trkpt lat="48.30658" lon="7.03135">
        <ele>703</ele>
        <time>2009-09-27T10:26:42Z</time>
      </trkpt>
      <trkpt lat="48.30658" lon="7.03135">
        <ele>703</ele>
        <time>2009-09-27T10:26:46Z</time>
      </trkpt>
      <trkpt lat="48.30658" lon="7.03135">
        <ele>703</ele>
        <time>2009-09-27T10:26:51Z</time>
      </trkpt>
      <trkpt lat="48.30657" lon="7.03135">
        <ele>703</ele>
        <time>2009-09-27T10:26:55Z</time>
      </trkpt>
      <trkpt lat="48.30657" lon="7.03137">
        <ele>703</ele>
        <time>2009-09-27T10:26:59Z</time>
      </trkpt>
      <trkpt lat="48.30657" lon="7.03137">
        <ele>703</ele>
        <time>2009-09-27T10:27:03Z</time>
      </trkpt>
      <trkpt lat="48.30657" lon="7.03137">
        <ele>703</ele>
        <time>2009-09-27T10:27:07Z</time>
      </trkpt>
      <trkpt lat="48.30656" lon="7.03137">
        <ele>703</ele>
        <time>2009-09-27T10:27:11Z</time>
      </trkpt>
      <trkpt lat="48.30656" lon="7.03137">
        <ele>703</ele>
        <time>2009-09-27T10:27:15Z</time>
      </trkpt>
      <trkpt lat="48.30657" lon="7.03137">
        <ele>703</ele>
        <time>2009-09-27T10:27:19Z</time>
      </trkpt>
      <trkpt lat="48.30655" lon="7.03138">
        <ele>702</ele>
        <time>2009-09-27T10:27:23Z</time>
      </trkpt>
      <trkpt lat="48.30655" lon="7.03135">
        <ele>703</ele>
        <time>2009-09-27T10:27:27Z</time>
      </trkpt>
      <trkpt lat="48.30653" lon="7.03133">
        <ele>703</ele>
        <time>2009-09-27T10:27:32Z</time>
      </trkpt>
      <trkpt lat="48.30653" lon="7.03132">
        <ele>703</ele>
        <time>2009-09-27T10:27:36Z</time>
      </trkpt>
      <trkpt lat="48.30652" lon="7.0313">
        <ele>703</ele>
        <time>2009-09-27T10:27:40Z</time>
      </trkpt>
      <trkpt lat="48.30652" lon="7.03129">
        <ele>704</ele>
        <time>2009-09-27T10:27:44Z</time>
      </trkpt>
      <trkpt lat="48.30652" lon="7.03129">
        <ele>703</ele>
        <time>2009-09-27T10:27:48Z</time>
      </trkpt>
      <trkpt lat="48.30652" lon="7.03129">
        <ele>703</ele>
        <time>2009-09-27T10:27:52Z</time>
      </trkpt>
      <trkpt lat="48.30652" lon="7.03129">
        <ele>703</ele>
        <time>2009-09-27T10:27:56Z</time>
      </trkpt>
      <trkpt lat="48.30652" lon="7.03129">
        <ele>703</ele>
        <time>2009-09-27T10:28:00Z</time>
      </trkpt>
      <trkpt lat="48.30652" lon="7.03128">
        <ele>704</ele>
        <time>2009-09-27T10:28:04Z</time>
      </trkpt>
      <trkpt lat="48.30656" lon="7.03123">
        <ele>705</ele>
        <time>2009-09-27T10:28:08Z</time>
      </trkpt>
      <trkpt lat="48.3066" lon="7.03123">
        <ele>706</ele>
        <time>2009-09-27T10:28:12Z</time>
      </trkpt>
      <trkpt lat="48.30663" lon="7.03127">
        <ele>705</ele>
        <time>2009-09-27T10:28:16Z</time>
      </trkpt>
      <trkpt lat="48.30666" lon="7.03131">
        <ele>704</ele>
        <time>2009-09-27T10:28:20Z</time>
      </trkpt>
      <trkpt lat="48.30668" lon="7.03126">
        <ele>720</ele>
        <time>2009-09-27T10:28:24Z</time>
      </trkpt>
      <trkpt lat="48.30662" lon="7.0312">
        <ele>707</ele>
        <time>2009-09-27T10:28:29Z</time>
      </trkpt>
      <trkpt lat="48.30658" lon="7.03114">
        <ele>708</ele>
        <time>2009-09-27T10:28:33Z</time>
      </trkpt>
      <trkpt lat="48.30654" lon="7.0311">
        <ele>709</ele>
        <time>2009-09-27T10:28:37Z</time>
      </trkpt>
      <trkpt lat="48.30651" lon="7.03103">
        <ele>710</ele>
        <time>2009-09-27T10:28:41Z</time>
      </trkpt>
      <trkpt lat="48.30647" lon="7.03097">
        <ele>711</ele>
        <time>2009-09-27T10:28:45Z</time>
      </trkpt>
      <trkpt lat="48.30643" lon="7.0309">
        <ele>711</ele>
        <time>2009-09-27T10:28:49Z</time>
      </trkpt>
      <trkpt lat="48.30639" lon="7.03084">
        <ele>710</ele>
        <time>2009-09-27T10:28:53Z</time>
      </trkpt>
      <trkpt lat="48.30635" lon="7.03074">
        <ele>722</ele>
        <time>2009-09-27T10:28:57Z</time>
      </trkpt>
      <trkpt lat="48.30633" lon="7.03068">
        <ele>722</ele>
        <time>2009-09-27T10:29:01Z</time>
      </trkpt>
      <trkpt lat="48.30629" lon="7.03061">
        <ele>722</ele>
        <time>2009-09-27T10:29:05Z</time>
      </trkpt>
      <trkpt lat="48.30626" lon="7.03052">
        <ele>722</ele>
        <time>2009-09-27T10:29:09Z</time>
      </trkpt>
      <trkpt lat="48.30622" lon="7.03045">
        <ele>722</ele>
        <time>2009-09-27T10:29:14Z</time>
      </trkpt>
      <trkpt lat="48.30618" lon="7.03038">
        <ele>722</ele>
        <time>2009-09-27T10:29:18Z</time>
      </trkpt>
      <trkpt lat="48.30614" lon="7.03032">
        <ele>722</ele>
        <time>2009-09-27T10:29:22Z</time>
      </trkpt>
      <trkpt lat="48.3061" lon="7.03024">
        <ele>722</ele>
        <time>2009-09-27T10:29:26Z</time>
      </trkpt>
      <trkpt lat="48.30607" lon="7.03016">
        <ele>722</ele>
        <time>2009-09-27T10:29:30Z</time>
      </trkpt>
      <trkpt lat="48.30604" lon="7.03008">
        <ele>721</ele>
        <time>2009-09-27T10:29:34Z</time>
      </trkpt>
      <trkpt lat="48.30601" lon="7.03001">
        <ele>720</ele>
        <time>2009-09-27T10:29:38Z</time>
      </trkpt>
      <trkpt lat="48.30597" lon="7.02993">
        <ele>729</ele>
        <time>2009-09-27T10:29:42Z</time>
      </trkpt>
      <trkpt lat="48.30594" lon="7.02984">
        <ele>731</ele>
        <time>2009-09-27T10:29:46Z</time>
      </trkpt>
      <trkpt lat="48.30591" lon="7.02973">
        <ele>735</ele>
        <time>2009-09-27T10:29:50Z</time>
      </trkpt>
      <trkpt lat="48.30588" lon="7.02965">
        <ele>737</ele>
        <time>2009-09-27T10:29:54Z</time>
      </trkpt>
      <trkpt lat="48.30585" lon="7.02956">
        <ele>739</ele>
        <time>2009-09-27T10:29:58Z</time>
      </trkpt>
      <trkpt lat="48.30582" lon="7.02948">
        <ele>717</ele>
        <time>2009-09-27T10:30:02Z</time>
      </trkpt>
      <trkpt lat="48.3058" lon="7.02937">
        <ele>720</ele>
        <time>2009-09-27T10:30:07Z</time>
      </trkpt>
      <trkpt lat="48.30578" lon="7.02928">
        <ele>725</ele>
        <time>2009-09-27T10:30:11Z</time>
      </trkpt>
      <trkpt lat="48.30577" lon="7.02919">
        <ele>729</ele>
        <time>2009-09-27T10:30:15Z</time>
      </trkpt>
      <trkpt lat="48.30575" lon="7.02909">
        <ele>732</ele>
        <time>2009-09-27T10:30:19Z</time>
      </trkpt>
      <trkpt lat="48.30571" lon="7.02903">
        <ele>731</ele>
        <time>2009-09-27T10:30:23Z</time>
      </trkpt>
      <trkpt lat="48.30567" lon="7.02895">
        <ele>730</ele>
        <time>2009-09-27T10:30:27Z</time>
      </trkpt>
      <trkpt lat="48.30565" lon="7.02885">
        <ele>730</ele>
        <time>2009-09-27T10:30:31Z</time>
      </trkpt>
      <trkpt lat="48.30563" lon="7.02875">
        <ele>730</ele>
        <time>2009-09-27T10:30:35Z</time>
      </trkpt>
      <trkpt lat="48.30561" lon="7.02864">
        <ele>732</ele>
        <time>2009-09-27T10:30:39Z</time>
      </trkpt>
      <trkpt lat="48.30559" lon="7.02855">
        <ele>733</ele>
        <time>2009-09-27T10:30:43Z</time>
      </trkpt>
      <trkpt lat="48.30558" lon="7.02843">
        <ele>735</ele>
        <time>2009-09-27T10:30:47Z</time>
      </trkpt>
      <trkpt lat="48.30556" lon="7.02835">
        <ele>735</ele>
        <time>2009-09-27T10:30:51Z</time>
      </trkpt>
      <trkpt lat="48.30554" lon="7.02825">
        <ele>743</ele>
        <time>2009-09-27T10:30:55Z</time>
      </trkpt>
      <trkpt lat="48.30551" lon="7.02816">
        <ele>742</ele>
        <time>2009-09-27T10:30:59Z</time>
      </trkpt>
      <trkpt lat="48.3055" lon="7.02808">
        <ele>742</ele>
        <time>2009-09-27T10:31:04Z</time>
      </trkpt>
      <trkpt lat="48.3055" lon="7.02797">
        <ele>742</ele>
        <time>2009-09-27T10:31:08Z</time>
      </trkpt>
      <trkpt lat="48.30548" lon="7.02789">
        <ele>742</ele>
        <time>2009-09-27T10:31:12Z</time>
      </trkpt>
      <trkpt lat="48.30543" lon="7.02781">
        <ele>742</ele>
        <time>2009-09-27T10:31:16Z</time>
      </trkpt>
      <trkpt lat="48.30539" lon="7.02773">
        <ele>741</ele>
        <time>2009-09-27T10:31:20Z</time>
      </trkpt>
      <trkpt lat="48.30536" lon="7.02762">
        <ele>740</ele>
        <time>2009-09-27T10:31:24Z</time>
      </trkpt>
      <trkpt lat="48.30532" lon="7.02755">
        <ele>739</ele>
        <time>2009-09-27T10:31:28Z</time>
      </trkpt>
      <trkpt lat="48.30528" lon="7.02745">
        <ele>746</ele>
        <time>2009-09-27T10:31:32Z</time>
      </trkpt>
      <trkpt lat="48.30525" lon="7.02737">
        <ele>746</ele>
        <time>2009-09-27T10:31:36Z</time>
      </trkpt>
      <trkpt lat="48.30522" lon="7.02727">
        <ele>747</ele>
        <time>2009-09-27T10:31:40Z</time>
      </trkpt>
      <trkpt lat="48.30521" lon="7.02716">
        <ele>749</ele>
        <time>2009-09-27T10:31:44Z</time>
      </trkpt>
      <trkpt lat="48.30521" lon="7.02702">
        <ele>750</ele>
        <time>2009-09-27T10:31:48Z</time>
      </trkpt>
      <trkpt lat="48.30519" lon="7.02692">
        <ele>750</ele>
        <time>2009-09-27T10:31:52Z</time>
      </trkpt>
      <trkpt lat="48.30517" lon="7.02682">
        <ele>749</ele>
        <time>2009-09-27T10:31:56Z</time>
      </trkpt>
      <trkpt lat="48.30516" lon="7.02673">
        <ele>748</ele>
        <time>2009-09-27T10:32:00Z</time>
      </trkpt>
      <trkpt lat="48.30516" lon="7.02661">
        <ele>753</ele>
        <time>2009-09-27T10:32:04Z</time>
      </trkpt>
      <trkpt lat="48.30515" lon="7.02651">
        <ele>755</ele>
        <time>2009-09-27T10:32:09Z</time>
      </trkpt>
      <trkpt lat="48.30513" lon="7.02642">
        <ele>757</ele>
        <time>2009-09-27T10:32:13Z</time>
      </trkpt>
      <trkpt lat="48.30512" lon="7.02631">
        <ele>759</ele>
        <time>2009-09-27T10:32:17Z</time>
      </trkpt>
      <trkpt lat="48.30511" lon="7.02619">
        <ele>760</ele>
        <time>2009-09-27T10:32:21Z</time>
      </trkpt>
      <trkpt lat="48.30511" lon="7.02607">
        <ele>759</ele>
        <time>2009-09-27T10:32:25Z</time>
      </trkpt>
      <trkpt lat="48.30511" lon="7.02596">
        <ele>758</ele>
        <time>2009-09-27T10:32:29Z</time>
      </trkpt>
      <trkpt lat="48.30511" lon="7.02585">
        <ele>756</ele>
        <time>2009-09-27T10:32:33Z</time>
      </trkpt>
      <trkpt lat="48.30511" lon="7.02575">
        <ele>757</ele>
        <time>2009-09-27T10:32:37Z</time>
      </trkpt>
      <trkpt lat="48.30509" lon="7.02565">
        <ele>759</ele>
        <time>2009-09-27T10:32:41Z</time>
      </trkpt>
      <trkpt lat="48.30509" lon="7.02556">
        <ele>761</ele>
        <time>2009-09-27T10:32:45Z</time>
      </trkpt>
      <trkpt lat="48.3051" lon="7.02544">
        <ele>762</ele>
        <time>2009-09-27T10:32:49Z</time>
      </trkpt>
      <trkpt lat="48.30511" lon="7.02534">
        <ele>762</ele>
        <time>2009-09-27T10:32:53Z</time>
      </trkpt>
      <trkpt lat="48.30513" lon="7.02526">
        <ele>761</ele>
        <time>2009-09-27T10:32:57Z</time>
      </trkpt>
      <trkpt lat="48.30514" lon="7.02516">
        <ele>760</ele>
        <time>2009-09-27T10:33:01Z</time>
      </trkpt>
      <trkpt lat="48.30517" lon="7.02507">
        <ele>759</ele>
        <time>2009-09-27T10:33:05Z</time>
      </trkpt>
      <trkpt lat="48.3052" lon="7.02499">
        <ele>755</ele>
        <time>2009-09-27T10:33:09Z</time>
      </trkpt>
      <trkpt lat="48.30525" lon="7.02492">
        <ele>756</ele>
        <time>2009-09-27T10:33:13Z</time>
      </trkpt>
      <trkpt lat="48.30532" lon="7.02489">
        <ele>758</ele>
        <time>2009-09-27T10:33:17Z</time>
      </trkpt>
      <trkpt lat="48.30538" lon="7.02485">
        <ele>759</ele>
        <time>2009-09-27T10:33:21Z</time>
      </trkpt>
      <trkpt lat="48.30545" lon="7.02482">
        <ele>761</ele>
        <time>2009-09-27T10:33:25Z</time>
      </trkpt>
      <trkpt lat="48.30552" lon="7.0248">
        <ele>762</ele>
        <time>2009-09-27T10:33:29Z</time>
      </trkpt>
      <trkpt lat="48.30559" lon="7.02478">
        <ele>764</ele>
        <time>2009-09-27T10:33:33Z</time>
      </trkpt>
      <trkpt lat="48.30566" lon="7.02478">
        <ele>765</ele>
        <time>2009-09-27T10:33:37Z</time>
      </trkpt>
      <trkpt lat="48.30573" lon="7.02479">
        <ele>767</ele>
        <time>2009-09-27T10:33:41Z</time>
      </trkpt>
      <trkpt lat="48.3058" lon="7.02479">
        <ele>768</ele>
        <time>2009-09-27T10:33:45Z</time>
      </trkpt>
      <trkpt lat="48.30586" lon="7.02481">
        <ele>777</ele>
        <time>2009-09-27T10:33:49Z</time>
      </trkpt>
      <trkpt lat="48.30593" lon="7.02482">
        <ele>777</ele>
        <time>2009-09-27T10:33:53Z</time>
      </trkpt>
      <trkpt lat="48.30599" lon="7.02485">
        <ele>777</ele>
        <time>2009-09-27T10:33:58Z</time>
      </trkpt>
      <trkpt lat="48.30605" lon="7.02487">
        <ele>777</ele>
        <time>2009-09-27T10:34:02Z</time>
      </trkpt>
      <trkpt lat="48.30611" lon="7.0249">
        <ele>777</ele>
        <time>2009-09-27T10:34:06Z</time>
      </trkpt>
      <trkpt lat="48.30616" lon="7.02491">
        <ele>777</ele>
        <time>2009-09-27T10:34:10Z</time>
      </trkpt>
      <trkpt lat="48.30622" lon="7.02493">
        <ele>778</ele>
        <time>2009-09-27T10:34:14Z</time>
      </trkpt>
      <trkpt lat="48.30628" lon="7.02496">
        <ele>778</ele>
        <time>2009-09-27T10:34:18Z</time>
      </trkpt>
      <trkpt lat="48.30634" lon="7.02498">
        <ele>779</ele>
        <time>2009-09-27T10:34:22Z</time>
      </trkpt>
      <trkpt lat="48.3064" lon="7.02501">
        <ele>792</ele>
        <time>2009-09-27T10:34:26Z</time>
      </trkpt>
      <trkpt lat="48.30646" lon="7.02503">
        <ele>792</ele>
        <time>2009-09-27T10:34:30Z</time>
      </trkpt>
      <trkpt lat="48.30653" lon="7.02504">
        <ele>792</ele>
        <time>2009-09-27T10:34:34Z</time>
      </trkpt>
      <trkpt lat="48.30659" lon="7.02507">
        <ele>792</ele>
        <time>2009-09-27T10:34:38Z</time>
      </trkpt>
      <trkpt lat="48.30665" lon="7.02508">
        <ele>791</ele>
        <time>2009-09-27T10:34:42Z</time>
      </trkpt>
      <trkpt lat="48.30672" lon="7.0251">
        <ele>793</ele>
        <time>2009-09-27T10:34:46Z</time>
      </trkpt>
      <trkpt lat="48.30679" lon="7.02511">
        <ele>793</ele>
        <time>2009-09-27T10:34:50Z</time>
      </trkpt>
      <trkpt lat="48.30685" lon="7.02514">
        <ele>794</ele>
        <time>2009-09-27T10:34:54Z</time>
      </trkpt>
      <trkpt lat="48.30691" lon="7.02515">
        <ele>794</ele>
        <time>2009-09-27T10:34:58Z</time>
      </trkpt>
      <trkpt lat="48.30698" lon="7.02518">
        <ele>795</ele>
        <time>2009-09-27T10:35:02Z</time>
      </trkpt>
      <trkpt lat="48.30706" lon="7.02521">
        <ele>795</ele>
        <time>2009-09-27T10:35:06Z</time>
      </trkpt>
      <trkpt lat="48.30714" lon="7.02525">
        <ele>795</ele>
        <time>2009-09-27T10:35:12Z</time>
      </trkpt>
      <trkpt lat="48.30719" lon="7.02526">
        <ele>794</ele>
        <time>2009-09-27T10:35:16Z</time>
      </trkpt>
      <trkpt lat="48.30725" lon="7.02529">
        <ele>794</ele>
        <time>2009-09-27T10:35:20Z</time>
      </trkpt>
      <trkpt lat="48.3073" lon="7.02531">
        <ele>794</ele>
        <time>2009-09-27T10:35:24Z</time>
      </trkpt>
      <trkpt lat="48.30735" lon="7.02534">
        <ele>795</ele>
        <time>2009-09-27T10:35:29Z</time>
      </trkpt>
      <trkpt lat="48.30741" lon="7.02537">
        <ele>795</ele>
        <time>2009-09-27T10:35:33Z</time>
      </trkpt>
      <trkpt lat="48.30747" lon="7.0254">
        <ele>795</ele>
        <time>2009-09-27T10:35:37Z</time>
      </trkpt>
      <trkpt lat="48.30754" lon="7.02546">
        <ele>792</ele>
        <time>2009-09-27T10:35:41Z</time>
      </trkpt>
      <trkpt lat="48.3076" lon="7.02553">
        <ele>794</ele>
        <time>2009-09-27T10:35:45Z</time>
      </trkpt>
      <trkpt lat="48.30767" lon="7.02555">
        <ele>794</ele>
        <time>2009-09-27T10:35:49Z</time>
      </trkpt>
      <trkpt lat="48.30773" lon="7.02559">
        <ele>794</ele>
        <time>2009-09-27T10:35:53Z</time>
      </trkpt>
      <trkpt lat="48.3078" lon="7.02563">
        <ele>794</ele>
        <time>2009-09-27T10:35:57Z</time>
      </trkpt>
      <trkpt lat="48.30787" lon="7.02565">
        <ele>794</ele>
        <time>2009-09-27T10:36:01Z</time>
      </trkpt>
      <trkpt lat="48.30792" lon="7.02568">
        <ele>794</ele>
        <time>2009-09-27T10:36:05Z</time>
      </trkpt>
      <trkpt lat="48.30799" lon="7.02573">
        <ele>794</ele>
        <time>2009-09-27T10:36:09Z</time>
      </trkpt>
      <trkpt lat="48.30804" lon="7.02577">
        <ele>794</ele>
        <time>2009-09-27T10:36:13Z</time>
      </trkpt>
      <trkpt lat="48.3081" lon="7.02583">
        <ele>795</ele>
        <time>2009-09-27T10:36:17Z</time>
      </trkpt>
      <trkpt lat="48.30816" lon="7.0259">
        <ele>807</ele>
        <time>2009-09-27T10:36:22Z</time>
      </trkpt>
      <trkpt lat="48.30821" lon="7.02592">
        <ele>806</ele>
        <time>2009-09-27T10:36:26Z</time>
      </trkpt>
      <trkpt lat="48.30828" lon="7.02597">
        <ele>807</ele>
        <time>2009-09-27T10:36:30Z</time>
      </trkpt>
      <trkpt lat="48.30833" lon="7.02603">
        <ele>808</ele>
        <time>2009-09-27T10:36:34Z</time>
      </trkpt>
      <trkpt lat="48.3084" lon="7.02605">
        <ele>805</ele>
        <time>2009-09-27T10:36:38Z</time>
      </trkpt>
      <trkpt lat="48.30846" lon="7.02608">
        <ele>805</ele>
        <time>2009-09-27T10:36:42Z</time>
      </trkpt>
      <trkpt lat="48.30853" lon="7.0261">
        <ele>805</ele>
        <time>2009-09-27T10:36:46Z</time>
      </trkpt>
      <trkpt lat="48.30862" lon="7.02611">
        <ele>805</ele>
        <time>2009-09-27T10:36:50Z</time>
      </trkpt>
      <trkpt lat="48.30874" lon="7.02616">
        <ele>805</ele>
        <time>2009-09-27T10:36:54Z</time>
      </trkpt>
      <trkpt lat="48.30898" lon="7.02622">
        <ele>805</ele>
        <time>2009-09-27T10:36:58Z</time>
      </trkpt>
      <trkpt lat="48.30922" lon="7.0263">
        <ele>799</ele>
        <time>2009-09-27T10:37:02Z</time>
      </trkpt>
      <trkpt lat="48.30951" lon="7.02643">
        <ele>799</ele>
        <time>2009-09-27T10:37:06Z</time>
      </trkpt>
      <trkpt lat="48.30986" lon="7.02659">
        <ele>800</ele>
        <time>2009-09-27T10:37:10Z</time>
      </trkpt>
      <trkpt lat="48.31026" lon="7.02676">
        <ele>805</ele>
        <time>2009-09-27T10:37:15Z</time>
      </trkpt>
      <trkpt lat="48.31071" lon="7.02691">
        <ele>801</ele>
        <time>2009-09-27T10:37:19Z</time>
      </trkpt>
      <trkpt lat="48.31119" lon="7.02695">
        <ele>794</ele>
        <time>2009-09-27T10:37:23Z</time>
      </trkpt>
      <trkpt lat="48.31168" lon="7.02688">
        <ele>788</ele>
        <time>2009-09-27T10:37:27Z</time>
      </trkpt>
      <trkpt lat="48.31211" lon="7.02668">
        <ele>790</ele>
        <time>2009-09-27T10:37:31Z</time>
      </trkpt>
      <trkpt lat="48.31249" lon="7.02628">
        <ele>775</ele>
        <time>2009-09-27T10:37:35Z</time>
      </trkpt>
      <trkpt lat="48.31276" lon="7.02572">
        <ele>773</ele>
        <time>2009-09-27T10:37:39Z</time>
      </trkpt>
      <trkpt lat="48.31299" lon="7.02533">
        <ele>774</ele>
        <time>2009-09-27T10:37:43Z</time>
      </trkpt>
      <trkpt lat="48.31311" lon="7.02522">
        <ele>775</ele>
        <time>2009-09-27T10:37:47Z</time>
      </trkpt>
      <trkpt lat="48.31321" lon="7.02508">
        <ele>776</ele>
        <time>2009-09-27T10:37:51Z</time>
      </trkpt>
      <trkpt lat="48.31329" lon="7.02494">
        <ele>773</ele>
        <time>2009-09-27T10:37:55Z</time>
      </trkpt>
      <trkpt lat="48.31337" lon="7.02483">
        <ele>783</ele>
        <time>2009-09-27T10:37:59Z</time>
      </trkpt>
      <trkpt lat="48.31345" lon="7.02474">
        <ele>784</ele>
        <time>2009-09-27T10:38:03Z</time>
      </trkpt>
      <trkpt lat="48.31351" lon="7.02464">
        <ele>785</ele>
        <time>2009-09-27T10:38:08Z</time>
      </trkpt>
      <trkpt lat="48.31359" lon="7.02453">
        <ele>785</ele>
        <time>2009-09-27T10:38:12Z</time>
      </trkpt>
      <trkpt lat="48.31366" lon="7.02443">
        <ele>785</ele>
        <time>2009-09-27T10:38:16Z</time>
      </trkpt>
      <trkpt lat="48.31371" lon="7.02434">
        <ele>785</ele>
        <time>2009-09-27T10:38:20Z</time>
      </trkpt>
      <trkpt lat="48.31376" lon="7.02421">
        <ele>786</ele>
        <time>2009-09-27T10:38:24Z</time>
      </trkpt>
      <trkpt lat="48.31381" lon="7.02413">
        <ele>780</ele>
        <time>2009-09-27T10:38:28Z</time>
      </trkpt>
      <trkpt lat="48.31383" lon="7.02406">
        <ele>780</ele>
        <time>2009-09-27T10:38:32Z</time>
      </trkpt>
      <trkpt lat="48.31388" lon="7.02396">
        <ele>780</ele>
        <time>2009-09-27T10:38:36Z</time>
      </trkpt>
      <trkpt lat="48.31394" lon="7.02385">
        <ele>781</ele>
        <time>2009-09-27T10:38:40Z</time>
      </trkpt>
      <trkpt lat="48.31396" lon="7.02376">
        <ele>780</ele>
        <time>2009-09-27T10:38:44Z</time>
      </trkpt>
      <trkpt lat="48.314" lon="7.02368">
        <ele>780</ele>
        <time>2009-09-27T10:38:48Z</time>
      </trkpt>
      <trkpt lat="48.31405" lon="7.02358">
        <ele>781</ele>
        <time>2009-09-27T10:38:52Z</time>
      </trkpt>
      <trkpt lat="48.3141" lon="7.02348">
        <ele>783</ele>
        <time>2009-09-27T10:38:57Z</time>
      </trkpt>
      <trkpt lat="48.31414" lon="7.02339">
        <ele>786</ele>
        <time>2009-09-27T10:39:01Z</time>
      </trkpt>
      <trkpt lat="48.31419" lon="7.02329">
        <ele>789</ele>
        <time>2009-09-27T10:39:05Z</time>
      </trkpt>
      <trkpt lat="48.31422" lon="7.02321">
        <ele>791</ele>
        <time>2009-09-27T10:39:09Z</time>
      </trkpt>
      <trkpt lat="48.31429" lon="7.02306">
        <ele>792</ele>
        <time>2009-09-27T10:39:13Z</time>
      </trkpt>
      <trkpt lat="48.31433" lon="7.02295">
        <ele>793</ele>
        <time>2009-09-27T10:39:17Z</time>
      </trkpt>
      <trkpt lat="48.31435" lon="7.02287">
        <ele>793</ele>
        <time>2009-09-27T10:39:21Z</time>
      </trkpt>
      <trkpt lat="48.31438" lon="7.02277">
        <ele>792</ele>
        <time>2009-09-27T10:39:25Z</time>
      </trkpt>
      <trkpt lat="48.31441" lon="7.02266">
        <ele>792</ele>
        <time>2009-09-27T10:39:29Z</time>
      </trkpt>
      <trkpt lat="48.31444" lon="7.02255">
        <ele>792</ele>
        <time>2009-09-27T10:39:33Z</time>
      </trkpt>
      <trkpt lat="48.31448" lon="7.02238">
        <ele>794</ele>
        <time>2009-09-27T10:39:37Z</time>
      </trkpt>
      <trkpt lat="48.3145" lon="7.0222">
        <ele>795</ele>
        <time>2009-09-27T10:39:41Z</time>
      </trkpt>
      <trkpt lat="48.31452" lon="7.02206">
        <ele>796</ele>
        <time>2009-09-27T10:39:45Z</time>
      </trkpt>
      <trkpt lat="48.31452" lon="7.02194">
        <ele>796</ele>
        <time>2009-09-27T10:39:49Z</time>
      </trkpt>
      <trkpt lat="48.3145" lon="7.02182">
        <ele>795</ele>
        <time>2009-09-27T10:39:53Z</time>
      </trkpt>
      <trkpt lat="48.31447" lon="7.02172">
        <ele>795</ele>
        <time>2009-09-27T10:39:58Z</time>
      </trkpt>
      <trkpt lat="48.31447" lon="7.02157">
        <ele>799</ele>
        <time>2009-09-27T10:40:02Z</time>
      </trkpt>
      <trkpt lat="48.31449" lon="7.02141">
        <ele>800</ele>
        <time>2009-09-27T10:40:06Z</time>
      </trkpt>
      <trkpt lat="48.31449" lon="7.02127">
        <ele>801</ele>
        <time>2009-09-27T10:40:10Z</time>
      </trkpt>
      <trkpt lat="48.31448" lon="7.02118">
        <ele>801</ele>
        <time>2009-09-27T10:40:14Z</time>
      </trkpt>
      <trkpt lat="48.31449" lon="7.02108">
        <ele>802</ele>
        <time>2009-09-27T10:40:18Z</time>
      </trkpt>
      <trkpt lat="48.3145" lon="7.02097">
        <ele>802</ele>
        <time>2009-09-27T10:40:22Z</time>
      </trkpt>
      <trkpt lat="48.3145" lon="7.02089">
        <ele>802</ele>
        <time>2009-09-27T10:40:26Z</time>
      </trkpt>
      <trkpt lat="48.31451" lon="7.02077">
        <ele>809</ele>
        <time>2009-09-27T10:40:30Z</time>
      </trkpt>
      <trkpt lat="48.3145" lon="7.02069">
        <ele>809</ele>
        <time>2009-09-27T10:40:34Z</time>
      </trkpt>
      <trkpt lat="48.31447" lon="7.02058">
        <ele>809</ele>
        <time>2009-09-27T10:40:38Z</time>
      </trkpt>
      <trkpt lat="48.31445" lon="7.02049">
        <ele>809</ele>
        <time>2009-09-27T10:40:42Z</time>
      </trkpt>
      <trkpt lat="48.31442" lon="7.02038">
        <ele>810</ele>
        <time>2009-09-27T10:40:46Z</time>
      </trkpt>
      <trkpt lat="48.31441" lon="7.02028">
        <ele>810</ele>
        <time>2009-09-27T10:40:50Z</time>
      </trkpt>
      <trkpt lat="48.31437" lon="7.02017">
        <ele>809</ele>
        <time>2009-09-27T10:40:54Z</time>
      </trkpt>
      <trkpt lat="48.31432" lon="7.02008">
        <ele>808</ele>
        <time>2009-09-27T10:40:58Z</time>
      </trkpt>
      <trkpt lat="48.31427" lon="7.01993">
        <ele>812</ele>
        <time>2009-09-27T10:41:02Z</time>
      </trkpt>
      <trkpt lat="48.31422" lon="7.01977">
        <ele>816</ele>
        <time>2009-09-27T10:41:07Z</time>
      </trkpt>
      <trkpt lat="48.31417" lon="7.0196">
        <ele>819</ele>
        <time>2009-09-27T10:41:11Z</time>
      </trkpt>
      <trkpt lat="48.3141" lon="7.01944">
        <ele>799</ele>
        <time>2009-09-27T10:41:15Z</time>
      </trkpt>
      <trkpt lat="48.31404" lon="7.0193">
        <ele>802</ele>
        <time>2009-09-27T10:41:19Z</time>
      </trkpt>
      <trkpt lat="48.314" lon="7.01914">
        <ele>810</ele>
        <time>2009-09-27T10:41:24Z</time>
      </trkpt>
      <trkpt lat="48.31393" lon="7.01897">
        <ele>806</ele>
        <time>2009-09-27T10:41:28Z</time>
      </trkpt>
      <trkpt lat="48.31388" lon="7.01881">
        <ele>805</ele>
        <time>2009-09-27T10:41:32Z</time>
      </trkpt>
      <trkpt lat="48.3138" lon="7.01865">
        <ele>805</ele>
        <time>2009-09-27T10:41:36Z</time>
      </trkpt>
      <trkpt lat="48.31371" lon="7.01843">
        <ele>803</ele>
        <time>2009-09-27T10:41:40Z</time>
      </trkpt>
      <trkpt lat="48.3136" lon="7.01818">
        <ele>808</ele>
        <time>2009-09-27T10:41:44Z</time>
      </trkpt>
      <trkpt lat="48.31353" lon="7.01791">
        <ele>809</ele>
        <time>2009-09-27T10:41:48Z</time>
      </trkpt>
      <trkpt lat="48.31347" lon="7.01763">
        <ele>807</ele>
        <time>2009-09-27T10:41:52Z</time>
      </trkpt>
      <trkpt lat="48.3134" lon="7.01724">
        <ele>815</ele>
        <time>2009-09-27T10:41:56Z</time>
      </trkpt>
      <trkpt lat="48.31334" lon="7.01689">
        <ele>817</ele>
        <time>2009-09-27T10:42:00Z</time>
      </trkpt>
      <trkpt lat="48.31328" lon="7.01654">
        <ele>800</ele>
        <time>2009-09-27T10:42:04Z</time>
      </trkpt>
      <trkpt lat="48.31324" lon="7.01623">
        <ele>795</ele>
        <time>2009-09-27T10:42:08Z</time>
      </trkpt>
      <trkpt lat="48.31322" lon="7.01595">
        <ele>801</ele>
        <time>2009-09-27T10:42:13Z</time>
      </trkpt>
      <trkpt lat="48.3132" lon="7.01574">
        <ele>804</ele>
        <time>2009-09-27T10:42:17Z</time>
      </trkpt>
      <trkpt lat="48.31318" lon="7.01553">
        <ele>800</ele>
        <time>2009-09-27T10:42:21Z</time>
      </trkpt>
      <trkpt lat="48.3132" lon="7.0153">
        <ele>801</ele>
        <time>2009-09-27T10:42:25Z</time>
      </trkpt>
      <trkpt lat="48.31318" lon="7.0151">
        <ele>806</ele>
        <time>2009-09-27T10:42:29Z</time>
      </trkpt>
      <trkpt lat="48.3132" lon="7.01487">
        <ele>807</ele>
        <time>2009-09-27T10:42:33Z</time>
      </trkpt>
      <trkpt lat="48.31317" lon="7.01456">
        <ele>803</ele>
        <time>2009-09-27T10:42:37Z</time>
      </trkpt>
      <trkpt lat="48.31316" lon="7.01431">
        <ele>805</ele>
        <time>2009-09-27T10:42:41Z</time>
      </trkpt>
      <trkpt lat="48.31315" lon="7.01405">
        <ele>805</ele>
        <time>2009-09-27T10:42:45Z</time>
      </trkpt>
      <trkpt lat="48.31318" lon="7.01377">
        <ele>803</ele>
        <time>2009-09-27T10:42:49Z</time>
      </trkpt>
      <trkpt lat="48.31316" lon="7.01344">
        <ele>806</ele>
        <time>2009-09-27T10:42:53Z</time>
      </trkpt>
      <trkpt lat="48.31313" lon="7.01315">
        <ele>804</ele>
        <time>2009-09-27T10:42:57Z</time>
      </trkpt>
      <trkpt lat="48.3131" lon="7.01285">
        <ele>802</ele>
        <time>2009-09-27T10:43:01Z</time>
      </trkpt>
      <trkpt lat="48.31308" lon="7.0126">
        <ele>804</ele>
        <time>2009-09-27T10:43:06Z</time>
      </trkpt>
      <trkpt lat="48.31306" lon="7.01238">
        <ele>805</ele>
        <time>2009-09-27T10:43:10Z</time>
      </trkpt>
      <trkpt lat="48.31304" lon="7.01215">
        <ele>804</ele>
        <time>2009-09-27T10:43:14Z</time>
      </trkpt>
      <trkpt lat="48.31303" lon="7.01194">
        <ele>805</ele>
        <time>2009-09-27T10:43:18Z</time>
      </trkpt>
      <trkpt lat="48.31299" lon="7.01168">
        <ele>805</ele>
        <time>2009-09-27T10:43:22Z</time>
      </trkpt>
      <trkpt lat="48.31296" lon="7.01151">
        <ele>811</ele>
        <time>2009-09-27T10:43:26Z</time>
      </trkpt>
      <trkpt lat="48.31293" lon="7.01135">
        <ele>812</ele>
        <time>2009-09-27T10:43:30Z</time>
      </trkpt>
      <trkpt lat="48.3129" lon="7.01122">
        <ele>812</ele>
        <time>2009-09-27T10:43:34Z</time>
      </trkpt>
      <trkpt lat="48.31289" lon="7.01113">
        <ele>813</ele>
        <time>2009-09-27T10:43:38Z</time>
      </trkpt>
      <trkpt lat="48.31285" lon="7.01106">
        <ele>812</ele>
        <time>2009-09-27T10:43:42Z</time>
      </trkpt>
      <trkpt lat="48.31281" lon="7.01089">
        <ele>812</ele>
        <time>2009-09-27T10:43:46Z</time>
      </trkpt>
      <trkpt lat="48.31278" lon="7.01077">
        <ele>821</ele>
        <time>2009-09-27T10:43:50Z</time>
      </trkpt>
      <trkpt lat="48.31274" lon="7.01067">
        <ele>821</ele>
        <time>2009-09-27T10:43:54Z</time>
      </trkpt>
      <trkpt lat="48.31269" lon="7.01058">
        <ele>821</ele>
        <time>2009-09-27T10:43:58Z</time>
      </trkpt>
      <trkpt lat="48.31264" lon="7.01047">
        <ele>823</ele>
        <time>2009-09-27T10:44:03Z</time>
      </trkpt>
      <trkpt lat="48.31262" lon="7.01036">
        <ele>824</ele>
        <time>2009-09-27T10:44:07Z</time>
      </trkpt>
      <trkpt lat="48.31258" lon="7.01027">
        <ele>824</ele>
        <time>2009-09-27T10:44:11Z</time>
      </trkpt>
      <trkpt lat="48.31253" lon="7.01018">
        <ele>824</ele>
        <time>2009-09-27T10:44:15Z</time>
      </trkpt>
      <trkpt lat="48.31248" lon="7.01008">
        <ele>813</ele>
        <time>2009-09-27T10:44:19Z</time>
      </trkpt>
      <trkpt lat="48.31243" lon="7.00998">
        <ele>820</ele>
        <time>2009-09-27T10:44:23Z</time>
      </trkpt>
      <trkpt lat="48.31237" lon="7.00986">
        <ele>819</ele>
        <time>2009-09-27T10:44:27Z</time>
      </trkpt>
      <trkpt lat="48.31231" lon="7.0097">
        <ele>819</ele>
        <time>2009-09-27T10:44:31Z</time>
      </trkpt>
      <trkpt lat="48.31224" lon="7.00953">
        <ele>820</ele>
        <time>2009-09-27T10:44:35Z</time>
      </trkpt>
      <trkpt lat="48.31211" lon="7.00934">
        <ele>821</ele>
        <time>2009-09-27T10:44:39Z</time>
      </trkpt>
      <trkpt lat="48.31198" lon="7.00915">
        <ele>834</ele>
        <time>2009-09-27T10:44:43Z</time>
      </trkpt>
      <trkpt lat="48.31185" lon="7.00896">
        <ele>832</ele>
        <time>2009-09-27T10:44:47Z</time>
      </trkpt>
      <trkpt lat="48.31172" lon="7.00879">
        <ele>835</ele>
        <time>2009-09-27T10:44:51Z</time>
      </trkpt>
      <trkpt lat="48.31155" lon="7.0086">
        <ele>821</ele>
        <time>2009-09-27T10:44:55Z</time>
      </trkpt>
      <trkpt lat="48.31139" lon="7.00843">
        <ele>821</ele>
        <time>2009-09-27T10:44:59Z</time>
      </trkpt>
      <trkpt lat="48.31125" lon="7.00826">
        <ele>834</ele>
        <time>2009-09-27T10:45:03Z</time>
      </trkpt>
      <trkpt lat="48.31108" lon="7.00812">
        <ele>832</ele>
        <time>2009-09-27T10:45:07Z</time>
      </trkpt>
      <trkpt lat="48.3109" lon="7.00795">
        <ele>834</ele>
        <time>2009-09-27T10:45:11Z</time>
      </trkpt>
      <trkpt lat="48.31076" lon="7.00775">
        <ele>824</ele>
        <time>2009-09-27T10:45:16Z</time>
      </trkpt>
      <trkpt lat="48.31065" lon="7.00761">
        <ele>827</ele>
        <time>2009-09-27T10:45:20Z</time>
      </trkpt>
      <trkpt lat="48.31056" lon="7.0075">
        <ele>825</ele>
        <time>2009-09-27T10:45:24Z</time>
      </trkpt>
      <trkpt lat="48.31043" lon="7.00739">
        <ele>841</ele>
        <time>2009-09-27T10:45:28Z</time>
      </trkpt>
      <trkpt lat="48.31031" lon="7.00727">
        <ele>840</ele>
        <time>2009-09-27T10:45:32Z</time>
      </trkpt>
      <trkpt lat="48.31012" lon="7.00725">
        <ele>838</ele>
        <time>2009-09-27T10:45:36Z</time>
      </trkpt>
      <trkpt lat="48.31003" lon="7.00713">
        <ele>841</ele>
        <time>2009-09-27T10:45:40Z</time>
      </trkpt>
      <trkpt lat="48.3099" lon="7.00706">
        <ele>836</ele>
        <time>2009-09-27T10:45:44Z</time>
      </trkpt>
      <trkpt lat="48.30975" lon="7.00699">
        <ele>836</ele>
        <time>2009-09-27T10:45:48Z</time>
      </trkpt>
      <trkpt lat="48.30959" lon="7.00696">
        <ele>836</ele>
        <time>2009-09-27T10:45:52Z</time>
      </trkpt>
      <trkpt lat="48.30943" lon="7.00693">
        <ele>836</ele>
        <time>2009-09-27T10:45:56Z</time>
      </trkpt>
      <trkpt lat="48.30931" lon="7.0069">
        <ele>836</ele>
        <time>2009-09-27T10:46:00Z</time>
      </trkpt>
      <trkpt lat="48.30921" lon="7.00684">
        <ele>839</ele>
        <time>2009-09-27T10:46:04Z</time>
      </trkpt>
      <trkpt lat="48.30913" lon="7.0068">
        <ele>838</ele>
        <time>2009-09-27T10:46:08Z</time>
      </trkpt>
      <trkpt lat="48.30903" lon="7.00673">
        <ele>838</ele>
        <time>2009-09-27T10:46:12Z</time>
      </trkpt>
      <trkpt lat="48.30894" lon="7.00669">
        <ele>836</ele>
        <time>2009-09-27T10:46:16Z</time>
      </trkpt>
      <trkpt lat="48.30883" lon="7.00667">
        <ele>853</ele>
        <time>2009-09-27T10:46:20Z</time>
      </trkpt>
      <trkpt lat="48.30867" lon="7.00666">
        <ele>853</ele>
        <time>2009-09-27T10:46:24Z</time>
      </trkpt>
      <trkpt lat="48.30859" lon="7.00668">
        <ele>836</ele>
        <time>2009-09-27T10:46:28Z</time>
      </trkpt>
      <trkpt lat="48.30849" lon="7.00669">
        <ele>838</ele>
        <time>2009-09-27T10:46:32Z</time>
      </trkpt>
      <trkpt lat="48.3084" lon="7.00674">
        <ele>841</ele>
        <time>2009-09-27T10:46:36Z</time>
      </trkpt>
      <trkpt lat="48.30831" lon="7.00677">
        <ele>839</ele>
        <time>2009-09-27T10:46:41Z</time>
      </trkpt>
      <trkpt lat="48.30821" lon="7.00679">
        <ele>836</ele>
        <time>2009-09-27T10:46:45Z</time>
      </trkpt>
      <trkpt lat="48.3081" lon="7.00678">
        <ele>833</ele>
        <time>2009-09-27T10:46:49Z</time>
      </trkpt>
      <trkpt lat="48.30798" lon="7.00675">
        <ele>832</ele>
        <time>2009-09-27T10:46:53Z</time>
      </trkpt>
      <trkpt lat="48.30785" lon="7.00679">
        <ele>830</ele>
        <time>2009-09-27T10:46:57Z</time>
      </trkpt>
      <trkpt lat="48.30769" lon="7.00686">
        <ele>830</ele>
        <time>2009-09-27T10:47:01Z</time>
      </trkpt>
      <trkpt lat="48.30753" lon="7.00689">
        <ele>830</ele>
        <time>2009-09-27T10:47:05Z</time>
      </trkpt>
      <trkpt lat="48.3074" lon="7.00684">
        <ele>824</ele>
        <time>2009-09-27T10:47:09Z</time>
      </trkpt>
      <trkpt lat="48.30727" lon="7.00673">
        <ele>822</ele>
        <time>2009-09-27T10:47:13Z</time>
      </trkpt>
      <trkpt lat="48.30713" lon="7.00646">
        <ele>829</ele>
        <time>2009-09-27T10:47:17Z</time>
      </trkpt>
      <trkpt lat="48.3071" lon="7.00622">
        <ele>830</ele>
        <time>2009-09-27T10:47:21Z</time>
      </trkpt>
      <trkpt lat="48.30713" lon="7.00592">
        <ele>833</ele>
        <time>2009-09-27T10:47:25Z</time>
      </trkpt>
      <trkpt lat="48.30714" lon="7.00557">
        <ele>839</ele>
        <time>2009-09-27T10:47:29Z</time>
      </trkpt>
      <trkpt lat="48.30708" lon="7.00524">
        <ele>839</ele>
        <time>2009-09-27T10:47:34Z</time>
      </trkpt>
      <trkpt lat="48.30704" lon="7.005">
        <ele>843</ele>
        <time>2009-09-27T10:47:38Z</time>
      </trkpt>
      <trkpt lat="48.30702" lon="7.00474">
        <ele>844</ele>
        <time>2009-09-27T10:47:42Z</time>
      </trkpt>
      <trkpt lat="48.30699" lon="7.00454">
        <ele>845</ele>
        <time>2009-09-27T10:47:46Z</time>
      </trkpt>
      <trkpt lat="48.30694" lon="7.00437">
        <ele>844</ele>
        <time>2009-09-27T10:47:50Z</time>
      </trkpt>
      <trkpt lat="48.30687" lon="7.00422">
        <ele>841</ele>
        <time>2009-09-27T10:47:54Z</time>
      </trkpt>
      <trkpt lat="48.30681" lon="7.00407">
        <ele>845</ele>
        <time>2009-09-27T10:47:58Z</time>
      </trkpt>
      <trkpt lat="48.30677" lon="7.00394">
        <ele>848</ele>
        <time>2009-09-27T10:48:02Z</time>
      </trkpt>
      <trkpt lat="48.30673" lon="7.00379">
        <ele>851</ele>
        <time>2009-09-27T10:48:06Z</time>
      </trkpt>
      <trkpt lat="48.30672" lon="7.00367">
        <ele>852</ele>
        <time>2009-09-27T10:48:10Z</time>
      </trkpt>
      <trkpt lat="48.30669" lon="7.00355">
        <ele>852</ele>
        <time>2009-09-27T10:48:14Z</time>
      </trkpt>
      <trkpt lat="48.30664" lon="7.00345">
        <ele>835</ele>
        <time>2009-09-27T10:48:18Z</time>
      </trkpt>
      <trkpt lat="48.30659" lon="7.00333">
        <ele>843</ele>
        <time>2009-09-27T10:48:22Z</time>
      </trkpt>
      <trkpt lat="48.30655" lon="7.00319">
        <ele>840</ele>
        <time>2009-09-27T10:48:27Z</time>
      </trkpt>
      <trkpt lat="48.3065" lon="7.00306">
        <ele>838</ele>
        <time>2009-09-27T10:48:31Z</time>
      </trkpt>
      <trkpt lat="48.30643" lon="7.00293">
        <ele>837</ele>
        <time>2009-09-27T10:48:35Z</time>
      </trkpt>
      <trkpt lat="48.30639" lon="7.0028">
        <ele>838</ele>
        <time>2009-09-27T10:48:39Z</time>
      </trkpt>
      <trkpt lat="48.30635" lon="7.00265">
        <ele>839</ele>
        <time>2009-09-27T10:48:43Z</time>
      </trkpt>
      <trkpt lat="48.3063" lon="7.00252">
        <ele>838</ele>
        <time>2009-09-27T10:48:47Z</time>
      </trkpt>
      <trkpt lat="48.30623" lon="7.00237">
        <ele>849</ele>
        <time>2009-09-27T10:48:51Z</time>
      </trkpt>
      <trkpt lat="48.30618" lon="7.00224">
        <ele>849</ele>
        <time>2009-09-27T10:48:55Z</time>
      </trkpt>
      <trkpt lat="48.3061" lon="7.00211">
        <ele>850</ele>
        <time>2009-09-27T10:48:59Z</time>
      </trkpt>
      <trkpt lat="48.30604" lon="7.00199">
        <ele>851</ele>
        <time>2009-09-27T10:49:03Z</time>
      </trkpt>
      <trkpt lat="48.30598" lon="7.00185">
        <ele>852</ele>
        <time>2009-09-27T10:49:07Z</time>
      </trkpt>
      <trkpt lat="48.30592" lon="7.00174">
        <ele>853</ele>
        <time>2009-09-27T10:49:11Z</time>
      </trkpt>
      <trkpt lat="48.30586" lon="7.00162">
        <ele>856</ele>
        <time>2009-09-27T10:49:15Z</time>
      </trkpt>
      <trkpt lat="48.30581" lon="7.0015">
        <ele>847</ele>
        <time>2009-09-27T10:49:19Z</time>
      </trkpt>
      <trkpt lat="48.30577" lon="7.00138">
        <ele>845</ele>
        <time>2009-09-27T10:49:23Z</time>
      </trkpt>
      <trkpt lat="48.30573" lon="7.00126">
        <ele>845</ele>
        <time>2009-09-27T10:49:27Z</time>
      </trkpt>
      <trkpt lat="48.30567" lon="7.00113">
        <ele>847</ele>
        <time>2009-09-27T10:49:31Z</time>
      </trkpt>
      <trkpt lat="48.30562" lon="7.00101">
        <ele>848</ele>
        <time>2009-09-27T10:49:35Z</time>
      </trkpt>
      <trkpt lat="48.3055" lon="7.00084">
        <ele>845</ele>
        <time>2009-09-27T10:49:39Z</time>
      </trkpt>
      <trkpt lat="48.30541" lon="7.00069">
        <ele>853</ele>
        <time>2009-09-27T10:49:43Z</time>
      </trkpt>
      <trkpt lat="48.30533" lon="7.00052">
        <ele>853</ele>
        <time>2009-09-27T10:49:48Z</time>
      </trkpt>
      <trkpt lat="48.30524" lon="7.00036">
        <ele>853</ele>
        <time>2009-09-27T10:49:52Z</time>
      </trkpt>
      <trkpt lat="48.30518" lon="7.0002">
        <ele>853</ele>
        <time>2009-09-27T10:49:56Z</time>
      </trkpt>
      <trkpt lat="48.30513" lon="6.99997">
        <ele>857</ele>
        <time>2009-09-27T10:50:00Z</time>
      </trkpt>
      <trkpt lat="48.30505" lon="6.99979">
        <ele>859</ele>
        <time>2009-09-27T10:50:04Z</time>
      </trkpt>
      <trkpt lat="48.30502" lon="6.99963">
        <ele>862</ele>
        <time>2009-09-27T10:50:08Z</time>
      </trkpt>
      <trkpt lat="48.30498" lon="6.99943">
        <ele>840</ele>
        <time>2009-09-27T10:50:12Z</time>
      </trkpt>
      <trkpt lat="48.30492" lon="6.99928">
        <ele>845</ele>
        <time>2009-09-27T10:50:16Z</time>
      </trkpt>
      <trkpt lat="48.30492" lon="6.99908">
        <ele>851</ele>
        <time>2009-09-27T10:50:20Z</time>
      </trkpt>
      <trkpt lat="48.30488" lon="6.99886">
        <ele>846</ele>
        <time>2009-09-27T10:50:24Z</time>
      </trkpt>
      <trkpt lat="48.30481" lon="6.99858">
        <ele>846</ele>
        <time>2009-09-27T10:50:28Z</time>
      </trkpt>
      <trkpt lat="48.30478" lon="6.99836">
        <ele>848</ele>
        <time>2009-09-27T10:50:32Z</time>
      </trkpt>
      <trkpt lat="48.30476" lon="6.9981">
        <ele>852</ele>
        <time>2009-09-27T10:50:36Z</time>
      </trkpt>
      <trkpt lat="48.30469" lon="6.9979">
        <ele>850</ele>
        <time>2009-09-27T10:50:40Z</time>
      </trkpt>
      <trkpt lat="48.30466" lon="6.9977">
        <ele>851</ele>
        <time>2009-09-27T10:50:45Z</time>
      </trkpt>
      <trkpt lat="48.30458" lon="6.99749">
        <ele>853</ele>
        <time>2009-09-27T10:50:49Z</time>
      </trkpt>
      <trkpt lat="48.30445" lon="6.99726">
        <ele>851</ele>
        <time>2009-09-27T10:50:53Z</time>
      </trkpt>
      <trkpt lat="48.30427" lon="6.99707">
        <ele>850</ele>
        <time>2009-09-27T10:50:57Z</time>
      </trkpt>
      <trkpt lat="48.30408" lon="6.99685">
        <ele>837</ele>
        <time>2009-09-27T10:51:01Z</time>
      </trkpt>
      <trkpt lat="48.30384" lon="6.99661">
        <ele>839</ele>
        <time>2009-09-27T10:51:05Z</time>
      </trkpt>
      <trkpt lat="48.30366" lon="6.99636">
        <ele>836</ele>
        <time>2009-09-27T10:51:09Z</time>
      </trkpt>
      <trkpt lat="48.30355" lon="6.99616">
        <ele>836</ele>
        <time>2009-09-27T10:51:13Z</time>
      </trkpt>
      <trkpt lat="48.30346" lon="6.99595">
        <ele>834</ele>
        <time>2009-09-27T10:51:17Z</time>
      </trkpt>
      <trkpt lat="48.30337" lon="6.99573">
        <ele>834</ele>
        <time>2009-09-27T10:51:21Z</time>
      </trkpt>
      <trkpt lat="48.30329" lon="6.99537">
        <ele>826</ele>
        <time>2009-09-27T10:51:26Z</time>
      </trkpt>
      <trkpt lat="48.30328" lon="6.99515">
        <ele>829</ele>
        <time>2009-09-27T10:51:30Z</time>
      </trkpt>
      <trkpt lat="48.30327" lon="6.99499">
        <ele>832</ele>
        <time>2009-09-27T10:51:34Z</time>
      </trkpt>
      <trkpt lat="48.30324" lon="6.99485">
        <ele>829</ele>
        <time>2009-09-27T10:51:39Z</time>
      </trkpt>
      <trkpt lat="48.30321" lon="6.99461">
        <ele>826</ele>
        <time>2009-09-27T10:51:43Z</time>
      </trkpt>
      <trkpt lat="48.30318" lon="6.99432">
        <ele>826</ele>
        <time>2009-09-27T10:51:47Z</time>
      </trkpt>
      <trkpt lat="48.30315" lon="6.99401">
        <ele>823</ele>
        <time>2009-09-27T10:51:51Z</time>
      </trkpt>
      <trkpt lat="48.30316" lon="6.99381">
        <ele>821</ele>
        <time>2009-09-27T10:51:55Z</time>
      </trkpt>
      <trkpt lat="48.30319" lon="6.99356">
        <ele>821</ele>
        <time>2009-09-27T10:51:59Z</time>
      </trkpt>
      <trkpt lat="48.30325" lon="6.9933">
        <ele>821</ele>
        <time>2009-09-27T10:52:03Z</time>
      </trkpt>
      <trkpt lat="48.3033" lon="6.99311">
        <ele>817</ele>
        <time>2009-09-27T10:52:07Z</time>
      </trkpt>
      <trkpt lat="48.30344" lon="6.99292">
        <ele>818</ele>
        <time>2009-09-27T10:52:11Z</time>
      </trkpt>
      <trkpt lat="48.30367" lon="6.99295">
        <ele>818</ele>
        <time>2009-09-27T10:52:16Z</time>
      </trkpt>
      <trkpt lat="48.30384" lon="6.99316">
        <ele>818</ele>
        <time>2009-09-27T10:52:20Z</time>
      </trkpt>
      <trkpt lat="48.304" lon="6.99338">
        <ele>822</ele>
        <time>2009-09-27T10:52:24Z</time>
      </trkpt>
      <trkpt lat="48.30416" lon="6.99356">
        <ele>823</ele>
        <time>2009-09-27T10:52:29Z</time>
      </trkpt>
      <trkpt lat="48.30437" lon="6.99372">
        <ele>821</ele>
        <time>2009-09-27T10:52:33Z</time>
      </trkpt>
      <trkpt lat="48.30462" lon="6.99391">
        <ele>821</ele>
        <time>2009-09-27T10:52:37Z</time>
      </trkpt>
      <trkpt lat="48.30494" lon="6.99406">
        <ele>821</ele>
        <time>2009-09-27T10:52:41Z</time>
      </trkpt>
      <trkpt lat="48.30529" lon="6.99414">
        <ele>817</ele>
        <time>2009-09-27T10:52:45Z</time>
      </trkpt>
      <trkpt lat="48.30567" lon="6.99414">
        <ele>816</ele>
        <time>2009-09-27T10:52:49Z</time>
      </trkpt>
      <trkpt lat="48.30602" lon="6.99404">
        <ele>816</ele>
        <time>2009-09-27T10:52:53Z</time>
      </trkpt>
      <trkpt lat="48.30633" lon="6.99387">
        <ele>816</ele>
        <time>2009-09-27T10:52:57Z</time>
      </trkpt>
      <trkpt lat="48.30654" lon="6.99375">
        <ele>816</ele>
        <time>2009-09-27T10:53:01Z</time>
      </trkpt>
      <trkpt lat="48.30666" lon="6.99368">
        <ele>816</ele>
        <time>2009-09-27T10:53:05Z</time>
      </trkpt>
      <trkpt lat="48.30674" lon="6.99365">
        <ele>810</ele>
        <time>2009-09-27T10:53:09Z</time>
      </trkpt>
      <trkpt lat="48.30676" lon="6.99368">
        <ele>810</ele>
        <time>2009-09-27T10:53:13Z</time>
      </trkpt>
      <trkpt lat="48.30677" lon="6.99369">
        <ele>810</ele>
        <time>2009-09-27T10:53:17Z</time>
      </trkpt>
      <trkpt lat="48.30677" lon="6.99371">
        <ele>810</ele>
        <time>2009-09-27T10:53:21Z</time>
      </trkpt>
      <trkpt lat="48.30675" lon="6.99369">
        <ele>810</ele>
        <time>2009-09-27T10:53:26Z</time>
      </trkpt>
      <trkpt lat="48.30674" lon="6.99368">
        <ele>810</ele>
        <time>2009-09-27T10:53:30Z</time>
      </trkpt>
      <trkpt lat="48.30675" lon="6.99369">
        <ele>810</ele>
        <time>2009-09-27T10:53:34Z</time>
      </trkpt>
      <trkpt lat="48.30676" lon="6.99369">
        <ele>810</ele>
        <time>2009-09-27T10:53:38Z</time>
      </trkpt>
      <trkpt lat="48.30678" lon="6.99368">
        <ele>810</ele>
        <time>2009-09-27T10:53:42Z</time>
      </trkpt>
      <trkpt lat="48.30678" lon="6.99369">
        <ele>810</ele>
        <time>2009-09-27T10:53:46Z</time>
      </trkpt>
      <trkpt lat="48.30679" lon="6.99369">
        <ele>810</ele>
        <time>2009-09-27T10:53:50Z</time>
      </trkpt>
      <trkpt lat="48.30679" lon="6.99368">
        <ele>810</ele>
        <time>2009-09-27T10:53:54Z</time>
      </trkpt>
      <trkpt lat="48.3068" lon="6.99362">
        <ele>810</ele>
        <time>2009-09-27T10:53:58Z</time>
      </trkpt>
      <trkpt lat="48.3068" lon="6.99361">
        <ele>810</ele>
        <time>2009-09-27T10:54:03Z</time>
      </trkpt>
      <trkpt lat="48.3068" lon="6.99357">
        <ele>811</ele>
        <time>2009-09-27T10:54:07Z</time>
      </trkpt>
      <trkpt lat="48.30681" lon="6.9936">
        <ele>810</ele>
        <time>2009-09-27T10:54:11Z</time>
      </trkpt>
      <trkpt lat="48.30682" lon="6.9936">
        <ele>810</ele>
        <time>2009-09-27T10:54:15Z</time>
      </trkpt>
      <trkpt lat="48.30682" lon="6.99361">
        <ele>810</ele>
        <time>2009-09-27T10:54:19Z</time>
      </trkpt>
      <trkpt lat="48.30683" lon="6.99361">
        <ele>810</ele>
        <time>2009-09-27T10:54:23Z</time>
      </trkpt>
      <trkpt lat="48.30681" lon="6.99357">
        <ele>810</ele>
        <time>2009-09-27T10:54:27Z</time>
      </trkpt>
      <trkpt lat="48.30681" lon="6.99356">
        <ele>811</ele>
        <time>2009-09-27T10:54:31Z</time>
      </trkpt>
      <trkpt lat="48.30679" lon="6.99356">
        <ele>811</ele>
        <time>2009-09-27T10:54:35Z</time>
      </trkpt>
      <trkpt lat="48.30679" lon="6.99358">
        <ele>811</ele>
        <time>2009-09-27T10:54:40Z</time>
      </trkpt>
      <trkpt lat="48.30678" lon="6.99357">
        <ele>811</ele>
        <time>2009-09-27T10:54:44Z</time>
      </trkpt>
      <trkpt lat="48.30677" lon="6.99354">
        <ele>811</ele>
        <time>2009-09-27T10:54:48Z</time>
      </trkpt>
      <trkpt lat="48.30679" lon="6.99353">
        <ele>811</ele>
        <time>2009-09-27T10:54:52Z</time>
      </trkpt>
      <trkpt lat="48.30681" lon="6.99353">
        <ele>811</ele>
        <time>2009-09-27T10:54:56Z</time>
      </trkpt>
      <trkpt lat="48.30681" lon="6.99351">
        <ele>811</ele>
        <time>2009-09-27T10:55:00Z</time>
      </trkpt>
      <trkpt lat="48.3068" lon="6.99349">
        <ele>811</ele>
        <time>2009-09-27T10:55:04Z</time>
      </trkpt>
      <trkpt lat="48.30679" lon="6.99346">
        <ele>812</ele>
        <time>2009-09-27T10:55:10Z</time>
      </trkpt>
      <trkpt lat="48.30678" lon="6.99346">
        <ele>812</ele>
        <time>2009-09-27T10:55:14Z</time>
      </trkpt>
      <trkpt lat="48.30675" lon="6.99349">
        <ele>812</ele>
        <time>2009-09-27T10:55:18Z</time>
      </trkpt>
      <trkpt lat="48.30676" lon="6.9935">
        <ele>812</ele>
        <time>2009-09-27T10:55:22Z</time>
      </trkpt>
      <trkpt lat="48.30675" lon="6.99352">
        <ele>812</ele>
        <time>2009-09-27T10:55:26Z</time>
      </trkpt>
      <trkpt lat="48.30676" lon="6.99356">
        <ele>811</ele>
        <time>2009-09-27T10:55:30Z</time>
      </trkpt>
      <trkpt lat="48.30676" lon="6.99357">
        <ele>811</ele>
        <time>2009-09-27T10:55:34Z</time>
      </trkpt>
      <trkpt lat="48.30678" lon="6.99357">
        <ele>811</ele>
        <time>2009-09-27T10:55:38Z</time>
      </trkpt>
      <trkpt lat="48.3068" lon="6.99357">
        <ele>811</ele>
        <time>2009-09-27T10:55:42Z</time>
      </trkpt>
      <trkpt lat="48.30681" lon="6.9936">
        <ele>810</ele>
        <time>2009-09-27T10:55:47Z</time>
      </trkpt>
      <trkpt lat="48.3068" lon="6.9936">
        <ele>810</ele>
        <time>2009-09-27T10:55:51Z</time>
      </trkpt>
      <trkpt lat="48.3068" lon="6.9936">
        <ele>810</ele>
        <time>2009-09-27T10:55:55Z</time>
      </trkpt>
      <trkpt lat="48.3068" lon="6.99357">
        <ele>811</ele>
        <time>2009-09-27T10:56:00Z</time>
      </trkpt>
      <trkpt lat="48.3068" lon="6.99354">
        <ele>811</ele>
        <time>2009-09-27T10:56:04Z</time>
      </trkpt>
      <trkpt lat="48.30681" lon="6.99354">
        <ele>811</ele>
        <time>2009-09-27T10:56:08Z</time>
      </trkpt>
      <trkpt lat="48.30679" lon="6.99348">
        <ele>812</ele>
        <time>2009-09-27T10:56:12Z</time>
      </trkpt>
      <trkpt lat="48.30678" lon="6.99344">
        <ele>812</ele>
        <time>2009-09-27T10:56:16Z</time>
      </trkpt>
      <trkpt lat="48.30677" lon="6.99339">
        <ele>813</ele>
        <time>2009-09-27T10:56:20Z</time>
      </trkpt>
      <trkpt lat="48.30676" lon="6.99342">
        <ele>813</ele>
        <time>2009-09-27T10:56:24Z</time>
      </trkpt>
      <trkpt lat="48.30676" lon="6.99345">
        <ele>812</ele>
        <time>2009-09-27T10:56:28Z</time>
      </trkpt>
      <trkpt lat="48.30676" lon="6.99345">
        <ele>812</ele>
        <time>2009-09-27T10:56:32Z</time>
      </trkpt>
      <trkpt lat="48.30676" lon="6.99345">
        <ele>812</ele>
        <time>2009-09-27T10:56:36Z</time>
      </trkpt>
      <trkpt lat="48.30676" lon="6.99346">
        <ele>812</ele>
        <time>2009-09-27T10:56:40Z</time>
      </trkpt>
      <trkpt lat="48.30675" lon="6.99346">
        <ele>812</ele>
        <time>2009-09-27T10:56:45Z</time>
      </trkpt>
      <trkpt lat="48.30679" lon="6.99353">
        <ele>811</ele>
        <time>2009-09-27T10:56:49Z</time>
      </trkpt>
      <trkpt lat="48.30682" lon="6.99358">
        <ele>810</ele>
        <time>2009-09-27T10:56:53Z</time>
      </trkpt>
      <trkpt lat="48.30682" lon="6.99361">
        <ele>810</ele>
        <time>2009-09-27T10:56:57Z</time>
      </trkpt>
      <trkpt lat="48.30682" lon="6.99362">
        <ele>810</ele>
        <time>2009-09-27T10:57:01Z</time>
      </trkpt>
      <trkpt lat="48.3068" lon="6.99362">
        <ele>810</ele>
        <time>2009-09-27T10:57:05Z</time>
      </trkpt>
      <trkpt lat="48.3068" lon="6.99361">
        <ele>810</ele>
        <time>2009-09-27T10:57:09Z</time>
      </trkpt>
      <trkpt lat="48.30682" lon="6.99362">
        <ele>810</ele>
        <time>2009-09-27T10:57:13Z</time>
      </trkpt>
      <trkpt lat="48.30682" lon="6.99361">
        <ele>810</ele>
        <time>2009-09-27T10:57:17Z</time>
      </trkpt>
      <trkpt lat="48.30683" lon="6.99361">
        <ele>810</ele>
        <time>2009-09-27T10:57:21Z</time>
      </trkpt>
      <trkpt lat="48.30682" lon="6.99361">
        <ele>810</ele>
        <time>2009-09-27T10:57:25Z</time>
      </trkpt>
      <trkpt lat="48.30683" lon="6.99359">
        <ele>810</ele>
        <time>2009-09-27T10:57:29Z</time>
      </trkpt>
      <trkpt lat="48.30683" lon="6.99358">
        <ele>810</ele>
        <time>2009-09-27T10:57:34Z</time>
      </trkpt>
      <trkpt lat="48.30684" lon="6.99357">
        <ele>810</ele>
        <time>2009-09-27T10:57:38Z</time>
      </trkpt>
      <trkpt lat="48.30683" lon="6.99357">
        <ele>810</ele>
        <time>2009-09-27T10:57:42Z</time>
      </trkpt>
      <trkpt lat="48.30683" lon="6.99357">
        <ele>810</ele>
        <time>2009-09-27T10:57:46Z</time>
      </trkpt>
      <trkpt lat="48.30683" lon="6.99357">
        <ele>810</ele>
        <time>2009-09-27T10:57:50Z</time>
      </trkpt>
      <trkpt lat="48.30683" lon="6.99358">
        <ele>810</ele>
        <time>2009-09-27T10:57:54Z</time>
      </trkpt>
      <trkpt lat="48.30683" lon="6.99357">
        <ele>810</ele>
        <time>2009-09-27T10:57:58Z</time>
      </trkpt>
      <trkpt lat="48.30682" lon="6.99357">
        <ele>810</ele>
        <time>2009-09-27T10:58:02Z</time>
      </trkpt>
      <trkpt lat="48.30682" lon="6.99355">
        <ele>810</ele>
        <time>2009-09-27T10:58:06Z</time>
      </trkpt>
      <trkpt lat="48.30683" lon="6.99357">
        <ele>810</ele>
        <time>2009-09-27T10:58:10Z</time>
      </trkpt>
      <trkpt lat="48.30683" lon="6.99357">
        <ele>810</ele>
        <time>2009-09-27T10:58:14Z</time>
      </trkpt>
      <trkpt lat="48.30682" lon="6.99355">
        <ele>810</ele>
        <time>2009-09-27T10:58:18Z</time>
      </trkpt>
      <trkpt lat="48.30681" lon="6.99354">
        <ele>811</ele>
        <time>2009-09-27T10:58:23Z</time>
      </trkpt>
      <trkpt lat="48.30681" lon="6.99353">
        <ele>811</ele>
        <time>2009-09-27T10:58:27Z</time>
      </trkpt>
      <trkpt lat="48.30682" lon="6.99353">
        <ele>811</ele>
        <time>2009-09-27T10:58:31Z</time>
      </trkpt>
      <trkpt lat="48.30682" lon="6.99353">
        <ele>811</ele>
        <time>2009-09-27T10:58:35Z</time>
      </trkpt>
      <trkpt lat="48.30681" lon="6.99349">
        <ele>811</ele>
        <time>2009-09-27T10:58:39Z</time>
      </trkpt>
      <trkpt lat="48.3068" lon="6.99345">
        <ele>812</ele>
        <time>2009-09-27T10:58:43Z</time>
      </trkpt>
      <trkpt lat="48.30681" lon="6.99343">
        <ele>812</ele>
        <time>2009-09-27T10:58:47Z</time>
      </trkpt>
      <trkpt lat="48.30681" lon="6.99342">
        <ele>812</ele>
        <time>2009-09-27T10:58:51Z</time>
      </trkpt>
      <trkpt lat="48.30681" lon="6.99341">
        <ele>812</ele>
        <time>2009-09-27T10:58:55Z</time>
      </trkpt>
      <trkpt lat="48.30681" lon="6.99343">
        <ele>812</ele>
        <time>2009-09-27T10:58:59Z</time>
      </trkpt>
      <trkpt lat="48.30682" lon="6.99347">
        <ele>811</ele>
        <time>2009-09-27T10:59:03Z</time>
      </trkpt>
      <trkpt lat="48.30682" lon="6.99351">
        <ele>811</ele>
        <time>2009-09-27T10:59:08Z</time>
      </trkpt>
      <trkpt lat="48.30678" lon="6.99354">
        <ele>811</ele>
        <time>2009-09-27T10:59:12Z</time>
      </trkpt>
      <trkpt lat="48.30677" lon="6.9936">
        <ele>811</ele>
        <time>2009-09-27T10:59:16Z</time>
      </trkpt>
      <trkpt lat="48.30676" lon="6.99362">
        <ele>810</ele>
        <time>2009-09-27T10:59:20Z</time>
      </trkpt>
      <trkpt lat="48.30675" lon="6.99361">
        <ele>811</ele>
        <time>2009-09-27T10:59:24Z</time>
      </trkpt>
      <trkpt lat="48.30673" lon="6.99359">
        <ele>811</ele>
        <time>2009-09-27T10:59:28Z</time>
      </trkpt>
      <trkpt lat="48.30675" lon="6.99363">
        <ele>811</ele>
        <time>2009-09-27T10:59:32Z</time>
      </trkpt>
      <trkpt lat="48.30676" lon="6.99365">
        <ele>810</ele>
        <time>2009-09-27T10:59:36Z</time>
      </trkpt>
      <trkpt lat="48.30678" lon="6.99366">
        <ele>810</ele>
        <time>2009-09-27T10:59:40Z</time>
      </trkpt>
      <trkpt lat="48.30677" lon="6.99366">
        <ele>810</ele>
        <time>2009-09-27T10:59:44Z</time>
      </trkpt>
      <trkpt lat="48.30677" lon="6.99366">
        <ele>810</ele>
        <time>2009-09-27T10:59:48Z</time>
      </trkpt>
      <trkpt lat="48.30676" lon="6.99366">
        <ele>810</ele>
        <time>2009-09-27T10:59:53Z</time>
      </trkpt>
      <trkpt lat="48.30676" lon="6.99366">
        <ele>810</ele>
        <time>2009-09-27T10:59:57Z</time>
      </trkpt>
      <trkpt lat="48.30676" lon="6.99366">
        <ele>810</ele>
        <time>2009-09-27T11:00:01Z</time>
      </trkpt>
      <trkpt lat="48.30676" lon="6.99366">
        <ele>810</ele>
        <time>2009-09-27T11:00:05Z</time>
      </trkpt>
      <trkpt lat="48.30677" lon="6.99368">
        <ele>810</ele>
        <time>2009-09-27T11:00:09Z</time>
      </trkpt>
      <trkpt lat="48.30678" lon="6.99368">
        <ele>810</ele>
        <time>2009-09-27T11:00:13Z</time>
      </trkpt>
      <trkpt lat="48.30678" lon="6.99366">
        <ele>810</ele>
        <time>2009-09-27T11:00:17Z</time>
      </trkpt>
      <trkpt lat="48.30678" lon="6.99366">
        <ele>810</ele>
        <time>2009-09-27T11:00:21Z</time>
      </trkpt>
      <trkpt lat="48.30678" lon="6.99368">
        <ele>810</ele>
        <time>2009-09-27T11:00:25Z</time>
      </trkpt>
      <trkpt lat="48.30677" lon="6.99372">
        <ele>810</ele>
        <time>2009-09-27T11:00:29Z</time>
      </trkpt>
      <trkpt lat="48.30677" lon="6.99372">
        <ele>810</ele>
        <time>2009-09-27T11:00:33Z</time>
      </trkpt>
      <trkpt lat="48.30678" lon="6.99372">
        <ele>810</ele>
        <time>2009-09-27T11:00:37Z</time>
      </trkpt>
      <trkpt lat="48.30678" lon="6.9937">
        <ele>810</ele>
        <time>2009-09-27T11:00:42Z</time>
      </trkpt>
      <trkpt lat="48.30678" lon="6.99369">
        <ele>810</ele>
        <time>2009-09-27T11:00:46Z</time>
      </trkpt>
      <trkpt lat="48.30678" lon="6.99369">
        <ele>810</ele>
        <time>2009-09-27T11:00:50Z</time>
      </trkpt>
      <trkpt lat="48.30678" lon="6.99369">
        <ele>810</ele>
        <time>2009-09-27T11:00:54Z</time>
      </trkpt>
      <trkpt lat="48.30678" lon="6.9937">
        <ele>810</ele>
        <time>2009-09-27T11:00:58Z</time>
      </trkpt>
      <trkpt lat="48.30678" lon="6.9937">
        <ele>810</ele>
        <time>2009-09-27T11:01:02Z</time>
      </trkpt>
      <trkpt lat="48.30679" lon="6.99373">
        <ele>810</ele>
        <time>2009-09-27T11:01:06Z</time>
      </trkpt>
      <trkpt lat="48.3068" lon="6.99373">
        <ele>810</ele>
        <time>2009-09-27T11:01:10Z</time>
      </trkpt>
      <trkpt lat="48.3068" lon="6.9937">
        <ele>810</ele>
        <time>2009-09-27T11:01:14Z</time>
      </trkpt>
      <trkpt lat="48.30681" lon="6.99369">
        <ele>810</ele>
        <time>2009-09-27T11:01:18Z</time>
      </trkpt>
      <trkpt lat="48.30681" lon="6.99369">
        <ele>810</ele>
        <time>2009-09-27T11:01:22Z</time>
      </trkpt>
      <trkpt lat="48.3068" lon="6.99369">
        <ele>810</ele>
        <time>2009-09-27T11:01:26Z</time>
      </trkpt>
      <trkpt lat="48.3068" lon="6.99368">
        <ele>810</ele>
        <time>2009-09-27T11:01:30Z</time>
      </trkpt>
      <trkpt lat="48.30679" lon="6.99366">
        <ele>810</ele>
        <time>2009-09-27T11:01:34Z</time>
      </trkpt>
      <trkpt lat="48.30681" lon="6.99364">
        <ele>810</ele>
        <time>2009-09-27T11:01:38Z</time>
      </trkpt>
      <trkpt lat="48.30682" lon="6.99362">
        <ele>810</ele>
        <time>2009-09-27T11:01:42Z</time>
      </trkpt>
      <trkpt lat="48.30681" lon="6.9936">
        <ele>810</ele>
        <time>2009-09-27T11:01:46Z</time>
      </trkpt>
      <trkpt lat="48.30679" lon="6.9936">
        <ele>810</ele>
        <time>2009-09-27T11:01:50Z</time>
      </trkpt>
      <trkpt lat="48.30677" lon="6.99358">
        <ele>811</ele>
        <time>2009-09-27T11:01:54Z</time>
      </trkpt>
      <trkpt lat="48.30674" lon="6.99354">
        <ele>811</ele>
        <time>2009-09-27T11:01:58Z</time>
      </trkpt>
      <trkpt lat="48.3067" lon="6.99349">
        <ele>812</ele>
        <time>2009-09-27T11:02:02Z</time>
      </trkpt>
      <trkpt lat="48.30671" lon="6.99352">
        <ele>812</ele>
        <time>2009-09-27T11:02:07Z</time>
      </trkpt>
      <trkpt lat="48.30671" lon="6.99353">
        <ele>812</ele>
        <time>2009-09-27T11:02:11Z</time>
      </trkpt>
      <trkpt lat="48.30673" lon="6.99357">
        <ele>811</ele>
        <time>2009-09-27T11:02:15Z</time>
      </trkpt>
      <trkpt lat="48.30675" lon="6.99357">
        <ele>811</ele>
        <time>2009-09-27T11:02:19Z</time>
      </trkpt>
      <trkpt lat="48.30675" lon="6.99357">
        <ele>811</ele>
        <time>2009-09-27T11:02:23Z</time>
      </trkpt>
      <trkpt lat="48.30675" lon="6.99356">
        <ele>811</ele>
        <time>2009-09-27T11:02:27Z</time>
      </trkpt>
      <trkpt lat="48.30675" lon="6.99354">
        <ele>811</ele>
        <time>2009-09-27T11:02:31Z</time>
      </trkpt>
      <trkpt lat="48.30676" lon="6.99357">
        <ele>811</ele>
        <time>2009-09-27T11:02:35Z</time>
      </trkpt>
      <trkpt lat="48.30675" lon="6.9936">
        <ele>811</ele>
        <time>2009-09-27T11:02:39Z</time>
      </trkpt>
      <trkpt lat="48.30675" lon="6.99364">
        <ele>810</ele>
        <time>2009-09-27T11:02:43Z</time>
      </trkpt>
      <trkpt lat="48.30673" lon="6.99364">
        <ele>811</ele>
        <time>2009-09-27T11:02:47Z</time>
      </trkpt>
      <trkpt lat="48.30672" lon="6.99361">
        <ele>811</ele>
        <time>2009-09-27T11:02:52Z</time>
      </trkpt>
      <trkpt lat="48.30671" lon="6.9936">
        <ele>811</ele>
        <time>2009-09-27T11:02:55Z</time>
      </trkpt>
      <trkpt lat="48.30669" lon="6.99361">
        <ele>811</ele>
        <time>2009-09-27T11:03:00Z</time>
      </trkpt>
      <trkpt lat="48.30673" lon="6.99363">
        <ele>811</ele>
        <time>2009-09-27T11:03:04Z</time>
      </trkpt>
      <trkpt lat="48.30673" lon="6.9936">
        <ele>811</ele>
        <time>2009-09-27T11:03:08Z</time>
      </trkpt>
      <trkpt lat="48.30673" lon="6.99359">
        <ele>811</ele>
        <time>2009-09-27T11:03:12Z</time>
      </trkpt>
      <trkpt lat="48.30673" lon="6.99357">
        <ele>811</ele>
        <time>2009-09-27T11:03:16Z</time>
      </trkpt>
      <trkpt lat="48.30675" lon="6.99361">
        <ele>811</ele>
        <time>2009-09-27T11:03:20Z</time>
      </trkpt>
      <trkpt lat="48.30675" lon="6.99361">
        <ele>811</ele>
        <time>2009-09-27T11:03:24Z</time>
      </trkpt>
      <trkpt lat="48.30675" lon="6.99361">
        <ele>811</ele>
        <time>2009-09-27T11:03:28Z</time>
      </trkpt>
      <trkpt lat="48.30674" lon="6.9936">
        <ele>811</ele>
        <time>2009-09-27T11:03:32Z</time>
      </trkpt>
      <trkpt lat="48.30675" lon="6.9936">
        <ele>811</ele>
        <time>2009-09-27T11:03:36Z</time>
      </trkpt>
      <trkpt lat="48.30678" lon="6.99364">
        <ele>810</ele>
        <time>2009-09-27T11:03:41Z</time>
      </trkpt>
      <trkpt lat="48.30678" lon="6.99366">
        <ele>810</ele>
        <time>2009-09-27T11:03:45Z</time>
      </trkpt>
      <trkpt lat="48.3068" lon="6.99368">
        <ele>810</ele>
        <time>2009-09-27T11:03:49Z</time>
      </trkpt>
      <trkpt lat="48.30681" lon="6.99368">
        <ele>810</ele>
        <time>2009-09-27T11:03:53Z</time>
      </trkpt>
      <trkpt lat="48.30682" lon="6.99368">
        <ele>810</ele>
        <time>2009-09-27T11:03:57Z</time>
      </trkpt>
      <trkpt lat="48.30683" lon="6.99368">
        <ele>810</ele>
        <time>2009-09-27T11:04:01Z</time>
      </trkpt>
      <trkpt lat="48.30683" lon="6.99368">
        <ele>810</ele>
        <time>2009-09-27T11:04:05Z</time>
      </trkpt>
      <trkpt lat="48.30684" lon="6.99368">
        <ele>810</ele>
        <time>2009-09-27T11:04:09Z</time>
      </trkpt>
      <trkpt lat="48.30684" lon="6.99368">
        <ele>810</ele>
        <time>2009-09-27T11:04:13Z</time>
      </trkpt>
      <trkpt lat="48.30684" lon="6.99368">
        <ele>810</ele>
        <time>2009-09-27T11:04:17Z</time>
      </trkpt>
      <trkpt lat="48.30684" lon="6.99368">
        <ele>810</ele>
        <time>2009-09-27T11:04:21Z</time>
      </trkpt>
      <trkpt lat="48.30683" lon="6.99369">
        <ele>810</ele>
        <time>2009-09-27T11:04:25Z</time>
      </trkpt>
      <trkpt lat="48.30681" lon="6.9937">
        <ele>810</ele>
        <time>2009-09-27T11:04:30Z</time>
      </trkpt>
      <trkpt lat="48.30679" lon="6.9937">
        <ele>810</ele>
        <time>2009-09-27T11:04:34Z</time>
      </trkpt>
      <trkpt lat="48.30678" lon="6.99373">
        <ele>810</ele>
        <time>2009-09-27T11:04:38Z</time>
      </trkpt>
      <trkpt lat="48.30677" lon="6.99372">
        <ele>810</ele>
        <time>2009-09-27T11:04:42Z</time>
      </trkpt>
      <trkpt lat="48.30677" lon="6.99369">
        <ele>810</ele>
        <time>2009-09-27T11:04:46Z</time>
      </trkpt>
      <trkpt lat="48.30676" lon="6.99368">
        <ele>810</ele>
        <time>2009-09-27T11:04:50Z</time>
      </trkpt>
      <trkpt lat="48.30675" lon="6.99369">
        <ele>810</ele>
        <time>2009-09-27T11:04:54Z</time>
      </trkpt>
      <trkpt lat="48.30673" lon="6.99367">
        <ele>810</ele>
        <time>2009-09-27T11:04:58Z</time>
      </trkpt>
      <trkpt lat="48.3067" lon="6.99375">
        <ele>810</ele>
        <time>2009-09-27T11:05:02Z</time>
      </trkpt>
      <trkpt lat="48.3067" lon="6.99384">
        <ele>810</ele>
        <time>2009-09-27T11:05:06Z</time>
      </trkpt>
      <trkpt lat="48.30669" lon="6.99399">
        <ele>812</ele>
        <time>2009-09-27T11:05:10Z</time>
      </trkpt>
      <trkpt lat="48.30666" lon="6.99411">
        <ele>817</ele>
        <time>2009-09-27T11:05:14Z</time>
      </trkpt>
      <trkpt lat="48.30664" lon="6.99422">
        <ele>817</ele>
        <time>2009-09-27T11:05:18Z</time>
      </trkpt>
      <trkpt lat="48.30661" lon="6.99435">
        <ele>818</ele>
        <time>2009-09-27T11:05:22Z</time>
      </trkpt>
      <trkpt lat="48.30662" lon="6.99448">
        <ele>818</ele>
        <time>2009-09-27T11:05:26Z</time>
      </trkpt>
      <trkpt lat="48.3066" lon="6.99462">
        <ele>818</ele>
        <time>2009-09-27T11:05:30Z</time>
      </trkpt>
      <trkpt lat="48.30659" lon="6.99474">
        <ele>818</ele>
        <time>2009-09-27T11:05:34Z</time>
      </trkpt>
      <trkpt lat="48.30657" lon="6.99487">
        <ele>818</ele>
        <time>2009-09-27T11:05:39Z</time>
      </trkpt>
      <trkpt lat="48.30655" lon="6.995">
        <ele>817</ele>
        <time>2009-09-27T11:05:43Z</time>
      </trkpt>
      <trkpt lat="48.30652" lon="6.99514">
        <ele>821</ele>
        <time>2009-09-27T11:05:47Z</time>
      </trkpt>
      <trkpt lat="48.3065" lon="6.99528">
        <ele>823</ele>
        <time>2009-09-27T11:05:51Z</time>
      </trkpt>
      <trkpt lat="48.30648" lon="6.99542">
        <ele>824</ele>
        <time>2009-09-27T11:05:55Z</time>
      </trkpt>
      <trkpt lat="48.30647" lon="6.99555">
        <ele>824</ele>
        <time>2009-09-27T11:05:59Z</time>
      </trkpt>
      <trkpt lat="48.30646" lon="6.99569">
        <ele>824</ele>
        <time>2009-09-27T11:06:03Z</time>
      </trkpt>
      <trkpt lat="48.30643" lon="6.9958">
        <ele>825</ele>
        <time>2009-09-27T11:06:07Z</time>
      </trkpt>
      <trkpt lat="48.30646" lon="6.9959">
        <ele>829</ele>
        <time>2009-09-27T11:06:11Z</time>
      </trkpt>
      <trkpt lat="48.30649" lon="6.99602">
        <ele>830</ele>
        <time>2009-09-27T11:06:15Z</time>
      </trkpt>
      <trkpt lat="48.30652" lon="6.99613">
        <ele>831</ele>
        <time>2009-09-27T11:06:19Z</time>
      </trkpt>
      <trkpt lat="48.30653" lon="6.99625">
        <ele>832</ele>
        <time>2009-09-27T11:06:23Z</time>
      </trkpt>
      <trkpt lat="48.30655" lon="6.99637">
        <ele>832</ele>
        <time>2009-09-27T11:06:27Z</time>
      </trkpt>
      <trkpt lat="48.30656" lon="6.99652">
        <ele>832</ele>
        <time>2009-09-27T11:06:31Z</time>
      </trkpt>
      <trkpt lat="48.30657" lon="6.99665">
        <ele>830</ele>
        <time>2009-09-27T11:06:35Z</time>
      </trkpt>
      <trkpt lat="48.30658" lon="6.99677">
        <ele>835</ele>
        <time>2009-09-27T11:06:39Z</time>
      </trkpt>
      <trkpt lat="48.30658" lon="6.99691">
        <ele>838</ele>
        <time>2009-09-27T11:06:43Z</time>
      </trkpt>
      <trkpt lat="48.30657" lon="6.99704">
        <ele>840</ele>
        <time>2009-09-27T11:06:47Z</time>
      </trkpt>
      <trkpt lat="48.3066" lon="6.99719">
        <ele>840</ele>
        <time>2009-09-27T11:06:51Z</time>
      </trkpt>
      <trkpt lat="48.30662" lon="6.99731">
        <ele>839</ele>
        <time>2009-09-27T11:06:55Z</time>
      </trkpt>
      <trkpt lat="48.30663" lon="6.99743">
        <ele>836</ele>
        <time>2009-09-27T11:06:59Z</time>
      </trkpt>
      <trkpt lat="48.30664" lon="6.99755">
        <ele>837</ele>
        <time>2009-09-27T11:07:04Z</time>
      </trkpt>
      <trkpt lat="48.30665" lon="6.99767">
        <ele>841</ele>
        <time>2009-09-27T11:07:08Z</time>
      </trkpt>
      <trkpt lat="48.30667" lon="6.99778">
        <ele>844</ele>
        <time>2009-09-27T11:07:12Z</time>
      </trkpt>
      <trkpt lat="48.30668" lon="6.99789">
        <ele>824</ele>
        <time>2009-09-27T11:07:16Z</time>
      </trkpt>
      <trkpt lat="48.30669" lon="6.99801">
        <ele>825</ele>
        <time>2009-09-27T11:07:20Z</time>
      </trkpt>
      <trkpt lat="48.3067" lon="6.99813">
        <ele>826</ele>
        <time>2009-09-27T11:07:24Z</time>
      </trkpt>
      <trkpt lat="48.3067" lon="6.99827">
        <ele>830</ele>
        <time>2009-09-27T11:07:28Z</time>
      </trkpt>
      <trkpt lat="48.30671" lon="6.99839">
        <ele>832</ele>
        <time>2009-09-27T11:07:32Z</time>
      </trkpt>
      <trkpt lat="48.30672" lon="6.99851">
        <ele>830</ele>
        <time>2009-09-27T11:07:36Z</time>
      </trkpt>
      <trkpt lat="48.30673" lon="6.99863">
        <ele>830</ele>
        <time>2009-09-27T11:07:40Z</time>
      </trkpt>
      <trkpt lat="48.30675" lon="6.99875">
        <ele>831</ele>
        <time>2009-09-27T11:07:44Z</time>
      </trkpt>
      <trkpt lat="48.30677" lon="6.99887">
        <ele>832</ele>
        <time>2009-09-27T11:07:48Z</time>
      </trkpt>
      <trkpt lat="48.30679" lon="6.99899">
        <ele>834</ele>
        <time>2009-09-27T11:07:52Z</time>
      </trkpt>
      <trkpt lat="48.30681" lon="6.99911">
        <ele>835</ele>
        <time>2009-09-27T11:07:56Z</time>
      </trkpt>
      <trkpt lat="48.30684" lon="6.99923">
        <ele>840</ele>
        <time>2009-09-27T11:08:00Z</time>
      </trkpt>
      <trkpt lat="48.30689" lon="6.99935">
        <ele>840</ele>
        <time>2009-09-27T11:08:04Z</time>
      </trkpt>
      <trkpt lat="48.30694" lon="6.99947">
        <ele>841</ele>
        <time>2009-09-27T11:08:08Z</time>
      </trkpt>
      <trkpt lat="48.30699" lon="6.99959">
        <ele>841</ele>
        <time>2009-09-27T11:08:12Z</time>
      </trkpt>
      <trkpt lat="48.30705" lon="6.99971">
        <ele>842</ele>
        <time>2009-09-27T11:08:16Z</time>
      </trkpt>
      <trkpt lat="48.30711" lon="6.99981">
        <ele>842</ele>
        <time>2009-09-27T11:08:20Z</time>
      </trkpt>
      <trkpt lat="48.30718" lon="6.99993">
        <ele>842</ele>
        <time>2009-09-27T11:08:24Z</time>
      </trkpt>
      <trkpt lat="48.30727" lon="7.00009">
        <ele>849</ele>
        <time>2009-09-27T11:08:28Z</time>
      </trkpt>
      <trkpt lat="48.30732" lon="7.00024">
        <ele>850</ele>
        <time>2009-09-27T11:08:32Z</time>
      </trkpt>
      <trkpt lat="48.30743" lon="7.00033">
        <ele>851</ele>
        <time>2009-09-27T11:08:36Z</time>
      </trkpt>
      <trkpt lat="48.30753" lon="7.00041">
        <ele>849</ele>
        <time>2009-09-27T11:08:41Z</time>
      </trkpt>
      <trkpt lat="48.30762" lon="7.00044">
        <ele>849</ele>
        <time>2009-09-27T11:08:45Z</time>
      </trkpt>
      <trkpt lat="48.30771" lon="7.00045">
        <ele>850</ele>
        <time>2009-09-27T11:08:49Z</time>
      </trkpt>
      <trkpt lat="48.3078" lon="7.00042">
        <ele>849</ele>
        <time>2009-09-27T11:08:53Z</time>
      </trkpt>
      <trkpt lat="48.3079" lon="7.0004">
        <ele>850</ele>
        <time>2009-09-27T11:08:57Z</time>
      </trkpt>
      <trkpt lat="48.30799" lon="7.00041">
        <ele>850</ele>
        <time>2009-09-27T11:09:01Z</time>
      </trkpt>
      <trkpt lat="48.30807" lon="7.00044">
        <ele>850</ele>
        <time>2009-09-27T11:09:05Z</time>
      </trkpt>
      <trkpt lat="48.30817" lon="7.00045">
        <ele>851</ele>
        <time>2009-09-27T11:09:09Z</time>
      </trkpt>
      <trkpt lat="48.30825" lon="7.00047">
        <ele>851</ele>
        <time>2009-09-27T11:09:13Z</time>
      </trkpt>
      <trkpt lat="48.30837" lon="7.00053">
        <ele>851</ele>
        <time>2009-09-27T11:09:17Z</time>
      </trkpt>
      <trkpt lat="48.30846" lon="7.0006">
        <ele>851</ele>
        <time>2009-09-27T11:09:21Z</time>
      </trkpt>
      <trkpt lat="48.30854" lon="7.00066">
        <ele>851</ele>
        <time>2009-09-27T11:09:25Z</time>
      </trkpt>
      <trkpt lat="48.30865" lon="7.00073">
        <ele>850</ele>
        <time>2009-09-27T11:09:30Z</time>
      </trkpt>
      <trkpt lat="48.30875" lon="7.00078">
        <ele>849</ele>
        <time>2009-09-27T11:09:34Z</time>
      </trkpt>
      <trkpt lat="48.30883" lon="7.00088">
        <ele>855</ele>
        <time>2009-09-27T11:09:38Z</time>
      </trkpt>
      <trkpt lat="48.30889" lon="7.001">
        <ele>855</ele>
        <time>2009-09-27T11:09:42Z</time>
      </trkpt>
      <trkpt lat="48.30893" lon="7.00116">
        <ele>856</ele>
        <time>2009-09-27T11:09:46Z</time>
      </trkpt>
      <trkpt lat="48.30895" lon="7.00129">
        <ele>856</ele>
        <time>2009-09-27T11:09:50Z</time>
      </trkpt>
      <trkpt lat="48.30897" lon="7.00145">
        <ele>857</ele>
        <time>2009-09-27T11:09:54Z</time>
      </trkpt>
      <trkpt lat="48.30897" lon="7.00162">
        <ele>857</ele>
        <time>2009-09-27T11:09:58Z</time>
      </trkpt>
      <trkpt lat="48.30898" lon="7.00175">
        <ele>860</ele>
        <time>2009-09-27T11:10:02Z</time>
      </trkpt>
      <trkpt lat="48.309" lon="7.0019">
        <ele>861</ele>
        <time>2009-09-27T11:10:06Z</time>
      </trkpt>
      <trkpt lat="48.30902" lon="7.00203">
        <ele>862</ele>
        <time>2009-09-27T11:10:10Z</time>
      </trkpt>
      <trkpt lat="48.30905" lon="7.00221">
        <ele>862</ele>
        <time>2009-09-27T11:10:14Z</time>
      </trkpt>
      <trkpt lat="48.30908" lon="7.00237">
        <ele>861</ele>
        <time>2009-09-27T11:10:19Z</time>
      </trkpt>
      <trkpt lat="48.3091" lon="7.00249">
        <ele>860</ele>
        <time>2009-09-27T11:10:22Z</time>
      </trkpt>
      <trkpt lat="48.30912" lon="7.0026">
        <ele>862</ele>
        <time>2009-09-27T11:10:26Z</time>
      </trkpt>
      <trkpt lat="48.30915" lon="7.00274">
        <ele>864</ele>
        <time>2009-09-27T11:10:31Z</time>
      </trkpt>
      <trkpt lat="48.3092" lon="7.003">
        <ele>851</ele>
        <time>2009-09-27T11:10:35Z</time>
      </trkpt>
      <trkpt lat="48.30927" lon="7.00325">
        <ele>854</ele>
        <time>2009-09-27T11:10:39Z</time>
      </trkpt>
      <trkpt lat="48.30935" lon="7.0035">
        <ele>855</ele>
        <time>2009-09-27T11:10:43Z</time>
      </trkpt>
      <trkpt lat="48.30948" lon="7.00377">
        <ele>853</ele>
        <time>2009-09-27T11:10:47Z</time>
      </trkpt>
      <trkpt lat="48.30965" lon="7.00403">
        <ele>852</ele>
        <time>2009-09-27T11:10:51Z</time>
      </trkpt>
      <trkpt lat="48.30985" lon="7.00429">
        <ele>854</ele>
        <time>2009-09-27T11:10:55Z</time>
      </trkpt>
      <trkpt lat="48.31006" lon="7.00453">
        <ele>847</ele>
        <time>2009-09-27T11:10:59Z</time>
      </trkpt>
      <trkpt lat="48.31028" lon="7.00474">
        <ele>848</ele>
        <time>2009-09-27T11:11:03Z</time>
      </trkpt>
      <trkpt lat="48.3105" lon="7.00487">
        <ele>846</ele>
        <time>2009-09-27T11:11:07Z</time>
      </trkpt>
      <trkpt lat="48.31071" lon="7.00499">
        <ele>846</ele>
        <time>2009-09-27T11:11:11Z</time>
      </trkpt>
      <trkpt lat="48.31085" lon="7.00505">
        <ele>847</ele>
        <time>2009-09-27T11:11:15Z</time>
      </trkpt>
      <trkpt lat="48.31093" lon="7.00507">
        <ele>847</ele>
        <time>2009-09-27T11:11:19Z</time>
      </trkpt>
      <trkpt lat="48.31095" lon="7.00507">
        <ele>847</ele>
        <time>2009-09-27T11:11:23Z</time>
      </trkpt>
      <trkpt lat="48.31096" lon="7.00507">
        <ele>847</ele>
        <time>2009-09-27T11:11:27Z</time>
      </trkpt>
      <trkpt lat="48.31096" lon="7.00506">
        <ele>847</ele>
        <time>2009-09-27T11:11:31Z</time>
      </trkpt>
      <trkpt lat="48.31096" lon="7.00506">
        <ele>847</ele>
        <time>2009-09-27T11:11:35Z</time>
      </trkpt>
      <trkpt lat="48.31096" lon="7.00506">
        <ele>847</ele>
        <time>2009-09-27T11:11:39Z</time>
      </trkpt>
      <trkpt lat="48.31095" lon="7.00506">
        <ele>847</ele>
        <time>2009-09-27T11:11:43Z</time>
      </trkpt>
      <trkpt lat="48.31095" lon="7.00507">
        <ele>847</ele>
        <time>2009-09-27T11:11:47Z</time>
      </trkpt>
      <trkpt lat="48.31095" lon="7.00506">
        <ele>847</ele>
        <time>2009-09-27T11:11:52Z</time>
      </trkpt>
      <trkpt lat="48.31096" lon="7.00506">
        <ele>847</ele>
        <time>2009-09-27T11:11:56Z</time>
      </trkpt>
      <trkpt lat="48.31096" lon="7.00506">
        <ele>847</ele>
        <time>2009-09-27T11:12:00Z</time>
      </trkpt>
      <trkpt lat="48.31096" lon="7.00505">
        <ele>847</ele>
        <time>2009-09-27T11:12:04Z</time>
      </trkpt>
      <trkpt lat="48.31096" lon="7.00505">
        <ele>847</ele>
        <time>2009-09-27T11:12:08Z</time>
      </trkpt>
      <trkpt lat="48.31095" lon="7.00505">
        <ele>847</ele>
        <time>2009-09-27T11:12:12Z</time>
      </trkpt>
      <trkpt lat="48.31095" lon="7.00506">
        <ele>847</ele>
        <time>2009-09-27T11:12:18Z</time>
      </trkpt>
      <trkpt lat="48.31095" lon="7.00506">
        <ele>847</ele>
        <time>2009-09-27T11:12:22Z</time>
      </trkpt>
      <trkpt lat="48.31095" lon="7.00505">
        <ele>847</ele>
        <time>2009-09-27T11:12:26Z</time>
      </trkpt>
      <trkpt lat="48.31095" lon="7.00506">
        <ele>847</ele>
        <time>2009-09-27T11:12:31Z</time>
      </trkpt>
      <trkpt lat="48.31095" lon="7.00506">
        <ele>847</ele>
        <time>2009-09-27T11:12:35Z</time>
      </trkpt>
      <trkpt lat="48.31095" lon="7.00506">
        <ele>847</ele>
        <time>2009-09-27T11:12:40Z</time>
      </trkpt>
      <trkpt lat="48.31095" lon="7.00506">
        <ele>847</ele>
        <time>2009-09-27T11:12:44Z</time>
      </trkpt>
      <trkpt lat="48.31095" lon="7.00506">
        <ele>847</ele>
        <time>2009-09-27T11:12:48Z</time>
      </trkpt>
      <trkpt lat="48.31095" lon="7.00506">
        <ele>847</ele>
        <time>2009-09-27T11:12:52Z</time>
      </trkpt>
      <trkpt lat="48.31095" lon="7.00506">
        <ele>847</ele>
        <time>2009-09-27T11:12:56Z</time>
      </trkpt>
      <trkpt lat="48.31095" lon="7.00506">
        <ele>847</ele>
        <time>2009-09-27T11:13:00Z</time>
      </trkpt>
      <trkpt lat="48.31095" lon="7.00506">
        <ele>847</ele>
        <time>2009-09-27T11:13:04Z</time>
      </trkpt>
      <trkpt lat="48.31096" lon="7.00506">
        <ele>847</ele>
        <time>2009-09-27T11:13:08Z</time>
      </trkpt>
      <trkpt lat="48.31096" lon="7.00507">
        <ele>847</ele>
        <time>2009-09-27T11:13:12Z</time>
      </trkpt>
      <trkpt lat="48.31096" lon="7.00507">
        <ele>847</ele>
        <time>2009-09-27T11:13:16Z</time>
      </trkpt>
      <trkpt lat="48.31097" lon="7.00506">
        <ele>847</ele>
        <time>2009-09-27T11:13:20Z</time>
      </trkpt>
      <trkpt lat="48.31096" lon="7.00507">
        <ele>847</ele>
        <time>2009-09-27T11:13:24Z</time>
      </trkpt>
      <trkpt lat="48.31096" lon="7.00507">
        <ele>847</ele>
        <time>2009-09-27T11:13:28Z</time>
      </trkpt>
      <trkpt lat="48.31098" lon="7.00507">
        <ele>847</ele>
        <time>2009-09-27T11:13:32Z</time>
      </trkpt>
      <trkpt lat="48.31099" lon="7.00507">
        <ele>847</ele>
        <time>2009-09-27T11:13:36Z</time>
      </trkpt>
      <trkpt lat="48.31098" lon="7.00507">
        <ele>847</ele>
        <time>2009-09-27T11:13:40Z</time>
      </trkpt>
      <trkpt lat="48.31099" lon="7.00507">
        <ele>847</ele>
        <time>2009-09-27T11:13:44Z</time>
      </trkpt>
      <trkpt lat="48.311" lon="7.00506">
        <ele>847</ele>
        <time>2009-09-27T11:13:48Z</time>
      </trkpt>
      <trkpt lat="48.31102" lon="7.00507">
        <ele>848</ele>
        <time>2009-09-27T11:13:52Z</time>
      </trkpt>
      <trkpt lat="48.311" lon="7.00507">
        <ele>848</ele>
        <time>2009-09-27T11:13:58Z</time>
      </trkpt>
      <trkpt lat="48.31099" lon="7.00509">
        <ele>848</ele>
        <time>2009-09-27T11:14:03Z</time>
      </trkpt>
      <trkpt lat="48.31098" lon="7.00509">
        <ele>848</ele>
        <time>2009-09-27T11:14:07Z</time>
      </trkpt>
      <trkpt lat="48.31096" lon="7.0051">
        <ele>848</ele>
        <time>2009-09-27T11:14:11Z</time>
      </trkpt>
      <trkpt lat="48.31096" lon="7.00511">
        <ele>848</ele>
        <time>2009-09-27T11:14:15Z</time>
      </trkpt>
      <trkpt lat="48.31096" lon="7.0051">
        <ele>848</ele>
        <time>2009-09-27T11:14:19Z</time>
      </trkpt>
      <trkpt lat="48.31098" lon="7.00507">
        <ele>847</ele>
        <time>2009-09-27T11:14:23Z</time>
      </trkpt>
      <trkpt lat="48.31099" lon="7.00507">
        <ele>847</ele>
        <time>2009-09-27T11:14:27Z</time>
      </trkpt>
      <trkpt lat="48.31099" lon="7.00507">
        <ele>848</ele>
        <time>2009-09-27T11:14:31Z</time>
      </trkpt>
      <trkpt lat="48.31098" lon="7.00507">
        <ele>847</ele>
        <time>2009-09-27T11:14:35Z</time>
      </trkpt>
      <trkpt lat="48.31097" lon="7.00507">
        <ele>847</ele>
        <time>2009-09-27T11:14:40Z</time>
      </trkpt>
      <trkpt lat="48.31095" lon="7.00507">
        <ele>847</ele>
        <time>2009-09-27T11:14:45Z</time>
      </trkpt>
      <trkpt lat="48.31095" lon="7.00507">
        <ele>847</ele>
        <time>2009-09-27T11:14:49Z</time>
      </trkpt>
      <trkpt lat="48.31094" lon="7.00509">
        <ele>847</ele>
        <time>2009-09-27T11:14:53Z</time>
      </trkpt>
      <trkpt lat="48.31094" lon="7.00509">
        <ele>847</ele>
        <time>2009-09-27T11:14:57Z</time>
      </trkpt>
      <trkpt lat="48.31094" lon="7.00509">
        <ele>847</ele>
        <time>2009-09-27T11:15:01Z</time>
      </trkpt>
      <trkpt lat="48.31094" lon="7.00509">
        <ele>847</ele>
        <time>2009-09-27T11:15:05Z</time>
      </trkpt>
      <trkpt lat="48.31093" lon="7.00509">
        <ele>847</ele>
        <time>2009-09-27T11:15:09Z</time>
      </trkpt>
      <trkpt lat="48.31092" lon="7.00509">
        <ele>847</ele>
        <time>2009-09-27T11:15:13Z</time>
      </trkpt>
      <trkpt lat="48.31092" lon="7.00509">
        <ele>847</ele>
        <time>2009-09-27T11:15:17Z</time>
      </trkpt>
      <trkpt lat="48.31092" lon="7.00509">
        <ele>847</ele>
        <time>2009-09-27T11:15:21Z</time>
      </trkpt>
      <trkpt lat="48.31091" lon="7.00509">
        <ele>847</ele>
        <time>2009-09-27T11:15:25Z</time>
      </trkpt>
      <trkpt lat="48.31091" lon="7.00509">
        <ele>847</ele>
        <time>2009-09-27T11:15:30Z</time>
      </trkpt>
      <trkpt lat="48.31091" lon="7.00509">
        <ele>847</ele>
        <time>2009-09-27T11:15:34Z</time>
      </trkpt>
      <trkpt lat="48.31092" lon="7.00509">
        <ele>847</ele>
        <time>2009-09-27T11:15:38Z</time>
      </trkpt>
      <trkpt lat="48.31091" lon="7.00509">
        <ele>847</ele>
        <time>2009-09-27T11:15:42Z</time>
      </trkpt>
      <trkpt lat="48.31092" lon="7.00509">
        <ele>847</ele>
        <time>2009-09-27T11:15:46Z</time>
      </trkpt>
      <trkpt lat="48.31093" lon="7.00509">
        <ele>847</ele>
        <time>2009-09-27T11:15:50Z</time>
      </trkpt>
      <trkpt lat="48.31093" lon="7.00509">
        <ele>847</ele>
        <time>2009-09-27T11:15:54Z</time>
      </trkpt>
      <trkpt lat="48.31095" lon="7.00509">
        <ele>847</ele>
        <time>2009-09-27T11:15:58Z</time>
      </trkpt>
      <trkpt lat="48.31097" lon="7.00509">
        <ele>848</ele>
        <time>2009-09-27T11:16:02Z</time>
      </trkpt>
      <trkpt lat="48.31097" lon="7.00507">
        <ele>847</ele>
        <time>2009-09-27T11:16:06Z</time>
      </trkpt>
      <trkpt lat="48.31096" lon="7.00507">
        <ele>847</ele>
        <time>2009-09-27T11:16:10Z</time>
      </trkpt>
      <trkpt lat="48.31101" lon="7.00511">
        <ele>848</ele>
        <time>2009-09-27T11:16:14Z</time>
      </trkpt>
      <trkpt lat="48.31116" lon="7.00513">
        <ele>848</ele>
        <time>2009-09-27T11:16:18Z</time>
      </trkpt>
      <trkpt lat="48.31138" lon="7.00518">
        <ele>846</ele>
        <time>2009-09-27T11:16:23Z</time>
      </trkpt>
      <trkpt lat="48.31168" lon="7.00518">
        <ele>841</ele>
        <time>2009-09-27T11:16:27Z</time>
      </trkpt>
      <trkpt lat="48.31201" lon="7.00519">
        <ele>843</ele>
        <time>2009-09-27T11:16:31Z</time>
      </trkpt>
      <trkpt lat="48.31234" lon="7.00518">
        <ele>841</ele>
        <time>2009-09-27T11:16:35Z</time>
      </trkpt>
      <trkpt lat="48.3127" lon="7.0051">
        <ele>842</ele>
        <time>2009-09-27T11:16:39Z</time>
      </trkpt>
      <trkpt lat="48.31311" lon="7.00496">
        <ele>829</ele>
        <time>2009-09-27T11:16:43Z</time>
      </trkpt>
      <trkpt lat="48.31353" lon="7.00472">
        <ele>832</ele>
        <time>2009-09-27T11:16:47Z</time>
      </trkpt>
      <trkpt lat="48.31393" lon="7.00442">
        <ele>828</ele>
        <time>2009-09-27T11:16:51Z</time>
      </trkpt>
      <trkpt lat="48.31433" lon="7.00406">
        <ele>820</ele>
        <time>2009-09-27T11:16:55Z</time>
      </trkpt>
      <trkpt lat="48.31473" lon="7.00368">
        <ele>819</ele>
        <time>2009-09-27T11:16:59Z</time>
      </trkpt>
      <trkpt lat="48.31511" lon="7.00324">
        <ele>813</ele>
        <time>2009-09-27T11:17:03Z</time>
      </trkpt>
      <trkpt lat="48.31549" lon="7.00282">
        <ele>810</ele>
        <time>2009-09-27T11:17:07Z</time>
      </trkpt>
      <trkpt lat="48.31598" lon="7.00229">
        <ele>802</ele>
        <time>2009-09-27T11:17:11Z</time>
      </trkpt>
      <trkpt lat="48.3163" lon="7.00192">
        <ele>798</ele>
        <time>2009-09-27T11:17:15Z</time>
      </trkpt>
      <trkpt lat="48.31654" lon="7.00177">
        <ele>796</ele>
        <time>2009-09-27T11:17:19Z</time>
      </trkpt>
      <trkpt lat="48.3166" lon="7.00171">
        <ele>795</ele>
        <time>2009-09-27T11:17:24Z</time>
      </trkpt>
      <trkpt lat="48.3166" lon="7.00172">
        <ele>795</ele>
        <time>2009-09-27T11:17:28Z</time>
      </trkpt>
      <trkpt lat="48.31658" lon="7.00171">
        <ele>795</ele>
        <time>2009-09-27T11:17:32Z</time>
      </trkpt>
      <trkpt lat="48.31654" lon="7.00167">
        <ele>795</ele>
        <time>2009-09-27T11:17:36Z</time>
      </trkpt>
      <trkpt lat="48.31646" lon="7.00166">
        <ele>785</ele>
        <time>2009-09-27T11:17:40Z</time>
      </trkpt>
      <trkpt lat="48.31639" lon="7.00166">
        <ele>784</ele>
        <time>2009-09-27T11:17:44Z</time>
      </trkpt>
      <trkpt lat="48.31625" lon="7.00179">
        <ele>796</ele>
        <time>2009-09-27T11:17:48Z</time>
      </trkpt>
      <trkpt lat="48.31604" lon="7.00193">
        <ele>796</ele>
        <time>2009-09-27T11:17:52Z</time>
      </trkpt>
      <trkpt lat="48.31572" lon="7.00211">
        <ele>788</ele>
        <time>2009-09-27T11:17:56Z</time>
      </trkpt>
      <trkpt lat="48.31538" lon="7.00235">
        <ele>786</ele>
        <time>2009-09-27T11:18:00Z</time>
      </trkpt>
      <trkpt lat="48.315" lon="7.00255">
        <ele>783</ele>
        <time>2009-09-27T11:18:04Z</time>
      </trkpt>
      <trkpt lat="48.31462" lon="7.00276">
        <ele>784</ele>
        <time>2009-09-27T11:18:08Z</time>
      </trkpt>
      <trkpt lat="48.31421" lon="7.00296">
        <ele>783</ele>
        <time>2009-09-27T11:18:12Z</time>
      </trkpt>
      <trkpt lat="48.31376" lon="7.00314">
        <ele>770</ele>
        <time>2009-09-27T11:18:16Z</time>
      </trkpt>
      <trkpt lat="48.31328" lon="7.00327">
        <ele>768</ele>
        <time>2009-09-27T11:18:20Z</time>
      </trkpt>
      <trkpt lat="48.31283" lon="7.00334">
        <ele>781</ele>
        <time>2009-09-27T11:18:24Z</time>
      </trkpt>
      <trkpt lat="48.31237" lon="7.00325">
        <ele>762</ele>
        <time>2009-09-27T11:18:28Z</time>
      </trkpt>
      <trkpt lat="48.31191" lon="7.00307">
        <ele>758</ele>
        <time>2009-09-27T11:18:32Z</time>
      </trkpt>
      <trkpt lat="48.31154" lon="7.0028">
        <ele>769</ele>
        <time>2009-09-27T11:18:36Z</time>
      </trkpt>
      <trkpt lat="48.31115" lon="7.00246">
        <ele>761</ele>
        <time>2009-09-27T11:18:40Z</time>
      </trkpt>
      <trkpt lat="48.31117" lon="7.00239">
        <ele>760</ele>
        <time>2009-09-27T11:18:44Z</time>
      </trkpt>
      <trkpt lat="48.3113" lon="7.00248">
        <ele>756</ele>
        <time>2009-09-27T11:18:48Z</time>
      </trkpt>
      <trkpt lat="48.31155" lon="7.00261">
        <ele>760</ele>
        <time>2009-09-27T11:18:52Z</time>
      </trkpt>
      <trkpt lat="48.31191" lon="7.00272">
        <ele>750</ele>
        <time>2009-09-27T11:18:56Z</time>
      </trkpt>
      <trkpt lat="48.31232" lon="7.00275">
        <ele>746</ele>
        <time>2009-09-27T11:19:01Z</time>
      </trkpt>
      <trkpt lat="48.31272" lon="7.00264">
        <ele>743</ele>
        <time>2009-09-27T11:19:05Z</time>
      </trkpt>
      <trkpt lat="48.3131" lon="7.00244">
        <ele>726</ele>
        <time>2009-09-27T11:19:09Z</time>
      </trkpt>
      <trkpt lat="48.31349" lon="7.00217">
        <ele>732</ele>
        <time>2009-09-27T11:19:13Z</time>
      </trkpt>
      <trkpt lat="48.31387" lon="7.00183">
        <ele>728</ele>
        <time>2009-09-27T11:19:17Z</time>
      </trkpt>
      <trkpt lat="48.31423" lon="7.00147">
        <ele>724</ele>
        <time>2009-09-27T11:19:21Z</time>
      </trkpt>
      <trkpt lat="48.31458" lon="7.00105">
        <ele>722</ele>
        <time>2009-09-27T11:19:25Z</time>
      </trkpt>
      <trkpt lat="48.31487" lon="7.00056">
        <ele>707</ele>
        <time>2009-09-27T11:19:29Z</time>
      </trkpt>
      <trkpt lat="48.31513" lon="7.00001">
        <ele>714</ele>
        <time>2009-09-27T11:19:33Z</time>
      </trkpt>
      <trkpt lat="48.31547" lon="6.9995">
        <ele>708</ele>
        <time>2009-09-27T11:19:37Z</time>
      </trkpt>
      <trkpt lat="48.31579" lon="6.999">
        <ele>699</ele>
        <time>2009-09-27T11:19:41Z</time>
      </trkpt>
      <trkpt lat="48.31605" lon="6.99858">
        <ele>701</ele>
        <time>2009-09-27T11:19:45Z</time>
      </trkpt>
      <trkpt lat="48.31625" lon="6.99809">
        <ele>691</ele>
        <time>2009-09-27T11:19:49Z</time>
      </trkpt>
      <trkpt lat="48.3165" lon="6.99763">
        <ele>691</ele>
        <time>2009-09-27T11:19:53Z</time>
      </trkpt>
      <trkpt lat="48.31679" lon="6.99741">
        <ele>687</ele>
        <time>2009-09-27T11:19:57Z</time>
      </trkpt>
      <trkpt lat="48.31699" lon="6.99726">
        <ele>683</ele>
        <time>2009-09-27T11:20:01Z</time>
      </trkpt>
      <trkpt lat="48.31715" lon="6.99728">
        <ele>682</ele>
        <time>2009-09-27T11:20:05Z</time>
      </trkpt>
      <trkpt lat="48.31734" lon="6.9973">
        <ele>681</ele>
        <time>2009-09-27T11:20:09Z</time>
      </trkpt>
      <trkpt lat="48.31755" lon="6.99738">
        <ele>673</ele>
        <time>2009-09-27T11:20:13Z</time>
      </trkpt>
      <trkpt lat="48.31782" lon="6.99748">
        <ele>666</ele>
        <time>2009-09-27T11:20:18Z</time>
      </trkpt>
      <trkpt lat="48.31808" lon="6.99763">
        <ele>669</ele>
        <time>2009-09-27T11:20:22Z</time>
      </trkpt>
      <trkpt lat="48.31828" lon="6.99777">
        <ele>668</ele>
        <time>2009-09-27T11:20:26Z</time>
      </trkpt>
      <trkpt lat="48.31845" lon="6.99794">
        <ele>653</ele>
        <time>2009-09-27T11:20:30Z</time>
      </trkpt>
      <trkpt lat="48.31861" lon="6.99812">
        <ele>653</ele>
        <time>2009-09-27T11:20:34Z</time>
      </trkpt>
      <trkpt lat="48.31874" lon="6.99827">
        <ele>651</ele>
        <time>2009-09-27T11:20:38Z</time>
      </trkpt>
      <trkpt lat="48.31891" lon="6.99852">
        <ele>655</ele>
        <time>2009-09-27T11:20:42Z</time>
      </trkpt>
      <trkpt lat="48.3191" lon="6.99889">
        <ele>655</ele>
        <time>2009-09-27T11:20:46Z</time>
      </trkpt>
      <trkpt lat="48.31929" lon="6.99924">
        <ele>645</ele>
        <time>2009-09-27T11:20:50Z</time>
      </trkpt>
      <trkpt lat="48.31952" lon="6.99957">
        <ele>640</ele>
        <time>2009-09-27T11:20:54Z</time>
      </trkpt>
      <trkpt lat="48.3197" lon="6.99993">
        <ele>637</ele>
        <time>2009-09-27T11:20:58Z</time>
      </trkpt>
      <trkpt lat="48.31982" lon="7.0003">
        <ele>640</ele>
        <time>2009-09-27T11:21:02Z</time>
      </trkpt>
      <trkpt lat="48.31996" lon="7.00069">
        <ele>638</ele>
        <time>2009-09-27T11:21:06Z</time>
      </trkpt>
      <trkpt lat="48.32001" lon="7.00101">
        <ele>627</ele>
        <time>2009-09-27T11:21:11Z</time>
      </trkpt>
      <trkpt lat="48.32001" lon="7.00127">
        <ele>626</ele>
        <time>2009-09-27T11:21:15Z</time>
      </trkpt>
      <trkpt lat="48.31999" lon="7.00144">
        <ele>644</ele>
        <time>2009-09-27T11:21:19Z</time>
      </trkpt>
      <trkpt lat="48.31999" lon="7.00166">
        <ele>637</ele>
        <time>2009-09-27T11:21:23Z</time>
      </trkpt>
      <trkpt lat="48.31999" lon="7.00182">
        <ele>646</ele>
        <time>2009-09-27T11:21:27Z</time>
      </trkpt>
      <trkpt lat="48.31997" lon="7.00197">
        <ele>650</ele>
        <time>2009-09-27T11:21:31Z</time>
      </trkpt>
      <trkpt lat="48.31999" lon="7.00213">
        <ele>651</ele>
        <time>2009-09-27T11:21:35Z</time>
      </trkpt>
      <trkpt lat="48.32" lon="7.00232">
        <ele>650</ele>
        <time>2009-09-27T11:21:39Z</time>
      </trkpt>
      <trkpt lat="48.32" lon="7.00248">
        <ele>642</ele>
        <time>2009-09-27T11:21:43Z</time>
      </trkpt>
      <trkpt lat="48.32001" lon="7.00262">
        <ele>638</ele>
        <time>2009-09-27T11:21:47Z</time>
      </trkpt>
      <trkpt lat="48.32" lon="7.00276">
        <ele>655</ele>
        <time>2009-09-27T11:21:51Z</time>
      </trkpt>
      <trkpt lat="48.31995" lon="7.00294">
        <ele>657</ele>
        <time>2009-09-27T11:21:55Z</time>
      </trkpt>
      <trkpt lat="48.31995" lon="7.00309">
        <ele>656</ele>
        <time>2009-09-27T11:22:00Z</time>
      </trkpt>
      <trkpt lat="48.31993" lon="7.00327">
        <ele>652</ele>
        <time>2009-09-27T11:22:04Z</time>
      </trkpt>
      <trkpt lat="48.31992" lon="7.00346">
        <ele>656</ele>
        <time>2009-09-27T11:22:08Z</time>
      </trkpt>
      <trkpt lat="48.31995" lon="7.00368">
        <ele>660</ele>
        <time>2009-09-27T11:22:12Z</time>
      </trkpt>
      <trkpt lat="48.31998" lon="7.00391">
        <ele>658</ele>
        <time>2009-09-27T11:22:16Z</time>
      </trkpt>
      <trkpt lat="48.31998" lon="7.00413">
        <ele>649</ele>
        <time>2009-09-27T11:22:20Z</time>
      </trkpt>
      <trkpt lat="48.3199" lon="7.00431">
        <ele>657</ele>
        <time>2009-09-27T11:22:24Z</time>
      </trkpt>
      <trkpt lat="48.31981" lon="7.00453">
        <ele>662</ele>
        <time>2009-09-27T11:22:28Z</time>
      </trkpt>
      <trkpt lat="48.31975" lon="7.00474">
        <ele>663</ele>
        <time>2009-09-27T11:22:32Z</time>
      </trkpt>
      <trkpt lat="48.31977" lon="7.00501">
        <ele>658</ele>
        <time>2009-09-27T11:22:36Z</time>
      </trkpt>
      <trkpt lat="48.31974" lon="7.00532">
        <ele>661</ele>
        <time>2009-09-27T11:22:40Z</time>
      </trkpt>
      <trkpt lat="48.31972" lon="7.00573">
        <ele>658</ele>
        <time>2009-09-27T11:22:44Z</time>
      </trkpt>
      <trkpt lat="48.31962" lon="7.00599">
        <ele>657</ele>
        <time>2009-09-27T11:22:48Z</time>
      </trkpt>
      <trkpt lat="48.31951" lon="7.00624">
        <ele>659</ele>
        <time>2009-09-27T11:22:52Z</time>
      </trkpt>
      <trkpt lat="48.31936" lon="7.00646">
        <ele>662</ele>
        <time>2009-09-27T11:22:56Z</time>
      </trkpt>
      <trkpt lat="48.31929" lon="7.00673">
        <ele>662</ele>
        <time>2009-09-27T11:23:00Z</time>
      </trkpt>
      <trkpt lat="48.31922" lon="7.00698">
        <ele>656</ele>
        <time>2009-09-27T11:23:05Z</time>
      </trkpt>
      <trkpt lat="48.31915" lon="7.00724">
        <ele>678</ele>
        <time>2009-09-27T11:23:09Z</time>
      </trkpt>
      <trkpt lat="48.31906" lon="7.00748">
        <ele>671</ele>
        <time>2009-09-27T11:23:13Z</time>
      </trkpt>
      <trkpt lat="48.31895" lon="7.00773">
        <ele>672</ele>
        <time>2009-09-27T11:23:17Z</time>
      </trkpt>
      <trkpt lat="48.31885" lon="7.00799">
        <ele>673</ele>
        <time>2009-09-27T11:23:21Z</time>
      </trkpt>
      <trkpt lat="48.31874" lon="7.00825">
        <ele>675</ele>
        <time>2009-09-27T11:23:25Z</time>
      </trkpt>
      <trkpt lat="48.31863" lon="7.0085">
        <ele>671</ele>
        <time>2009-09-27T11:23:29Z</time>
      </trkpt>
      <trkpt lat="48.31851" lon="7.00872">
        <ele>671</ele>
        <time>2009-09-27T11:23:33Z</time>
      </trkpt>
      <trkpt lat="48.31844" lon="7.00894">
        <ele>671</ele>
        <time>2009-09-27T11:23:37Z</time>
      </trkpt>
      <trkpt lat="48.3184" lon="7.00922">
        <ele>672</ele>
        <time>2009-09-27T11:23:41Z</time>
      </trkpt>
      <trkpt lat="48.31833" lon="7.00945">
        <ele>682</ele>
        <time>2009-09-27T11:23:45Z</time>
      </trkpt>
      <trkpt lat="48.31829" lon="7.00972">
        <ele>679</ele>
        <time>2009-09-27T11:23:49Z</time>
      </trkpt>
      <trkpt lat="48.31825" lon="7.01">
        <ele>670</ele>
        <time>2009-09-27T11:23:53Z</time>
      </trkpt>
      <trkpt lat="48.31825" lon="7.01025">
        <ele>665</ele>
        <time>2009-09-27T11:23:57Z</time>
      </trkpt>
      <trkpt lat="48.31816" lon="7.0104">
        <ele>664</ele>
        <time>2009-09-27T11:24:01Z</time>
      </trkpt>
      <trkpt lat="48.31796" lon="7.01048">
        <ele>666</ele>
        <time>2009-09-27T11:24:05Z</time>
      </trkpt>
      <trkpt lat="48.31778" lon="7.01051">
        <ele>668</ele>
        <time>2009-09-27T11:24:09Z</time>
      </trkpt>
      <trkpt lat="48.31766" lon="7.01061">
        <ele>669</ele>
        <time>2009-09-27T11:24:13Z</time>
      </trkpt>
      <trkpt lat="48.31757" lon="7.01082">
        <ele>669</ele>
        <time>2009-09-27T11:24:17Z</time>
      </trkpt>
      <trkpt lat="48.31748" lon="7.01102">
        <ele>677</ele>
        <time>2009-09-27T11:24:21Z</time>
      </trkpt>
      <trkpt lat="48.31736" lon="7.01127">
        <ele>678</ele>
        <time>2009-09-27T11:24:25Z</time>
      </trkpt>
      <trkpt lat="48.31727" lon="7.0115">
        <ele>676</ele>
        <time>2009-09-27T11:24:30Z</time>
      </trkpt>
      <trkpt lat="48.31717" lon="7.01175">
        <ele>676</ele>
        <time>2009-09-27T11:24:34Z</time>
      </trkpt>
      <trkpt lat="48.31729" lon="7.01202">
        <ele>674</ele>
        <time>2009-09-27T11:24:38Z</time>
      </trkpt>
      <trkpt lat="48.31743" lon="7.01229">
        <ele>668</ele>
        <time>2009-09-27T11:24:42Z</time>
      </trkpt>
      <trkpt lat="48.31755" lon="7.01255">
        <ele>650</ele>
        <time>2009-09-27T11:24:46Z</time>
      </trkpt>
      <trkpt lat="48.31769" lon="7.0128">
        <ele>646</ele>
        <time>2009-09-27T11:24:50Z</time>
      </trkpt>
      <trkpt lat="48.31776" lon="7.01306">
        <ele>647</ele>
        <time>2009-09-27T11:24:54Z</time>
      </trkpt>
      <trkpt lat="48.31788" lon="7.01325">
        <ele>645</ele>
        <time>2009-09-27T11:24:58Z</time>
      </trkpt>
      <trkpt lat="48.31801" lon="7.0135">
        <ele>652</ele>
        <time>2009-09-27T11:25:02Z</time>
      </trkpt>
      <trkpt lat="48.31812" lon="7.01379">
        <ele>653</ele>
        <time>2009-09-27T11:25:06Z</time>
      </trkpt>
      <trkpt lat="48.31822" lon="7.01404">
        <ele>652</ele>
        <time>2009-09-27T11:25:10Z</time>
      </trkpt>
      <trkpt lat="48.3184" lon="7.01432">
        <ele>643</ele>
        <time>2009-09-27T11:25:14Z</time>
      </trkpt>
      <trkpt lat="48.31856" lon="7.01461">
        <ele>642</ele>
        <time>2009-09-27T11:25:18Z</time>
      </trkpt>
      <trkpt lat="48.31876" lon="7.01491">
        <ele>641</ele>
        <time>2009-09-27T11:25:22Z</time>
      </trkpt>
      <trkpt lat="48.319" lon="7.01524">
        <ele>646</ele>
        <time>2009-09-27T11:25:26Z</time>
      </trkpt>
      <trkpt lat="48.31936" lon="7.0156">
        <ele>632</ele>
        <time>2009-09-27T11:25:30Z</time>
      </trkpt>
      <trkpt lat="48.3198" lon="7.01603">
        <ele>635</ele>
        <time>2009-09-27T11:25:34Z</time>
      </trkpt>
      <trkpt lat="48.3201" lon="7.0164">
        <ele>620</ele>
        <time>2009-09-27T11:25:38Z</time>
      </trkpt>
      <trkpt lat="48.32026" lon="7.0168">
        <ele>621</ele>
        <time>2009-09-27T11:25:42Z</time>
      </trkpt>
      <trkpt lat="48.3203" lon="7.01731">
        <ele>620</ele>
        <time>2009-09-27T11:25:46Z</time>
      </trkpt>
      <trkpt lat="48.32039" lon="7.01767">
        <ele>619</ele>
        <time>2009-09-27T11:25:50Z</time>
      </trkpt>
      <trkpt lat="48.32042" lon="7.01803">
        <ele>618</ele>
        <time>2009-09-27T11:25:54Z</time>
      </trkpt>
      <trkpt lat="48.32038" lon="7.01855">
        <ele>615</ele>
        <time>2009-09-27T11:25:59Z</time>
      </trkpt>
      <trkpt lat="48.32032" lon="7.01917">
        <ele>612</ele>
        <time>2009-09-27T11:26:03Z</time>
      </trkpt>
      <trkpt lat="48.32031" lon="7.01972">
        <ele>610</ele>
        <time>2009-09-27T11:26:07Z</time>
      </trkpt>
      <trkpt lat="48.32041" lon="7.02018">
        <ele>610</ele>
        <time>2009-09-27T11:26:11Z</time>
      </trkpt>
      <trkpt lat="48.32052" lon="7.02038">
        <ele>609</ele>
        <time>2009-09-27T11:26:15Z</time>
      </trkpt>
      <trkpt lat="48.32081" lon="7.02032">
        <ele>605</ele>
        <time>2009-09-27T11:26:19Z</time>
      </trkpt>
      <trkpt lat="48.32115" lon="7.02054">
        <ele>591</ele>
        <time>2009-09-27T11:26:23Z</time>
      </trkpt>
      <trkpt lat="48.32131" lon="7.02122">
        <ele>595</ele>
        <time>2009-09-27T11:26:27Z</time>
      </trkpt>
      <trkpt lat="48.32144" lon="7.02199">
        <ele>592</ele>
        <time>2009-09-27T11:26:31Z</time>
      </trkpt>
      <trkpt lat="48.32147" lon="7.02271">
        <ele>587</ele>
        <time>2009-09-27T11:26:35Z</time>
      </trkpt>
      <trkpt lat="48.32142" lon="7.02338">
        <ele>586</ele>
        <time>2009-09-27T11:26:39Z</time>
      </trkpt>
      <trkpt lat="48.32166" lon="7.02383">
        <ele>587</ele>
        <time>2009-09-27T11:26:43Z</time>
      </trkpt>
      <trkpt lat="48.32222" lon="7.0239">
        <ele>579</ele>
        <time>2009-09-27T11:26:48Z</time>
      </trkpt>
      <trkpt lat="48.32263" lon="7.02396">
        <ele>577</ele>
        <time>2009-09-27T11:26:52Z</time>
      </trkpt>
      <trkpt lat="48.323" lon="7.02402">
        <ele>576</ele>
        <time>2009-09-27T11:26:56Z</time>
      </trkpt>
      <trkpt lat="48.32334" lon="7.02407">
        <ele>574</ele>
        <time>2009-09-27T11:27:00Z</time>
      </trkpt>
      <trkpt lat="48.32361" lon="7.02414">
        <ele>572</ele>
        <time>2009-09-27T11:27:04Z</time>
      </trkpt>
      <trkpt lat="48.32371" lon="7.02415">
        <ele>570</ele>
        <time>2009-09-27T11:27:08Z</time>
      </trkpt>
      <trkpt lat="48.32378" lon="7.02414">
        <ele>570</ele>
        <time>2009-09-27T11:27:12Z</time>
      </trkpt>
      <trkpt lat="48.32378" lon="7.02414">
        <ele>570</ele>
        <time>2009-09-27T11:27:16Z</time>
      </trkpt>
      <trkpt lat="48.32377" lon="7.02414">
        <ele>570</ele>
        <time>2009-09-27T11:27:20Z</time>
      </trkpt>
      <trkpt lat="48.32376" lon="7.02412">
        <ele>570</ele>
        <time>2009-09-27T11:27:24Z</time>
      </trkpt>
      <trkpt lat="48.32378" lon="7.02412">
        <ele>570</ele>
        <time>2009-09-27T11:27:28Z</time>
      </trkpt>
      <trkpt lat="48.32378" lon="7.02412">
        <ele>570</ele>
        <time>2009-09-27T11:27:32Z</time>
      </trkpt>
      <trkpt lat="48.32377" lon="7.02412">
        <ele>570</ele>
        <time>2009-09-27T11:27:36Z</time>
      </trkpt>
      <trkpt lat="48.32381" lon="7.02412">
        <ele>570</ele>
        <time>2009-09-27T11:27:41Z</time>
      </trkpt>
      <trkpt lat="48.32378" lon="7.02413">
        <ele>570</ele>
        <time>2009-09-27T11:27:45Z</time>
      </trkpt>
      <trkpt lat="48.32378" lon="7.02411">
        <ele>570</ele>
        <time>2009-09-27T11:27:49Z</time>
      </trkpt>
      <trkpt lat="48.32376" lon="7.02411">
        <ele>570</ele>
        <time>2009-09-27T11:27:53Z</time>
      </trkpt>
      <trkpt lat="48.32376" lon="7.02411">
        <ele>570</ele>
        <time>2009-09-27T11:27:57Z</time>
      </trkpt>
      <trkpt lat="48.32376" lon="7.02412">
        <ele>570</ele>
        <time>2009-09-27T11:28:01Z</time>
      </trkpt>
      <trkpt lat="48.32374" lon="7.02415">
        <ele>570</ele>
        <time>2009-09-27T11:28:05Z</time>
      </trkpt>
      <trkpt lat="48.32373" lon="7.02415">
        <ele>570</ele>
        <time>2009-09-27T11:28:09Z</time>
      </trkpt>
      <trkpt lat="48.32372" lon="7.02415">
        <ele>570</ele>
        <time>2009-09-27T11:28:13Z</time>
      </trkpt>
      <trkpt lat="48.32371" lon="7.02415">
        <ele>570</ele>
        <time>2009-09-27T11:28:17Z</time>
      </trkpt>
      <trkpt lat="48.32374" lon="7.02415">
        <ele>570</ele>
        <time>2009-09-27T11:28:22Z</time>
      </trkpt>
      <trkpt lat="48.32375" lon="7.02415">
        <ele>570</ele>
        <time>2009-09-27T11:28:26Z</time>
      </trkpt>
      <trkpt lat="48.32377" lon="7.02415">
        <ele>570</ele>
        <time>2009-09-27T11:28:30Z</time>
      </trkpt>
      <trkpt lat="48.32379" lon="7.02413">
        <ele>570</ele>
        <time>2009-09-27T11:28:34Z</time>
      </trkpt>
      <trkpt lat="48.3238" lon="7.02415">
        <ele>570</ele>
        <time>2009-09-27T11:28:38Z</time>
      </trkpt>
      <trkpt lat="48.3238" lon="7.02415">
        <ele>570</ele>
        <time>2009-09-27T11:28:42Z</time>
      </trkpt>
      <trkpt lat="48.32379" lon="7.02415">
        <ele>570</ele>
        <time>2009-09-27T11:28:46Z</time>
      </trkpt>
      <trkpt lat="48.32377" lon="7.02414">
        <ele>570</ele>
        <time>2009-09-27T11:28:50Z</time>
      </trkpt>
      <trkpt lat="48.32376" lon="7.02416">
        <ele>570</ele>
        <time>2009-09-27T11:28:54Z</time>
      </trkpt>
      <trkpt lat="48.32373" lon="7.02416">
        <ele>570</ele>
        <time>2009-09-27T11:28:58Z</time>
      </trkpt>
      <trkpt lat="48.32376" lon="7.02415">
        <ele>570</ele>
        <time>2009-09-27T11:29:02Z</time>
      </trkpt>
      <trkpt lat="48.32372" lon="7.02416">
        <ele>570</ele>
        <time>2009-09-27T11:29:06Z</time>
      </trkpt>
      <trkpt lat="48.3237" lon="7.02419">
        <ele>572</ele>
        <time>2009-09-27T11:29:11Z</time>
      </trkpt>
      <trkpt lat="48.3237" lon="7.02421">
        <ele>572</ele>
        <time>2009-09-27T11:29:15Z</time>
      </trkpt>
      <trkpt lat="48.32372" lon="7.0242">
        <ele>572</ele>
        <time>2009-09-27T11:29:20Z</time>
      </trkpt>
      <trkpt lat="48.32373" lon="7.02419">
        <ele>572</ele>
        <time>2009-09-27T11:29:24Z</time>
      </trkpt>
      <trkpt lat="48.32375" lon="7.02419">
        <ele>572</ele>
        <time>2009-09-27T11:29:28Z</time>
      </trkpt>
      <trkpt lat="48.32376" lon="7.02418">
        <ele>571</ele>
        <time>2009-09-27T11:29:32Z</time>
      </trkpt>
      <trkpt lat="48.32374" lon="7.02418">
        <ele>572</ele>
        <time>2009-09-27T11:29:36Z</time>
      </trkpt>
      <trkpt lat="48.32373" lon="7.02418">
        <ele>572</ele>
        <time>2009-09-27T11:29:40Z</time>
      </trkpt>
      <trkpt lat="48.32372" lon="7.0242">
        <ele>572</ele>
        <time>2009-09-27T11:29:44Z</time>
      </trkpt>
      <trkpt lat="48.32375" lon="7.02419">
        <ele>572</ele>
        <time>2009-09-27T11:29:48Z</time>
      </trkpt>
      <trkpt lat="48.32376" lon="7.02419">
        <ele>571</ele>
        <time>2009-09-27T11:29:52Z</time>
      </trkpt>
      <trkpt lat="48.32376" lon="7.02418">
        <ele>571</ele>
        <time>2009-09-27T11:29:56Z</time>
      </trkpt>
      <trkpt lat="48.32376" lon="7.02418">
        <ele>571</ele>
        <time>2009-09-27T11:30:00Z</time>
      </trkpt>
      <trkpt lat="48.32377" lon="7.02419">
        <ele>571</ele>
        <time>2009-09-27T11:30:05Z</time>
      </trkpt>
      <trkpt lat="48.32376" lon="7.02418">
        <ele>571</ele>
        <time>2009-09-27T11:30:09Z</time>
      </trkpt>
      <trkpt lat="48.32378" lon="7.02416">
        <ele>570</ele>
        <time>2009-09-27T11:30:13Z</time>
      </trkpt>
      <trkpt lat="48.32378" lon="7.02415">
        <ele>570</ele>
        <time>2009-09-27T11:30:17Z</time>
      </trkpt>
      <trkpt lat="48.32378" lon="7.02415">
        <ele>570</ele>
        <time>2009-09-27T11:30:21Z</time>
      </trkpt>
      <trkpt lat="48.32379" lon="7.02416">
        <ele>570</ele>
        <time>2009-09-27T11:30:25Z</time>
      </trkpt>
      <trkpt lat="48.32378" lon="7.02416">
        <ele>570</ele>
        <time>2009-09-27T11:30:29Z</time>
      </trkpt>
      <trkpt lat="48.32378" lon="7.02415">
        <ele>570</ele>
        <time>2009-09-27T11:30:33Z</time>
      </trkpt>
      <trkpt lat="48.32376" lon="7.02414">
        <ele>570</ele>
        <time>2009-09-27T11:30:37Z</time>
      </trkpt>
      <trkpt lat="48.32374" lon="7.02414">
        <ele>570</ele>
        <time>2009-09-27T11:30:41Z</time>
      </trkpt>
      <trkpt lat="48.32373" lon="7.02415">
        <ele>570</ele>
        <time>2009-09-27T11:30:45Z</time>
      </trkpt>
      <trkpt lat="48.32375" lon="7.02416">
        <ele>570</ele>
        <time>2009-09-27T11:30:49Z</time>
      </trkpt>
      <trkpt lat="48.32375" lon="7.02419">
        <ele>572</ele>
        <time>2009-09-27T11:30:53Z</time>
      </trkpt>
      <trkpt lat="48.32375" lon="7.0242">
        <ele>572</ele>
        <time>2009-09-27T11:30:57Z</time>
      </trkpt>
      <trkpt lat="48.32376" lon="7.0242">
        <ele>571</ele>
        <time>2009-09-27T11:31:01Z</time>
      </trkpt>
      <trkpt lat="48.32376" lon="7.0242">
        <ele>571</ele>
        <time>2009-09-27T11:31:05Z</time>
      </trkpt>
      <trkpt lat="48.32375" lon="7.0242">
        <ele>572</ele>
        <time>2009-09-27T11:31:09Z</time>
      </trkpt>
      <trkpt lat="48.32373" lon="7.02422">
        <ele>572</ele>
        <time>2009-09-27T11:31:13Z</time>
      </trkpt>
      <trkpt lat="48.32373" lon="7.02422">
        <ele>572</ele>
        <time>2009-09-27T11:31:17Z</time>
      </trkpt>
      <trkpt lat="48.32371" lon="7.02421">
        <ele>572</ele>
        <time>2009-09-27T11:31:22Z</time>
      </trkpt>
      <trkpt lat="48.3237" lon="7.02421">
        <ele>572</ele>
        <time>2009-09-27T11:31:26Z</time>
      </trkpt>
      <trkpt lat="48.3237" lon="7.02421">
        <ele>572</ele>
        <time>2009-09-27T11:31:30Z</time>
      </trkpt>
      <trkpt lat="48.3237" lon="7.02421">
        <ele>572</ele>
        <time>2009-09-27T11:31:34Z</time>
      </trkpt>
      <trkpt lat="48.32374" lon="7.02418">
        <ele>572</ele>
        <time>2009-09-27T11:31:38Z</time>
      </trkpt>
      <trkpt lat="48.32376" lon="7.02416">
        <ele>570</ele>
        <time>2009-09-27T11:31:42Z</time>
      </trkpt>
      <trkpt lat="48.32375" lon="7.02416">
        <ele>570</ele>
        <time>2009-09-27T11:31:46Z</time>
      </trkpt>
      <trkpt lat="48.32375" lon="7.02416">
        <ele>570</ele>
        <time>2009-09-27T11:31:50Z</time>
      </trkpt>
      <trkpt lat="48.32374" lon="7.02416">
        <ele>570</ele>
        <time>2009-09-27T11:31:54Z</time>
      </trkpt>
      <trkpt lat="48.32374" lon="7.02415">
        <ele>570</ele>
        <time>2009-09-27T11:31:58Z</time>
      </trkpt>
      <trkpt lat="48.32372" lon="7.02415">
        <ele>570</ele>
        <time>2009-09-27T11:32:03Z</time>
      </trkpt>
      <trkpt lat="48.32374" lon="7.02414">
        <ele>570</ele>
        <time>2009-09-27T11:32:07Z</time>
      </trkpt>
      <trkpt lat="48.32374" lon="7.02415">
        <ele>570</ele>
        <time>2009-09-27T11:32:11Z</time>
      </trkpt>
      <trkpt lat="48.32374" lon="7.02415">
        <ele>570</ele>
        <time>2009-09-27T11:32:15Z</time>
      </trkpt>
      <trkpt lat="48.32374" lon="7.02415">
        <ele>570</ele>
        <time>2009-09-27T11:32:19Z</time>
      </trkpt>
      <trkpt lat="48.32376" lon="7.02415">
        <ele>570</ele>
        <time>2009-09-27T11:32:23Z</time>
      </trkpt>
      <trkpt lat="48.32378" lon="7.02415">
        <ele>570</ele>
        <time>2009-09-27T11:32:27Z</time>
      </trkpt>
      <trkpt lat="48.32379" lon="7.02413">
        <ele>570</ele>
        <time>2009-09-27T11:32:31Z</time>
      </trkpt>
      <trkpt lat="48.32378" lon="7.02412">
        <ele>570</ele>
        <time>2009-09-27T11:32:35Z</time>
      </trkpt>
      <trkpt lat="48.32378" lon="7.02413">
        <ele>570</ele>
        <time>2009-09-27T11:32:39Z</time>
      </trkpt>
      <trkpt lat="48.32378" lon="7.02413">
        <ele>570</ele>
        <time>2009-09-27T11:32:43Z</time>
      </trkpt>
      <trkpt lat="48.32378" lon="7.02413">
        <ele>570</ele>
        <time>2009-09-27T11:32:47Z</time>
      </trkpt>
      <trkpt lat="48.32378" lon="7.02413">
        <ele>570</ele>
        <time>2009-09-27T11:32:51Z</time>
      </trkpt>
      <trkpt lat="48.32378" lon="7.02414">
        <ele>570</ele>
        <time>2009-09-27T11:32:55Z</time>
      </trkpt>
      <trkpt lat="48.32378" lon="7.02414">
        <ele>570</ele>
        <time>2009-09-27T11:32:59Z</time>
      </trkpt>
      <trkpt lat="48.32378" lon="7.02414">
        <ele>570</ele>
        <time>2009-09-27T11:33:03Z</time>
      </trkpt>
      <trkpt lat="48.32378" lon="7.02413">
        <ele>570</ele>
        <time>2009-09-27T11:33:07Z</time>
      </trkpt>
      <trkpt lat="48.32378" lon="7.02413">
        <ele>570</ele>
        <time>2009-09-27T11:33:11Z</time>
      </trkpt>
      <trkpt lat="48.32378" lon="7.02413">
        <ele>570</ele>
        <time>2009-09-27T11:33:15Z</time>
      </trkpt>
      <trkpt lat="48.32378" lon="7.02413">
        <ele>570</ele>
        <time>2009-09-27T11:33:19Z</time>
      </trkpt>
      <trkpt lat="48.32378" lon="7.02413">
        <ele>570</ele>
        <time>2009-09-27T11:33:24Z</time>
      </trkpt>
      <trkpt lat="48.32378" lon="7.02413">
        <ele>570</ele>
        <time>2009-09-27T11:33:28Z</time>
      </trkpt>
      <trkpt lat="48.32378" lon="7.02413">
        <ele>570</ele>
        <time>2009-09-27T11:33:32Z</time>
      </trkpt>
      <trkpt lat="48.32379" lon="7.02413">
        <ele>570</ele>
        <time>2009-09-27T11:33:36Z</time>
      </trkpt>
      <trkpt lat="48.32379" lon="7.02413">
        <ele>570</ele>
        <time>2009-09-27T11:33:40Z</time>
      </trkpt>
      <trkpt lat="48.32379" lon="7.02413">
        <ele>570</ele>
        <time>2009-09-27T11:33:44Z</time>
      </trkpt>
      <trkpt lat="48.32379" lon="7.02413">
        <ele>570</ele>
        <time>2009-09-27T11:33:48Z</time>
      </trkpt>
      <trkpt lat="48.32378" lon="7.02413">
        <ele>570</ele>
        <time>2009-09-27T11:33:52Z</time>
      </trkpt>
      <trkpt lat="48.32378" lon="7.02414">
        <ele>570</ele>
        <time>2009-09-27T11:33:56Z</time>
      </trkpt>
      <trkpt lat="48.32378" lon="7.02413">
        <ele>570</ele>
        <time>2009-09-27T11:34:00Z</time>
      </trkpt>
      <trkpt lat="48.3238" lon="7.02413">
        <ele>570</ele>
        <time>2009-09-27T11:34:04Z</time>
      </trkpt>
      <trkpt lat="48.32379" lon="7.02415">
        <ele>570</ele>
        <time>2009-09-27T11:34:08Z</time>
      </trkpt>
      <trkpt lat="48.32379" lon="7.02415">
        <ele>570</ele>
        <time>2009-09-27T11:34:12Z</time>
      </trkpt>
      <trkpt lat="48.3238" lon="7.02415">
        <ele>570</ele>
        <time>2009-09-27T11:34:17Z</time>
      </trkpt>
      <trkpt lat="48.32379" lon="7.02413">
        <ele>570</ele>
        <time>2009-09-27T11:34:22Z</time>
      </trkpt>
      <trkpt lat="48.32379" lon="7.02413">
        <ele>570</ele>
        <time>2009-09-27T11:34:26Z</time>
      </trkpt>
      <trkpt lat="48.32377" lon="7.02415">
        <ele>570</ele>
        <time>2009-09-27T11:34:30Z</time>
      </trkpt>
      <trkpt lat="48.32377" lon="7.02415">
        <ele>570</ele>
        <time>2009-09-27T11:34:34Z</time>
      </trkpt>
      <trkpt lat="48.32377" lon="7.02414">
        <ele>570</ele>
        <time>2009-09-27T11:34:38Z</time>
      </trkpt>
      <trkpt lat="48.32377" lon="7.02414">
        <ele>570</ele>
        <time>2009-09-27T11:34:42Z</time>
      </trkpt>
      <trkpt lat="48.32378" lon="7.02414">
        <ele>570</ele>
        <time>2009-09-27T11:34:46Z</time>
      </trkpt>
      <trkpt lat="48.32376" lon="7.02415">
        <ele>570</ele>
        <time>2009-09-27T11:34:50Z</time>
      </trkpt>
      <trkpt lat="48.32376" lon="7.02415">
        <ele>570</ele>
        <time>2009-09-27T11:34:54Z</time>
      </trkpt>
      <trkpt lat="48.32375" lon="7.02416">
        <ele>570</ele>
        <time>2009-09-27T11:34:58Z</time>
      </trkpt>
      <trkpt lat="48.32378" lon="7.02415">
        <ele>570</ele>
        <time>2009-09-27T11:35:02Z</time>
      </trkpt>
      <trkpt lat="48.32376" lon="7.02416">
        <ele>570</ele>
        <time>2009-09-27T11:35:06Z</time>
      </trkpt>
      <trkpt lat="48.3238" lon="7.0242">
        <ele>571</ele>
        <time>2009-09-27T11:35:10Z</time>
      </trkpt>
      <trkpt lat="48.3239" lon="7.02424">
        <ele>570</ele>
        <time>2009-09-27T11:35:14Z</time>
      </trkpt>
      <trkpt lat="48.32404" lon="7.02422">
        <ele>568</ele>
        <time>2009-09-27T11:35:18Z</time>
      </trkpt>
      <trkpt lat="48.32422" lon="7.02408">
        <ele>566</ele>
        <time>2009-09-27T11:35:22Z</time>
      </trkpt>
      <trkpt lat="48.3244" lon="7.02392">
        <ele>566</ele>
        <time>2009-09-27T11:35:26Z</time>
      </trkpt>
      <trkpt lat="48.32459" lon="7.02378">
        <ele>566</ele>
        <time>2009-09-27T11:35:31Z</time>
      </trkpt>
      <trkpt lat="48.32479" lon="7.02365">
        <ele>566</ele>
        <time>2009-09-27T11:35:35Z</time>
      </trkpt>
      <trkpt lat="48.32499" lon="7.02348">
        <ele>565</ele>
        <time>2009-09-27T11:35:39Z</time>
      </trkpt>
      <trkpt lat="48.32506" lon="7.0232">
        <ele>566</ele>
        <time>2009-09-27T11:35:43Z</time>
      </trkpt>
      <trkpt lat="48.325" lon="7.02289">
        <ele>566</ele>
        <time>2009-09-27T11:35:47Z</time>
      </trkpt>
      <trkpt lat="48.32494" lon="7.02253">
        <ele>564</ele>
        <time>2009-09-27T11:35:51Z</time>
      </trkpt>
      <trkpt lat="48.32493" lon="7.02213">
        <ele>564</ele>
        <time>2009-09-27T11:35:55Z</time>
      </trkpt>
      <trkpt lat="48.32498" lon="7.02174">
        <ele>565</ele>
        <time>2009-09-27T11:35:59Z</time>
      </trkpt>
      <trkpt lat="48.32501" lon="7.02132">
        <ele>567</ele>
        <time>2009-09-27T11:36:03Z</time>
      </trkpt>
      <trkpt lat="48.32509" lon="7.0209">
        <ele>563</ele>
        <time>2009-09-27T11:36:07Z</time>
      </trkpt>
      <trkpt lat="48.32521" lon="7.02053">
        <ele>562</ele>
        <time>2009-09-27T11:36:11Z</time>
      </trkpt>
      <trkpt lat="48.32534" lon="7.02023">
        <ele>562</ele>
        <time>2009-09-27T11:36:15Z</time>
      </trkpt>
      <trkpt lat="48.32546" lon="7.01996">
        <ele>559</ele>
        <time>2009-09-27T11:36:19Z</time>
      </trkpt>
      <trkpt lat="48.3256" lon="7.01969">
        <ele>560</ele>
        <time>2009-09-27T11:36:23Z</time>
      </trkpt>
      <trkpt lat="48.32575" lon="7.01935">
        <ele>560</ele>
        <time>2009-09-27T11:36:27Z</time>
      </trkpt>
      <trkpt lat="48.32591" lon="7.01905">
        <ele>566</ele>
        <time>2009-09-27T11:36:31Z</time>
      </trkpt>
      <trkpt lat="48.32608" lon="7.01869">
        <ele>567</ele>
        <time>2009-09-27T11:36:35Z</time>
      </trkpt>
      <trkpt lat="48.32619" lon="7.01829">
        <ele>561</ele>
        <time>2009-09-27T11:36:40Z</time>
      </trkpt>
      <trkpt lat="48.32632" lon="7.01791">
        <ele>561</ele>
        <time>2009-09-27T11:36:44Z</time>
      </trkpt>
      <trkpt lat="48.32641" lon="7.01752">
        <ele>560</ele>
        <time>2009-09-27T11:36:48Z</time>
      </trkpt>
      <trkpt lat="48.32658" lon="7.01719">
        <ele>555</ele>
        <time>2009-09-27T11:36:52Z</time>
      </trkpt>
      <trkpt lat="48.32677" lon="7.0169">
        <ele>565</ele>
        <time>2009-09-27T11:36:56Z</time>
      </trkpt>
      <trkpt lat="48.32676" lon="7.01646">
        <ele>561</ele>
        <time>2009-09-27T11:37:00Z</time>
      </trkpt>
      <trkpt lat="48.32672" lon="7.01609">
        <ele>558</ele>
        <time>2009-09-27T11:37:04Z</time>
      </trkpt>
      <trkpt lat="48.32691" lon="7.01574">
        <ele>553</ele>
        <time>2009-09-27T11:37:08Z</time>
      </trkpt>
      <trkpt lat="48.32712" lon="7.01532">
        <ele>554</ele>
        <time>2009-09-27T11:37:12Z</time>
      </trkpt>
      <trkpt lat="48.3274" lon="7.0149">
        <ele>551</ele>
        <time>2009-09-27T11:37:16Z</time>
      </trkpt>
      <trkpt lat="48.32768" lon="7.01451">
        <ele>551</ele>
        <time>2009-09-27T11:37:20Z</time>
      </trkpt>
      <trkpt lat="48.32801" lon="7.0142">
        <ele>551</ele>
        <time>2009-09-27T11:37:24Z</time>
      </trkpt>
      <trkpt lat="48.32836" lon="7.01384">
        <ele>549</ele>
        <time>2009-09-27T11:37:28Z</time>
      </trkpt>
      <trkpt lat="48.32858" lon="7.01347">
        <ele>548</ele>
        <time>2009-09-27T11:37:32Z</time>
      </trkpt>
      <trkpt lat="48.32873" lon="7.0131">
        <ele>545</ele>
        <time>2009-09-27T11:37:36Z</time>
      </trkpt>
      <trkpt lat="48.32886" lon="7.01281">
        <ele>545</ele>
        <time>2009-09-27T11:37:40Z</time>
      </trkpt>
      <trkpt lat="48.32888" lon="7.01258">
        <ele>545</ele>
        <time>2009-09-27T11:37:44Z</time>
      </trkpt>
      <trkpt lat="48.32881" lon="7.0122">
        <ele>542</ele>
        <time>2009-09-27T11:37:48Z</time>
      </trkpt>
      <trkpt lat="48.32878" lon="7.01197">
        <ele>542</ele>
        <time>2009-09-27T11:37:52Z</time>
      </trkpt>
      <trkpt lat="48.3288" lon="7.0118">
        <ele>542</ele>
        <time>2009-09-27T11:37:56Z</time>
      </trkpt>
      <trkpt lat="48.32885" lon="7.01158">
        <ele>540</ele>
        <time>2009-09-27T11:38:00Z</time>
      </trkpt>
      <trkpt lat="48.32889" lon="7.0113">
        <ele>539</ele>
        <time>2009-09-27T11:38:04Z</time>
      </trkpt>
      <trkpt lat="48.32897" lon="7.01101">
        <ele>539</ele>
        <time>2009-09-27T11:38:08Z</time>
      </trkpt>
      <trkpt lat="48.32904" lon="7.0107">
        <ele>538</ele>
        <time>2009-09-27T11:38:13Z</time>
      </trkpt>
      <trkpt lat="48.32911" lon="7.01042">
        <ele>537</ele>
        <time>2009-09-27T11:38:17Z</time>
      </trkpt>
      <trkpt lat="48.32917" lon="7.01014">
        <ele>540</ele>
        <time>2009-09-27T11:38:21Z</time>
      </trkpt>
      <trkpt lat="48.32919" lon="7.00975">
        <ele>551</ele>
        <time>2009-09-27T11:38:25Z</time>
      </trkpt>
      <trkpt lat="48.3292" lon="7.00934">
        <ele>549</ele>
        <time>2009-09-27T11:38:29Z</time>
      </trkpt>
      <trkpt lat="48.32921" lon="7.00893">
        <ele>549</ele>
        <time>2009-09-27T11:38:33Z</time>
      </trkpt>
      <trkpt lat="48.32922" lon="7.00849">
        <ele>546</ele>
        <time>2009-09-27T11:38:37Z</time>
      </trkpt>
      <trkpt lat="48.3292" lon="7.00806">
        <ele>547</ele>
        <time>2009-09-27T11:38:41Z</time>
      </trkpt>
      <trkpt lat="48.3292" lon="7.00769">
        <ele>545</ele>
        <time>2009-09-27T11:38:45Z</time>
      </trkpt>
      <trkpt lat="48.32923" lon="7.00729">
        <ele>544</ele>
        <time>2009-09-27T11:38:49Z</time>
      </trkpt>
      <trkpt lat="48.32931" lon="7.00683">
        <ele>543</ele>
        <time>2009-09-27T11:38:53Z</time>
      </trkpt>
      <trkpt lat="48.32927" lon="7.00637">
        <ele>541</ele>
        <time>2009-09-27T11:38:57Z</time>
      </trkpt>
      <trkpt lat="48.32915" lon="7.00591">
        <ele>523</ele>
        <time>2009-09-27T11:39:01Z</time>
      </trkpt>
      <trkpt lat="48.3292" lon="7.00548">
        <ele>536</ele>
        <time>2009-09-27T11:39:05Z</time>
      </trkpt>
      <trkpt lat="48.32928" lon="7.00499">
        <ele>531</ele>
        <time>2009-09-27T11:39:09Z</time>
      </trkpt>
      <trkpt lat="48.32937" lon="7.00452">
        <ele>535</ele>
        <time>2009-09-27T11:39:13Z</time>
      </trkpt>
      <trkpt lat="48.32943" lon="7.00403">
        <ele>530</ele>
        <time>2009-09-27T11:39:17Z</time>
      </trkpt>
      <trkpt lat="48.32935" lon="7.00352">
        <ele>526</ele>
        <time>2009-09-27T11:39:21Z</time>
      </trkpt>
      <trkpt lat="48.32921" lon="7.00305">
        <ele>519</ele>
        <time>2009-09-27T11:39:25Z</time>
      </trkpt>
      <trkpt lat="48.32924" lon="7.00267">
        <ele>515</ele>
        <time>2009-09-27T11:39:29Z</time>
      </trkpt>
      <trkpt lat="48.32939" lon="7.00228">
        <ele>512</ele>
        <time>2009-09-27T11:39:33Z</time>
      </trkpt>
      <trkpt lat="48.32957" lon="7.00176">
        <ele>513</ele>
        <time>2009-09-27T11:39:37Z</time>
      </trkpt>
      <trkpt lat="48.32972" lon="7.00136">
        <ele>509</ele>
        <time>2009-09-27T11:39:42Z</time>
      </trkpt>
      <trkpt lat="48.32973" lon="7.00095">
        <ele>508</ele>
        <time>2009-09-27T11:39:46Z</time>
      </trkpt>
      <trkpt lat="48.32976" lon="7.00052">
        <ele>501</ele>
        <time>2009-09-27T11:39:50Z</time>
      </trkpt>
      <trkpt lat="48.3298" lon="7.00005">
        <ele>502</ele>
        <time>2009-09-27T11:39:54Z</time>
      </trkpt>
      <trkpt lat="48.32987" lon="6.99959">
        <ele>495</ele>
        <time>2009-09-27T11:39:58Z</time>
      </trkpt>
      <trkpt lat="48.32993" lon="6.99908">
        <ele>495</ele>
        <time>2009-09-27T11:40:02Z</time>
      </trkpt>
      <trkpt lat="48.32996" lon="6.9985">
        <ele>489</ele>
        <time>2009-09-27T11:40:06Z</time>
      </trkpt>
      <trkpt lat="48.33005" lon="6.99803">
        <ele>494</ele>
        <time>2009-09-27T11:40:10Z</time>
      </trkpt>
      <trkpt lat="48.33014" lon="6.99758">
        <ele>491</ele>
        <time>2009-09-27T11:40:14Z</time>
      </trkpt>
      <trkpt lat="48.33019" lon="6.99709">
        <ele>487</ele>
        <time>2009-09-27T11:40:18Z</time>
      </trkpt>
      <trkpt lat="48.3303" lon="6.99661">
        <ele>481</ele>
        <time>2009-09-27T11:40:22Z</time>
      </trkpt>
      <trkpt lat="48.33062" lon="6.99625">
        <ele>480</ele>
        <time>2009-09-27T11:40:26Z</time>
      </trkpt>
      <trkpt lat="48.33078" lon="6.99584">
        <ele>477</ele>
        <time>2009-09-27T11:40:30Z</time>
      </trkpt>
      <trkpt lat="48.3306" lon="6.99547">
        <ele>467</ele>
        <time>2009-09-27T11:40:34Z</time>
      </trkpt>
      <trkpt lat="48.33058" lon="6.99521">
        <ele>464</ele>
        <time>2009-09-27T11:40:38Z</time>
      </trkpt>
      <trkpt lat="48.33056" lon="6.99488">
        <ele>454</ele>
        <time>2009-09-27T11:40:42Z</time>
      </trkpt>
      <trkpt lat="48.33074" lon="6.99482">
        <ele>455</ele>
        <time>2009-09-27T11:40:46Z</time>
      </trkpt>
      <trkpt lat="48.33097" lon="6.99474">
        <ele>449</ele>
        <time>2009-09-27T11:40:50Z</time>
      </trkpt>
      <trkpt lat="48.33108" lon="6.99449">
        <ele>445</ele>
        <time>2009-09-27T11:40:54Z</time>
      </trkpt>
      <trkpt lat="48.33116" lon="6.99422">
        <ele>444</ele>
        <time>2009-09-27T11:40:58Z</time>
      </trkpt>
      <trkpt lat="48.33104" lon="6.99393">
        <ele>437</ele>
        <time>2009-09-27T11:41:02Z</time>
      </trkpt>
      <trkpt lat="48.33088" lon="6.99377">
        <ele>436</ele>
        <time>2009-09-27T11:41:06Z</time>
      </trkpt>
      <trkpt lat="48.33065" lon="6.99358">
        <ele>439</ele>
        <time>2009-09-27T11:41:10Z</time>
      </trkpt>
      <trkpt lat="48.33047" lon="6.99338">
        <ele>439</ele>
        <time>2009-09-27T11:41:15Z</time>
      </trkpt>
      <trkpt lat="48.33028" lon="6.9932">
        <ele>436</ele>
        <time>2009-09-27T11:41:19Z</time>
      </trkpt>
      <trkpt lat="48.33014" lon="6.99304">
        <ele>437</ele>
        <time>2009-09-27T11:41:23Z</time>
      </trkpt>
      <trkpt lat="48.33002" lon="6.99294">
        <ele>437</ele>
        <time>2009-09-27T11:41:27Z</time>
      </trkpt>
      <trkpt lat="48.33001" lon="6.99289">
        <ele>436</ele>
        <time>2009-09-27T11:41:31Z</time>
      </trkpt>
      <trkpt lat="48.32998" lon="6.99275">
        <ele>439</ele>
        <time>2009-09-27T11:41:35Z</time>
      </trkpt>
      <trkpt lat="48.32993" lon="6.99262">
        <ele>439</ele>
        <time>2009-09-27T11:41:39Z</time>
      </trkpt>
      <trkpt lat="48.32987" lon="6.99254">
        <ele>439</ele>
        <time>2009-09-27T11:41:43Z</time>
      </trkpt>
      <trkpt lat="48.32982" lon="6.99267">
        <ele>438</ele>
        <time>2009-09-27T11:41:47Z</time>
      </trkpt>
      <trkpt lat="48.32972" lon="6.99267">
        <ele>438</ele>
        <time>2009-09-27T11:41:51Z</time>
      </trkpt>
      <trkpt lat="48.32961" lon="6.99258">
        <ele>438</ele>
        <time>2009-09-27T11:41:55Z</time>
      </trkpt>
      <trkpt lat="48.32953" lon="6.99249">
        <ele>437</ele>
        <time>2009-09-27T11:41:59Z</time>
      </trkpt>
      <trkpt lat="48.32948" lon="6.99248">
        <ele>437</ele>
        <time>2009-09-27T11:42:03Z</time>
      </trkpt>
      <trkpt lat="48.32964" lon="6.99248">
        <ele>438</ele>
        <time>2009-09-27T11:42:08Z</time>
      </trkpt>
      <trkpt lat="48.32976" lon="6.9924">
        <ele>438</ele>
        <time>2009-09-27T11:42:12Z</time>
      </trkpt>
      <trkpt lat="48.32987" lon="6.99226">
        <ele>438</ele>
        <time>2009-09-27T11:42:16Z</time>
      </trkpt>
      <trkpt lat="48.32996" lon="6.992">
        <ele>437</ele>
        <time>2009-09-27T11:42:20Z</time>
      </trkpt>
      <trkpt lat="48.32993" lon="6.9917">
        <ele>437</ele>
        <time>2009-09-27T11:42:24Z</time>
      </trkpt>
      <trkpt lat="48.32998" lon="6.99138">
        <ele>434</ele>
        <time>2009-09-27T11:42:28Z</time>
      </trkpt>
      <trkpt lat="48.33001" lon="6.99109">
        <ele>427</ele>
        <time>2009-09-27T11:42:32Z</time>
      </trkpt>
      <trkpt lat="48.32996" lon="6.99074">
        <ele>428</ele>
        <time>2009-09-27T11:42:36Z</time>
      </trkpt>
      <trkpt lat="48.32983" lon="6.99055">
        <ele>430</ele>
        <time>2009-09-27T11:42:40Z</time>
      </trkpt>
      <trkpt lat="48.32967" lon="6.99051">
        <ele>431</ele>
        <time>2009-09-27T11:42:44Z</time>
      </trkpt>
      <trkpt lat="48.32957" lon="6.99052">
        <ele>432</ele>
        <time>2009-09-27T11:42:48Z</time>
      </trkpt>
      <trkpt lat="48.32949" lon="6.9906">
        <ele>432</ele>
        <time>2009-09-27T11:42:52Z</time>
      </trkpt>
      <trkpt lat="48.32943" lon="6.99067">
        <ele>433</ele>
        <time>2009-09-27T11:42:56Z</time>
      </trkpt>
      <trkpt lat="48.32936" lon="6.99077">
        <ele>433</ele>
        <time>2009-09-27T11:43:00Z</time>
      </trkpt>
      <trkpt lat="48.32933" lon="6.99086">
        <ele>434</ele>
        <time>2009-09-27T11:43:04Z</time>
      </trkpt>
      <trkpt lat="48.32931" lon="6.99093">
        <ele>434</ele>
        <time>2009-09-27T11:43:08Z</time>
      </trkpt>
      <trkpt lat="48.32927" lon="6.99105">
        <ele>434</ele>
        <time>2009-09-27T11:43:12Z</time>
      </trkpt>
      <trkpt lat="48.32921" lon="6.99115">
        <ele>434</ele>
        <time>2009-09-27T11:43:16Z</time>
      </trkpt>
      <trkpt lat="48.32918" lon="6.99122">
        <ele>434</ele>
        <time>2009-09-27T11:43:20Z</time>
      </trkpt>
      <trkpt lat="48.32913" lon="6.99126">
        <ele>439</ele>
        <time>2009-09-27T11:43:24Z</time>
      </trkpt>
      <trkpt lat="48.32908" lon="6.99133">
        <ele>439</ele>
        <time>2009-09-27T11:43:28Z</time>
      </trkpt>
      <trkpt lat="48.329" lon="6.99143">
        <ele>439</ele>
        <time>2009-09-27T11:43:32Z</time>
      </trkpt>
      <trkpt lat="48.32898" lon="6.99151">
        <ele>439</ele>
        <time>2009-09-27T11:43:36Z</time>
      </trkpt>
      <trkpt lat="48.32895" lon="6.99161">
        <ele>439</ele>
        <time>2009-09-27T11:43:41Z</time>
      </trkpt>
      <trkpt lat="48.32893" lon="6.99166">
        <ele>439</ele>
        <time>2009-09-27T11:43:45Z</time>
      </trkpt>
      <trkpt lat="48.32891" lon="6.99172">
        <ele>440</ele>
        <time>2009-09-27T11:43:49Z</time>
      </trkpt>
      <trkpt lat="48.32889" lon="6.99177">
        <ele>440</ele>
        <time>2009-09-27T11:43:53Z</time>
      </trkpt>
      <trkpt lat="48.32888" lon="6.99183">
        <ele>440</ele>
        <time>2009-09-27T11:43:57Z</time>
      </trkpt>
      <trkpt lat="48.3289" lon="6.99189">
        <ele>440</ele>
        <time>2009-09-27T11:44:01Z</time>
      </trkpt>
      <trkpt lat="48.32887" lon="6.99191">
        <ele>441</ele>
        <time>2009-09-27T11:44:05Z</time>
      </trkpt>
      <trkpt lat="48.32882" lon="6.99195">
        <ele>441</ele>
        <time>2009-09-27T11:44:09Z</time>
      </trkpt>
      <trkpt lat="48.3288" lon="6.992">
        <ele>441</ele>
        <time>2009-09-27T11:44:13Z</time>
      </trkpt>
      <trkpt lat="48.32878" lon="6.99206">
        <ele>442</ele>
        <time>2009-09-27T11:44:17Z</time>
      </trkpt>
      <trkpt lat="48.32875" lon="6.9921">
        <ele>442</ele>
        <time>2009-09-27T11:44:21Z</time>
      </trkpt>
      <trkpt lat="48.3287" lon="6.99213">
        <ele>442</ele>
        <time>2009-09-27T11:44:25Z</time>
      </trkpt>
      <trkpt lat="48.32864" lon="6.99215">
        <ele>443</ele>
        <time>2009-09-27T11:44:29Z</time>
      </trkpt>
      <trkpt lat="48.32861" lon="6.99217">
        <ele>443</ele>
        <time>2009-09-27T11:44:33Z</time>
      </trkpt>
      <trkpt lat="48.32858" lon="6.9922">
        <ele>443</ele>
        <time>2009-09-27T11:44:37Z</time>
      </trkpt>
      <trkpt lat="48.32855" lon="6.9922">
        <ele>443</ele>
        <time>2009-09-27T11:44:41Z</time>
      </trkpt>
      <trkpt lat="48.32849" lon="6.99223">
        <ele>444</ele>
        <time>2009-09-27T11:44:45Z</time>
      </trkpt>
      <trkpt lat="48.32841" lon="6.9923">
        <ele>445</ele>
        <time>2009-09-27T11:44:49Z</time>
      </trkpt>
      <trkpt lat="48.32834" lon="6.99239">
        <ele>447</ele>
        <time>2009-09-27T11:44:53Z</time>
      </trkpt>
      <trkpt lat="48.32827" lon="6.99248">
        <ele>449</ele>
        <time>2009-09-27T11:44:57Z</time>
      </trkpt>
      <trkpt lat="48.32821" lon="6.99253">
        <ele>450</ele>
        <time>2009-09-27T11:45:01Z</time>
      </trkpt>
      <trkpt lat="48.32814" lon="6.99261">
        <ele>451</ele>
        <time>2009-09-27T11:45:06Z</time>
      </trkpt>
      <trkpt lat="48.3281" lon="6.99269">
        <ele>451</ele>
        <time>2009-09-27T11:45:10Z</time>
      </trkpt>
      <trkpt lat="48.32801" lon="6.99278">
        <ele>451</ele>
        <time>2009-09-27T11:45:14Z</time>
      </trkpt>
      <trkpt lat="48.32798" lon="6.99282">
        <ele>451</ele>
        <time>2009-09-27T11:45:18Z</time>
      </trkpt>
      <trkpt lat="48.32799" lon="6.9929">
        <ele>451</ele>
        <time>2009-09-27T11:45:22Z</time>
      </trkpt>
      <trkpt lat="48.32796" lon="6.99297">
        <ele>451</ele>
        <time>2009-09-27T11:45:26Z</time>
      </trkpt>
      <trkpt lat="48.3279" lon="6.99302">
        <ele>452</ele>
        <time>2009-09-27T11:45:30Z</time>
      </trkpt>
      <trkpt lat="48.32789" lon="6.99308">
        <ele>452</ele>
        <time>2009-09-27T11:45:34Z</time>
      </trkpt>
      <trkpt lat="48.32791" lon="6.99315">
        <ele>452</ele>
        <time>2009-09-27T11:45:38Z</time>
      </trkpt>
      <trkpt lat="48.3279" lon="6.99323">
        <ele>452</ele>
        <time>2009-09-27T11:45:42Z</time>
      </trkpt>
      <trkpt lat="48.32789" lon="6.99338">
        <ele>454</ele>
        <time>2009-09-27T11:45:48Z</time>
      </trkpt>
      <trkpt lat="48.3279" lon="6.99344">
        <ele>454</ele>
        <time>2009-09-27T11:45:52Z</time>
      </trkpt>
      <trkpt lat="48.32786" lon="6.99351">
        <ele>454</ele>
        <time>2009-09-27T11:45:56Z</time>
      </trkpt>
      <trkpt lat="48.32784" lon="6.99359">
        <ele>454</ele>
        <time>2009-09-27T11:46:01Z</time>
      </trkpt>
      <trkpt lat="48.32781" lon="6.99366">
        <ele>454</ele>
        <time>2009-09-27T11:46:05Z</time>
      </trkpt>
      <trkpt lat="48.32777" lon="6.99373">
        <ele>454</ele>
        <time>2009-09-27T11:46:09Z</time>
      </trkpt>
      <trkpt lat="48.32775" lon="6.99379">
        <ele>454</ele>
        <time>2009-09-27T11:46:13Z</time>
      </trkpt>
      <trkpt lat="48.32769" lon="6.99383">
        <ele>455</ele>
        <time>2009-09-27T11:46:17Z</time>
      </trkpt>
      <trkpt lat="48.32767" lon="6.9939">
        <ele>455</ele>
        <time>2009-09-27T11:46:21Z</time>
      </trkpt>
      <trkpt lat="48.32764" lon="6.99397">
        <ele>456</ele>
        <time>2009-09-27T11:46:25Z</time>
      </trkpt>
      <trkpt lat="48.32764" lon="6.99401">
        <ele>456</ele>
        <time>2009-09-27T11:46:29Z</time>
      </trkpt>
      <trkpt lat="48.32762" lon="6.99409">
        <ele>457</ele>
        <time>2009-09-27T11:46:33Z</time>
      </trkpt>
      <trkpt lat="48.32758" lon="6.99414">
        <ele>458</ele>
        <time>2009-09-27T11:46:37Z</time>
      </trkpt>
      <trkpt lat="48.32755" lon="6.99424">
        <ele>457</ele>
        <time>2009-09-27T11:46:41Z</time>
      </trkpt>
      <trkpt lat="48.32753" lon="6.99429">
        <ele>456</ele>
        <time>2009-09-27T11:46:45Z</time>
      </trkpt>
      <trkpt lat="48.3275" lon="6.99436">
        <ele>462</ele>
        <time>2009-09-27T11:46:49Z</time>
      </trkpt>
      <trkpt lat="48.32749" lon="6.99444">
        <ele>463</ele>
        <time>2009-09-27T11:46:53Z</time>
      </trkpt>
      <trkpt lat="48.32747" lon="6.9945">
        <ele>463</ele>
        <time>2009-09-27T11:46:57Z</time>
      </trkpt>
      <trkpt lat="48.32743" lon="6.99458">
        <ele>463</ele>
        <time>2009-09-27T11:47:01Z</time>
      </trkpt>
      <trkpt lat="48.32743" lon="6.99466">
        <ele>463</ele>
        <time>2009-09-27T11:47:05Z</time>
      </trkpt>
      <trkpt lat="48.3274" lon="6.99474">
        <ele>463</ele>
        <time>2009-09-27T11:47:09Z</time>
      </trkpt>
      <trkpt lat="48.32736" lon="6.99481">
        <ele>462</ele>
        <time>2009-09-27T11:47:13Z</time>
      </trkpt>
      <trkpt lat="48.32736" lon="6.99493">
        <ele>461</ele>
        <time>2009-09-27T11:47:17Z</time>
      </trkpt>
      <trkpt lat="48.32736" lon="6.99502">
        <ele>461</ele>
        <time>2009-09-27T11:47:21Z</time>
      </trkpt>
      <trkpt lat="48.32732" lon="6.99507">
        <ele>463</ele>
        <time>2009-09-27T11:47:26Z</time>
      </trkpt>
      <trkpt lat="48.3273" lon="6.99514">
        <ele>463</ele>
        <time>2009-09-27T11:47:30Z</time>
      </trkpt>
      <trkpt lat="48.32722" lon="6.99518">
        <ele>465</ele>
        <time>2009-09-27T11:47:34Z</time>
      </trkpt>
      <trkpt lat="48.32716" lon="6.99523">
        <ele>466</ele>
        <time>2009-09-27T11:47:38Z</time>
      </trkpt>
      <trkpt lat="48.32712" lon="6.99528">
        <ele>467</ele>
        <time>2009-09-27T11:47:42Z</time>
      </trkpt>
      <trkpt lat="48.32708" lon="6.99535">
        <ele>467</ele>
        <time>2009-09-27T11:47:46Z</time>
      </trkpt>
      <trkpt lat="48.32705" lon="6.99538">
        <ele>468</ele>
        <time>2009-09-27T11:47:50Z</time>
      </trkpt>
      <trkpt lat="48.32699" lon="6.99542">
        <ele>469</ele>
        <time>2009-09-27T11:47:54Z</time>
      </trkpt>
      <trkpt lat="48.32693" lon="6.99546">
        <ele>469</ele>
        <time>2009-09-27T11:47:58Z</time>
      </trkpt>
      <trkpt lat="48.32689" lon="6.99552">
        <ele>470</ele>
        <time>2009-09-27T11:48:02Z</time>
      </trkpt>
      <trkpt lat="48.32685" lon="6.99559">
        <ele>471</ele>
        <time>2009-09-27T11:48:06Z</time>
      </trkpt>
      <trkpt lat="48.32683" lon="6.99567">
        <ele>472</ele>
        <time>2009-09-27T11:48:11Z</time>
      </trkpt>
      <trkpt lat="48.32684" lon="6.99574">
        <ele>473</ele>
        <time>2009-09-27T11:48:15Z</time>
      </trkpt>
      <trkpt lat="48.32678" lon="6.99579">
        <ele>476</ele>
        <time>2009-09-27T11:48:19Z</time>
      </trkpt>
      <trkpt lat="48.32677" lon="6.99585">
        <ele>476</ele>
        <time>2009-09-27T11:48:23Z</time>
      </trkpt>
      <trkpt lat="48.32675" lon="6.99592">
        <ele>476</ele>
        <time>2009-09-27T11:48:27Z</time>
      </trkpt>
      <trkpt lat="48.32677" lon="6.99597">
        <ele>474</ele>
        <time>2009-09-27T11:48:31Z</time>
      </trkpt>
      <trkpt lat="48.32673" lon="6.99598">
        <ele>474</ele>
        <time>2009-09-27T11:48:35Z</time>
      </trkpt>
      <trkpt lat="48.32667" lon="6.99601">
        <ele>474</ele>
        <time>2009-09-27T11:48:39Z</time>
      </trkpt>
      <trkpt lat="48.32664" lon="6.99606">
        <ele>483</ele>
        <time>2009-09-27T11:48:43Z</time>
      </trkpt>
      <trkpt lat="48.3266" lon="6.9961">
        <ele>483</ele>
        <time>2009-09-27T11:48:47Z</time>
      </trkpt>
      <trkpt lat="48.32659" lon="6.99613">
        <ele>483</ele>
        <time>2009-09-27T11:48:51Z</time>
      </trkpt>
      <trkpt lat="48.32655" lon="6.99614">
        <ele>483</ele>
        <time>2009-09-27T11:48:55Z</time>
      </trkpt>
      <trkpt lat="48.32651" lon="6.99617">
        <ele>483</ele>
        <time>2009-09-27T11:49:00Z</time>
      </trkpt>
      <trkpt lat="48.32648" lon="6.99618">
        <ele>483</ele>
        <time>2009-09-27T11:49:05Z</time>
      </trkpt>
      <trkpt lat="48.32646" lon="6.99616">
        <ele>483</ele>
        <time>2009-09-27T11:49:09Z</time>
      </trkpt>
      <trkpt lat="48.32648" lon="6.99613">
        <ele>483</ele>
        <time>2009-09-27T11:49:13Z</time>
      </trkpt>
      <trkpt lat="48.32649" lon="6.99613">
        <ele>483</ele>
        <time>2009-09-27T11:49:17Z</time>
      </trkpt>
      <trkpt lat="48.32652" lon="6.99614">
        <ele>483</ele>
        <time>2009-09-27T11:49:21Z</time>
      </trkpt>
      <trkpt lat="48.32648" lon="6.99612">
        <ele>483</ele>
        <time>2009-09-27T11:49:25Z</time>
      </trkpt>
      <trkpt lat="48.32647" lon="6.99613">
        <ele>483</ele>
        <time>2009-09-27T11:49:29Z</time>
      </trkpt>
      <trkpt lat="48.32645" lon="6.9961">
        <ele>483</ele>
        <time>2009-09-27T11:49:33Z</time>
      </trkpt>
      <trkpt lat="48.32646" lon="6.99612">
        <ele>483</ele>
        <time>2009-09-27T11:49:37Z</time>
      </trkpt>
      <trkpt lat="48.32647" lon="6.99612">
        <ele>483</ele>
        <time>2009-09-27T11:49:41Z</time>
      </trkpt>
      <trkpt lat="48.32642" lon="6.99615">
        <ele>483</ele>
        <time>2009-09-27T11:49:45Z</time>
      </trkpt>
      <trkpt lat="48.32638" lon="6.99623">
        <ele>484</ele>
        <time>2009-09-27T11:49:49Z</time>
      </trkpt>
      <trkpt lat="48.32641" lon="6.99615">
        <ele>483</ele>
        <time>2009-09-27T11:49:53Z</time>
      </trkpt>
      <trkpt lat="48.32638" lon="6.99617">
        <ele>484</ele>
        <time>2009-09-27T11:49:57Z</time>
      </trkpt>
      <trkpt lat="48.32642" lon="6.99615">
        <ele>483</ele>
        <time>2009-09-27T11:50:01Z</time>
      </trkpt>
      <trkpt lat="48.32649" lon="6.99614">
        <ele>483</ele>
        <time>2009-09-27T11:50:05Z</time>
      </trkpt>
      <trkpt lat="48.32655" lon="6.99614">
        <ele>483</ele>
        <time>2009-09-27T11:50:09Z</time>
      </trkpt>
      <trkpt lat="48.32657" lon="6.99613">
        <ele>483</ele>
        <time>2009-09-27T11:50:14Z</time>
      </trkpt>
      <trkpt lat="48.32657" lon="6.99611">
        <ele>483</ele>
        <time>2009-09-27T11:50:18Z</time>
      </trkpt>
      <trkpt lat="48.32657" lon="6.9961">
        <ele>483</ele>
        <time>2009-09-27T11:50:22Z</time>
      </trkpt>
      <trkpt lat="48.32657" lon="6.9961">
        <ele>483</ele>
        <time>2009-09-27T11:50:26Z</time>
      </trkpt>
      <trkpt lat="48.32658" lon="6.9961">
        <ele>483</ele>
        <time>2009-09-27T11:50:30Z</time>
      </trkpt>
      <trkpt lat="48.32658" lon="6.99611">
        <ele>483</ele>
        <time>2009-09-27T11:50:34Z</time>
      </trkpt>
      <trkpt lat="48.32654" lon="6.99615">
        <ele>483</ele>
        <time>2009-09-27T11:50:38Z</time>
      </trkpt>
      <trkpt lat="48.32648" lon="6.99624">
        <ele>483</ele>
        <time>2009-09-27T11:50:42Z</time>
      </trkpt>
      <trkpt lat="48.32641" lon="6.99632">
        <ele>484</ele>
        <time>2009-09-27T11:50:46Z</time>
      </trkpt>
      <trkpt lat="48.3263" lon="6.99642">
        <ele>484</ele>
        <time>2009-09-27T11:50:50Z</time>
      </trkpt>
      <trkpt lat="48.32617" lon="6.99655">
        <ele>485</ele>
        <time>2009-09-27T11:50:54Z</time>
      </trkpt>
      <trkpt lat="48.32605" lon="6.99666">
        <ele>486</ele>
        <time>2009-09-27T11:50:58Z</time>
      </trkpt>
      <trkpt lat="48.32598" lon="6.9968">
        <ele>488</ele>
        <time>2009-09-27T11:51:02Z</time>
      </trkpt>
      <trkpt lat="48.32589" lon="6.99698">
        <ele>489</ele>
        <time>2009-09-27T11:51:06Z</time>
      </trkpt>
      <trkpt lat="48.32584" lon="6.9971">
        <ele>489</ele>
        <time>2009-09-27T11:51:10Z</time>
      </trkpt>
      <trkpt lat="48.32579" lon="6.9972">
        <ele>489</ele>
        <time>2009-09-27T11:51:15Z</time>
      </trkpt>
      <trkpt lat="48.32578" lon="6.99736">
        <ele>490</ele>
        <time>2009-09-27T11:51:19Z</time>
      </trkpt>
      <trkpt lat="48.32573" lon="6.99747">
        <ele>490</ele>
        <time>2009-09-27T11:51:23Z</time>
      </trkpt>
      <trkpt lat="48.32566" lon="6.99759">
        <ele>491</ele>
        <time>2009-09-27T11:51:27Z</time>
      </trkpt>
      <trkpt lat="48.32561" lon="6.9977">
        <ele>490</ele>
        <time>2009-09-27T11:51:31Z</time>
      </trkpt>
      <trkpt lat="48.32557" lon="6.99782">
        <ele>490</ele>
        <time>2009-09-27T11:51:35Z</time>
      </trkpt>
      <trkpt lat="48.32553" lon="6.99793">
        <ele>490</ele>
        <time>2009-09-27T11:51:39Z</time>
      </trkpt>
      <trkpt lat="48.32544" lon="6.99805">
        <ele>490</ele>
        <time>2009-09-27T11:51:43Z</time>
      </trkpt>
      <trkpt lat="48.32538" lon="6.99824">
        <ele>490</ele>
        <time>2009-09-27T11:51:47Z</time>
      </trkpt>
      <trkpt lat="48.32535" lon="6.99844">
        <ele>493</ele>
        <time>2009-09-27T11:51:51Z</time>
      </trkpt>
      <trkpt lat="48.3253" lon="6.99874">
        <ele>494</ele>
        <time>2009-09-27T11:51:57Z</time>
      </trkpt>
      <trkpt lat="48.32526" lon="6.99904">
        <ele>494</ele>
        <time>2009-09-27T11:52:01Z</time>
      </trkpt>
      <trkpt lat="48.32521" lon="6.99924">
        <ele>497</ele>
        <time>2009-09-27T11:52:06Z</time>
      </trkpt>
      <trkpt lat="48.32509" lon="6.99935">
        <ele>497</ele>
        <time>2009-09-27T11:52:10Z</time>
      </trkpt>
      <trkpt lat="48.32504" lon="6.99944">
        <ele>497</ele>
        <time>2009-09-27T11:52:14Z</time>
      </trkpt>
      <trkpt lat="48.32501" lon="6.99953">
        <ele>498</ele>
        <time>2009-09-27T11:52:18Z</time>
      </trkpt>
      <trkpt lat="48.32498" lon="6.99963">
        <ele>499</ele>
        <time>2009-09-27T11:52:22Z</time>
      </trkpt>
      <trkpt lat="48.32496" lon="6.99976">
        <ele>499</ele>
        <time>2009-09-27T11:52:26Z</time>
      </trkpt>
      <trkpt lat="48.32491" lon="6.99987">
        <ele>499</ele>
        <time>2009-09-27T11:52:30Z</time>
      </trkpt>
      <trkpt lat="48.32489" lon="7.00002">
        <ele>500</ele>
        <time>2009-09-27T11:52:34Z</time>
      </trkpt>
      <trkpt lat="48.32485" lon="7.00015">
        <ele>502</ele>
        <time>2009-09-27T11:52:38Z</time>
      </trkpt>
      <trkpt lat="48.32482" lon="7.00028">
        <ele>503</ele>
        <time>2009-09-27T11:52:42Z</time>
      </trkpt>
      <trkpt lat="48.3248" lon="7.00043">
        <ele>503</ele>
        <time>2009-09-27T11:52:46Z</time>
      </trkpt>
      <trkpt lat="48.32472" lon="7.00066">
        <ele>504</ele>
        <time>2009-09-27T11:52:52Z</time>
      </trkpt>
      <trkpt lat="48.3247" lon="7.00083">
        <ele>504</ele>
        <time>2009-09-27T11:52:56Z</time>
      </trkpt>
      <trkpt lat="48.32465" lon="7.00094">
        <ele>506</ele>
        <time>2009-09-27T11:53:01Z</time>
      </trkpt>
      <trkpt lat="48.32461" lon="7.00109">
        <ele>506</ele>
        <time>2009-09-27T11:53:05Z</time>
      </trkpt>
      <trkpt lat="48.32457" lon="7.00121">
        <ele>507</ele>
        <time>2009-09-27T11:53:09Z</time>
      </trkpt>
      <trkpt lat="48.32452" lon="7.00135">
        <ele>507</ele>
        <time>2009-09-27T11:53:13Z</time>
      </trkpt>
      <trkpt lat="48.32448" lon="7.00148">
        <ele>508</ele>
        <time>2009-09-27T11:53:17Z</time>
      </trkpt>
      <trkpt lat="48.32446" lon="7.00162">
        <ele>508</ele>
        <time>2009-09-27T11:53:21Z</time>
      </trkpt>
      <trkpt lat="48.32445" lon="7.00173">
        <ele>509</ele>
        <time>2009-09-27T11:53:25Z</time>
      </trkpt>
      <trkpt lat="48.32442" lon="7.00182">
        <ele>509</ele>
        <time>2009-09-27T11:53:29Z</time>
      </trkpt>
      <trkpt lat="48.32438" lon="7.00189">
        <ele>509</ele>
        <time>2009-09-27T11:53:33Z</time>
      </trkpt>
      <trkpt lat="48.32435" lon="7.00197">
        <ele>509</ele>
        <time>2009-09-27T11:53:37Z</time>
      </trkpt>
      <trkpt lat="48.32431" lon="7.00204">
        <ele>509</ele>
        <time>2009-09-27T11:53:41Z</time>
      </trkpt>
      <trkpt lat="48.32429" lon="7.00215">
        <ele>509</ele>
        <time>2009-09-27T11:53:46Z</time>
      </trkpt>
      <trkpt lat="48.32423" lon="7.00219">
        <ele>509</ele>
        <time>2009-09-27T11:53:50Z</time>
      </trkpt>
      <trkpt lat="48.3242" lon="7.00226">
        <ele>509</ele>
        <time>2009-09-27T11:53:54Z</time>
      </trkpt>
      <trkpt lat="48.32417" lon="7.00234">
        <ele>510</ele>
        <time>2009-09-27T11:53:58Z</time>
      </trkpt>
      <trkpt lat="48.32416" lon="7.00241">
        <ele>514</ele>
        <time>2009-09-27T11:54:02Z</time>
      </trkpt>
      <trkpt lat="48.32411" lon="7.00243">
        <ele>514</ele>
        <time>2009-09-27T11:54:06Z</time>
      </trkpt>
      <trkpt lat="48.32406" lon="7.00246">
        <ele>515</ele>
        <time>2009-09-27T11:54:10Z</time>
      </trkpt>
      <trkpt lat="48.32399" lon="7.00246">
        <ele>516</ele>
        <time>2009-09-27T11:54:14Z</time>
      </trkpt>
      <trkpt lat="48.32393" lon="7.00246">
        <ele>517</ele>
        <time>2009-09-27T11:54:18Z</time>
      </trkpt>
      <trkpt lat="48.32386" lon="7.00248">
        <ele>518</ele>
        <time>2009-09-27T11:54:22Z</time>
      </trkpt>
      <trkpt lat="48.32381" lon="7.00248">
        <ele>519</ele>
        <time>2009-09-27T11:54:26Z</time>
      </trkpt>
      <trkpt lat="48.32373" lon="7.0025">
        <ele>520</ele>
        <time>2009-09-27T11:54:30Z</time>
      </trkpt>
      <trkpt lat="48.32366" lon="7.00249">
        <ele>521</ele>
        <time>2009-09-27T11:54:34Z</time>
      </trkpt>
      <trkpt lat="48.3236" lon="7.00248">
        <ele>522</ele>
        <time>2009-09-27T11:54:38Z</time>
      </trkpt>
      <trkpt lat="48.32354" lon="7.00245">
        <ele>523</ele>
        <time>2009-09-27T11:54:42Z</time>
      </trkpt>
      <trkpt lat="48.32348" lon="7.0024">
        <ele>523</ele>
        <time>2009-09-27T11:54:46Z</time>
      </trkpt>
      <trkpt lat="48.32346" lon="7.00232">
        <ele>523</ele>
        <time>2009-09-27T11:54:50Z</time>
      </trkpt>
      <trkpt lat="48.32349" lon="7.00222">
        <ele>522</ele>
        <time>2009-09-27T11:54:54Z</time>
      </trkpt>
      <trkpt lat="48.32348" lon="7.00206">
        <ele>522</ele>
        <time>2009-09-27T11:54:58Z</time>
      </trkpt>
      <trkpt lat="48.32346" lon="7.00197">
        <ele>522</ele>
        <time>2009-09-27T11:55:03Z</time>
      </trkpt>
      <trkpt lat="48.32342" lon="7.00192">
        <ele>523</ele>
        <time>2009-09-27T11:55:07Z</time>
      </trkpt>
      <trkpt lat="48.32337" lon="7.00189">
        <ele>523</ele>
        <time>2009-09-27T11:55:11Z</time>
      </trkpt>
      <trkpt lat="48.3233" lon="7.00191">
        <ele>532</ele>
        <time>2009-09-27T11:55:15Z</time>
      </trkpt>
      <trkpt lat="48.32326" lon="7.00192">
        <ele>533</ele>
        <time>2009-09-27T11:55:19Z</time>
      </trkpt>
      <trkpt lat="48.32323" lon="7.00188">
        <ele>533</ele>
        <time>2009-09-27T11:55:23Z</time>
      </trkpt>
      <trkpt lat="48.32318" lon="7.00188">
        <ele>533</ele>
        <time>2009-09-27T11:55:27Z</time>
      </trkpt>
      <trkpt lat="48.32308" lon="7.00188">
        <ele>535</ele>
        <time>2009-09-27T11:55:31Z</time>
      </trkpt>
      <trkpt lat="48.323" lon="7.00186">
        <ele>536</ele>
        <time>2009-09-27T11:55:35Z</time>
      </trkpt>
      <trkpt lat="48.32296" lon="7.00185">
        <ele>536</ele>
        <time>2009-09-27T11:55:39Z</time>
      </trkpt>
      <trkpt lat="48.32288" lon="7.00184">
        <ele>538</ele>
        <time>2009-09-27T11:55:43Z</time>
      </trkpt>
      <trkpt lat="48.32281" lon="7.00182">
        <ele>539</ele>
        <time>2009-09-27T11:55:47Z</time>
      </trkpt>
      <trkpt lat="48.32275" lon="7.00179">
        <ele>540</ele>
        <time>2009-09-27T11:55:51Z</time>
      </trkpt>
      <trkpt lat="48.32271" lon="7.00175">
        <ele>541</ele>
        <time>2009-09-27T11:55:55Z</time>
      </trkpt>
      <trkpt lat="48.32269" lon="7.00174">
        <ele>541</ele>
        <time>2009-09-27T11:55:59Z</time>
      </trkpt>
      <trkpt lat="48.32263" lon="7.0017">
        <ele>543</ele>
        <time>2009-09-27T11:56:03Z</time>
      </trkpt>
      <trkpt lat="48.3226" lon="7.00166">
        <ele>542</ele>
        <time>2009-09-27T11:56:08Z</time>
      </trkpt>
      <trkpt lat="48.32259" lon="7.00162">
        <ele>543</ele>
        <time>2009-09-27T11:56:12Z</time>
      </trkpt>
      <trkpt lat="48.32255" lon="7.00157">
        <ele>542</ele>
        <time>2009-09-27T11:56:16Z</time>
      </trkpt>
      <trkpt lat="48.3225" lon="7.00153">
        <ele>542</ele>
        <time>2009-09-27T11:56:20Z</time>
      </trkpt>
      <trkpt lat="48.32246" lon="7.00148">
        <ele>553</ele>
        <time>2009-09-27T11:56:24Z</time>
      </trkpt>
      <trkpt lat="48.32241" lon="7.00142">
        <ele>555</ele>
        <time>2009-09-27T11:56:28Z</time>
      </trkpt>
      <trkpt lat="48.32237" lon="7.00135">
        <ele>556</ele>
        <time>2009-09-27T11:56:32Z</time>
      </trkpt>
      <trkpt lat="48.32234" lon="7.00128">
        <ele>556</ele>
        <time>2009-09-27T11:56:36Z</time>
      </trkpt>
      <trkpt lat="48.3223" lon="7.00122">
        <ele>556</ele>
        <time>2009-09-27T11:56:40Z</time>
      </trkpt>
      <trkpt lat="48.32224" lon="7.00119">
        <ele>557</ele>
        <time>2009-09-27T11:56:44Z</time>
      </trkpt>
      <trkpt lat="48.32216" lon="7.00117">
        <ele>559</ele>
        <time>2009-09-27T11:56:48Z</time>
      </trkpt>
      <trkpt lat="48.32211" lon="7.00112">
        <ele>560</ele>
        <time>2009-09-27T11:56:52Z</time>
      </trkpt>
      <trkpt lat="48.32205" lon="7.00108">
        <ele>561</ele>
        <time>2009-09-27T11:56:57Z</time>
      </trkpt>
      <trkpt lat="48.32201" lon="7.00104">
        <ele>562</ele>
        <time>2009-09-27T11:57:01Z</time>
      </trkpt>
      <trkpt lat="48.322" lon="7.00099">
        <ele>562</ele>
        <time>2009-09-27T11:57:05Z</time>
      </trkpt>
      <trkpt lat="48.32201" lon="7.00096">
        <ele>562</ele>
        <time>2009-09-27T11:57:09Z</time>
      </trkpt>
      <trkpt lat="48.32199" lon="7.00088">
        <ele>562</ele>
        <time>2009-09-27T11:57:13Z</time>
      </trkpt>
      <trkpt lat="48.32192" lon="7.00084">
        <ele>564</ele>
        <time>2009-09-27T11:57:17Z</time>
      </trkpt>
      <trkpt lat="48.32185" lon="7.00092">
        <ele>566</ele>
        <time>2009-09-27T11:57:21Z</time>
      </trkpt>
      <trkpt lat="48.3218" lon="7.00106">
        <ele>566</ele>
        <time>2009-09-27T11:57:25Z</time>
      </trkpt>
      <trkpt lat="48.32179" lon="7.00118">
        <ele>566</ele>
        <time>2009-09-27T11:57:29Z</time>
      </trkpt>
      <trkpt lat="48.32173" lon="7.00129">
        <ele>567</ele>
        <time>2009-09-27T11:57:33Z</time>
      </trkpt>
      <trkpt lat="48.32177" lon="7.00145">
        <ele>569</ele>
        <time>2009-09-27T11:57:37Z</time>
      </trkpt>
      <trkpt lat="48.32177" lon="7.0016">
        <ele>573</ele>
        <time>2009-09-27T11:57:41Z</time>
      </trkpt>
      <trkpt lat="48.32181" lon="7.00175">
        <ele>573</ele>
        <time>2009-09-27T11:57:45Z</time>
      </trkpt>
      <trkpt lat="48.32183" lon="7.00188">
        <ele>570</ele>
        <time>2009-09-27T11:57:49Z</time>
      </trkpt>
      <trkpt lat="48.32182" lon="7.00192">
        <ele>570</ele>
        <time>2009-09-27T11:57:53Z</time>
      </trkpt>
      <trkpt lat="48.32185" lon="7.00203">
        <ele>569</ele>
        <time>2009-09-27T11:57:57Z</time>
      </trkpt>
      <trkpt lat="48.32182" lon="7.00214">
        <ele>569</ele>
        <time>2009-09-27T11:58:01Z</time>
      </trkpt>
      <trkpt lat="48.3218" lon="7.00217">
        <ele>569</ele>
        <time>2009-09-27T11:58:05Z</time>
      </trkpt>
      <trkpt lat="48.32181" lon="7.00223">
        <ele>570</ele>
        <time>2009-09-27T11:58:09Z</time>
      </trkpt>
      <trkpt lat="48.32178" lon="7.00226">
        <ele>571</ele>
        <time>2009-09-27T11:58:13Z</time>
      </trkpt>
      <trkpt lat="48.32176" lon="7.00225">
        <ele>571</ele>
        <time>2009-09-27T11:58:18Z</time>
      </trkpt>
      <trkpt lat="48.32184" lon="7.00217">
        <ele>569</ele>
        <time>2009-09-27T11:58:22Z</time>
      </trkpt>
      <trkpt lat="48.32185" lon="7.00207">
        <ele>568</ele>
        <time>2009-09-27T11:58:26Z</time>
      </trkpt>
      <trkpt lat="48.32183" lon="7.00194">
        <ele>569</ele>
        <time>2009-09-27T11:58:30Z</time>
      </trkpt>
      <trkpt lat="48.32177" lon="7.0018">
        <ele>573</ele>
        <time>2009-09-27T11:58:34Z</time>
      </trkpt>
      <trkpt lat="48.32171" lon="7.00169">
        <ele>578</ele>
        <time>2009-09-27T11:58:38Z</time>
      </trkpt>
      <trkpt lat="48.32164" lon="7.00157">
        <ele>585</ele>
        <time>2009-09-27T11:58:42Z</time>
      </trkpt>
      <trkpt lat="48.32164" lon="7.00149">
        <ele>586</ele>
        <time>2009-09-27T11:58:46Z</time>
      </trkpt>
      <trkpt lat="48.3216" lon="7.00142">
        <ele>588</ele>
        <time>2009-09-27T11:58:50Z</time>
      </trkpt>
      <trkpt lat="48.32156" lon="7.00134">
        <ele>588</ele>
        <time>2009-09-27T11:58:54Z</time>
      </trkpt>
      <trkpt lat="48.32151" lon="7.00119">
        <ele>588</ele>
        <time>2009-09-27T11:58:58Z</time>
      </trkpt>
      <trkpt lat="48.32147" lon="7.00105">
        <ele>587</ele>
        <time>2009-09-27T11:59:03Z</time>
      </trkpt>
      <trkpt lat="48.32143" lon="7.00093">
        <ele>587</ele>
        <time>2009-09-27T11:59:08Z</time>
      </trkpt>
      <trkpt lat="48.32142" lon="7.00082">
        <ele>584</ele>
        <time>2009-09-27T11:59:12Z</time>
      </trkpt>
      <trkpt lat="48.32139" lon="7.00071">
        <ele>585</ele>
        <time>2009-09-27T11:59:16Z</time>
      </trkpt>
      <trkpt lat="48.32134" lon="7.00063">
        <ele>586</ele>
        <time>2009-09-27T11:59:20Z</time>
      </trkpt>
      <trkpt lat="48.32138" lon="7.00061">
        <ele>585</ele>
        <time>2009-09-27T11:59:24Z</time>
      </trkpt>
      <trkpt lat="48.32133" lon="7.00053">
        <ele>586</ele>
        <time>2009-09-27T11:59:28Z</time>
      </trkpt>
      <trkpt lat="48.32127" lon="7.00045">
        <ele>587</ele>
        <time>2009-09-27T11:59:32Z</time>
      </trkpt>
      <trkpt lat="48.3212" lon="7.00034">
        <ele>588</ele>
        <time>2009-09-27T11:59:36Z</time>
      </trkpt>
      <trkpt lat="48.32118" lon="7.00026">
        <ele>588</ele>
        <time>2009-09-27T11:59:40Z</time>
      </trkpt>
      <trkpt lat="48.32115" lon="7.00017">
        <ele>589</ele>
        <time>2009-09-27T11:59:44Z</time>
      </trkpt>
      <trkpt lat="48.32112" lon="7.00008">
        <ele>590</ele>
        <time>2009-09-27T11:59:48Z</time>
      </trkpt>
      <trkpt lat="48.32106" lon="7.00001">
        <ele>591</ele>
        <time>2009-09-27T11:59:52Z</time>
      </trkpt>
      <trkpt lat="48.32099" lon="6.99996">
        <ele>591</ele>
        <time>2009-09-27T11:59:56Z</time>
      </trkpt>
      <trkpt lat="48.32095" lon="6.99985">
        <ele>590</ele>
        <time>2009-09-27T12:00:00Z</time>
      </trkpt>
      <trkpt lat="48.32093" lon="6.99977">
        <ele>588</ele>
        <time>2009-09-27T12:00:04Z</time>
      </trkpt>
      <trkpt lat="48.32089" lon="6.99969">
        <ele>587</ele>
        <time>2009-09-27T12:00:08Z</time>
      </trkpt>
      <trkpt lat="48.32083" lon="6.99964">
        <ele>605</ele>
        <time>2009-09-27T12:00:12Z</time>
      </trkpt>
      <trkpt lat="48.32079" lon="6.99956">
        <ele>605</ele>
        <time>2009-09-27T12:00:16Z</time>
      </trkpt>
      <trkpt lat="48.32078" lon="6.99946">
        <ele>603</ele>
        <time>2009-09-27T12:00:20Z</time>
      </trkpt>
      <trkpt lat="48.32074" lon="6.9994">
        <ele>603</ele>
        <time>2009-09-27T12:00:25Z</time>
      </trkpt>
      <trkpt lat="48.32076" lon="6.99935">
        <ele>601</ele>
        <time>2009-09-27T12:00:30Z</time>
      </trkpt>
      <trkpt lat="48.32077" lon="6.99931">
        <ele>600</ele>
        <time>2009-09-27T12:00:34Z</time>
      </trkpt>
      <trkpt lat="48.32074" lon="6.9992">
        <ele>598</ele>
        <time>2009-09-27T12:00:38Z</time>
      </trkpt>
      <trkpt lat="48.32072" lon="6.99911">
        <ele>596</ele>
        <time>2009-09-27T12:00:42Z</time>
      </trkpt>
      <trkpt lat="48.3207" lon="6.99903">
        <ele>598</ele>
        <time>2009-09-27T12:00:46Z</time>
      </trkpt>
      <trkpt lat="48.32073" lon="6.99892">
        <ele>598</ele>
        <time>2009-09-27T12:00:50Z</time>
      </trkpt>
      <trkpt lat="48.32069" lon="6.99884">
        <ele>598</ele>
        <time>2009-09-27T12:00:54Z</time>
      </trkpt>
      <trkpt lat="48.32068" lon="6.99873">
        <ele>598</ele>
        <time>2009-09-27T12:00:58Z</time>
      </trkpt>
      <trkpt lat="48.32064" lon="6.99864">
        <ele>598</ele>
        <time>2009-09-27T12:01:02Z</time>
      </trkpt>
      <trkpt lat="48.32059" lon="6.99849">
        <ele>597</ele>
        <time>2009-09-27T12:01:06Z</time>
      </trkpt>
      <trkpt lat="48.32051" lon="6.99839">
        <ele>598</ele>
        <time>2009-09-27T12:01:10Z</time>
      </trkpt>
      <trkpt lat="48.32043" lon="6.99826">
        <ele>595</ele>
        <time>2009-09-27T12:01:14Z</time>
      </trkpt>
      <trkpt lat="48.32035" lon="6.99816">
        <ele>597</ele>
        <time>2009-09-27T12:01:19Z</time>
      </trkpt>
      <trkpt lat="48.32026" lon="6.99811">
        <ele>598</ele>
        <time>2009-09-27T12:01:23Z</time>
      </trkpt>
      <trkpt lat="48.3202" lon="6.99809">
        <ele>599</ele>
        <time>2009-09-27T12:01:27Z</time>
      </trkpt>
      <trkpt lat="48.32019" lon="6.99806">
        <ele>599</ele>
        <time>2009-09-27T12:01:31Z</time>
      </trkpt>
      <trkpt lat="48.32017" lon="6.99801">
        <ele>599</ele>
        <time>2009-09-27T12:01:35Z</time>
      </trkpt>
      <trkpt lat="48.32014" lon="6.99796">
        <ele>599</ele>
        <time>2009-09-27T12:01:39Z</time>
      </trkpt>
      <trkpt lat="48.32014" lon="6.99788">
        <ele>598</ele>
        <time>2009-09-27T12:01:43Z</time>
      </trkpt>
      <trkpt lat="48.32013" lon="6.99779">
        <ele>598</ele>
        <time>2009-09-27T12:01:47Z</time>
      </trkpt>
      <trkpt lat="48.32012" lon="6.99773">
        <ele>598</ele>
        <time>2009-09-27T12:01:51Z</time>
      </trkpt>
      <trkpt lat="48.32006" lon="6.99761">
        <ele>600</ele>
        <time>2009-09-27T12:01:55Z</time>
      </trkpt>
      <trkpt lat="48.31999" lon="6.9975">
        <ele>605</ele>
        <time>2009-09-27T12:01:59Z</time>
      </trkpt>
      <trkpt lat="48.31994" lon="6.99741">
        <ele>605</ele>
        <time>2009-09-27T12:02:03Z</time>
      </trkpt>
      <trkpt lat="48.31987" lon="6.99733">
        <ele>606</ele>
        <time>2009-09-27T12:02:07Z</time>
      </trkpt>
      <trkpt lat="48.31977" lon="6.99726">
        <ele>606</ele>
        <time>2009-09-27T12:02:11Z</time>
      </trkpt>
      <trkpt lat="48.31974" lon="6.99722">
        <ele>606</ele>
        <time>2009-09-27T12:02:15Z</time>
      </trkpt>
      <trkpt lat="48.31966" lon="6.99715">
        <ele>607</ele>
        <time>2009-09-27T12:02:19Z</time>
      </trkpt>
      <trkpt lat="48.31963" lon="6.99709">
        <ele>607</ele>
        <time>2009-09-27T12:02:23Z</time>
      </trkpt>
      <trkpt lat="48.31965" lon="6.99706">
        <ele>606</ele>
        <time>2009-09-27T12:02:27Z</time>
      </trkpt>
      <trkpt lat="48.31964" lon="6.997">
        <ele>606</ele>
        <time>2009-09-27T12:02:31Z</time>
      </trkpt>
      <trkpt lat="48.31957" lon="6.99687">
        <ele>606</ele>
        <time>2009-09-27T12:02:35Z</time>
      </trkpt>
      <trkpt lat="48.31946" lon="6.99671">
        <ele>607</ele>
        <time>2009-09-27T12:02:39Z</time>
      </trkpt>
      <trkpt lat="48.31943" lon="6.99662">
        <ele>599</ele>
        <time>2009-09-27T12:02:44Z</time>
      </trkpt>
      <trkpt lat="48.31934" lon="6.99654">
        <ele>601</ele>
        <time>2009-09-27T12:02:48Z</time>
      </trkpt>
      <trkpt lat="48.31932" lon="6.99652">
        <ele>601</ele>
        <time>2009-09-27T12:02:52Z</time>
      </trkpt>
      <trkpt lat="48.31926" lon="6.99644">
        <ele>600</ele>
        <time>2009-09-27T12:02:56Z</time>
      </trkpt>
      <trkpt lat="48.3192" lon="6.9964">
        <ele>600</ele>
        <time>2009-09-27T12:03:00Z</time>
      </trkpt>
      <trkpt lat="48.31912" lon="6.9963">
        <ele>614</ele>
        <time>2009-09-27T12:03:04Z</time>
      </trkpt>
      <trkpt lat="48.31915" lon="6.9962">
        <ele>612</ele>
        <time>2009-09-27T12:03:08Z</time>
      </trkpt>
      <trkpt lat="48.3191" lon="6.99607">
        <ele>610</ele>
        <time>2009-09-27T12:03:12Z</time>
      </trkpt>
      <trkpt lat="48.31898" lon="6.99583">
        <ele>604</ele>
        <time>2009-09-27T12:03:16Z</time>
      </trkpt>
      <trkpt lat="48.31887" lon="6.99562">
        <ele>606</ele>
        <time>2009-09-27T12:03:20Z</time>
      </trkpt>
      <trkpt lat="48.31889" lon="6.99555">
        <ele>605</ele>
        <time>2009-09-27T12:03:24Z</time>
      </trkpt>
      <trkpt lat="48.31891" lon="6.99551">
        <ele>605</ele>
        <time>2009-09-27T12:03:28Z</time>
      </trkpt>
      <trkpt lat="48.31877" lon="6.99534">
        <ele>606</ele>
        <time>2009-09-27T12:03:32Z</time>
      </trkpt>
      <trkpt lat="48.31873" lon="6.99519">
        <ele>606</ele>
        <time>2009-09-27T12:03:36Z</time>
      </trkpt>
      <trkpt lat="48.31869" lon="6.99496">
        <ele>604</ele>
        <time>2009-09-27T12:03:40Z</time>
      </trkpt>
      <trkpt lat="48.31872" lon="6.99461">
        <ele>603</ele>
        <time>2009-09-27T12:03:44Z</time>
      </trkpt>
      <trkpt lat="48.31881" lon="6.9943">
        <ele>602</ele>
        <time>2009-09-27T12:03:48Z</time>
      </trkpt>
      <trkpt lat="48.3189" lon="6.99381">
        <ele>600</ele>
        <time>2009-09-27T12:03:52Z</time>
      </trkpt>
      <trkpt lat="48.31897" lon="6.99337">
        <ele>597</ele>
        <time>2009-09-27T12:03:57Z</time>
      </trkpt>
      <trkpt lat="48.31902" lon="6.99291">
        <ele>596</ele>
        <time>2009-09-27T12:04:01Z</time>
      </trkpt>
      <trkpt lat="48.31911" lon="6.9924">
        <ele>590</ele>
        <time>2009-09-27T12:04:05Z</time>
      </trkpt>
      <trkpt lat="48.31921" lon="6.99189">
        <ele>578</ele>
        <time>2009-09-27T12:04:09Z</time>
      </trkpt>
      <trkpt lat="48.31942" lon="6.99143">
        <ele>578</ele>
        <time>2009-09-27T12:04:13Z</time>
      </trkpt>
      <trkpt lat="48.31967" lon="6.99099">
        <ele>574</ele>
        <time>2009-09-27T12:04:17Z</time>
      </trkpt>
      <trkpt lat="48.31992" lon="6.99056">
        <ele>575</ele>
        <time>2009-09-27T12:04:21Z</time>
      </trkpt>
      <trkpt lat="48.32019" lon="6.99009">
        <ele>561</ele>
        <time>2009-09-27T12:04:25Z</time>
      </trkpt>
      <trkpt lat="48.32026" lon="6.98952">
        <ele>562</ele>
        <time>2009-09-27T12:04:29Z</time>
      </trkpt>
      <trkpt lat="48.32027" lon="6.98887">
        <ele>563</ele>
        <time>2009-09-27T12:04:33Z</time>
      </trkpt>
      <trkpt lat="48.32022" lon="6.98821">
        <ele>562</ele>
        <time>2009-09-27T12:04:37Z</time>
      </trkpt>
      <trkpt lat="48.3201" lon="6.98769">
        <ele>560</ele>
        <time>2009-09-27T12:04:41Z</time>
      </trkpt>
      <trkpt lat="48.32" lon="6.98718">
        <ele>555</ele>
        <time>2009-09-27T12:04:45Z</time>
      </trkpt>
      <trkpt lat="48.31982" lon="6.98673">
        <ele>560</ele>
        <time>2009-09-27T12:04:49Z</time>
      </trkpt>
      <trkpt lat="48.31982" lon="6.98643">
        <ele>556</ele>
        <time>2009-09-27T12:04:53Z</time>
      </trkpt>
      <trkpt lat="48.31988" lon="6.98643">
        <ele>556</ele>
        <time>2009-09-27T12:04:57Z</time>
      </trkpt>
      <trkpt lat="48.32026" lon="6.98639">
        <ele>553</ele>
        <time>2009-09-27T12:05:01Z</time>
      </trkpt>
      <trkpt lat="48.32066" lon="6.9862">
        <ele>551</ele>
        <time>2009-09-27T12:05:05Z</time>
      </trkpt>
      <trkpt lat="48.32103" lon="6.98597">
        <ele>543</ele>
        <time>2009-09-27T12:05:09Z</time>
      </trkpt>
      <trkpt lat="48.32124" lon="6.98542">
        <ele>543</ele>
        <time>2009-09-27T12:05:13Z</time>
      </trkpt>
      <trkpt lat="48.3214" lon="6.98469">
        <ele>541</ele>
        <time>2009-09-27T12:05:17Z</time>
      </trkpt>
      <trkpt lat="48.32143" lon="6.98411">
        <ele>539</ele>
        <time>2009-09-27T12:05:22Z</time>
      </trkpt>
      <trkpt lat="48.32141" lon="6.98357">
        <ele>540</ele>
        <time>2009-09-27T12:05:26Z</time>
      </trkpt>
      <trkpt lat="48.32139" lon="6.98303">
        <ele>539</ele>
        <time>2009-09-27T12:05:30Z</time>
      </trkpt>
      <trkpt lat="48.3214" lon="6.98254">
        <ele>537</ele>
        <time>2009-09-27T12:05:34Z</time>
      </trkpt>
      <trkpt lat="48.32137" lon="6.98206">
        <ele>533</ele>
        <time>2009-09-27T12:05:38Z</time>
      </trkpt>
      <trkpt lat="48.32135" lon="6.98154">
        <ele>528</ele>
        <time>2009-09-27T12:05:42Z</time>
      </trkpt>
      <trkpt lat="48.32138" lon="6.98125">
        <ele>528</ele>
        <time>2009-09-27T12:05:46Z</time>
      </trkpt>
      <trkpt lat="48.32139" lon="6.98123">
        <ele>528</ele>
        <time>2009-09-27T12:05:50Z</time>
      </trkpt>
      <trkpt lat="48.32142" lon="6.98127">
        <ele>528</ele>
        <time>2009-09-27T12:05:54Z</time>
      </trkpt>
      <trkpt lat="48.32142" lon="6.98129">
        <ele>528</ele>
        <time>2009-09-27T12:05:58Z</time>
      </trkpt>
      <trkpt lat="48.3214" lon="6.9813">
        <ele>528</ele>
        <time>2009-09-27T12:06:02Z</time>
      </trkpt>
      <trkpt lat="48.3214" lon="6.98129">
        <ele>528</ele>
        <time>2009-09-27T12:06:06Z</time>
      </trkpt>
      <trkpt lat="48.3214" lon="6.98129">
        <ele>528</ele>
        <time>2009-09-27T12:06:11Z</time>
      </trkpt>
      <trkpt lat="48.3214" lon="6.98129">
        <ele>528</ele>
        <time>2009-09-27T12:06:16Z</time>
      </trkpt>
      <trkpt lat="48.32139" lon="6.98129">
        <ele>528</ele>
        <time>2009-09-27T12:06:20Z</time>
      </trkpt>
      <trkpt lat="48.3214" lon="6.98129">
        <ele>528</ele>
        <time>2009-09-27T12:06:24Z</time>
      </trkpt>
      <trkpt lat="48.32142" lon="6.98126">
        <ele>528</ele>
        <time>2009-09-27T12:06:28Z</time>
      </trkpt>
      <trkpt lat="48.32143" lon="6.98124">
        <ele>528</ele>
        <time>2009-09-27T12:06:32Z</time>
      </trkpt>
      <trkpt lat="48.32144" lon="6.98123">
        <ele>528</ele>
        <time>2009-09-27T12:06:36Z</time>
      </trkpt>
      <trkpt lat="48.32146" lon="6.98126">
        <ele>528</ele>
        <time>2009-09-27T12:06:40Z</time>
      </trkpt>
      <trkpt lat="48.32147" lon="6.98128">
        <ele>528</ele>
        <time>2009-09-27T12:06:44Z</time>
      </trkpt>
      <trkpt lat="48.32147" lon="6.98127">
        <ele>528</ele>
        <time>2009-09-27T12:06:48Z</time>
      </trkpt>
      <trkpt lat="48.32147" lon="6.98128">
        <ele>528</ele>
        <time>2009-09-27T12:06:52Z</time>
      </trkpt>
      <trkpt lat="48.32143" lon="6.98127">
        <ele>528</ele>
        <time>2009-09-27T12:06:56Z</time>
      </trkpt>
      <trkpt lat="48.3214" lon="6.98129">
        <ele>528</ele>
        <time>2009-09-27T12:07:00Z</time>
      </trkpt>
      <trkpt lat="48.32146" lon="6.9813">
        <ele>528</ele>
        <time>2009-09-27T12:07:04Z</time>
      </trkpt>
      <trkpt lat="48.32145" lon="6.98126">
        <ele>528</ele>
        <time>2009-09-27T12:07:08Z</time>
      </trkpt>
      <trkpt lat="48.32144" lon="6.98127">
        <ele>528</ele>
        <time>2009-09-27T12:07:12Z</time>
      </trkpt>
      <trkpt lat="48.32147" lon="6.98127">
        <ele>528</ele>
        <time>2009-09-27T12:07:18Z</time>
      </trkpt>
      <trkpt lat="48.32147" lon="6.98126">
        <ele>528</ele>
        <time>2009-09-27T12:07:22Z</time>
      </trkpt>
      <trkpt lat="48.32146" lon="6.98127">
        <ele>528</ele>
        <time>2009-09-27T12:07:26Z</time>
      </trkpt>
      <trkpt lat="48.32146" lon="6.98126">
        <ele>528</ele>
        <time>2009-09-27T12:07:30Z</time>
      </trkpt>
      <trkpt lat="48.32145" lon="6.98124">
        <ele>528</ele>
        <time>2009-09-27T12:07:34Z</time>
      </trkpt>
      <trkpt lat="48.32143" lon="6.98124">
        <ele>528</ele>
        <time>2009-09-27T12:07:38Z</time>
      </trkpt>
      <trkpt lat="48.32142" lon="6.98125">
        <ele>528</ele>
        <time>2009-09-27T12:07:42Z</time>
      </trkpt>
      <trkpt lat="48.32142" lon="6.98125">
        <ele>528</ele>
        <time>2009-09-27T12:07:46Z</time>
      </trkpt>
      <trkpt lat="48.32137" lon="6.98122">
        <ele>528</ele>
        <time>2009-09-27T12:07:50Z</time>
      </trkpt>
      <trkpt lat="48.32137" lon="6.98121">
        <ele>528</ele>
        <time>2009-09-27T12:07:54Z</time>
      </trkpt>
      <trkpt lat="48.32134" lon="6.98119">
        <ele>528</ele>
        <time>2009-09-27T12:07:58Z</time>
      </trkpt>
      <trkpt lat="48.32134" lon="6.98121">
        <ele>528</ele>
        <time>2009-09-27T12:08:02Z</time>
      </trkpt>
      <trkpt lat="48.32137" lon="6.98122">
        <ele>528</ele>
        <time>2009-09-27T12:08:06Z</time>
      </trkpt>
      <trkpt lat="48.3214" lon="6.98123">
        <ele>528</ele>
        <time>2009-09-27T12:08:10Z</time>
      </trkpt>
      <trkpt lat="48.32141" lon="6.98123">
        <ele>528</ele>
        <time>2009-09-27T12:08:15Z</time>
      </trkpt>
      <trkpt lat="48.32144" lon="6.98124">
        <ele>528</ele>
        <time>2009-09-27T12:08:20Z</time>
      </trkpt>
      <trkpt lat="48.32143" lon="6.98123">
        <ele>528</ele>
        <time>2009-09-27T12:08:24Z</time>
      </trkpt>
      <trkpt lat="48.32143" lon="6.98123">
        <ele>528</ele>
        <time>2009-09-27T12:08:28Z</time>
      </trkpt>
      <trkpt lat="48.32143" lon="6.98123">
        <ele>528</ele>
        <time>2009-09-27T12:08:32Z</time>
      </trkpt>
      <trkpt lat="48.32145" lon="6.98123">
        <ele>528</ele>
        <time>2009-09-27T12:08:36Z</time>
      </trkpt>
      <trkpt lat="48.32144" lon="6.98123">
        <ele>528</ele>
        <time>2009-09-27T12:08:40Z</time>
      </trkpt>
      <trkpt lat="48.32144" lon="6.98123">
        <ele>528</ele>
        <time>2009-09-27T12:08:44Z</time>
      </trkpt>
      <trkpt lat="48.32143" lon="6.98124">
        <ele>528</ele>
        <time>2009-09-27T12:08:48Z</time>
      </trkpt>
      <trkpt lat="48.32142" lon="6.98125">
        <ele>528</ele>
        <time>2009-09-27T12:08:52Z</time>
      </trkpt>
      <trkpt lat="48.32142" lon="6.98123">
        <ele>528</ele>
        <time>2009-09-27T12:08:56Z</time>
      </trkpt>
      <trkpt lat="48.3214" lon="6.98122">
        <ele>528</ele>
        <time>2009-09-27T12:09:00Z</time>
      </trkpt>
      <trkpt lat="48.3214" lon="6.98122">
        <ele>528</ele>
        <time>2009-09-27T12:09:05Z</time>
      </trkpt>
      <trkpt lat="48.3214" lon="6.98122">
        <ele>528</ele>
        <time>2009-09-27T12:09:09Z</time>
      </trkpt>
      <trkpt lat="48.3214" lon="6.98122">
        <ele>528</ele>
        <time>2009-09-27T12:09:13Z</time>
      </trkpt>
      <trkpt lat="48.3214" lon="6.98122">
        <ele>528</ele>
        <time>2009-09-27T12:09:17Z</time>
      </trkpt>
      <trkpt lat="48.32141" lon="6.98122">
        <ele>528</ele>
        <time>2009-09-27T12:09:21Z</time>
      </trkpt>
      <trkpt lat="48.32141" lon="6.98122">
        <ele>528</ele>
        <time>2009-09-27T12:09:25Z</time>
      </trkpt>
      <trkpt lat="48.32142" lon="6.98122">
        <ele>528</ele>
        <time>2009-09-27T12:09:29Z</time>
      </trkpt>
      <trkpt lat="48.32143" lon="6.98122">
        <ele>528</ele>
        <time>2009-09-27T12:09:33Z</time>
      </trkpt>
      <trkpt lat="48.32143" lon="6.98122">
        <ele>528</ele>
        <time>2009-09-27T12:09:37Z</time>
      </trkpt>
      <trkpt lat="48.32143" lon="6.98122">
        <ele>528</ele>
        <time>2009-09-27T12:09:41Z</time>
      </trkpt>
      <trkpt lat="48.32143" lon="6.98122">
        <ele>528</ele>
        <time>2009-09-27T12:09:45Z</time>
      </trkpt>
      <trkpt lat="48.32142" lon="6.98122">
        <ele>528</ele>
        <time>2009-09-27T12:09:49Z</time>
      </trkpt>
      <trkpt lat="48.32142" lon="6.98122">
        <ele>528</ele>
        <time>2009-09-27T12:09:53Z</time>
      </trkpt>
      <trkpt lat="48.32143" lon="6.98123">
        <ele>528</ele>
        <time>2009-09-27T12:09:57Z</time>
      </trkpt>
      <trkpt lat="48.32143" lon="6.98123">
        <ele>528</ele>
        <time>2009-09-27T12:10:01Z</time>
      </trkpt>
      <trkpt lat="48.32142" lon="6.98123">
        <ele>528</ele>
        <time>2009-09-27T12:10:05Z</time>
      </trkpt>
      <trkpt lat="48.32142" lon="6.98125">
        <ele>528</ele>
        <time>2009-09-27T12:10:09Z</time>
      </trkpt>
      <trkpt lat="48.32142" lon="6.98125">
        <ele>528</ele>
        <time>2009-09-27T12:10:13Z</time>
      </trkpt>
      <trkpt lat="48.32142" lon="6.98123">
        <ele>528</ele>
        <time>2009-09-27T12:10:17Z</time>
      </trkpt>
      <trkpt lat="48.32142" lon="6.98123">
        <ele>528</ele>
        <time>2009-09-27T12:10:21Z</time>
      </trkpt>
      <trkpt lat="48.32141" lon="6.98123">
        <ele>528</ele>
        <time>2009-09-27T12:10:26Z</time>
      </trkpt>
      <trkpt lat="48.3214" lon="6.98123">
        <ele>528</ele>
        <time>2009-09-27T12:10:30Z</time>
      </trkpt>
      <trkpt lat="48.32141" lon="6.98125">
        <ele>528</ele>
        <time>2009-09-27T12:10:34Z</time>
      </trkpt>
      <trkpt lat="48.32142" lon="6.98125">
        <ele>528</ele>
        <time>2009-09-27T12:10:38Z</time>
      </trkpt>
      <trkpt lat="48.32143" lon="6.98124">
        <ele>528</ele>
        <time>2009-09-27T12:10:42Z</time>
      </trkpt>
      <trkpt lat="48.32143" lon="6.98124">
        <ele>528</ele>
        <time>2009-09-27T12:10:46Z</time>
      </trkpt>
      <trkpt lat="48.32144" lon="6.98124">
        <ele>528</ele>
        <time>2009-09-27T12:10:50Z</time>
      </trkpt>
      <trkpt lat="48.32144" lon="6.98124">
        <ele>528</ele>
        <time>2009-09-27T12:10:54Z</time>
      </trkpt>
      <trkpt lat="48.32145" lon="6.98124">
        <ele>528</ele>
        <time>2009-09-27T12:10:58Z</time>
      </trkpt>
      <trkpt lat="48.32145" lon="6.98123">
        <ele>528</ele>
        <time>2009-09-27T12:11:02Z</time>
      </trkpt>
      <trkpt lat="48.32144" lon="6.98123">
        <ele>528</ele>
        <time>2009-09-27T12:11:07Z</time>
      </trkpt>
      <trkpt lat="48.32143" lon="6.98124">
        <ele>528</ele>
        <time>2009-09-27T12:11:12Z</time>
      </trkpt>
      <trkpt lat="48.32144" lon="6.98124">
        <ele>528</ele>
        <time>2009-09-27T12:11:16Z</time>
      </trkpt>
      <trkpt lat="48.32142" lon="6.98123">
        <ele>528</ele>
        <time>2009-09-27T12:11:20Z</time>
      </trkpt>
      <trkpt lat="48.3214" lon="6.98123">
        <ele>528</ele>
        <time>2009-09-27T12:11:24Z</time>
      </trkpt>
      <trkpt lat="48.32139" lon="6.98126">
        <ele>528</ele>
        <time>2009-09-27T12:11:28Z</time>
      </trkpt>
      <trkpt lat="48.32139" lon="6.98127">
        <ele>528</ele>
        <time>2009-09-27T12:11:32Z</time>
      </trkpt>
      <trkpt lat="48.3214" lon="6.98127">
        <ele>528</ele>
        <time>2009-09-27T12:11:36Z</time>
      </trkpt>
      <trkpt lat="48.32139" lon="6.98126">
        <ele>528</ele>
        <time>2009-09-27T12:11:40Z</time>
      </trkpt>
      <trkpt lat="48.32139" lon="6.98125">
        <ele>528</ele>
        <time>2009-09-27T12:11:44Z</time>
      </trkpt>
      <trkpt lat="48.32138" lon="6.98125">
        <ele>528</ele>
        <time>2009-09-27T12:11:48Z</time>
      </trkpt>
      <trkpt lat="48.32138" lon="6.98125">
        <ele>528</ele>
        <time>2009-09-27T12:11:52Z</time>
      </trkpt>
      <trkpt lat="48.32138" lon="6.98125">
        <ele>528</ele>
        <time>2009-09-27T12:11:56Z</time>
      </trkpt>
      <trkpt lat="48.32138" lon="6.98125">
        <ele>528</ele>
        <time>2009-09-27T12:12:00Z</time>
      </trkpt>
      <trkpt lat="48.32138" lon="6.98125">
        <ele>528</ele>
        <time>2009-09-27T12:12:05Z</time>
      </trkpt>
      <trkpt lat="48.32138" lon="6.98125">
        <ele>528</ele>
        <time>2009-09-27T12:12:09Z</time>
      </trkpt>
      <trkpt lat="48.32138" lon="6.98125">
        <ele>528</ele>
        <time>2009-09-27T12:12:13Z</time>
      </trkpt>
      <trkpt lat="48.32136" lon="6.98122">
        <ele>528</ele>
        <time>2009-09-27T12:12:17Z</time>
      </trkpt>
      <trkpt lat="48.32136" lon="6.98122">
        <ele>528</ele>
        <time>2009-09-27T12:12:21Z</time>
      </trkpt>
      <trkpt lat="48.32136" lon="6.98122">
        <ele>528</ele>
        <time>2009-09-27T12:12:25Z</time>
      </trkpt>
      <trkpt lat="48.32136" lon="6.98122">
        <ele>528</ele>
        <time>2009-09-27T12:12:29Z</time>
      </trkpt>
      <trkpt lat="48.32136" lon="6.98122">
        <ele>528</ele>
        <time>2009-09-27T12:12:33Z</time>
      </trkpt>
      <trkpt lat="48.32136" lon="6.98123">
        <ele>528</ele>
        <time>2009-09-27T12:12:37Z</time>
      </trkpt>
      <trkpt lat="48.32136" lon="6.98123">
        <ele>528</ele>
        <time>2009-09-27T12:12:41Z</time>
      </trkpt>
      <trkpt lat="48.32136" lon="6.98125">
        <ele>528</ele>
        <time>2009-09-27T12:12:45Z</time>
      </trkpt>
      <trkpt lat="48.32134" lon="6.98125">
        <ele>528</ele>
        <time>2009-09-27T12:12:49Z</time>
      </trkpt>
      <trkpt lat="48.32128" lon="6.98122">
        <ele>528</ele>
        <time>2009-09-27T12:12:53Z</time>
      </trkpt>
      <trkpt lat="48.32129" lon="6.98126">
        <ele>528</ele>
        <time>2009-09-27T12:12:57Z</time>
      </trkpt>
      <trkpt lat="48.32134" lon="6.98133">
        <ele>528</ele>
        <time>2009-09-27T12:13:01Z</time>
      </trkpt>
      <trkpt lat="48.32139" lon="6.98137">
        <ele>528</ele>
        <time>2009-09-27T12:13:05Z</time>
      </trkpt>
      <trkpt lat="48.3214" lon="6.98137">
        <ele>528</ele>
        <time>2009-09-27T12:13:09Z</time>
      </trkpt>
      <trkpt lat="48.32144" lon="6.98135">
        <ele>528</ele>
        <time>2009-09-27T12:13:13Z</time>
      </trkpt>
      <trkpt lat="48.32139" lon="6.98131">
        <ele>528</ele>
        <time>2009-09-27T12:13:17Z</time>
      </trkpt>
      <trkpt lat="48.32139" lon="6.98125">
        <ele>528</ele>
        <time>2009-09-27T12:13:21Z</time>
      </trkpt>
      <trkpt lat="48.32145" lon="6.98114">
        <ele>528</ele>
        <time>2009-09-27T12:13:25Z</time>
      </trkpt>
      <trkpt lat="48.32153" lon="6.98098">
        <ele>528</ele>
        <time>2009-09-27T12:13:30Z</time>
      </trkpt>
      <trkpt lat="48.32151" lon="6.98084">
        <ele>528</ele>
        <time>2009-09-27T12:13:34Z</time>
      </trkpt>
      <trkpt lat="48.32145" lon="6.9807">
        <ele>528</ele>
        <time>2009-09-27T12:13:38Z</time>
      </trkpt>
      <trkpt lat="48.32136" lon="6.98052">
        <ele>528</ele>
        <time>2009-09-27T12:13:42Z</time>
      </trkpt>
      <trkpt lat="48.32126" lon="6.98031">
        <ele>528</ele>
        <time>2009-09-27T12:13:46Z</time>
      </trkpt>
      <trkpt lat="48.32113" lon="6.98004">
        <ele>526</ele>
        <time>2009-09-27T12:13:50Z</time>
      </trkpt>
      <trkpt lat="48.3209" lon="6.97993">
        <ele>524</ele>
        <time>2009-09-27T12:13:54Z</time>
      </trkpt>
      <trkpt lat="48.32075" lon="6.98018">
        <ele>521</ele>
        <time>2009-09-27T12:13:58Z</time>
      </trkpt>
      <trkpt lat="48.32054" lon="6.98044">
        <ele>522</ele>
        <time>2009-09-27T12:14:02Z</time>
      </trkpt>
      <trkpt lat="48.32029" lon="6.98053">
        <ele>522</ele>
        <time>2009-09-27T12:14:06Z</time>
      </trkpt>
      <trkpt lat="48.32002" lon="6.98056">
        <ele>523</ele>
        <time>2009-09-27T12:14:12Z</time>
      </trkpt>
      <trkpt lat="48.31987" lon="6.9806">
        <ele>522</ele>
        <time>2009-09-27T12:14:16Z</time>
      </trkpt>
      <trkpt lat="48.31974" lon="6.98065">
        <ele>522</ele>
        <time>2009-09-27T12:14:20Z</time>
      </trkpt>
      <trkpt lat="48.31963" lon="6.98078">
        <ele>522</ele>
        <time>2009-09-27T12:14:24Z</time>
      </trkpt>
      <trkpt lat="48.31952" lon="6.98089">
        <ele>530</ele>
        <time>2009-09-27T12:14:28Z</time>
      </trkpt>
      <trkpt lat="48.31942" lon="6.98101">
        <ele>530</ele>
        <time>2009-09-27T12:14:32Z</time>
      </trkpt>
      <trkpt lat="48.31932" lon="6.98117">
        <ele>531</ele>
        <time>2009-09-27T12:14:36Z</time>
      </trkpt>
      <trkpt lat="48.31924" lon="6.98136">
        <ele>533</ele>
        <time>2009-09-27T12:14:40Z</time>
      </trkpt>
      <trkpt lat="48.31916" lon="6.98152">
        <ele>530</ele>
        <time>2009-09-27T12:14:44Z</time>
      </trkpt>
      <trkpt lat="48.31904" lon="6.98172">
        <ele>533</ele>
        <time>2009-09-27T12:14:48Z</time>
      </trkpt>
      <trkpt lat="48.31898" lon="6.98191">
        <ele>533</ele>
        <time>2009-09-27T12:14:52Z</time>
      </trkpt>
      <trkpt lat="48.31895" lon="6.98214">
        <ele>533</ele>
        <time>2009-09-27T12:14:56Z</time>
      </trkpt>
      <trkpt lat="48.31888" lon="6.98234">
        <ele>534</ele>
        <time>2009-09-27T12:15:00Z</time>
      </trkpt>
      <trkpt lat="48.3188" lon="6.98256">
        <ele>537</ele>
        <time>2009-09-27T12:15:04Z</time>
      </trkpt>
      <trkpt lat="48.31868" lon="6.98278">
        <ele>536</ele>
        <time>2009-09-27T12:15:08Z</time>
      </trkpt>
      <trkpt lat="48.31862" lon="6.98299">
        <ele>536</ele>
        <time>2009-09-27T12:15:12Z</time>
      </trkpt>
      <trkpt lat="48.31858" lon="6.98318">
        <ele>535</ele>
        <time>2009-09-27T12:15:16Z</time>
      </trkpt>
      <trkpt lat="48.31856" lon="6.98334">
        <ele>537</ele>
        <time>2009-09-27T12:15:20Z</time>
      </trkpt>
      <trkpt lat="48.31855" lon="6.98356">
        <ele>538</ele>
        <time>2009-09-27T12:15:24Z</time>
      </trkpt>
      <trkpt lat="48.31855" lon="6.98383">
        <ele>540</ele>
        <time>2009-09-27T12:15:28Z</time>
      </trkpt>
      <trkpt lat="48.31853" lon="6.98406">
        <ele>539</ele>
        <time>2009-09-27T12:15:32Z</time>
      </trkpt>
      <trkpt lat="48.31851" lon="6.98426">
        <ele>540</ele>
        <time>2009-09-27T12:15:37Z</time>
      </trkpt>
      <trkpt lat="48.3185" lon="6.98445">
        <ele>542</ele>
        <time>2009-09-27T12:15:41Z</time>
      </trkpt>
      <trkpt lat="48.3185" lon="6.98464">
        <ele>543</ele>
        <time>2009-09-27T12:15:45Z</time>
      </trkpt>
      <trkpt lat="48.3185" lon="6.98481">
        <ele>543</ele>
        <time>2009-09-27T12:15:49Z</time>
      </trkpt>
      <trkpt lat="48.31851" lon="6.98507">
        <ele>543</ele>
        <time>2009-09-27T12:15:53Z</time>
      </trkpt>
      <trkpt lat="48.3185" lon="6.98534">
        <ele>545</ele>
        <time>2009-09-27T12:15:57Z</time>
      </trkpt>
      <trkpt lat="48.3185" lon="6.98564">
        <ele>546</ele>
        <time>2009-09-27T12:16:01Z</time>
      </trkpt>
      <trkpt lat="48.31847" lon="6.98589">
        <ele>549</ele>
        <time>2009-09-27T12:16:05Z</time>
      </trkpt>
      <trkpt lat="48.31837" lon="6.9861">
        <ele>551</ele>
        <time>2009-09-27T12:16:09Z</time>
      </trkpt>
      <trkpt lat="48.31822" lon="6.98619">
        <ele>548</ele>
        <time>2009-09-27T12:16:13Z</time>
      </trkpt>
      <trkpt lat="48.31805" lon="6.98618">
        <ele>548</ele>
        <time>2009-09-27T12:16:17Z</time>
      </trkpt>
      <trkpt lat="48.31782" lon="6.98611">
        <ele>546</ele>
        <time>2009-09-27T12:16:21Z</time>
      </trkpt>
      <trkpt lat="48.3175" lon="6.98604">
        <ele>543</ele>
        <time>2009-09-27T12:16:25Z</time>
      </trkpt>
      <trkpt lat="48.31715" lon="6.98619">
        <ele>530</ele>
        <time>2009-09-27T12:16:29Z</time>
      </trkpt>
      <trkpt lat="48.31691" lon="6.98666">
        <ele>526</ele>
        <time>2009-09-27T12:16:33Z</time>
      </trkpt>
      <trkpt lat="48.31676" lon="6.98727">
        <ele>532</ele>
        <time>2009-09-27T12:16:37Z</time>
      </trkpt>
      <trkpt lat="48.31658" lon="6.98791">
        <ele>522</ele>
        <time>2009-09-27T12:16:41Z</time>
      </trkpt>
      <trkpt lat="48.31635" lon="6.98849">
        <ele>527</ele>
        <time>2009-09-27T12:16:45Z</time>
      </trkpt>
      <trkpt lat="48.31596" lon="6.98912">
        <ele>521</ele>
        <time>2009-09-27T12:16:49Z</time>
      </trkpt>
      <trkpt lat="48.31565" lon="6.98947">
        <ele>525</ele>
        <time>2009-09-27T12:16:54Z</time>
      </trkpt>
      <trkpt lat="48.31536" lon="6.98947">
        <ele>527</ele>
        <time>2009-09-27T12:16:58Z</time>
      </trkpt>
      <trkpt lat="48.31519" lon="6.9895">
        <ele>528</ele>
        <time>2009-09-27T12:17:02Z</time>
      </trkpt>
      <trkpt lat="48.31521" lon="6.9896">
        <ele>529</ele>
        <time>2009-09-27T12:17:06Z</time>
      </trkpt>
      <trkpt lat="48.31523" lon="6.98973">
        <ele>529</ele>
        <time>2009-09-27T12:17:10Z</time>
      </trkpt>
      <trkpt lat="48.3152" lon="6.98984">
        <ele>530</ele>
        <time>2009-09-27T12:17:14Z</time>
      </trkpt>
      <trkpt lat="48.31516" lon="6.98999">
        <ele>531</ele>
        <time>2009-09-27T12:17:18Z</time>
      </trkpt>
      <trkpt lat="48.31516" lon="6.99018">
        <ele>536</ele>
        <time>2009-09-27T12:17:22Z</time>
      </trkpt>
      <trkpt lat="48.3152" lon="6.9903">
        <ele>537</ele>
        <time>2009-09-27T12:17:26Z</time>
      </trkpt>
      <trkpt lat="48.31514" lon="6.99037">
        <ele>537</ele>
        <time>2009-09-27T12:17:30Z</time>
      </trkpt>
      <trkpt lat="48.31509" lon="6.99052">
        <ele>537</ele>
        <time>2009-09-27T12:17:34Z</time>
      </trkpt>
      <trkpt lat="48.31506" lon="6.99066">
        <ele>538</ele>
        <time>2009-09-27T12:17:38Z</time>
      </trkpt>
      <trkpt lat="48.31507" lon="6.99084">
        <ele>540</ele>
        <time>2009-09-27T12:17:42Z</time>
      </trkpt>
      <trkpt lat="48.31506" lon="6.99107">
        <ele>543</ele>
        <time>2009-09-27T12:17:46Z</time>
      </trkpt>
      <trkpt lat="48.31506" lon="6.99122">
        <ele>544</ele>
        <time>2009-09-27T12:17:50Z</time>
      </trkpt>
      <trkpt lat="48.31509" lon="6.9914">
        <ele>544</ele>
        <time>2009-09-27T12:17:55Z</time>
      </trkpt>
      <trkpt lat="48.31502" lon="6.99145">
        <ele>544</ele>
        <time>2009-09-27T12:17:59Z</time>
      </trkpt>
      <trkpt lat="48.31495" lon="6.99152">
        <ele>544</ele>
        <time>2009-09-27T12:18:03Z</time>
      </trkpt>
      <trkpt lat="48.31486" lon="6.99161">
        <ele>545</ele>
        <time>2009-09-27T12:18:07Z</time>
      </trkpt>
      <trkpt lat="48.31474" lon="6.99172">
        <ele>548</ele>
        <time>2009-09-27T12:18:11Z</time>
      </trkpt>
      <trkpt lat="48.31464" lon="6.9918">
        <ele>550</ele>
        <time>2009-09-27T12:18:15Z</time>
      </trkpt>
      <trkpt lat="48.31456" lon="6.99181">
        <ele>551</ele>
        <time>2009-09-27T12:18:19Z</time>
      </trkpt>
      <trkpt lat="48.31458" lon="6.99186">
        <ele>551</ele>
        <time>2009-09-27T12:18:23Z</time>
      </trkpt>
      <trkpt lat="48.31459" lon="6.99189">
        <ele>551</ele>
        <time>2009-09-27T12:18:27Z</time>
      </trkpt>
      <trkpt lat="48.31458" lon="6.99193">
        <ele>551</ele>
        <time>2009-09-27T12:18:31Z</time>
      </trkpt>
      <trkpt lat="48.31456" lon="6.99193">
        <ele>551</ele>
        <time>2009-09-27T12:18:35Z</time>
      </trkpt>
      <trkpt lat="48.31461" lon="6.99199">
        <ele>551</ele>
        <time>2009-09-27T12:18:39Z</time>
      </trkpt>
      <trkpt lat="48.31464" lon="6.99201">
        <ele>551</ele>
        <time>2009-09-27T12:18:44Z</time>
      </trkpt>
      <trkpt lat="48.31464" lon="6.99198">
        <ele>551</ele>
        <time>2009-09-27T12:18:49Z</time>
      </trkpt>
      <trkpt lat="48.31464" lon="6.99201">
        <ele>551</ele>
        <time>2009-09-27T12:18:53Z</time>
      </trkpt>
      <trkpt lat="48.31465" lon="6.99201">
        <ele>551</ele>
        <time>2009-09-27T12:18:57Z</time>
      </trkpt>
      <trkpt lat="48.31476" lon="6.992">
        <ele>550</ele>
        <time>2009-09-27T12:19:01Z</time>
      </trkpt>
      <trkpt lat="48.31471" lon="6.99187">
        <ele>549</ele>
        <time>2009-09-27T12:19:05Z</time>
      </trkpt>
      <trkpt lat="48.31465" lon="6.99166">
        <ele>547</ele>
        <time>2009-09-27T12:19:09Z</time>
      </trkpt>
      <trkpt lat="48.31465" lon="6.99152">
        <ele>547</ele>
        <time>2009-09-27T12:19:13Z</time>
      </trkpt>
      <trkpt lat="48.31453" lon="6.99139">
        <ele>548</ele>
        <time>2009-09-27T12:19:17Z</time>
      </trkpt>
      <trkpt lat="48.31445" lon="6.99122">
        <ele>549</ele>
        <time>2009-09-27T12:19:21Z</time>
      </trkpt>
      <trkpt lat="48.31448" lon="6.9911">
        <ele>549</ele>
        <time>2009-09-27T12:19:25Z</time>
      </trkpt>
      <trkpt lat="48.31455" lon="6.99095">
        <ele>548</ele>
        <time>2009-09-27T12:19:29Z</time>
      </trkpt>
      <trkpt lat="48.31455" lon="6.99081">
        <ele>547</ele>
        <time>2009-09-27T12:19:34Z</time>
      </trkpt>
      <trkpt lat="48.31449" lon="6.99066">
        <ele>548</ele>
        <time>2009-09-27T12:19:38Z</time>
      </trkpt>
      <trkpt lat="48.31448" lon="6.9905">
        <ele>547</ele>
        <time>2009-09-27T12:19:42Z</time>
      </trkpt>
      <trkpt lat="48.31443" lon="6.99036">
        <ele>548</ele>
        <time>2009-09-27T12:19:46Z</time>
      </trkpt>
      <trkpt lat="48.31438" lon="6.9902">
        <ele>549</ele>
        <time>2009-09-27T12:19:50Z</time>
      </trkpt>
      <trkpt lat="48.31431" lon="6.99009">
        <ele>551</ele>
        <time>2009-09-27T12:19:54Z</time>
      </trkpt>
      <trkpt lat="48.31432" lon="6.98994">
        <ele>549</ele>
        <time>2009-09-27T12:19:58Z</time>
      </trkpt>
      <trkpt lat="48.31434" lon="6.98975">
        <ele>547</ele>
        <time>2009-09-27T12:20:02Z</time>
      </trkpt>
      <trkpt lat="48.31427" lon="6.98961">
        <ele>546</ele>
        <time>2009-09-27T12:20:06Z</time>
      </trkpt>
      <trkpt lat="48.3142" lon="6.98947">
        <ele>546</ele>
        <time>2009-09-27T12:20:10Z</time>
      </trkpt>
      <trkpt lat="48.31412" lon="6.98932">
        <ele>556</ele>
        <time>2009-09-27T12:20:14Z</time>
      </trkpt>
      <trkpt lat="48.31412" lon="6.98913">
        <ele>552</ele>
        <time>2009-09-27T12:20:19Z</time>
      </trkpt>
      <trkpt lat="48.31413" lon="6.98898">
        <ele>554</ele>
        <time>2009-09-27T12:20:23Z</time>
      </trkpt>
      <trkpt lat="48.31416" lon="6.98872">
        <ele>553</ele>
        <time>2009-09-27T12:20:27Z</time>
      </trkpt>
      <trkpt lat="48.31411" lon="6.98845">
        <ele>550</ele>
        <time>2009-09-27T12:20:31Z</time>
      </trkpt>
      <trkpt lat="48.31398" lon="6.98824">
        <ele>548</ele>
        <time>2009-09-27T12:20:35Z</time>
      </trkpt>
      <trkpt lat="48.3138" lon="6.9881">
        <ele>550</ele>
        <time>2009-09-27T12:20:39Z</time>
      </trkpt>
      <trkpt lat="48.31362" lon="6.98792">
        <ele>550</ele>
        <time>2009-09-27T12:20:43Z</time>
      </trkpt>
      <trkpt lat="48.31348" lon="6.98775">
        <ele>551</ele>
        <time>2009-09-27T12:20:47Z</time>
      </trkpt>
      <trkpt lat="48.31334" lon="6.98755">
        <ele>552</ele>
        <time>2009-09-27T12:20:51Z</time>
      </trkpt>
      <trkpt lat="48.31313" lon="6.98745">
        <ele>558</ele>
        <time>2009-09-27T12:20:55Z</time>
      </trkpt>
      <trkpt lat="48.31295" lon="6.98743">
        <ele>562</ele>
        <time>2009-09-27T12:20:59Z</time>
      </trkpt>
      <trkpt lat="48.31279" lon="6.98745">
        <ele>565</ele>
        <time>2009-09-27T12:21:03Z</time>
      </trkpt>
      <trkpt lat="48.31274" lon="6.9874">
        <ele>566</ele>
        <time>2009-09-27T12:21:07Z</time>
      </trkpt>
      <trkpt lat="48.31273" lon="6.98723">
        <ele>565</ele>
        <time>2009-09-27T12:21:11Z</time>
      </trkpt>
      <trkpt lat="48.3128" lon="6.98706">
        <ele>564</ele>
        <time>2009-09-27T12:21:15Z</time>
      </trkpt>
      <trkpt lat="48.31289" lon="6.98682">
        <ele>563</ele>
        <time>2009-09-27T12:21:19Z</time>
      </trkpt>
      <trkpt lat="48.31296" lon="6.98661">
        <ele>562</ele>
        <time>2009-09-27T12:21:23Z</time>
      </trkpt>
      <trkpt lat="48.31299" lon="6.98634">
        <ele>562</ele>
        <time>2009-09-27T12:21:27Z</time>
      </trkpt>
      <trkpt lat="48.31303" lon="6.98608">
        <ele>562</ele>
        <time>2009-09-27T12:21:31Z</time>
      </trkpt>
      <trkpt lat="48.31311" lon="6.98582">
        <ele>562</ele>
        <time>2009-09-27T12:21:35Z</time>
      </trkpt>
      <trkpt lat="48.31318" lon="6.98552">
        <ele>563</ele>
        <time>2009-09-27T12:21:39Z</time>
      </trkpt>
      <trkpt lat="48.31324" lon="6.98509">
        <ele>559</ele>
        <time>2009-09-27T12:21:43Z</time>
      </trkpt>
      <trkpt lat="48.3133" lon="6.98455">
        <ele>559</ele>
        <time>2009-09-27T12:21:48Z</time>
      </trkpt>
      <trkpt lat="48.3133" lon="6.98421">
        <ele>549</ele>
        <time>2009-09-27T12:21:53Z</time>
      </trkpt>
      <trkpt lat="48.31325" lon="6.98394">
        <ele>550</ele>
        <time>2009-09-27T12:21:57Z</time>
      </trkpt>
      <trkpt lat="48.31317" lon="6.98366">
        <ele>550</ele>
        <time>2009-09-27T12:22:01Z</time>
      </trkpt>
      <trkpt lat="48.31311" lon="6.98342">
        <ele>548</ele>
        <time>2009-09-27T12:22:05Z</time>
      </trkpt>
      <trkpt lat="48.313" lon="6.98312">
        <ele>545</ele>
        <time>2009-09-27T12:22:09Z</time>
      </trkpt>
      <trkpt lat="48.31287" lon="6.98284">
        <ele>546</ele>
        <time>2009-09-27T12:22:13Z</time>
      </trkpt>
      <trkpt lat="48.31275" lon="6.9826">
        <ele>547</ele>
        <time>2009-09-27T12:22:17Z</time>
      </trkpt>
      <trkpt lat="48.31272" lon="6.98242">
        <ele>543</ele>
        <time>2009-09-27T12:22:21Z</time>
      </trkpt>
      <trkpt lat="48.31267" lon="6.98226">
        <ele>542</ele>
        <time>2009-09-27T12:22:25Z</time>
      </trkpt>
      <trkpt lat="48.31252" lon="6.98203">
        <ele>541</ele>
        <time>2009-09-27T12:22:29Z</time>
      </trkpt>
      <trkpt lat="48.31241" lon="6.98184">
        <ele>551</ele>
        <time>2009-09-27T12:22:33Z</time>
      </trkpt>
      <trkpt lat="48.31227" lon="6.98159">
        <ele>547</ele>
        <time>2009-09-27T12:22:38Z</time>
      </trkpt>
      <trkpt lat="48.31204" lon="6.98135">
        <ele>549</ele>
        <time>2009-09-27T12:22:42Z</time>
      </trkpt>
      <trkpt lat="48.31183" lon="6.98111">
        <ele>550</ele>
        <time>2009-09-27T12:22:46Z</time>
      </trkpt>
      <trkpt lat="48.31156" lon="6.9808">
        <ele>553</ele>
        <time>2009-09-27T12:22:50Z</time>
      </trkpt>
      <trkpt lat="48.31139" lon="6.98048">
        <ele>553</ele>
        <time>2009-09-27T12:22:54Z</time>
      </trkpt>
      <trkpt lat="48.31122" lon="6.98015">
        <ele>552</ele>
        <time>2009-09-27T12:22:58Z</time>
      </trkpt>
      <trkpt lat="48.31104" lon="6.97979">
        <ele>544</ele>
        <time>2009-09-27T12:23:02Z</time>
      </trkpt>
      <trkpt lat="48.31085" lon="6.9795">
        <ele>541</ele>
        <time>2009-09-27T12:23:06Z</time>
      </trkpt>
      <trkpt lat="48.3107" lon="6.97929">
        <ele>547</ele>
        <time>2009-09-27T12:23:10Z</time>
      </trkpt>
      <trkpt lat="48.31048" lon="6.97915">
        <ele>540</ele>
        <time>2009-09-27T12:23:14Z</time>
      </trkpt>
      <trkpt lat="48.31011" lon="6.9789">
        <ele>541</ele>
        <time>2009-09-27T12:23:19Z</time>
      </trkpt>
      <trkpt lat="48.3098" lon="6.9787">
        <ele>541</ele>
        <time>2009-09-27T12:23:23Z</time>
      </trkpt>
      <trkpt lat="48.3096" lon="6.97856">
        <ele>541</ele>
        <time>2009-09-27T12:23:27Z</time>
      </trkpt>
      <trkpt lat="48.30928" lon="6.9785">
        <ele>540</ele>
        <time>2009-09-27T12:23:31Z</time>
      </trkpt>
      <trkpt lat="48.30891" lon="6.97833">
        <ele>531</ele>
        <time>2009-09-27T12:23:35Z</time>
      </trkpt>
      <trkpt lat="48.30861" lon="6.97822">
        <ele>530</ele>
        <time>2009-09-27T12:23:39Z</time>
      </trkpt>
      <trkpt lat="48.30831" lon="6.9782">
        <ele>527</ele>
        <time>2009-09-27T12:23:43Z</time>
      </trkpt>
      <trkpt lat="48.30801" lon="6.97832">
        <ele>522</ele>
        <time>2009-09-27T12:23:47Z</time>
      </trkpt>
      <trkpt lat="48.30771" lon="6.97877">
        <ele>529</ele>
        <time>2009-09-27T12:23:51Z</time>
      </trkpt>
      <trkpt lat="48.30752" lon="6.97915">
        <ele>528</ele>
        <time>2009-09-27T12:23:55Z</time>
      </trkpt>
      <trkpt lat="48.30744" lon="6.97938">
        <ele>527</ele>
        <time>2009-09-27T12:23:59Z</time>
      </trkpt>
      <trkpt lat="48.30734" lon="6.97979">
        <ele>529</ele>
        <time>2009-09-27T12:24:03Z</time>
      </trkpt>
      <trkpt lat="48.30717" lon="6.97997">
        <ele>528</ele>
        <time>2009-09-27T12:24:08Z</time>
      </trkpt>
      <trkpt lat="48.30693" lon="6.98017">
        <ele>532</ele>
        <time>2009-09-27T12:24:12Z</time>
      </trkpt>
      <trkpt lat="48.30665" lon="6.98037">
        <ele>528</ele>
        <time>2009-09-27T12:24:16Z</time>
      </trkpt>
      <trkpt lat="48.30643" lon="6.98033">
        <ele>529</ele>
        <time>2009-09-27T12:24:20Z</time>
      </trkpt>
      <trkpt lat="48.30619" lon="6.97997">
        <ele>528</ele>
        <time>2009-09-27T12:24:24Z</time>
      </trkpt>
      <trkpt lat="48.30611" lon="6.97969">
        <ele>528</ele>
        <time>2009-09-27T12:24:28Z</time>
      </trkpt>
      <trkpt lat="48.30617" lon="6.97947">
        <ele>527</ele>
        <time>2009-09-27T12:24:32Z</time>
      </trkpt>
      <trkpt lat="48.30623" lon="6.97932">
        <ele>526</ele>
        <time>2009-09-27T12:24:36Z</time>
      </trkpt>
      <trkpt lat="48.3062" lon="6.97918">
        <ele>526</ele>
        <time>2009-09-27T12:24:40Z</time>
      </trkpt>
      <trkpt lat="48.30618" lon="6.97903">
        <ele>522</ele>
        <time>2009-09-27T12:24:44Z</time>
      </trkpt>
      <trkpt lat="48.3061" lon="6.97884">
        <ele>521</ele>
        <time>2009-09-27T12:24:49Z</time>
      </trkpt>
      <trkpt lat="48.30599" lon="6.97868">
        <ele>521</ele>
        <time>2009-09-27T12:24:53Z</time>
      </trkpt>
      <trkpt lat="48.30587" lon="6.97855">
        <ele>521</ele>
        <time>2009-09-27T12:24:57Z</time>
      </trkpt>
      <trkpt lat="48.30577" lon="6.97848">
        <ele>530</ele>
        <time>2009-09-27T12:25:01Z</time>
      </trkpt>
      <trkpt lat="48.30563" lon="6.97838">
        <ele>531</ele>
        <time>2009-09-27T12:25:05Z</time>
      </trkpt>
      <trkpt lat="48.30547" lon="6.97829">
        <ele>532</ele>
        <time>2009-09-27T12:25:09Z</time>
      </trkpt>
      <trkpt lat="48.30536" lon="6.97817">
        <ele>534</ele>
        <time>2009-09-27T12:25:13Z</time>
      </trkpt>
      <trkpt lat="48.30534" lon="6.97814">
        <ele>534</ele>
        <time>2009-09-27T12:25:17Z</time>
      </trkpt>
      <trkpt lat="48.30532" lon="6.97805">
        <ele>534</ele>
        <time>2009-09-27T12:25:21Z</time>
      </trkpt>
      <trkpt lat="48.30542" lon="6.97794">
        <ele>532</ele>
        <time>2009-09-27T12:25:25Z</time>
      </trkpt>
      <trkpt lat="48.30551" lon="6.97779">
        <ele>531</ele>
        <time>2009-09-27T12:25:29Z</time>
      </trkpt>
      <trkpt lat="48.30552" lon="6.97758">
        <ele>529</ele>
        <time>2009-09-27T12:25:33Z</time>
      </trkpt>
      <trkpt lat="48.30543" lon="6.97729">
        <ele>531</ele>
        <time>2009-09-27T12:25:38Z</time>
      </trkpt>
      <trkpt lat="48.30539" lon="6.97706">
        <ele>532</ele>
        <time>2009-09-27T12:25:42Z</time>
      </trkpt>
      <trkpt lat="48.30542" lon="6.97681">
        <ele>532</ele>
        <time>2009-09-27T12:25:46Z</time>
      </trkpt>
      <trkpt lat="48.30548" lon="6.97655">
        <ele>532</ele>
        <time>2009-09-27T12:25:50Z</time>
      </trkpt>
      <trkpt lat="48.30558" lon="6.9763">
        <ele>532</ele>
        <time>2009-09-27T12:25:54Z</time>
      </trkpt>
      <trkpt lat="48.30565" lon="6.97604">
        <ele>530</ele>
        <time>2009-09-27T12:25:58Z</time>
      </trkpt>
      <trkpt lat="48.30565" lon="6.97568">
        <ele>529</ele>
        <time>2009-09-27T12:26:02Z</time>
      </trkpt>
      <trkpt lat="48.30563" lon="6.9753">
        <ele>529</ele>
        <time>2009-09-27T12:26:06Z</time>
      </trkpt>
      <trkpt lat="48.30558" lon="6.97498">
        <ele>522</ele>
        <time>2009-09-27T12:26:10Z</time>
      </trkpt>
      <trkpt lat="48.30544" lon="6.9747">
        <ele>521</ele>
        <time>2009-09-27T12:26:14Z</time>
      </trkpt>
      <trkpt lat="48.30527" lon="6.97459">
        <ele>522</ele>
        <time>2009-09-27T12:26:18Z</time>
      </trkpt>
      <trkpt lat="48.30508" lon="6.97455">
        <ele>522</ele>
        <time>2009-09-27T12:26:22Z</time>
      </trkpt>
      <trkpt lat="48.30489" lon="6.97457">
        <ele>529</ele>
        <time>2009-09-27T12:26:26Z</time>
      </trkpt>
      <trkpt lat="48.3047" lon="6.97466">
        <ele>531</ele>
        <time>2009-09-27T12:26:30Z</time>
      </trkpt>
      <trkpt lat="48.30459" lon="6.97469">
        <ele>532</ele>
        <time>2009-09-27T12:26:34Z</time>
      </trkpt>
      <trkpt lat="48.30449" lon="6.97474">
        <ele>533</ele>
        <time>2009-09-27T12:26:38Z</time>
      </trkpt>
      <trkpt lat="48.30435" lon="6.97472">
        <ele>534</ele>
        <time>2009-09-27T12:26:42Z</time>
      </trkpt>
      <trkpt lat="48.30427" lon="6.97454">
        <ele>532</ele>
        <time>2009-09-27T12:26:46Z</time>
      </trkpt>
      <trkpt lat="48.3042" lon="6.97428">
        <ele>529</ele>
        <time>2009-09-27T12:26:50Z</time>
      </trkpt>
      <trkpt lat="48.30417" lon="6.97402">
        <ele>524</ele>
        <time>2009-09-27T12:26:54Z</time>
      </trkpt>
      <trkpt lat="48.30408" lon="6.97386">
        <ele>536</ele>
        <time>2009-09-27T12:26:58Z</time>
      </trkpt>
      <trkpt lat="48.30403" lon="6.97342">
        <ele>532</ele>
        <time>2009-09-27T12:27:03Z</time>
      </trkpt>
      <trkpt lat="48.30389" lon="6.97314">
        <ele>530</ele>
        <time>2009-09-27T12:27:07Z</time>
      </trkpt>
      <trkpt lat="48.30383" lon="6.97284">
        <ele>529</ele>
        <time>2009-09-27T12:27:11Z</time>
      </trkpt>
      <trkpt lat="48.30373" lon="6.97271">
        <ele>530</ele>
        <time>2009-09-27T12:27:15Z</time>
      </trkpt>
      <trkpt lat="48.30374" lon="6.97264">
        <ele>530</ele>
        <time>2009-09-27T12:27:19Z</time>
      </trkpt>
      <trkpt lat="48.30369" lon="6.97253">
        <ele>530</ele>
        <time>2009-09-27T12:27:23Z</time>
      </trkpt>
      <trkpt lat="48.30361" lon="6.97236">
        <ele>523</ele>
        <time>2009-09-27T12:27:27Z</time>
      </trkpt>
      <trkpt lat="48.30352" lon="6.97226">
        <ele>523</ele>
        <time>2009-09-27T12:27:31Z</time>
      </trkpt>
      <trkpt lat="48.30336" lon="6.97211">
        <ele>522</ele>
        <time>2009-09-27T12:27:35Z</time>
      </trkpt>
      <trkpt lat="48.3032" lon="6.97198">
        <ele>530</ele>
        <time>2009-09-27T12:27:39Z</time>
      </trkpt>
      <trkpt lat="48.30305" lon="6.97188">
        <ele>530</ele>
        <time>2009-09-27T12:27:43Z</time>
      </trkpt>
      <trkpt lat="48.30285" lon="6.97172">
        <ele>532</ele>
        <time>2009-09-27T12:27:47Z</time>
      </trkpt>
      <trkpt lat="48.3027" lon="6.97161">
        <ele>524</ele>
        <time>2009-09-27T12:27:51Z</time>
      </trkpt>
      <trkpt lat="48.30249" lon="6.97142">
        <ele>529</ele>
        <time>2009-09-27T12:27:55Z</time>
      </trkpt>
      <trkpt lat="48.30234" lon="6.97129">
        <ele>528</ele>
        <time>2009-09-27T12:27:59Z</time>
      </trkpt>
      <trkpt lat="48.30215" lon="6.97118">
        <ele>528</ele>
        <time>2009-09-27T12:28:03Z</time>
      </trkpt>
      <trkpt lat="48.30196" lon="6.97104">
        <ele>529</ele>
        <time>2009-09-27T12:28:07Z</time>
      </trkpt>
      <trkpt lat="48.30184" lon="6.97089">
        <ele>529</ele>
        <time>2009-09-27T12:28:11Z</time>
      </trkpt>
      <trkpt lat="48.30172" lon="6.97064">
        <ele>521</ele>
        <time>2009-09-27T12:28:15Z</time>
      </trkpt>
      <trkpt lat="48.3017" lon="6.97039">
        <ele>517</ele>
        <time>2009-09-27T12:28:20Z</time>
      </trkpt>
      <trkpt lat="48.30164" lon="6.97016">
        <ele>520</ele>
        <time>2009-09-27T12:28:24Z</time>
      </trkpt>
      <trkpt lat="48.30157" lon="6.96986">
        <ele>518</ele>
        <time>2009-09-27T12:28:28Z</time>
      </trkpt>
      <trkpt lat="48.30153" lon="6.96953">
        <ele>518</ele>
        <time>2009-09-27T12:28:32Z</time>
      </trkpt>
      <trkpt lat="48.30154" lon="6.96918">
        <ele>518</ele>
        <time>2009-09-27T12:28:36Z</time>
      </trkpt>
      <trkpt lat="48.30153" lon="6.96888">
        <ele>517</ele>
        <time>2009-09-27T12:28:40Z</time>
      </trkpt>
      <trkpt lat="48.30148" lon="6.96859">
        <ele>517</ele>
        <time>2009-09-27T12:28:44Z</time>
      </trkpt>
      <trkpt lat="48.30147" lon="6.96844">
        <ele>517</ele>
        <time>2009-09-27T12:28:48Z</time>
      </trkpt>
      <trkpt lat="48.30146" lon="6.96843">
        <ele>517</ele>
        <time>2009-09-27T12:28:52Z</time>
      </trkpt>
      <trkpt lat="48.30147" lon="6.96844">
        <ele>517</ele>
        <time>2009-09-27T12:28:56Z</time>
      </trkpt>
      <trkpt lat="48.30145" lon="6.96843">
        <ele>517</ele>
        <time>2009-09-27T12:29:00Z</time>
      </trkpt>
      <trkpt lat="48.30145" lon="6.96836">
        <ele>517</ele>
        <time>2009-09-27T12:29:04Z</time>
      </trkpt>
      <trkpt lat="48.30147" lon="6.9683">
        <ele>516</ele>
        <time>2009-09-27T12:29:08Z</time>
      </trkpt>
      <trkpt lat="48.30145" lon="6.9683">
        <ele>516</ele>
        <time>2009-09-27T12:29:13Z</time>
      </trkpt>
      <trkpt lat="48.30143" lon="6.96832">
        <ele>516</ele>
        <time>2009-09-27T12:29:17Z</time>
      </trkpt>
      <trkpt lat="48.30146" lon="6.96836">
        <ele>517</ele>
        <time>2009-09-27T12:29:21Z</time>
      </trkpt>
      <trkpt lat="48.30144" lon="6.96839">
        <ele>517</ele>
        <time>2009-09-27T12:29:25Z</time>
      </trkpt>
      <trkpt lat="48.30141" lon="6.96844">
        <ele>517</ele>
        <time>2009-09-27T12:29:29Z</time>
      </trkpt>
      <trkpt lat="48.30143" lon="6.96843">
        <ele>517</ele>
        <time>2009-09-27T12:29:33Z</time>
      </trkpt>
      <trkpt lat="48.30142" lon="6.96844">
        <ele>517</ele>
        <time>2009-09-27T12:29:37Z</time>
      </trkpt>
      <trkpt lat="48.30135" lon="6.9684">
        <ele>517</ele>
        <time>2009-09-27T12:29:41Z</time>
      </trkpt>
      <trkpt lat="48.30136" lon="6.96839">
        <ele>517</ele>
        <time>2009-09-27T12:29:45Z</time>
      </trkpt>
      <trkpt lat="48.30139" lon="6.96837">
        <ele>517</ele>
        <time>2009-09-27T12:29:49Z</time>
      </trkpt>
      <trkpt lat="48.30138" lon="6.96836">
        <ele>517</ele>
        <time>2009-09-27T12:29:54Z</time>
      </trkpt>
      <trkpt lat="48.30131" lon="6.96835">
        <ele>517</ele>
        <time>2009-09-27T12:29:58Z</time>
      </trkpt>
      <trkpt lat="48.3013" lon="6.96832">
        <ele>516</ele>
        <time>2009-09-27T12:30:02Z</time>
      </trkpt>
      <trkpt lat="48.30136" lon="6.96839">
        <ele>517</ele>
        <time>2009-09-27T12:30:06Z</time>
      </trkpt>
      <trkpt lat="48.30138" lon="6.9684">
        <ele>517</ele>
        <time>2009-09-27T12:30:10Z</time>
      </trkpt>
      <trkpt lat="48.30144" lon="6.96845">
        <ele>517</ele>
        <time>2009-09-27T12:30:14Z</time>
      </trkpt>
      <trkpt lat="48.3015" lon="6.96846">
        <ele>517</ele>
        <time>2009-09-27T12:30:18Z</time>
      </trkpt>
      <trkpt lat="48.30151" lon="6.96848">
        <ele>517</ele>
        <time>2009-09-27T12:30:22Z</time>
      </trkpt>
      <trkpt lat="48.30152" lon="6.96849">
        <ele>517</ele>
        <time>2009-09-27T12:30:26Z</time>
      </trkpt>
      <trkpt lat="48.30151" lon="6.96849">
        <ele>517</ele>
        <time>2009-09-27T12:30:30Z</time>
      </trkpt>
      <trkpt lat="48.30147" lon="6.96851">
        <ele>517</ele>
        <time>2009-09-27T12:30:34Z</time>
      </trkpt>
      <trkpt lat="48.30147" lon="6.96849">
        <ele>517</ele>
        <time>2009-09-27T12:30:38Z</time>
      </trkpt>
      <trkpt lat="48.30148" lon="6.96849">
        <ele>517</ele>
        <time>2009-09-27T12:30:42Z</time>
      </trkpt>
      <trkpt lat="48.30148" lon="6.96848">
        <ele>517</ele>
        <time>2009-09-27T12:30:47Z</time>
      </trkpt>
      <trkpt lat="48.30145" lon="6.96847">
        <ele>517</ele>
        <time>2009-09-27T12:30:51Z</time>
      </trkpt>
      <trkpt lat="48.30145" lon="6.96847">
        <ele>517</ele>
        <time>2009-09-27T12:30:55Z</time>
      </trkpt>
      <trkpt lat="48.30145" lon="6.96844">
        <ele>517</ele>
        <time>2009-09-27T12:30:59Z</time>
      </trkpt>
      <trkpt lat="48.30144" lon="6.96843">
        <ele>517</ele>
        <time>2009-09-27T12:31:03Z</time>
      </trkpt>
      <trkpt lat="48.30142" lon="6.9684">
        <ele>517</ele>
        <time>2009-09-27T12:31:07Z</time>
      </trkpt>
      <trkpt lat="48.30143" lon="6.96839">
        <ele>517</ele>
        <time>2009-09-27T12:31:11Z</time>
      </trkpt>
      <trkpt lat="48.30139" lon="6.96837">
        <ele>517</ele>
        <time>2009-09-27T12:31:15Z</time>
      </trkpt>
      <trkpt lat="48.30134" lon="6.96836">
        <ele>517</ele>
        <time>2009-09-27T12:31:19Z</time>
      </trkpt>
      <trkpt lat="48.30135" lon="6.96839">
        <ele>517</ele>
        <time>2009-09-27T12:31:23Z</time>
      </trkpt>
      <trkpt lat="48.30135" lon="6.96838">
        <ele>517</ele>
        <time>2009-09-27T12:31:28Z</time>
      </trkpt>
      <trkpt lat="48.30135" lon="6.96838">
        <ele>517</ele>
        <time>2009-09-27T12:31:32Z</time>
      </trkpt>
      <trkpt lat="48.30133" lon="6.96834">
        <ele>517</ele>
        <time>2009-09-27T12:31:36Z</time>
      </trkpt>
      <trkpt lat="48.3013" lon="6.96832">
        <ele>516</ele>
        <time>2009-09-27T12:31:40Z</time>
      </trkpt>
      <trkpt lat="48.30129" lon="6.96832">
        <ele>516</ele>
        <time>2009-09-27T12:31:44Z</time>
      </trkpt>
      <trkpt lat="48.30125" lon="6.96835">
        <ele>517</ele>
        <time>2009-09-27T12:31:48Z</time>
      </trkpt>
      <trkpt lat="48.30128" lon="6.96835">
        <ele>517</ele>
        <time>2009-09-27T12:31:52Z</time>
      </trkpt>
      <trkpt lat="48.30132" lon="6.96836">
        <ele>517</ele>
        <time>2009-09-27T12:31:56Z</time>
      </trkpt>
      <trkpt lat="48.30135" lon="6.96836">
        <ele>517</ele>
        <time>2009-09-27T12:32:00Z</time>
      </trkpt>
      <trkpt lat="48.30139" lon="6.96836">
        <ele>517</ele>
        <time>2009-09-27T12:32:04Z</time>
      </trkpt>
      <trkpt lat="48.30141" lon="6.96835">
        <ele>517</ele>
        <time>2009-09-27T12:32:09Z</time>
      </trkpt>
      <trkpt lat="48.30142" lon="6.96832">
        <ele>516</ele>
        <time>2009-09-27T12:32:13Z</time>
      </trkpt>
      <trkpt lat="48.30138" lon="6.96831">
        <ele>516</ele>
        <time>2009-09-27T12:32:17Z</time>
      </trkpt>
      <trkpt lat="48.30135" lon="6.96831">
        <ele>516</ele>
        <time>2009-09-27T12:32:21Z</time>
      </trkpt>
      <trkpt lat="48.30132" lon="6.96828">
        <ele>516</ele>
        <time>2009-09-27T12:32:25Z</time>
      </trkpt>
      <trkpt lat="48.30133" lon="6.96834">
        <ele>517</ele>
        <time>2009-09-27T12:32:29Z</time>
      </trkpt>
      <trkpt lat="48.30131" lon="6.96836">
        <ele>517</ele>
        <time>2009-09-27T12:32:33Z</time>
      </trkpt>
      <trkpt lat="48.3013" lon="6.96836">
        <ele>517</ele>
        <time>2009-09-27T12:32:37Z</time>
      </trkpt>
      <trkpt lat="48.30131" lon="6.96838">
        <ele>517</ele>
        <time>2009-09-27T12:32:41Z</time>
      </trkpt>
      <trkpt lat="48.30131" lon="6.96838">
        <ele>517</ele>
        <time>2009-09-27T12:32:46Z</time>
      </trkpt>
      <trkpt lat="48.30131" lon="6.96838">
        <ele>517</ele>
        <time>2009-09-27T12:32:51Z</time>
      </trkpt>
      <trkpt lat="48.30126" lon="6.96835">
        <ele>517</ele>
        <time>2009-09-27T12:32:55Z</time>
      </trkpt>
      <trkpt lat="48.30125" lon="6.96834">
        <ele>517</ele>
        <time>2009-09-27T12:32:59Z</time>
      </trkpt>
      <trkpt lat="48.30125" lon="6.96835">
        <ele>517</ele>
        <time>2009-09-27T12:33:03Z</time>
      </trkpt>
      <trkpt lat="48.30125" lon="6.96835">
        <ele>517</ele>
        <time>2009-09-27T12:33:07Z</time>
      </trkpt>
      <trkpt lat="48.30125" lon="6.96835">
        <ele>517</ele>
        <time>2009-09-27T12:33:11Z</time>
      </trkpt>
      <trkpt lat="48.30127" lon="6.96835">
        <ele>517</ele>
        <time>2009-09-27T12:33:15Z</time>
      </trkpt>
      <trkpt lat="48.30129" lon="6.96835">
        <ele>517</ele>
        <time>2009-09-27T12:33:19Z</time>
      </trkpt>
      <trkpt lat="48.3013" lon="6.96835">
        <ele>517</ele>
        <time>2009-09-27T12:33:23Z</time>
      </trkpt>
      <trkpt lat="48.30132" lon="6.96836">
        <ele>517</ele>
        <time>2009-09-27T12:33:27Z</time>
      </trkpt>
      <trkpt lat="48.30133" lon="6.96836">
        <ele>517</ele>
        <time>2009-09-27T12:33:31Z</time>
      </trkpt>
      <trkpt lat="48.30134" lon="6.96839">
        <ele>517</ele>
        <time>2009-09-27T12:33:35Z</time>
      </trkpt>
      <trkpt lat="48.30135" lon="6.96842">
        <ele>517</ele>
        <time>2009-09-27T12:33:40Z</time>
      </trkpt>
      <trkpt lat="48.30135" lon="6.9684">
        <ele>517</ele>
        <time>2009-09-27T12:33:44Z</time>
      </trkpt>
      <trkpt lat="48.30137" lon="6.96842">
        <ele>517</ele>
        <time>2009-09-27T12:33:48Z</time>
      </trkpt>
      <trkpt lat="48.30139" lon="6.96843">
        <ele>517</ele>
        <time>2009-09-27T12:33:52Z</time>
      </trkpt>
      <trkpt lat="48.30138" lon="6.9684">
        <ele>517</ele>
        <time>2009-09-27T12:33:56Z</time>
      </trkpt>
      <trkpt lat="48.30138" lon="6.9684">
        <ele>517</ele>
        <time>2009-09-27T12:34:00Z</time>
      </trkpt>
      <trkpt lat="48.30138" lon="6.9684">
        <ele>517</ele>
        <time>2009-09-27T12:34:04Z</time>
      </trkpt>
      <trkpt lat="48.30135" lon="6.96839">
        <ele>517</ele>
        <time>2009-09-27T12:34:08Z</time>
      </trkpt>
      <trkpt lat="48.30133" lon="6.96836">
        <ele>517</ele>
        <time>2009-09-27T12:34:12Z</time>
      </trkpt>
      <trkpt lat="48.3013" lon="6.96835">
        <ele>517</ele>
        <time>2009-09-27T12:34:16Z</time>
      </trkpt>
      <trkpt lat="48.30129" lon="6.96835">
        <ele>517</ele>
        <time>2009-09-27T12:34:20Z</time>
      </trkpt>
      <trkpt lat="48.30129" lon="6.96835">
        <ele>517</ele>
        <time>2009-09-27T12:34:25Z</time>
      </trkpt>
      <trkpt lat="48.30128" lon="6.96834">
        <ele>517</ele>
        <time>2009-09-27T12:34:29Z</time>
      </trkpt>
      <trkpt lat="48.30128" lon="6.96833">
        <ele>516</ele>
        <time>2009-09-27T12:34:33Z</time>
      </trkpt>
      <trkpt lat="48.30133" lon="6.96835">
        <ele>517</ele>
        <time>2009-09-27T12:34:37Z</time>
      </trkpt>
      <trkpt lat="48.30131" lon="6.96835">
        <ele>517</ele>
        <time>2009-09-27T12:34:41Z</time>
      </trkpt>
      <trkpt lat="48.3013" lon="6.96839">
        <ele>517</ele>
        <time>2009-09-27T12:34:45Z</time>
      </trkpt>
      <trkpt lat="48.30134" lon="6.96839">
        <ele>517</ele>
        <time>2009-09-27T12:34:49Z</time>
      </trkpt>
      <trkpt lat="48.30135" lon="6.9684">
        <ele>517</ele>
        <time>2009-09-27T12:34:53Z</time>
      </trkpt>
      <trkpt lat="48.30143" lon="6.96836">
        <ele>517</ele>
        <time>2009-09-27T12:34:57Z</time>
      </trkpt>
      <trkpt lat="48.3014" lon="6.96819">
        <ele>516</ele>
        <time>2009-09-27T12:35:01Z</time>
      </trkpt>
      <trkpt lat="48.30137" lon="6.96797">
        <ele>516</ele>
        <time>2009-09-27T12:35:05Z</time>
      </trkpt>
      <trkpt lat="48.30133" lon="6.96776">
        <ele>516</ele>
        <time>2009-09-27T12:35:09Z</time>
      </trkpt>
      <trkpt lat="48.30126" lon="6.96768">
        <ele>516</ele>
        <time>2009-09-27T12:35:13Z</time>
      </trkpt>
      <trkpt lat="48.30119" lon="6.96768">
        <ele>516</ele>
        <time>2009-09-27T12:35:17Z</time>
      </trkpt>
      <trkpt lat="48.30112" lon="6.96774">
        <ele>516</ele>
        <time>2009-09-27T12:35:21Z</time>
      </trkpt>
      <trkpt lat="48.30107" lon="6.96792">
        <ele>516</ele>
        <time>2009-09-27T12:35:25Z</time>
      </trkpt>
      <trkpt lat="48.30103" lon="6.96813">
        <ele>516</ele>
        <time>2009-09-27T12:35:29Z</time>
      </trkpt>
      <trkpt lat="48.301" lon="6.9684">
        <ele>517</ele>
        <time>2009-09-27T12:35:33Z</time>
      </trkpt>
      <trkpt lat="48.30098" lon="6.96861">
        <ele>517</ele>
        <time>2009-09-27T12:35:37Z</time>
      </trkpt>
      <trkpt lat="48.30084" lon="6.9689">
        <ele>517</ele>
        <time>2009-09-27T12:35:42Z</time>
      </trkpt>
      <trkpt lat="48.30073" lon="6.9692">
        <ele>511</ele>
        <time>2009-09-27T12:35:46Z</time>
      </trkpt>
      <trkpt lat="48.30064" lon="6.9695">
        <ele>506</ele>
        <time>2009-09-27T12:35:50Z</time>
      </trkpt>
      <trkpt lat="48.30055" lon="6.96981">
        <ele>506</ele>
        <time>2009-09-27T12:35:54Z</time>
      </trkpt>
      <trkpt lat="48.30049" lon="6.97018">
        <ele>507</ele>
        <time>2009-09-27T12:35:58Z</time>
      </trkpt>
      <trkpt lat="48.30046" lon="6.97058">
        <ele>507</ele>
        <time>2009-09-27T12:36:02Z</time>
      </trkpt>
      <trkpt lat="48.30046" lon="6.97097">
        <ele>507</ele>
        <time>2009-09-27T12:36:06Z</time>
      </trkpt>
      <trkpt lat="48.30056" lon="6.97135">
        <ele>508</ele>
        <time>2009-09-27T12:36:10Z</time>
      </trkpt>
      <trkpt lat="48.30072" lon="6.97166">
        <ele>514</ele>
        <time>2009-09-27T12:36:14Z</time>
      </trkpt>
      <trkpt lat="48.30082" lon="6.97203">
        <ele>509</ele>
        <time>2009-09-27T12:36:18Z</time>
      </trkpt>
      <trkpt lat="48.30085" lon="6.97235">
        <ele>522</ele>
        <time>2009-09-27T12:36:22Z</time>
      </trkpt>
      <trkpt lat="48.30072" lon="6.97284">
        <ele>506</ele>
        <time>2009-09-27T12:36:26Z</time>
      </trkpt>
      <trkpt lat="48.30063" lon="6.97335">
        <ele>507</ele>
        <time>2009-09-27T12:36:32Z</time>
      </trkpt>
      <trkpt lat="48.3006" lon="6.97381">
        <ele>503</ele>
        <time>2009-09-27T12:36:36Z</time>
      </trkpt>
      <trkpt lat="48.30061" lon="6.97426">
        <ele>506</ele>
        <time>2009-09-27T12:36:40Z</time>
      </trkpt>
      <trkpt lat="48.30067" lon="6.9747">
        <ele>506</ele>
        <time>2009-09-27T12:36:44Z</time>
      </trkpt>
      <trkpt lat="48.30071" lon="6.97516">
        <ele>513</ele>
        <time>2009-09-27T12:36:48Z</time>
      </trkpt>
      <trkpt lat="48.3007" lon="6.97548">
        <ele>515</ele>
        <time>2009-09-27T12:36:52Z</time>
      </trkpt>
      <trkpt lat="48.30047" lon="6.97548">
        <ele>511</ele>
        <time>2009-09-27T12:36:56Z</time>
      </trkpt>
      <trkpt lat="48.30017" lon="6.97556">
        <ele>508</ele>
        <time>2009-09-27T12:37:00Z</time>
      </trkpt>
      <trkpt lat="48.29987" lon="6.97565">
        <ele>497</ele>
        <time>2009-09-27T12:37:04Z</time>
      </trkpt>
      <trkpt lat="48.29962" lon="6.97575">
        <ele>493</ele>
        <time>2009-09-27T12:37:08Z</time>
      </trkpt>
      <trkpt lat="48.29932" lon="6.9761">
        <ele>497</ele>
        <time>2009-09-27T12:37:13Z</time>
      </trkpt>
      <trkpt lat="48.29913" lon="6.97646">
        <ele>484</ele>
        <time>2009-09-27T12:37:17Z</time>
      </trkpt>
      <trkpt lat="48.29894" lon="6.97689">
        <ele>483</ele>
        <time>2009-09-27T12:37:21Z</time>
      </trkpt>
      <trkpt lat="48.29889" lon="6.97735">
        <ele>482</ele>
        <time>2009-09-27T12:37:25Z</time>
      </trkpt>
      <trkpt lat="48.29912" lon="6.97781">
        <ele>483</ele>
        <time>2009-09-27T12:37:29Z</time>
      </trkpt>
      <trkpt lat="48.2993" lon="6.97822">
        <ele>493</ele>
        <time>2009-09-27T12:37:33Z</time>
      </trkpt>
      <trkpt lat="48.29927" lon="6.97861">
        <ele>497</ele>
        <time>2009-09-27T12:37:37Z</time>
      </trkpt>
      <trkpt lat="48.29888" lon="6.9788">
        <ele>484</ele>
        <time>2009-09-27T12:37:41Z</time>
      </trkpt>
      <trkpt lat="48.29849" lon="6.97909">
        <ele>482</ele>
        <time>2009-09-27T12:37:45Z</time>
      </trkpt>
      <trkpt lat="48.2982" lon="6.97934">
        <ele>480</ele>
        <time>2009-09-27T12:37:49Z</time>
      </trkpt>
      <trkpt lat="48.29798" lon="6.97959">
        <ele>479</ele>
        <time>2009-09-27T12:37:53Z</time>
      </trkpt>
      <trkpt lat="48.2978" lon="6.97986">
        <ele>478</ele>
        <time>2009-09-27T12:37:57Z</time>
      </trkpt>
      <trkpt lat="48.29763" lon="6.98039">
        <ele>482</ele>
        <time>2009-09-27T12:38:01Z</time>
      </trkpt>
      <trkpt lat="48.29749" lon="6.98095">
        <ele>475</ele>
        <time>2009-09-27T12:38:05Z</time>
      </trkpt>
      <trkpt lat="48.2975" lon="6.98161">
        <ele>480</ele>
        <time>2009-09-27T12:38:09Z</time>
      </trkpt>
      <trkpt lat="48.29752" lon="6.98227">
        <ele>482</ele>
        <time>2009-09-27T12:38:13Z</time>
      </trkpt>
      <trkpt lat="48.29749" lon="6.98284">
        <ele>471</ele>
        <time>2009-09-27T12:38:17Z</time>
      </trkpt>
      <trkpt lat="48.29723" lon="6.98329">
        <ele>470</ele>
        <time>2009-09-27T12:38:21Z</time>
      </trkpt>
      <trkpt lat="48.29689" lon="6.98371">
        <ele>469</ele>
        <time>2009-09-27T12:38:25Z</time>
      </trkpt>
      <trkpt lat="48.29654" lon="6.98395">
        <ele>463</ele>
        <time>2009-09-27T12:38:30Z</time>
      </trkpt>
      <trkpt lat="48.29636" lon="6.98439">
        <ele>464</ele>
        <time>2009-09-27T12:38:35Z</time>
      </trkpt>
      <trkpt lat="48.29643" lon="6.9849">
        <ele>465</ele>
        <time>2009-09-27T12:38:39Z</time>
      </trkpt>
      <trkpt lat="48.29639" lon="6.98527">
        <ele>466</ele>
        <time>2009-09-27T12:38:43Z</time>
      </trkpt>
      <trkpt lat="48.29612" lon="6.98549">
        <ele>464</ele>
        <time>2009-09-27T12:38:47Z</time>
      </trkpt>
      <trkpt lat="48.29586" lon="6.98553">
        <ele>463</ele>
        <time>2009-09-27T12:38:51Z</time>
      </trkpt>
      <trkpt lat="48.2956" lon="6.98573">
        <ele>455</ele>
        <time>2009-09-27T12:38:55Z</time>
      </trkpt>
      <trkpt lat="48.29552" lon="6.98587">
        <ele>458</ele>
        <time>2009-09-27T12:38:59Z</time>
      </trkpt>
      <trkpt lat="48.29551" lon="6.98579">
        <ele>454</ele>
        <time>2009-09-27T12:39:03Z</time>
      </trkpt>
      <trkpt lat="48.29552" lon="6.98566">
        <ele>454</ele>
        <time>2009-09-27T12:39:07Z</time>
      </trkpt>
      <trkpt lat="48.29557" lon="6.98554">
        <ele>454</ele>
        <time>2009-09-27T12:39:11Z</time>
      </trkpt>
      <trkpt lat="48.2956" lon="6.98547">
        <ele>454</ele>
        <time>2009-09-27T12:39:15Z</time>
      </trkpt>
      <trkpt lat="48.29562" lon="6.9854">
        <ele>454</ele>
        <time>2009-09-27T12:39:19Z</time>
      </trkpt>
      <trkpt lat="48.29561" lon="6.98526">
        <ele>455</ele>
        <time>2009-09-27T12:39:23Z</time>
      </trkpt>
      <trkpt lat="48.29568" lon="6.985">
        <ele>455</ele>
        <time>2009-09-27T12:39:28Z</time>
      </trkpt>
      <trkpt lat="48.29575" lon="6.98483">
        <ele>455</ele>
        <time>2009-09-27T12:39:32Z</time>
      </trkpt>
      <trkpt lat="48.29589" lon="6.98468">
        <ele>461</ele>
        <time>2009-09-27T12:39:36Z</time>
      </trkpt>
      <trkpt lat="48.29596" lon="6.98447">
        <ele>461</ele>
        <time>2009-09-27T12:39:40Z</time>
      </trkpt>
      <trkpt lat="48.29597" lon="6.98426">
        <ele>460</ele>
        <time>2009-09-27T12:39:44Z</time>
      </trkpt>
      <trkpt lat="48.29582" lon="6.98406">
        <ele>454</ele>
        <time>2009-09-27T12:39:48Z</time>
      </trkpt>
      <trkpt lat="48.29567" lon="6.98372">
        <ele>451</ele>
        <time>2009-09-27T12:39:52Z</time>
      </trkpt>
      <trkpt lat="48.29562" lon="6.98337">
        <ele>452</ele>
        <time>2009-09-27T12:39:56Z</time>
      </trkpt>
      <trkpt lat="48.29558" lon="6.98303">
        <ele>448</ele>
        <time>2009-09-27T12:40:00Z</time>
      </trkpt>
      <trkpt lat="48.29555" lon="6.98263">
        <ele>446</ele>
        <time>2009-09-27T12:40:04Z</time>
      </trkpt>
      <trkpt lat="48.29547" lon="6.98228">
        <ele>441</ele>
        <time>2009-09-27T12:40:08Z</time>
      </trkpt>
      <trkpt lat="48.29543" lon="6.98191">
        <ele>439</ele>
        <time>2009-09-27T12:40:12Z</time>
      </trkpt>
      <trkpt lat="48.29561" lon="6.98172">
        <ele>440</ele>
        <time>2009-09-27T12:40:17Z</time>
      </trkpt>
      <trkpt lat="48.29576" lon="6.98153">
        <ele>438</ele>
        <time>2009-09-27T12:40:21Z</time>
      </trkpt>
      <trkpt lat="48.29579" lon="6.98141">
        <ele>437</ele>
        <time>2009-09-27T12:40:25Z</time>
      </trkpt>
      <trkpt lat="48.29572" lon="6.98126">
        <ele>435</ele>
        <time>2009-09-27T12:40:29Z</time>
      </trkpt>
      <trkpt lat="48.29567" lon="6.98103">
        <ele>434</ele>
        <time>2009-09-27T12:40:33Z</time>
      </trkpt>
      <trkpt lat="48.29561" lon="6.98075">
        <ele>431</ele>
        <time>2009-09-27T12:40:37Z</time>
      </trkpt>
      <trkpt lat="48.29549" lon="6.98041">
        <ele>429</ele>
        <time>2009-09-27T12:40:41Z</time>
      </trkpt>
      <trkpt lat="48.29549" lon="6.98008">
        <ele>428</ele>
        <time>2009-09-27T12:40:45Z</time>
      </trkpt>
      <trkpt lat="48.29546" lon="6.97976">
        <ele>427</ele>
        <time>2009-09-27T12:40:49Z</time>
      </trkpt>
      <trkpt lat="48.2954" lon="6.97947">
        <ele>427</ele>
        <time>2009-09-27T12:40:53Z</time>
      </trkpt>
      <trkpt lat="48.29533" lon="6.97908">
        <ele>425</ele>
        <time>2009-09-27T12:40:58Z</time>
      </trkpt>
      <trkpt lat="48.29525" lon="6.9788">
        <ele>425</ele>
        <time>2009-09-27T12:41:02Z</time>
      </trkpt>
      <trkpt lat="48.29521" lon="6.97856">
        <ele>424</ele>
        <time>2009-09-27T12:41:06Z</time>
      </trkpt>
      <trkpt lat="48.29521" lon="6.97833">
        <ele>421</ele>
        <time>2009-09-27T12:41:10Z</time>
      </trkpt>
      <trkpt lat="48.29517" lon="6.97814">
        <ele>421</ele>
        <time>2009-09-27T12:41:14Z</time>
      </trkpt>
      <trkpt lat="48.295" lon="6.97795">
        <ele>418</ele>
        <time>2009-09-27T12:41:18Z</time>
      </trkpt>
      <trkpt lat="48.29481" lon="6.97762">
        <ele>417</ele>
        <time>2009-09-27T12:41:22Z</time>
      </trkpt>
      <trkpt lat="48.29464" lon="6.97729">
        <ele>413</ele>
        <time>2009-09-27T12:41:26Z</time>
      </trkpt>
      <trkpt lat="48.29453" lon="6.97707">
        <ele>412</ele>
        <time>2009-09-27T12:41:30Z</time>
      </trkpt>
      <trkpt lat="48.29441" lon="6.9769">
        <ele>411</ele>
        <time>2009-09-27T12:41:34Z</time>
      </trkpt>
      <trkpt lat="48.29429" lon="6.97658">
        <ele>408</ele>
        <time>2009-09-27T12:41:38Z</time>
      </trkpt>
      <trkpt lat="48.29415" lon="6.97606">
        <ele>411</ele>
        <time>2009-09-27T12:41:43Z</time>
      </trkpt>
      <trkpt lat="48.29407" lon="6.97553">
        <ele>408</ele>
        <time>2009-09-27T12:41:47Z</time>
      </trkpt>
      <trkpt lat="48.29407" lon="6.97504">
        <ele>405</ele>
        <time>2009-09-27T12:41:51Z</time>
      </trkpt>
      <trkpt lat="48.29399" lon="6.9747">
        <ele>406</ele>
        <time>2009-09-27T12:41:55Z</time>
      </trkpt>
      <trkpt lat="48.29404" lon="6.97441">
        <ele>406</ele>
        <time>2009-09-27T12:41:59Z</time>
      </trkpt>
      <trkpt lat="48.29415" lon="6.97411">
        <ele>403</ele>
        <time>2009-09-27T12:42:03Z</time>
      </trkpt>
      <trkpt lat="48.29419" lon="6.97388">
        <ele>400</ele>
        <time>2009-09-27T12:42:07Z</time>
      </trkpt>
      <trkpt lat="48.2942" lon="6.97366">
        <ele>400</ele>
        <time>2009-09-27T12:42:11Z</time>
      </trkpt>
      <trkpt lat="48.2942" lon="6.97343">
        <ele>399</ele>
        <time>2009-09-27T12:42:15Z</time>
      </trkpt>
      <trkpt lat="48.29416" lon="6.97311">
        <ele>400</ele>
        <time>2009-09-27T12:42:19Z</time>
      </trkpt>
      <trkpt lat="48.29406" lon="6.97275">
        <ele>398</ele>
        <time>2009-09-27T12:42:24Z</time>
      </trkpt>
      <trkpt lat="48.29395" lon="6.97241">
        <ele>395</ele>
        <time>2009-09-27T12:42:28Z</time>
      </trkpt>
      <trkpt lat="48.29382" lon="6.97199">
        <ele>396</ele>
        <time>2009-09-27T12:42:32Z</time>
      </trkpt>
      <trkpt lat="48.29374" lon="6.97152">
        <ele>394</ele>
        <time>2009-09-27T12:42:36Z</time>
      </trkpt>
      <trkpt lat="48.29369" lon="6.971">
        <ele>394</ele>
        <time>2009-09-27T12:42:40Z</time>
      </trkpt>
      <trkpt lat="48.2936" lon="6.97048">
        <ele>390</ele>
        <time>2009-09-27T12:42:44Z</time>
      </trkpt>
      <trkpt lat="48.2934" lon="6.97003">
        <ele>388</ele>
        <time>2009-09-27T12:42:48Z</time>
      </trkpt>
      <trkpt lat="48.29318" lon="6.96973">
        <ele>387</ele>
        <time>2009-09-27T12:42:52Z</time>
      </trkpt>
      <trkpt lat="48.29285" lon="6.96956">
        <ele>388</ele>
        <time>2009-09-27T12:42:56Z</time>
      </trkpt>
      <trkpt lat="48.29255" lon="6.96945">
        <ele>388</ele>
        <time>2009-09-27T12:43:00Z</time>
      </trkpt>
      <trkpt lat="48.29249" lon="6.96909">
        <ele>389</ele>
        <time>2009-09-27T12:43:04Z</time>
      </trkpt>
      <trkpt lat="48.29274" lon="6.9688">
        <ele>384</ele>
        <time>2009-09-27T12:43:09Z</time>
      </trkpt>
      <trkpt lat="48.29276" lon="6.96816">
        <ele>382</ele>
        <time>2009-09-27T12:43:14Z</time>
      </trkpt>
      <trkpt lat="48.29264" lon="6.96766">
        <ele>380</ele>
        <time>2009-09-27T12:43:18Z</time>
      </trkpt>
      <trkpt lat="48.29254" lon="6.96718">
        <ele>377</ele>
        <time>2009-09-27T12:43:22Z</time>
      </trkpt>
      <trkpt lat="48.29242" lon="6.96675">
        <ele>377</ele>
        <time>2009-09-27T12:43:26Z</time>
      </trkpt>
      <trkpt lat="48.29229" lon="6.96638">
        <ele>375</ele>
        <time>2009-09-27T12:43:30Z</time>
      </trkpt>
      <trkpt lat="48.29214" lon="6.96603">
        <ele>375</ele>
        <time>2009-09-27T12:43:34Z</time>
      </trkpt>
      <trkpt lat="48.29203" lon="6.96566">
        <ele>371</ele>
        <time>2009-09-27T12:43:38Z</time>
      </trkpt>
      <trkpt lat="48.29194" lon="6.96528">
        <ele>370</ele>
        <time>2009-09-27T12:43:42Z</time>
      </trkpt>
      <trkpt lat="48.29186" lon="6.96484">
        <ele>367</ele>
        <time>2009-09-27T12:43:46Z</time>
      </trkpt>
      <trkpt lat="48.29182" lon="6.96437">
        <ele>366</ele>
        <time>2009-09-27T12:43:50Z</time>
      </trkpt>
      <trkpt lat="48.29181" lon="6.96402">
        <ele>366</ele>
        <time>2009-09-27T12:43:54Z</time>
      </trkpt>
      <trkpt lat="48.29204" lon="6.96392">
        <ele>364</ele>
        <time>2009-09-27T12:43:58Z</time>
      </trkpt>
      <trkpt lat="48.29226" lon="6.96384">
        <ele>363</ele>
        <time>2009-09-27T12:44:02Z</time>
      </trkpt>
      <trkpt lat="48.29233" lon="6.96373">
        <ele>363</ele>
        <time>2009-09-27T12:44:06Z</time>
      </trkpt>
      <trkpt lat="48.29231" lon="6.96341">
        <ele>362</ele>
        <time>2009-09-27T12:44:10Z</time>
      </trkpt>
      <trkpt lat="48.29232" lon="6.963">
        <ele>363</ele>
        <time>2009-09-27T12:44:14Z</time>
      </trkpt>
      <trkpt lat="48.29232" lon="6.96248">
        <ele>362</ele>
        <time>2009-09-27T12:44:18Z</time>
      </trkpt>
      <trkpt lat="48.29233" lon="6.96209">
        <ele>362</ele>
        <time>2009-09-27T12:44:23Z</time>
      </trkpt>
      <trkpt lat="48.29234" lon="6.96174">
        <ele>362</ele>
        <time>2009-09-27T12:44:27Z</time>
      </trkpt>
      <trkpt lat="48.29233" lon="6.96144">
        <ele>361</ele>
        <time>2009-09-27T12:44:31Z</time>
      </trkpt>
      <trkpt lat="48.2923" lon="6.96119">
        <ele>361</ele>
        <time>2009-09-27T12:44:35Z</time>
      </trkpt>
      <trkpt lat="48.2922" lon="6.96093">
        <ele>361</ele>
        <time>2009-09-27T12:44:39Z</time>
      </trkpt>
      <trkpt lat="48.29206" lon="6.96062">
        <ele>361</ele>
        <time>2009-09-27T12:44:43Z</time>
      </trkpt>
      <trkpt lat="48.29185" lon="6.96033">
        <ele>360</ele>
        <time>2009-09-27T12:44:47Z</time>
      </trkpt>
      <trkpt lat="48.29162" lon="6.96008">
        <ele>357</ele>
        <time>2009-09-27T12:44:51Z</time>
      </trkpt>
      <trkpt lat="48.29141" lon="6.95982">
        <ele>358</ele>
        <time>2009-09-27T12:44:55Z</time>
      </trkpt>
      <trkpt lat="48.29117" lon="6.95954">
        <ele>358</ele>
        <time>2009-09-27T12:44:59Z</time>
      </trkpt>
      <trkpt lat="48.29094" lon="6.95926">
        <ele>357</ele>
        <time>2009-09-27T12:45:03Z</time>
      </trkpt>
      <trkpt lat="48.29065" lon="6.95897">
        <ele>359</ele>
        <time>2009-09-27T12:45:07Z</time>
      </trkpt>
      <trkpt lat="48.2904" lon="6.95881">
        <ele>360</ele>
        <time>2009-09-27T12:45:12Z</time>
      </trkpt>
      <trkpt lat="48.29013" lon="6.95866">
        <ele>360</ele>
        <time>2009-09-27T12:45:16Z</time>
      </trkpt>
      <trkpt lat="48.28989" lon="6.95846">
        <ele>359</ele>
        <time>2009-09-27T12:45:20Z</time>
      </trkpt>
      <trkpt lat="48.28967" lon="6.95823">
        <ele>359</ele>
        <time>2009-09-27T12:45:24Z</time>
      </trkpt>
      <trkpt lat="48.2895" lon="6.95794">
        <ele>359</ele>
        <time>2009-09-27T12:45:28Z</time>
      </trkpt>
      <trkpt lat="48.28934" lon="6.95764">
        <ele>357</ele>
        <time>2009-09-27T12:45:32Z</time>
      </trkpt>
      <trkpt lat="48.28923" lon="6.95729">
        <ele>359</ele>
        <time>2009-09-27T12:45:36Z</time>
      </trkpt>
      <trkpt lat="48.28912" lon="6.95696">
        <ele>354</ele>
        <time>2009-09-27T12:45:40Z</time>
      </trkpt>
      <trkpt lat="48.28901" lon="6.9566">
        <ele>355</ele>
        <time>2009-09-27T12:45:44Z</time>
      </trkpt>
      <trkpt lat="48.28886" lon="6.9562">
        <ele>354</ele>
        <time>2009-09-27T12:45:48Z</time>
      </trkpt>
      <trkpt lat="48.28857" lon="6.95591">
        <ele>351</ele>
        <time>2009-09-27T12:45:52Z</time>
      </trkpt>
      <trkpt lat="48.28821" lon="6.95594">
        <ele>346</ele>
        <time>2009-09-27T12:45:56Z</time>
      </trkpt>
      <trkpt lat="48.28797" lon="6.95574">
        <ele>345</ele>
        <time>2009-09-27T12:46:00Z</time>
      </trkpt>
      <trkpt lat="48.28784" lon="6.9555">
        <ele>345</ele>
        <time>2009-09-27T12:46:04Z</time>
      </trkpt>
      <trkpt lat="48.28776" lon="6.95537">
        <ele>344</ele>
        <time>2009-09-27T12:46:08Z</time>
      </trkpt>
      <trkpt lat="48.28764" lon="6.95532">
        <ele>344</ele>
        <time>2009-09-27T12:46:12Z</time>
      </trkpt>
      <trkpt lat="48.28751" lon="6.95555">
        <ele>344</ele>
        <time>2009-09-27T12:46:16Z</time>
      </trkpt>
      <trkpt lat="48.28744" lon="6.95588">
        <ele>344</ele>
        <time>2009-09-27T12:46:20Z</time>
      </trkpt>
      <trkpt lat="48.28737" lon="6.95622">
        <ele>344</ele>
        <time>2009-09-27T12:46:24Z</time>
      </trkpt>
      <trkpt lat="48.28735" lon="6.95668">
        <ele>345</ele>
        <time>2009-09-27T12:46:29Z</time>
      </trkpt>
      <trkpt lat="48.28742" lon="6.95708">
        <ele>344</ele>
        <time>2009-09-27T12:46:33Z</time>
      </trkpt>
      <trkpt lat="48.28746" lon="6.9575">
        <ele>345</ele>
        <time>2009-09-27T12:46:37Z</time>
      </trkpt>
      <trkpt lat="48.28745" lon="6.95789">
        <ele>344</ele>
        <time>2009-09-27T12:46:41Z</time>
      </trkpt>
      <trkpt lat="48.28744" lon="6.95825">
        <ele>344</ele>
        <time>2009-09-27T12:46:45Z</time>
      </trkpt>
      <trkpt lat="48.28744" lon="6.95859">
        <ele>345</ele>
        <time>2009-09-27T12:46:49Z</time>
      </trkpt>
      <trkpt lat="48.28743" lon="6.95891">
        <ele>346</ele>
        <time>2009-09-27T12:46:53Z</time>
      </trkpt>
      <trkpt lat="48.28741" lon="6.95924">
        <ele>349</ele>
        <time>2009-09-27T12:46:57Z</time>
      </trkpt>
      <trkpt lat="48.28738" lon="6.95956">
        <ele>349</ele>
        <time>2009-09-27T12:47:01Z</time>
      </trkpt>
      <trkpt lat="48.28734" lon="6.95989">
        <ele>351</ele>
        <time>2009-09-27T12:47:05Z</time>
      </trkpt>
      <trkpt lat="48.28731" lon="6.96022">
        <ele>352</ele>
        <time>2009-09-27T12:47:09Z</time>
      </trkpt>
      <trkpt lat="48.28728" lon="6.96062">
        <ele>352</ele>
        <time>2009-09-27T12:47:13Z</time>
      </trkpt>
      <trkpt lat="48.28727" lon="6.96093">
        <ele>353</ele>
        <time>2009-09-27T12:47:18Z</time>
      </trkpt>
      <trkpt lat="48.28724" lon="6.96122">
        <ele>353</ele>
        <time>2009-09-27T12:47:22Z</time>
      </trkpt>
      <trkpt lat="48.28721" lon="6.9615">
        <ele>354</ele>
        <time>2009-09-27T12:47:26Z</time>
      </trkpt>
      <trkpt lat="48.28718" lon="6.96171">
        <ele>357</ele>
        <time>2009-09-27T12:47:30Z</time>
      </trkpt>
      <trkpt lat="48.28698" lon="6.96172">
        <ele>353</ele>
        <time>2009-09-27T12:47:34Z</time>
      </trkpt>
      <trkpt lat="48.28673" lon="6.9618">
        <ele>349</ele>
        <time>2009-09-27T12:47:38Z</time>
      </trkpt>
      <trkpt lat="48.28645" lon="6.96192">
        <ele>342</ele>
        <time>2009-09-27T12:47:42Z</time>
      </trkpt>
      <trkpt lat="48.2862" lon="6.96205">
        <ele>342</ele>
        <time>2009-09-27T12:47:46Z</time>
      </trkpt>
      <trkpt lat="48.28598" lon="6.96216">
        <ele>342</ele>
        <time>2009-09-27T12:47:50Z</time>
      </trkpt>
      <trkpt lat="48.28579" lon="6.96227">
        <ele>341</ele>
        <time>2009-09-27T12:47:54Z</time>
      </trkpt>
      <trkpt lat="48.28571" lon="6.96236">
        <ele>341</ele>
        <time>2009-09-27T12:47:58Z</time>
      </trkpt>
      <trkpt lat="48.28574" lon="6.96259">
        <ele>341</ele>
        <time>2009-09-27T12:48:02Z</time>
      </trkpt>
      <trkpt lat="48.2858" lon="6.96285">
        <ele>341</ele>
        <time>2009-09-27T12:48:06Z</time>
      </trkpt>
      <trkpt lat="48.28587" lon="6.96313">
        <ele>341</ele>
        <time>2009-09-27T12:48:10Z</time>
      </trkpt>
      <trkpt lat="48.28594" lon="6.96342">
        <ele>341</ele>
        <time>2009-09-27T12:48:14Z</time>
      </trkpt>
      <trkpt lat="48.28603" lon="6.96374">
        <ele>342</ele>
        <time>2009-09-27T12:48:18Z</time>
      </trkpt>
      <trkpt lat="48.28611" lon="6.96405">
        <ele>342</ele>
        <time>2009-09-27T12:48:22Z</time>
      </trkpt>
      <trkpt lat="48.2862" lon="6.96445">
        <ele>343</ele>
        <time>2009-09-27T12:48:26Z</time>
      </trkpt>
      <trkpt lat="48.28624" lon="6.96474">
        <ele>344</ele>
        <time>2009-09-27T12:48:31Z</time>
      </trkpt>
      <trkpt lat="48.28626" lon="6.96504">
        <ele>345</ele>
        <time>2009-09-27T12:48:35Z</time>
      </trkpt>
      <trkpt lat="48.28627" lon="6.96529">
        <ele>345</ele>
        <time>2009-09-27T12:48:39Z</time>
      </trkpt>
      <trkpt lat="48.2862" lon="6.96543">
        <ele>345</ele>
        <time>2009-09-27T12:48:43Z</time>
      </trkpt>
      <trkpt lat="48.28603" lon="6.9654">
        <ele>344</ele>
        <time>2009-09-27T12:48:47Z</time>
      </trkpt>
      <trkpt lat="48.28588" lon="6.96543">
        <ele>343</ele>
        <time>2009-09-27T12:48:51Z</time>
      </trkpt>
      <trkpt lat="48.2858" lon="6.96569">
        <ele>341</ele>
        <time>2009-09-27T12:48:55Z</time>
      </trkpt>
      <trkpt lat="48.28574" lon="6.96598">
        <ele>341</ele>
        <time>2009-09-27T12:48:59Z</time>
      </trkpt>
      <trkpt lat="48.28567" lon="6.96628">
        <ele>341</ele>
        <time>2009-09-27T12:49:03Z</time>
      </trkpt>
      <trkpt lat="48.28561" lon="6.96656">
        <ele>341</ele>
        <time>2009-09-27T12:49:07Z</time>
      </trkpt>
      <trkpt lat="48.28555" lon="6.96685">
        <ele>340</ele>
        <time>2009-09-27T12:49:11Z</time>
      </trkpt>
      <trkpt lat="48.2855" lon="6.96715">
        <ele>340</ele>
        <time>2009-09-27T12:49:15Z</time>
      </trkpt>
      <trkpt lat="48.28544" lon="6.9674">
        <ele>340</ele>
        <time>2009-09-27T12:49:19Z</time>
      </trkpt>
      <trkpt lat="48.28535" lon="6.96766">
        <ele>341</ele>
        <time>2009-09-27T12:49:23Z</time>
      </trkpt>
      <trkpt lat="48.28524" lon="6.96798">
        <ele>341</ele>
        <time>2009-09-27T12:49:28Z</time>
      </trkpt>
      <trkpt lat="48.28509" lon="6.96812">
        <ele>342</ele>
        <time>2009-09-27T12:49:32Z</time>
      </trkpt>
      <trkpt lat="48.2849" lon="6.96813">
        <ele>342</ele>
        <time>2009-09-27T12:49:36Z</time>
      </trkpt>
      <trkpt lat="48.28478" lon="6.96809">
        <ele>342</ele>
        <time>2009-09-27T12:49:40Z</time>
      </trkpt>
      <trkpt lat="48.28461" lon="6.96806">
        <ele>342</ele>
        <time>2009-09-27T12:49:44Z</time>
      </trkpt>
      <trkpt lat="48.28443" lon="6.968">
        <ele>342</ele>
        <time>2009-09-27T12:49:48Z</time>
      </trkpt>
      <trkpt lat="48.28424" lon="6.96796">
        <ele>342</ele>
        <time>2009-09-27T12:49:52Z</time>
      </trkpt>
      <trkpt lat="48.28404" lon="6.96792">
        <ele>343</ele>
        <time>2009-09-27T12:49:56Z</time>
      </trkpt>
      <trkpt lat="48.28385" lon="6.96787">
        <ele>344</ele>
        <time>2009-09-27T12:50:00Z</time>
      </trkpt>
      <trkpt lat="48.28365" lon="6.96783">
        <ele>344</ele>
        <time>2009-09-27T12:50:04Z</time>
      </trkpt>
      <trkpt lat="48.28345" lon="6.96779">
        <ele>344</ele>
        <time>2009-09-27T12:50:08Z</time>
      </trkpt>
      <trkpt lat="48.28321" lon="6.9678">
        <ele>345</ele>
        <time>2009-09-27T12:50:13Z</time>
      </trkpt>
      <trkpt lat="48.28307" lon="6.96793">
        <ele>346</ele>
        <time>2009-09-27T12:50:17Z</time>
      </trkpt>
      <trkpt lat="48.28289" lon="6.96806">
        <ele>346</ele>
        <time>2009-09-27T12:50:21Z</time>
      </trkpt>
      <trkpt lat="48.28273" lon="6.96819">
        <ele>346</ele>
        <time>2009-09-27T12:50:25Z</time>
      </trkpt>
      <trkpt lat="48.28259" lon="6.96833">
        <ele>347</ele>
        <time>2009-09-27T12:50:29Z</time>
      </trkpt>
      <trkpt lat="48.28247" lon="6.96841">
        <ele>346</ele>
        <time>2009-09-27T12:50:33Z</time>
      </trkpt>
      <trkpt lat="48.28241" lon="6.96848">
        <ele>346</ele>
        <time>2009-09-27T12:50:37Z</time>
      </trkpt>
      <trkpt lat="48.28246" lon="6.96865">
        <ele>346</ele>
        <time>2009-09-27T12:50:41Z</time>
      </trkpt>
      <trkpt lat="48.28253" lon="6.96883">
        <ele>346</ele>
        <time>2009-09-27T12:50:45Z</time>
      </trkpt>
      <trkpt lat="48.2826" lon="6.96896">
        <ele>346</ele>
        <time>2009-09-27T12:50:49Z</time>
      </trkpt>
      <trkpt lat="48.28265" lon="6.96908">
        <ele>346</ele>
        <time>2009-09-27T12:50:53Z</time>
      </trkpt>
      <trkpt lat="48.28273" lon="6.96921">
        <ele>345</ele>
        <time>2009-09-27T12:50:57Z</time>
      </trkpt>
      <trkpt lat="48.28279" lon="6.96933">
        <ele>344</ele>
        <time>2009-09-27T12:51:01Z</time>
      </trkpt>
      <trkpt lat="48.28285" lon="6.96935">
        <ele>344</ele>
        <time>2009-09-27T12:51:05Z</time>
      </trkpt>
      <trkpt lat="48.28285" lon="6.96934">
        <ele>344</ele>
        <time>2009-09-27T12:51:09Z</time>
      </trkpt>
      <trkpt lat="48.28286" lon="6.96933">
        <ele>344</ele>
        <time>2009-09-27T12:51:13Z</time>
      </trkpt>
      <trkpt lat="48.28287" lon="6.96933">
        <ele>344</ele>
        <time>2009-09-27T12:51:17Z</time>
      </trkpt>
      <trkpt lat="48.28287" lon="6.96933">
        <ele>344</ele>
        <time>2009-09-27T12:51:21Z</time>
      </trkpt>
      <trkpt lat="48.28288" lon="6.96932">
        <ele>344</ele>
        <time>2009-09-27T12:51:26Z</time>
      </trkpt>
      <trkpt lat="48.28288" lon="6.96932">
        <ele>344</ele>
        <time>2009-09-27T12:51:30Z</time>
      </trkpt>
      <trkpt lat="48.28288" lon="6.96935">
        <ele>344</ele>
        <time>2009-09-27T12:51:35Z</time>
      </trkpt>
      <trkpt lat="48.28285" lon="6.96941">
        <ele>344</ele>
        <time>2009-09-27T12:51:39Z</time>
      </trkpt>
      <trkpt lat="48.28282" lon="6.96942">
        <ele>344</ele>
        <time>2009-09-27T12:51:43Z</time>
      </trkpt>
      <trkpt lat="48.28279" lon="6.96945">
        <ele>344</ele>
        <time>2009-09-27T12:51:47Z</time>
      </trkpt>
      <trkpt lat="48.28292" lon="6.96924">
        <ele>345</ele>
        <time>2009-09-27T12:53:03Z</time>
      </trkpt>
      <trkpt lat="48.28293" lon="6.96923">
        <ele>345</ele>
        <time>2009-09-27T12:53:07Z</time>
      </trkpt>
      <trkpt lat="48.28291" lon="6.96928">
        <ele>344</ele>
        <time>2009-09-27T12:53:11Z</time>
      </trkpt>
      <trkpt lat="48.28289" lon="6.96932">
        <ele>344</ele>
        <time>2009-09-27T12:53:15Z</time>
      </trkpt>
      <trkpt lat="48.2829" lon="6.96932">
        <ele>344</ele>
        <time>2009-09-27T12:53:19Z</time>
      </trkpt>
      <trkpt lat="48.28291" lon="6.96931">
        <ele>344</ele>
        <time>2009-09-27T12:53:23Z</time>
      </trkpt>
      <trkpt lat="48.28292" lon="6.96928">
        <ele>344</ele>
        <time>2009-09-27T12:53:27Z</time>
      </trkpt>
      <trkpt lat="48.28289" lon="6.96924">
        <ele>344</ele>
        <time>2009-09-27T12:53:31Z</time>
      </trkpt>
      <trkpt lat="48.28286" lon="6.96915">
        <ele>346</ele>
        <time>2009-09-27T12:53:35Z</time>
      </trkpt>
      <trkpt lat="48.2828" lon="6.96906">
        <ele>346</ele>
        <time>2009-09-27T12:53:40Z</time>
      </trkpt>
      <trkpt lat="48.28276" lon="6.96894">
        <ele>346</ele>
        <time>2009-09-27T12:53:44Z</time>
      </trkpt>
      <trkpt lat="48.2827" lon="6.96882">
        <ele>346</ele>
        <time>2009-09-27T12:53:48Z</time>
      </trkpt>
      <trkpt lat="48.28263" lon="6.96869">
        <ele>346</ele>
        <time>2009-09-27T12:53:52Z</time>
      </trkpt>
      <trkpt lat="48.28255" lon="6.96856">
        <ele>346</ele>
        <time>2009-09-27T12:53:56Z</time>
      </trkpt>
      <trkpt lat="48.28249" lon="6.9684">
        <ele>347</ele>
        <time>2009-09-27T12:54:00Z</time>
      </trkpt>
      <trkpt lat="48.28244" lon="6.96826">
        <ele>347</ele>
        <time>2009-09-27T12:54:04Z</time>
      </trkpt>
      <trkpt lat="48.28239" lon="6.96813">
        <ele>346</ele>
        <time>2009-09-27T12:54:08Z</time>
      </trkpt>
      <trkpt lat="48.28234" lon="6.96801">
        <ele>346</ele>
        <time>2009-09-27T12:54:12Z</time>
      </trkpt>
      <trkpt lat="48.28229" lon="6.96791">
        <ele>346</ele>
        <time>2009-09-27T12:54:16Z</time>
      </trkpt>
      <trkpt lat="48.28222" lon="6.9678">
        <ele>346</ele>
        <time>2009-09-27T12:54:20Z</time>
      </trkpt>
      <trkpt lat="48.28218" lon="6.96771">
        <ele>346</ele>
        <time>2009-09-27T12:54:24Z</time>
      </trkpt>
      <trkpt lat="48.28215" lon="6.96763">
        <ele>346</ele>
        <time>2009-09-27T12:54:28Z</time>
      </trkpt>
      <trkpt lat="48.28217" lon="6.9674">
        <ele>346</ele>
        <time>2009-09-27T12:54:33Z</time>
      </trkpt>
      <trkpt lat="48.28218" lon="6.9672">
        <ele>346</ele>
        <time>2009-09-27T12:54:38Z</time>
      </trkpt>
      <trkpt lat="48.28219" lon="6.96707">
        <ele>346</ele>
        <time>2009-09-27T12:54:42Z</time>
      </trkpt>
      <trkpt lat="48.28217" lon="6.96697">
        <ele>346</ele>
        <time>2009-09-27T12:54:46Z</time>
      </trkpt>
      <trkpt lat="48.28221" lon="6.96683">
        <ele>346</ele>
        <time>2009-09-27T12:54:50Z</time>
      </trkpt>
      <trkpt lat="48.28225" lon="6.96663">
        <ele>346</ele>
        <time>2009-09-27T12:54:54Z</time>
      </trkpt>
      <trkpt lat="48.2823" lon="6.96642">
        <ele>346</ele>
        <time>2009-09-27T12:54:58Z</time>
      </trkpt>
      <trkpt lat="48.28234" lon="6.96625">
        <ele>345</ele>
        <time>2009-09-27T12:55:02Z</time>
      </trkpt>
      <trkpt lat="48.28227" lon="6.96622">
        <ele>345</ele>
        <time>2009-09-27T12:55:06Z</time>
      </trkpt>
      <trkpt lat="48.2822" lon="6.96633">
        <ele>346</ele>
        <time>2009-09-27T12:55:10Z</time>
      </trkpt>
      <trkpt lat="48.28215" lon="6.96636">
        <ele>346</ele>
        <time>2009-09-27T12:55:14Z</time>
      </trkpt>
      <trkpt lat="48.28215" lon="6.96636">
        <ele>346</ele>
        <time>2009-09-27T12:55:18Z</time>
      </trkpt>
      <trkpt lat="48.28215" lon="6.96635">
        <ele>346</ele>
        <time>2009-09-27T12:55:22Z</time>
      </trkpt>
      <trkpt lat="48.28214" lon="6.96636">
        <ele>346</ele>
        <time>2009-09-27T12:55:27Z</time>
      </trkpt>
      <trkpt lat="48.28214" lon="6.96636">
        <ele>346</ele>
        <time>2009-09-27T12:55:31Z</time>
      </trkpt>
      <trkpt lat="48.28214" lon="6.96636">
        <ele>346</ele>
        <time>2009-09-27T12:55:35Z</time>
      </trkpt>
      <trkpt lat="48.28214" lon="6.96636">
        <ele>346</ele>
        <time>2009-09-27T12:55:39Z</time>
      </trkpt>
      <trkpt lat="48.28213" lon="6.96635">
        <ele>346</ele>
        <time>2009-09-27T12:55:43Z</time>
      </trkpt>
      <trkpt lat="48.28212" lon="6.96636">
        <ele>346</ele>
        <time>2009-09-27T12:55:47Z</time>
      </trkpt>
      <trkpt lat="48.28213" lon="6.96636">
        <ele>346</ele>
        <time>2009-09-27T12:55:51Z</time>
      </trkpt>
      <trkpt lat="48.28214" lon="6.96636">
        <ele>346</ele>
        <time>2009-09-27T12:55:55Z</time>
      </trkpt>
      <trkpt lat="48.28212" lon="6.96638">
        <ele>346</ele>
        <time>2009-09-27T12:55:59Z</time>
      </trkpt>
      <trkpt lat="48.2821" lon="6.96639">
        <ele>346</ele>
        <time>2009-09-27T12:56:03Z</time>
      </trkpt>
      <trkpt lat="48.28209" lon="6.96639">
        <ele>346</ele>
        <time>2009-09-27T12:56:07Z</time>
      </trkpt>
      <trkpt lat="48.28209" lon="6.96639">
        <ele>346</ele>
        <time>2009-09-27T12:56:11Z</time>
      </trkpt>
      <trkpt lat="48.28208" lon="6.9664">
        <ele>346</ele>
        <time>2009-09-27T12:56:16Z</time>
      </trkpt>
      <trkpt lat="48.28207" lon="6.9664">
        <ele>346</ele>
        <time>2009-09-27T12:56:20Z</time>
      </trkpt>
      <trkpt lat="48.28208" lon="6.9664">
        <ele>346</ele>
        <time>2009-09-27T12:56:24Z</time>
      </trkpt>
      <trkpt lat="48.28209" lon="6.9664">
        <ele>346</ele>
        <time>2009-09-27T12:56:28Z</time>
      </trkpt>
      <trkpt lat="48.2821" lon="6.9664">
        <ele>346</ele>
        <time>2009-09-27T12:56:32Z</time>
      </trkpt>
      <trkpt lat="48.28211" lon="6.96639">
        <ele>346</ele>
        <time>2009-09-27T12:56:36Z</time>
      </trkpt>
      <trkpt lat="48.28211" lon="6.96639">
        <ele>346</ele>
        <time>2009-09-27T12:56:40Z</time>
      </trkpt>
      <trkpt lat="48.28213" lon="6.96638">
        <ele>346</ele>
        <time>2009-09-27T12:56:44Z</time>
      </trkpt>
      <trkpt lat="48.28214" lon="6.96638">
        <ele>346</ele>
        <time>2009-09-27T12:56:49Z</time>
      </trkpt>
      <trkpt lat="48.28214" lon="6.96638">
        <ele>346</ele>
        <time>2009-09-27T12:56:53Z</time>
      </trkpt>
      <trkpt lat="48.28213" lon="6.96638">
        <ele>346</ele>
        <time>2009-09-27T12:56:57Z</time>
      </trkpt>
      <trkpt lat="48.28212" lon="6.96639">
        <ele>346</ele>
        <time>2009-09-27T12:57:01Z</time>
      </trkpt>
      <trkpt lat="48.28212" lon="6.96639">
        <ele>346</ele>
        <time>2009-09-27T12:57:05Z</time>
      </trkpt>
      <trkpt lat="48.28212" lon="6.96639">
        <ele>346</ele>
        <time>2009-09-27T12:57:09Z</time>
      </trkpt>
      <trkpt lat="48.28212" lon="6.96639">
        <ele>346</ele>
        <time>2009-09-27T12:57:13Z</time>
      </trkpt>
      <trkpt lat="48.28214" lon="6.96639">
        <ele>346</ele>
        <time>2009-09-27T12:57:17Z</time>
      </trkpt>
      <trkpt lat="48.28215" lon="6.96639">
        <ele>346</ele>
        <time>2009-09-27T12:57:21Z</time>
      </trkpt>
      <trkpt lat="48.28215" lon="6.96639">
        <ele>346</ele>
        <time>2009-09-27T12:57:25Z</time>
      </trkpt>
      <trkpt lat="48.28214" lon="6.96639">
        <ele>346</ele>
        <time>2009-09-27T12:57:29Z</time>
      </trkpt>
      <trkpt lat="48.28213" lon="6.96638">
        <ele>346</ele>
        <time>2009-09-27T12:57:34Z</time>
      </trkpt>
      <trkpt lat="48.28213" lon="6.96638">
        <ele>346</ele>
        <time>2009-09-27T12:57:38Z</time>
      </trkpt>
      <trkpt lat="48.28212" lon="6.96638">
        <ele>346</ele>
        <time>2009-09-27T12:57:42Z</time>
      </trkpt>
      <trkpt lat="48.28212" lon="6.96638">
        <ele>346</ele>
        <time>2009-09-27T12:57:46Z</time>
      </trkpt>
      <trkpt lat="48.28212" lon="6.96638">
        <ele>346</ele>
        <time>2009-09-27T12:57:50Z</time>
      </trkpt>
      <trkpt lat="48.28211" lon="6.96638">
        <ele>346</ele>
        <time>2009-09-27T12:57:54Z</time>
      </trkpt>
      <trkpt lat="48.28211" lon="6.96638">
        <ele>346</ele>
        <time>2009-09-27T12:57:58Z</time>
      </trkpt>
      <trkpt lat="48.28211" lon="6.96639">
        <ele>346</ele>
        <time>2009-09-27T12:58:02Z</time>
      </trkpt>
      <trkpt lat="48.28211" lon="6.96639">
        <ele>346</ele>
        <time>2009-09-27T12:58:06Z</time>
      </trkpt>
      <trkpt lat="48.2821" lon="6.96639">
        <ele>346</ele>
        <time>2009-09-27T12:58:10Z</time>
      </trkpt>
      <trkpt lat="48.28211" lon="6.96639">
        <ele>346</ele>
        <time>2009-09-27T12:58:14Z</time>
      </trkpt>
      <trkpt lat="48.28211" lon="6.96639">
        <ele>346</ele>
        <time>2009-09-27T12:58:19Z</time>
      </trkpt>
      <trkpt lat="48.28212" lon="6.96639">
        <ele>346</ele>
        <time>2009-09-27T12:58:23Z</time>
      </trkpt>
      <trkpt lat="48.28212" lon="6.96639">
        <ele>346</ele>
        <time>2009-09-27T12:58:27Z</time>
      </trkpt>
      <trkpt lat="48.28213" lon="6.96639">
        <ele>346</ele>
        <time>2009-09-27T12:58:31Z</time>
      </trkpt>
      <trkpt lat="48.28212" lon="6.96639">
        <ele>346</ele>
        <time>2009-09-27T12:58:35Z</time>
      </trkpt>
      <trkpt lat="48.28211" lon="6.9664">
        <ele>346</ele>
        <time>2009-09-27T12:58:39Z</time>
      </trkpt>
      <trkpt lat="48.28211" lon="6.9664">
        <ele>346</ele>
        <time>2009-09-27T12:58:43Z</time>
      </trkpt>
      <trkpt lat="48.28212" lon="6.9664">
        <ele>346</ele>
        <time>2009-09-27T12:58:47Z</time>
      </trkpt>
      <trkpt lat="48.28212" lon="6.96639">
        <ele>346</ele>
        <time>2009-09-27T12:58:51Z</time>
      </trkpt>
      <trkpt lat="48.28213" lon="6.96639">
        <ele>346</ele>
        <time>2009-09-27T12:58:55Z</time>
      </trkpt>
      <trkpt lat="48.28213" lon="6.96639">
        <ele>346</ele>
        <time>2009-09-27T12:58:59Z</time>
      </trkpt>
      <trkpt lat="48.28214" lon="6.96639">
        <ele>346</ele>
        <time>2009-09-27T12:59:03Z</time>
      </trkpt>
      <trkpt lat="48.28214" lon="6.96639">
        <ele>346</ele>
        <time>2009-09-27T12:59:07Z</time>
      </trkpt>
      <trkpt lat="48.28213" lon="6.96639">
        <ele>346</ele>
        <time>2009-09-27T12:59:11Z</time>
      </trkpt>
      <trkpt lat="48.28212" lon="6.96639">
        <ele>346</ele>
        <time>2009-09-27T12:59:15Z</time>
      </trkpt>
      <trkpt lat="48.28211" lon="6.96639">
        <ele>346</ele>
        <time>2009-09-27T12:59:19Z</time>
      </trkpt>
      <trkpt lat="48.28211" lon="6.9664">
        <ele>346</ele>
        <time>2009-09-27T12:59:23Z</time>
      </trkpt>
      <trkpt lat="48.28212" lon="6.9664">
        <ele>346</ele>
        <time>2009-09-27T12:59:27Z</time>
      </trkpt>
      <trkpt lat="48.28212" lon="6.96639">
        <ele>346</ele>
        <time>2009-09-27T12:59:32Z</time>
      </trkpt>
      <trkpt lat="48.28212" lon="6.96639">
        <ele>346</ele>
        <time>2009-09-27T12:59:36Z</time>
      </trkpt>
    </trkseg>
  </trk>
</gpx>